<?xml version="1.0" encoding="UTF-8" standalone="no" ?>
<gpx xmlns="http://www.topografix.com/GPX/1/1" xmlns:xsi="http://www.w3.org/2001/XMLSchema-instance" xsi:schemaLocation="http://www.topografix.com/GPX/1/1 http://www.topografix.com/GPX/1/1/gpx.xsd" version="1.1" creator="VisuGPX - https://www.visugpx.com">
  <metadata>
    <name>Auzat</name>
  </metadata>
  <trk>
    <name><![CDATA[Auzat Marche à pied_1]]></name>
    <desc><![CDATA[]]></desc>
    <extensions>
      <line xmlns="http://www.topografix.com/GPX/gpx_style/0/2">
        <color>00FF00</color>
        <width>4</width>
      </line>
    </extensions>
    <trkseg>
      <trkpt lat="42.70819" lon="1.45023">
        <ele>1118.6</ele>
        <time>2024-07-08T07:28:06Z</time>
      </trkpt>
      <trkpt lat="42.70819" lon="1.45023">
        <ele>1118.4</ele>
        <time>2024-07-08T07:28:13Z</time>
      </trkpt>
      <trkpt lat="42.708" lon="1.45053">
        <ele>1099.4</ele>
        <time>2024-07-08T07:31:19Z</time>
      </trkpt>
      <trkpt lat="42.70798" lon="1.45058">
        <ele>1099</ele>
        <time>2024-07-08T07:31:22Z</time>
      </trkpt>
      <trkpt lat="42.70792" lon="1.45065">
        <ele>1098.6</ele>
        <time>2024-07-08T07:31:30Z</time>
      </trkpt>
      <trkpt lat="42.70782" lon="1.45073">
        <ele>1096.8</ele>
        <time>2024-07-08T07:31:41Z</time>
      </trkpt>
      <trkpt lat="42.70781" lon="1.45073">
        <ele>1096.6</ele>
        <time>2024-07-08T07:31:42Z</time>
      </trkpt>
      <trkpt lat="42.70776" lon="1.45069">
        <ele>1096.2</ele>
        <time>2024-07-08T07:31:45Z</time>
      </trkpt>
      <trkpt lat="42.70775" lon="1.45069">
        <ele>1096</ele>
        <time>2024-07-08T07:31:46Z</time>
      </trkpt>
      <trkpt lat="42.70767" lon="1.45069">
        <ele>1094.8</ele>
        <time>2024-07-08T07:31:53Z</time>
      </trkpt>
      <trkpt lat="42.70758" lon="1.45069">
        <ele>1094.8</ele>
        <time>2024-07-08T07:32:01Z</time>
      </trkpt>
      <trkpt lat="42.70751" lon="1.45067">
        <ele>1099</ele>
        <time>2024-07-08T07:32:09Z</time>
      </trkpt>
      <trkpt lat="42.70741" lon="1.4506">
        <ele>1104</ele>
        <time>2024-07-08T07:32:21Z</time>
      </trkpt>
      <trkpt lat="42.70735" lon="1.45053">
        <ele>1104.2</ele>
        <time>2024-07-08T07:32:31Z</time>
      </trkpt>
      <trkpt lat="42.70735" lon="1.45051">
        <ele>1104.2</ele>
        <time>2024-07-08T07:32:32Z</time>
      </trkpt>
      <trkpt lat="42.70732" lon="1.4505">
        <ele>1104.6</ele>
        <time>2024-07-08T07:32:36Z</time>
      </trkpt>
      <trkpt lat="42.70727" lon="1.45044">
        <ele>1108.6</ele>
        <time>2024-07-08T07:32:45Z</time>
      </trkpt>
      <trkpt lat="42.7072" lon="1.45038">
        <ele>1108.6</ele>
        <time>2024-07-08T07:32:53Z</time>
      </trkpt>
      <trkpt lat="42.70717" lon="1.45035">
        <ele>1108</ele>
        <time>2024-07-08T07:32:56Z</time>
      </trkpt>
      <trkpt lat="42.70713" lon="1.45032">
        <ele>1105.8</ele>
        <time>2024-07-08T07:33:00Z</time>
      </trkpt>
      <trkpt lat="42.70701" lon="1.45029">
        <ele>1101.8</ele>
        <time>2024-07-08T07:33:11Z</time>
      </trkpt>
      <trkpt lat="42.70697" lon="1.4503">
        <ele>1102.8</ele>
        <time>2024-07-08T07:33:13Z</time>
      </trkpt>
      <trkpt lat="42.70693" lon="1.4503">
        <ele>1106.8</ele>
        <time>2024-07-08T07:33:17Z</time>
      </trkpt>
      <trkpt lat="42.70683" lon="1.45031">
        <ele>1109.2</ele>
        <time>2024-07-08T07:33:28Z</time>
      </trkpt>
      <trkpt lat="42.70681" lon="1.4503">
        <ele>1109</ele>
        <time>2024-07-08T07:33:30Z</time>
      </trkpt>
      <trkpt lat="42.70678" lon="1.45031">
        <ele>1109.6</ele>
        <time>2024-07-08T07:33:34Z</time>
      </trkpt>
      <trkpt lat="42.70678" lon="1.45037">
        <ele>1109.6</ele>
        <time>2024-07-08T07:33:42Z</time>
      </trkpt>
      <trkpt lat="42.70678" lon="1.45042">
        <ele>1110</ele>
        <time>2024-07-08T07:33:49Z</time>
      </trkpt>
      <trkpt lat="42.70675" lon="1.45052">
        <ele>1112.8</ele>
        <time>2024-07-08T07:33:57Z</time>
      </trkpt>
      <trkpt lat="42.7068" lon="1.45059">
        <ele>1114.8</ele>
        <time>2024-07-08T07:34:03Z</time>
      </trkpt>
      <trkpt lat="42.70678" lon="1.45066">
        <ele>1118.2</ele>
        <time>2024-07-08T07:34:10Z</time>
      </trkpt>
      <trkpt lat="42.70675" lon="1.45069">
        <ele>1119.2</ele>
        <time>2024-07-08T07:34:16Z</time>
      </trkpt>
      <trkpt lat="42.70671" lon="1.4507">
        <ele>1119</ele>
        <time>2024-07-08T07:34:24Z</time>
      </trkpt>
      <trkpt lat="42.70668" lon="1.45073">
        <ele>1120.6</ele>
        <time>2024-07-08T07:34:30Z</time>
      </trkpt>
      <trkpt lat="42.70668" lon="1.45077">
        <ele>1121</ele>
        <time>2024-07-08T07:34:36Z</time>
      </trkpt>
      <trkpt lat="42.70664" lon="1.45081">
        <ele>1123.2</ele>
        <time>2024-07-08T07:34:44Z</time>
      </trkpt>
      <trkpt lat="42.70661" lon="1.45089">
        <ele>1125.6</ele>
        <time>2024-07-08T07:34:52Z</time>
      </trkpt>
      <trkpt lat="42.70658" lon="1.45095">
        <ele>1127.2</ele>
        <time>2024-07-08T07:34:58Z</time>
      </trkpt>
      <trkpt lat="42.70659" lon="1.451">
        <ele>1127.6</ele>
        <time>2024-07-08T07:35:04Z</time>
      </trkpt>
      <trkpt lat="42.7066" lon="1.45106">
        <ele>1127</ele>
        <time>2024-07-08T07:35:11Z</time>
      </trkpt>
      <trkpt lat="42.70662" lon="1.45113">
        <ele>1127.8</ele>
        <time>2024-07-08T07:35:19Z</time>
      </trkpt>
      <trkpt lat="42.70663" lon="1.45121">
        <ele>1132.4</ele>
        <time>2024-07-08T07:35:26Z</time>
      </trkpt>
      <trkpt lat="42.70662" lon="1.45126">
        <ele>1135.8</ele>
        <time>2024-07-08T07:35:31Z</time>
      </trkpt>
      <trkpt lat="42.70662" lon="1.45128">
        <ele>1137.6</ele>
        <time>2024-07-08T07:35:37Z</time>
      </trkpt>
      <trkpt lat="42.70661" lon="1.45134">
        <ele>1138.6</ele>
        <time>2024-07-08T07:35:45Z</time>
      </trkpt>
      <trkpt lat="42.70661" lon="1.45143">
        <ele>1141.4</ele>
        <time>2024-07-08T07:35:52Z</time>
      </trkpt>
      <trkpt lat="42.70662" lon="1.45151">
        <ele>1145.6</ele>
        <time>2024-07-08T07:35:59Z</time>
      </trkpt>
      <trkpt lat="42.70665" lon="1.45151">
        <ele>1148.6</ele>
        <time>2024-07-08T07:36:06Z</time>
      </trkpt>
      <trkpt lat="42.70669" lon="1.45148">
        <ele>1150.8</ele>
        <time>2024-07-08T07:36:13Z</time>
      </trkpt>
      <trkpt lat="42.70671" lon="1.4515">
        <ele>1151.6</ele>
        <time>2024-07-08T07:36:18Z</time>
      </trkpt>
      <trkpt lat="42.70671" lon="1.45158">
        <ele>1150.8</ele>
        <time>2024-07-08T07:36:26Z</time>
      </trkpt>
      <trkpt lat="42.7067" lon="1.45156">
        <ele>1150</ele>
        <time>2024-07-08T07:36:35Z</time>
      </trkpt>
      <trkpt lat="42.7067" lon="1.45156">
        <ele>1149.4</ele>
        <time>2024-07-08T07:36:43Z</time>
      </trkpt>
      <trkpt lat="42.70668" lon="1.45154">
        <ele>1148.6</ele>
        <time>2024-07-08T07:36:50Z</time>
      </trkpt>
      <trkpt lat="42.7067" lon="1.45156">
        <ele>1148.2</ele>
        <time>2024-07-08T07:36:55Z</time>
      </trkpt>
      <trkpt lat="42.7067" lon="1.45156">
        <ele>1147.6</ele>
        <time>2024-07-08T07:37:02Z</time>
      </trkpt>
      <trkpt lat="42.70672" lon="1.45158">
        <ele>1146</ele>
        <time>2024-07-08T07:37:09Z</time>
      </trkpt>
      <trkpt lat="42.70674" lon="1.45159">
        <ele>1144.4</ele>
        <time>2024-07-08T07:37:14Z</time>
      </trkpt>
      <trkpt lat="42.70673" lon="1.45161">
        <ele>1145.6</ele>
        <time>2024-07-08T07:37:26Z</time>
      </trkpt>
      <trkpt lat="42.70672" lon="1.4516">
        <ele>1147.4</ele>
        <time>2024-07-08T07:37:33Z</time>
      </trkpt>
      <trkpt lat="42.70672" lon="1.4516">
        <ele>1150</ele>
        <time>2024-07-08T07:37:44Z</time>
      </trkpt>
      <trkpt lat="42.70673" lon="1.45163">
        <ele>1151.8</ele>
        <time>2024-07-08T07:37:52Z</time>
      </trkpt>
      <trkpt lat="42.70674" lon="1.45172">
        <ele>1152.6</ele>
        <time>2024-07-08T07:37:58Z</time>
      </trkpt>
      <trkpt lat="42.70673" lon="1.45172">
        <ele>1152.8</ele>
        <time>2024-07-08T07:37:59Z</time>
      </trkpt>
      <trkpt lat="42.70673" lon="1.45178">
        <ele>1154</ele>
        <time>2024-07-08T07:38:05Z</time>
      </trkpt>
      <trkpt lat="42.70673" lon="1.45186">
        <ele>1153.8</ele>
        <time>2024-07-08T07:38:12Z</time>
      </trkpt>
      <trkpt lat="42.70673" lon="1.45193">
        <ele>1154</ele>
        <time>2024-07-08T07:38:19Z</time>
      </trkpt>
      <trkpt lat="42.70674" lon="1.45197">
        <ele>1155.8</ele>
        <time>2024-07-08T07:38:25Z</time>
      </trkpt>
      <trkpt lat="42.70675" lon="1.45207">
        <ele>1157</ele>
        <time>2024-07-08T07:38:34Z</time>
      </trkpt>
      <trkpt lat="42.70677" lon="1.45213">
        <ele>1159.4</ele>
        <time>2024-07-08T07:38:40Z</time>
      </trkpt>
      <trkpt lat="42.70678" lon="1.45221">
        <ele>1162.6</ele>
        <time>2024-07-08T07:38:48Z</time>
      </trkpt>
      <trkpt lat="42.70678" lon="1.45225">
        <ele>1163.2</ele>
        <time>2024-07-08T07:38:55Z</time>
      </trkpt>
      <trkpt lat="42.70679" lon="1.45227">
        <ele>1163.6</ele>
        <time>2024-07-08T07:39:00Z</time>
      </trkpt>
      <trkpt lat="42.70682" lon="1.45235">
        <ele>1167.6</ele>
        <time>2024-07-08T07:39:07Z</time>
      </trkpt>
      <trkpt lat="42.70684" lon="1.45236">
        <ele>1170.6</ele>
        <time>2024-07-08T07:39:11Z</time>
      </trkpt>
      <trkpt lat="42.70685" lon="1.45239">
        <ele>1173.8</ele>
        <time>2024-07-08T07:39:17Z</time>
      </trkpt>
      <trkpt lat="42.70687" lon="1.45245">
        <ele>1177</ele>
        <time>2024-07-08T07:39:25Z</time>
      </trkpt>
      <trkpt lat="42.70687" lon="1.45252">
        <ele>1177.2</ele>
        <time>2024-07-08T07:39:33Z</time>
      </trkpt>
      <trkpt lat="42.7069" lon="1.45253">
        <ele>1176.4</ele>
        <time>2024-07-08T07:39:41Z</time>
      </trkpt>
      <trkpt lat="42.70693" lon="1.45251">
        <ele>1176</ele>
        <time>2024-07-08T07:39:47Z</time>
      </trkpt>
      <trkpt lat="42.70696" lon="1.45252">
        <ele>1175.2</ele>
        <time>2024-07-08T07:39:53Z</time>
      </trkpt>
      <trkpt lat="42.70699" lon="1.45256">
        <ele>1174.4</ele>
        <time>2024-07-08T07:39:59Z</time>
      </trkpt>
      <trkpt lat="42.70701" lon="1.45258">
        <ele>1179.2</ele>
        <time>2024-07-08T07:40:06Z</time>
      </trkpt>
      <trkpt lat="42.70706" lon="1.45268">
        <ele>1184</ele>
        <time>2024-07-08T07:40:14Z</time>
      </trkpt>
      <trkpt lat="42.7071" lon="1.45279">
        <ele>1185.4</ele>
        <time>2024-07-08T07:40:21Z</time>
      </trkpt>
      <trkpt lat="42.70714" lon="1.45286">
        <ele>1185.8</ele>
        <time>2024-07-08T07:40:27Z</time>
      </trkpt>
      <trkpt lat="42.70717" lon="1.45288">
        <ele>1187.4</ele>
        <time>2024-07-08T07:40:33Z</time>
      </trkpt>
      <trkpt lat="42.7072" lon="1.4529">
        <ele>1189.2</ele>
        <time>2024-07-08T07:40:38Z</time>
      </trkpt>
      <trkpt lat="42.7072" lon="1.45296">
        <ele>1188.8</ele>
        <time>2024-07-08T07:40:45Z</time>
      </trkpt>
      <trkpt lat="42.70716" lon="1.45304">
        <ele>1192.6</ele>
        <time>2024-07-08T07:40:54Z</time>
      </trkpt>
      <trkpt lat="42.70713" lon="1.45305">
        <ele>1194.6</ele>
        <time>2024-07-08T07:41:00Z</time>
      </trkpt>
      <trkpt lat="42.70713" lon="1.45312">
        <ele>1194</ele>
        <time>2024-07-08T07:41:06Z</time>
      </trkpt>
      <trkpt lat="42.70716" lon="1.45318">
        <ele>1194.2</ele>
        <time>2024-07-08T07:41:12Z</time>
      </trkpt>
      <trkpt lat="42.70717" lon="1.45318">
        <ele>1194.4</ele>
        <time>2024-07-08T07:41:14Z</time>
      </trkpt>
      <trkpt lat="42.70722" lon="1.45318">
        <ele>1195.8</ele>
        <time>2024-07-08T07:41:21Z</time>
      </trkpt>
      <trkpt lat="42.70725" lon="1.45323">
        <ele>1199.4</ele>
        <time>2024-07-08T07:41:28Z</time>
      </trkpt>
      <trkpt lat="42.70728" lon="1.45329">
        <ele>1202</ele>
        <time>2024-07-08T07:41:34Z</time>
      </trkpt>
      <trkpt lat="42.70734" lon="1.45338">
        <ele>1206</ele>
        <time>2024-07-08T07:41:43Z</time>
      </trkpt>
      <trkpt lat="42.70738" lon="1.45336">
        <ele>1206.8</ele>
        <time>2024-07-08T07:41:48Z</time>
      </trkpt>
      <trkpt lat="42.70743" lon="1.45339">
        <ele>1206.4</ele>
        <time>2024-07-08T07:41:51Z</time>
      </trkpt>
      <trkpt lat="42.70744" lon="1.4534">
        <ele>1206.4</ele>
        <time>2024-07-08T07:41:55Z</time>
      </trkpt>
      <trkpt lat="42.7075" lon="1.45343">
        <ele>1206.8</ele>
        <time>2024-07-08T07:42:00Z</time>
      </trkpt>
      <trkpt lat="42.70751" lon="1.45346">
        <ele>1206.8</ele>
        <time>2024-07-08T07:42:02Z</time>
      </trkpt>
      <trkpt lat="42.70754" lon="1.45349">
        <ele>1208.8</ele>
        <time>2024-07-08T07:42:06Z</time>
      </trkpt>
      <trkpt lat="42.70757" lon="1.45353">
        <ele>1211</ele>
        <time>2024-07-08T07:42:12Z</time>
      </trkpt>
      <trkpt lat="42.70763" lon="1.4536">
        <ele>1209.4</ele>
        <time>2024-07-08T07:42:21Z</time>
      </trkpt>
      <trkpt lat="42.70767" lon="1.45365">
        <ele>1209.6</ele>
        <time>2024-07-08T07:42:27Z</time>
      </trkpt>
      <trkpt lat="42.70771" lon="1.45371">
        <ele>1209.6</ele>
        <time>2024-07-08T07:42:33Z</time>
      </trkpt>
      <trkpt lat="42.70774" lon="1.45373">
        <ele>1209.8</ele>
        <time>2024-07-08T07:42:40Z</time>
      </trkpt>
      <trkpt lat="42.70778" lon="1.45378">
        <ele>1212.2</ele>
        <time>2024-07-08T07:42:46Z</time>
      </trkpt>
      <trkpt lat="42.70784" lon="1.45383">
        <ele>1215.8</ele>
        <time>2024-07-08T07:42:53Z</time>
      </trkpt>
      <trkpt lat="42.70787" lon="1.45384">
        <ele>1216.4</ele>
        <time>2024-07-08T07:42:56Z</time>
      </trkpt>
      <trkpt lat="42.70791" lon="1.45384">
        <ele>1216.4</ele>
        <time>2024-07-08T07:43:00Z</time>
      </trkpt>
      <trkpt lat="42.70804" lon="1.45385">
        <ele>1214.6</ele>
        <time>2024-07-08T07:43:10Z</time>
      </trkpt>
      <trkpt lat="42.70811" lon="1.45389">
        <ele>1211.6</ele>
        <time>2024-07-08T07:43:18Z</time>
      </trkpt>
      <trkpt lat="42.70816" lon="1.45393">
        <ele>1211</ele>
        <time>2024-07-08T07:43:26Z</time>
      </trkpt>
      <trkpt lat="42.7082" lon="1.45394">
        <ele>1212.8</ele>
        <time>2024-07-08T07:43:32Z</time>
      </trkpt>
      <trkpt lat="42.70823" lon="1.45397">
        <ele>1213.2</ele>
        <time>2024-07-08T07:43:34Z</time>
      </trkpt>
      <trkpt lat="42.70825" lon="1.45399">
        <ele>1213.8</ele>
        <time>2024-07-08T07:43:36Z</time>
      </trkpt>
      <trkpt lat="42.70826" lon="1.45399">
        <ele>1214</ele>
        <time>2024-07-08T07:43:38Z</time>
      </trkpt>
      <trkpt lat="42.70826" lon="1.45398">
        <ele>1214</ele>
        <time>2024-07-08T07:43:39Z</time>
      </trkpt>
      <trkpt lat="42.70835" lon="1.45402">
        <ele>1215.6</ele>
        <time>2024-07-08T07:43:48Z</time>
      </trkpt>
      <trkpt lat="42.70839" lon="1.45403">
        <ele>1216.8</ele>
        <time>2024-07-08T07:43:52Z</time>
      </trkpt>
      <trkpt lat="42.70841" lon="1.45403">
        <ele>1218</ele>
        <time>2024-07-08T07:43:54Z</time>
      </trkpt>
      <trkpt lat="42.70843" lon="1.45403">
        <ele>1219.6</ele>
        <time>2024-07-08T07:43:56Z</time>
      </trkpt>
      <trkpt lat="42.70847" lon="1.45405">
        <ele>1221.8</ele>
        <time>2024-07-08T07:44:00Z</time>
      </trkpt>
      <trkpt lat="42.70853" lon="1.45403">
        <ele>1224.6</ele>
        <time>2024-07-08T07:44:06Z</time>
      </trkpt>
      <trkpt lat="42.70854" lon="1.45404">
        <ele>1224.8</ele>
        <time>2024-07-08T07:44:12Z</time>
      </trkpt>
      <trkpt lat="42.70859" lon="1.45402">
        <ele>1223.8</ele>
        <time>2024-07-08T07:44:17Z</time>
      </trkpt>
      <trkpt lat="42.70867" lon="1.45404">
        <ele>1224.4</ele>
        <time>2024-07-08T07:44:24Z</time>
      </trkpt>
      <trkpt lat="42.70871" lon="1.45409">
        <ele>1227</ele>
        <time>2024-07-08T07:44:28Z</time>
      </trkpt>
      <trkpt lat="42.70872" lon="1.45409">
        <ele>1227.6</ele>
        <time>2024-07-08T07:44:29Z</time>
      </trkpt>
      <trkpt lat="42.70877" lon="1.45414">
        <ele>1230</ele>
        <time>2024-07-08T07:44:36Z</time>
      </trkpt>
      <trkpt lat="42.70884" lon="1.45416">
        <ele>1233</ele>
        <time>2024-07-08T07:44:44Z</time>
      </trkpt>
      <trkpt lat="42.70889" lon="1.45421">
        <ele>1235.2</ele>
        <time>2024-07-08T07:44:48Z</time>
      </trkpt>
      <trkpt lat="42.7089" lon="1.45422">
        <ele>1236.8</ele>
        <time>2024-07-08T07:44:50Z</time>
      </trkpt>
      <trkpt lat="42.70891" lon="1.45422">
        <ele>1238.4</ele>
        <time>2024-07-08T07:44:52Z</time>
      </trkpt>
      <trkpt lat="42.70893" lon="1.45422">
        <ele>1239.6</ele>
        <time>2024-07-08T07:44:55Z</time>
      </trkpt>
      <trkpt lat="42.70895" lon="1.45425">
        <ele>1240.4</ele>
        <time>2024-07-08T07:44:57Z</time>
      </trkpt>
      <trkpt lat="42.70899" lon="1.4543">
        <ele>1241.2</ele>
        <time>2024-07-08T07:45:01Z</time>
      </trkpt>
      <trkpt lat="42.70902" lon="1.45434">
        <ele>1241.2</ele>
        <time>2024-07-08T07:45:06Z</time>
      </trkpt>
      <trkpt lat="42.70906" lon="1.45438">
        <ele>1241.6</ele>
        <time>2024-07-08T07:45:12Z</time>
      </trkpt>
      <trkpt lat="42.70907" lon="1.4544">
        <ele>1243</ele>
        <time>2024-07-08T07:45:14Z</time>
      </trkpt>
      <trkpt lat="42.70915" lon="1.45445">
        <ele>1246.2</ele>
        <time>2024-07-08T07:45:21Z</time>
      </trkpt>
      <trkpt lat="42.70919" lon="1.45448">
        <ele>1246.8</ele>
        <time>2024-07-08T07:45:24Z</time>
      </trkpt>
      <trkpt lat="42.70921" lon="1.45449">
        <ele>1247</ele>
        <time>2024-07-08T07:45:26Z</time>
      </trkpt>
      <trkpt lat="42.70925" lon="1.45449">
        <ele>1246.6</ele>
        <time>2024-07-08T07:45:32Z</time>
      </trkpt>
      <trkpt lat="42.70927" lon="1.45448">
        <ele>1246</ele>
        <time>2024-07-08T07:45:34Z</time>
      </trkpt>
      <trkpt lat="42.7093" lon="1.45451">
        <ele>1245.4</ele>
        <time>2024-07-08T07:45:38Z</time>
      </trkpt>
      <trkpt lat="42.70933" lon="1.4545">
        <ele>1245</ele>
        <time>2024-07-08T07:45:44Z</time>
      </trkpt>
      <trkpt lat="42.70943" lon="1.45455">
        <ele>1247</ele>
        <time>2024-07-08T07:45:54Z</time>
      </trkpt>
      <trkpt lat="42.70947" lon="1.45458">
        <ele>1247.2</ele>
        <time>2024-07-08T07:46:00Z</time>
      </trkpt>
      <trkpt lat="42.70953" lon="1.45463">
        <ele>1248</ele>
        <time>2024-07-08T07:46:08Z</time>
      </trkpt>
      <trkpt lat="42.70958" lon="1.45462">
        <ele>1249.4</ele>
        <time>2024-07-08T07:46:13Z</time>
      </trkpt>
      <trkpt lat="42.70963" lon="1.45464">
        <ele>1251.6</ele>
        <time>2024-07-08T07:46:19Z</time>
      </trkpt>
      <trkpt lat="42.70964" lon="1.45472">
        <ele>1251.4</ele>
        <time>2024-07-08T07:46:25Z</time>
      </trkpt>
      <trkpt lat="42.70956" lon="1.4548">
        <ele>1251</ele>
        <time>2024-07-08T07:46:34Z</time>
      </trkpt>
      <trkpt lat="42.70947" lon="1.45482">
        <ele>1257.4</ele>
        <time>2024-07-08T07:46:41Z</time>
      </trkpt>
      <trkpt lat="42.7094" lon="1.45478">
        <ele>1260.2</ele>
        <time>2024-07-08T07:46:47Z</time>
      </trkpt>
      <trkpt lat="42.70937" lon="1.45481">
        <ele>1262.2</ele>
        <time>2024-07-08T07:46:56Z</time>
      </trkpt>
      <trkpt lat="42.70942" lon="1.45483">
        <ele>1264.2</ele>
        <time>2024-07-08T07:47:02Z</time>
      </trkpt>
      <trkpt lat="42.70946" lon="1.45484">
        <ele>1265.8</ele>
        <time>2024-07-08T07:47:09Z</time>
      </trkpt>
      <trkpt lat="42.70955" lon="1.45489">
        <ele>1270.6</ele>
        <time>2024-07-08T07:47:18Z</time>
      </trkpt>
      <trkpt lat="42.70959" lon="1.45494">
        <ele>1270.8</ele>
        <time>2024-07-08T07:47:24Z</time>
      </trkpt>
      <trkpt lat="42.70965" lon="1.45498">
        <ele>1268.8</ele>
        <time>2024-07-08T07:47:32Z</time>
      </trkpt>
      <trkpt lat="42.70973" lon="1.45501">
        <ele>1269</ele>
        <time>2024-07-08T07:47:38Z</time>
      </trkpt>
      <trkpt lat="42.70977" lon="1.45505">
        <ele>1271.2</ele>
        <time>2024-07-08T07:47:43Z</time>
      </trkpt>
      <trkpt lat="42.70981" lon="1.4551">
        <ele>1275.2</ele>
        <time>2024-07-08T07:47:50Z</time>
      </trkpt>
      <trkpt lat="42.70984" lon="1.4551">
        <ele>1279</ele>
        <time>2024-07-08T07:47:57Z</time>
      </trkpt>
      <trkpt lat="42.70982" lon="1.45513">
        <ele>1282.6</ele>
        <time>2024-07-08T07:48:02Z</time>
      </trkpt>
      <trkpt lat="42.70977" lon="1.45515">
        <ele>1281.4</ele>
        <time>2024-07-08T07:48:08Z</time>
      </trkpt>
      <trkpt lat="42.7097" lon="1.45516">
        <ele>1279.6</ele>
        <time>2024-07-08T07:48:14Z</time>
      </trkpt>
      <trkpt lat="42.70962" lon="1.4552">
        <ele>1280</ele>
        <time>2024-07-08T07:48:22Z</time>
      </trkpt>
      <trkpt lat="42.70959" lon="1.4552">
        <ele>1280.2</ele>
        <time>2024-07-08T07:48:26Z</time>
      </trkpt>
      <trkpt lat="42.70958" lon="1.45521">
        <ele>1280.4</ele>
        <time>2024-07-08T07:48:27Z</time>
      </trkpt>
      <trkpt lat="42.70956" lon="1.4552">
        <ele>1280.4</ele>
        <time>2024-07-08T07:48:29Z</time>
      </trkpt>
      <trkpt lat="42.70954" lon="1.45521">
        <ele>1280.4</ele>
        <time>2024-07-08T07:48:32Z</time>
      </trkpt>
      <trkpt lat="42.70953" lon="1.45527">
        <ele>1280.8</ele>
        <time>2024-07-08T07:48:34Z</time>
      </trkpt>
      <trkpt lat="42.70949" lon="1.45528">
        <ele>1282.4</ele>
        <time>2024-07-08T07:48:39Z</time>
      </trkpt>
      <trkpt lat="42.70947" lon="1.45529">
        <ele>1282.6</ele>
        <time>2024-07-08T07:48:41Z</time>
      </trkpt>
      <trkpt lat="42.70946" lon="1.45532">
        <ele>1283</ele>
        <time>2024-07-08T07:48:44Z</time>
      </trkpt>
      <trkpt lat="42.7094" lon="1.45537">
        <ele>1284.4</ele>
        <time>2024-07-08T07:48:52Z</time>
      </trkpt>
      <trkpt lat="42.70936" lon="1.45539">
        <ele>1285.4</ele>
        <time>2024-07-08T07:49:00Z</time>
      </trkpt>
      <trkpt lat="42.70935" lon="1.45537">
        <ele>1286.6</ele>
        <time>2024-07-08T07:49:08Z</time>
      </trkpt>
      <trkpt lat="42.70935" lon="1.45535">
        <ele>1287.2</ele>
        <time>2024-07-08T07:49:17Z</time>
      </trkpt>
      <trkpt lat="42.70932" lon="1.45533">
        <ele>1288</ele>
        <time>2024-07-08T07:49:35Z</time>
      </trkpt>
      <trkpt lat="42.70931" lon="1.45536">
        <ele>1289.2</ele>
        <time>2024-07-08T07:49:41Z</time>
      </trkpt>
      <trkpt lat="42.70929" lon="1.45535">
        <ele>1288.2</ele>
        <time>2024-07-08T07:49:46Z</time>
      </trkpt>
      <trkpt lat="42.70924" lon="1.45535">
        <ele>1287.8</ele>
        <time>2024-07-08T07:49:53Z</time>
      </trkpt>
      <trkpt lat="42.70919" lon="1.45536">
        <ele>1289</ele>
        <time>2024-07-08T07:49:59Z</time>
      </trkpt>
      <trkpt lat="42.70917" lon="1.45538">
        <ele>1291.2</ele>
        <time>2024-07-08T07:50:05Z</time>
      </trkpt>
      <trkpt lat="42.70912" lon="1.45538">
        <ele>1292.4</ele>
        <time>2024-07-08T07:50:11Z</time>
      </trkpt>
      <trkpt lat="42.70906" lon="1.45542">
        <ele>1295</ele>
        <time>2024-07-08T07:50:18Z</time>
      </trkpt>
      <trkpt lat="42.709" lon="1.45545">
        <ele>1297.6</ele>
        <time>2024-07-08T07:50:27Z</time>
      </trkpt>
      <trkpt lat="42.70896" lon="1.45548">
        <ele>1298.2</ele>
        <time>2024-07-08T07:50:33Z</time>
      </trkpt>
      <trkpt lat="42.70889" lon="1.45548">
        <ele>1298.4</ele>
        <time>2024-07-08T07:50:40Z</time>
      </trkpt>
      <trkpt lat="42.70884" lon="1.45551">
        <ele>1299.4</ele>
        <time>2024-07-08T07:50:46Z</time>
      </trkpt>
      <trkpt lat="42.70878" lon="1.45553">
        <ele>1301.2</ele>
        <time>2024-07-08T07:50:52Z</time>
      </trkpt>
      <trkpt lat="42.70876" lon="1.45551">
        <ele>1301.8</ele>
        <time>2024-07-08T07:50:54Z</time>
      </trkpt>
      <trkpt lat="42.70864" lon="1.45552">
        <ele>1307.2</ele>
        <time>2024-07-08T07:51:04Z</time>
      </trkpt>
      <trkpt lat="42.7086" lon="1.45559">
        <ele>1309.4</ele>
        <time>2024-07-08T07:51:10Z</time>
      </trkpt>
      <trkpt lat="42.7086" lon="1.4556">
        <ele>1310</ele>
        <time>2024-07-08T07:51:11Z</time>
      </trkpt>
      <trkpt lat="42.70853" lon="1.45562">
        <ele>1312.4</ele>
        <time>2024-07-08T07:51:18Z</time>
      </trkpt>
      <trkpt lat="42.7085" lon="1.45563">
        <ele>1312.8</ele>
        <time>2024-07-08T07:51:21Z</time>
      </trkpt>
      <trkpt lat="42.70849" lon="1.45563">
        <ele>1313</ele>
        <time>2024-07-08T07:51:23Z</time>
      </trkpt>
      <trkpt lat="42.70848" lon="1.45564">
        <ele>1313.4</ele>
        <time>2024-07-08T07:51:25Z</time>
      </trkpt>
      <trkpt lat="42.70848" lon="1.45565">
        <ele>1313.4</ele>
        <time>2024-07-08T07:51:26Z</time>
      </trkpt>
      <trkpt lat="42.70845" lon="1.45566">
        <ele>1313.4</ele>
        <time>2024-07-08T07:51:30Z</time>
      </trkpt>
      <trkpt lat="42.70843" lon="1.45567">
        <ele>1313.4</ele>
        <time>2024-07-08T07:51:32Z</time>
      </trkpt>
      <trkpt lat="42.70837" lon="1.45567">
        <ele>1316</ele>
        <time>2024-07-08T07:51:42Z</time>
      </trkpt>
      <trkpt lat="42.70833" lon="1.45566">
        <ele>1316.8</ele>
        <time>2024-07-08T07:51:48Z</time>
      </trkpt>
      <trkpt lat="42.70831" lon="1.45566">
        <ele>1317.4</ele>
        <time>2024-07-08T07:51:54Z</time>
      </trkpt>
      <trkpt lat="42.70831" lon="1.45568">
        <ele>1318.4</ele>
        <time>2024-07-08T07:52:00Z</time>
      </trkpt>
      <trkpt lat="42.7083" lon="1.45568">
        <ele>1320</ele>
        <time>2024-07-08T07:52:08Z</time>
      </trkpt>
      <trkpt lat="42.70829" lon="1.45567">
        <ele>1321.6</ele>
        <time>2024-07-08T07:52:15Z</time>
      </trkpt>
      <trkpt lat="42.7083" lon="1.45569">
        <ele>1322</ele>
        <time>2024-07-08T07:52:20Z</time>
      </trkpt>
      <trkpt lat="42.70832" lon="1.45568">
        <ele>1322.6</ele>
        <time>2024-07-08T07:52:26Z</time>
      </trkpt>
      <trkpt lat="42.70833" lon="1.45569">
        <ele>1321.8</ele>
        <time>2024-07-08T07:52:33Z</time>
      </trkpt>
      <trkpt lat="42.70837" lon="1.45573">
        <ele>1321.4</ele>
        <time>2024-07-08T07:52:40Z</time>
      </trkpt>
      <trkpt lat="42.70846" lon="1.45578">
        <ele>1321.2</ele>
        <time>2024-07-08T07:52:47Z</time>
      </trkpt>
      <trkpt lat="42.70853" lon="1.4558">
        <ele>1321.8</ele>
        <time>2024-07-08T07:52:56Z</time>
      </trkpt>
      <trkpt lat="42.70853" lon="1.4558">
        <ele>1321.8</ele>
        <time>2024-07-08T07:52:57Z</time>
      </trkpt>
      <trkpt lat="42.70855" lon="1.4558">
        <ele>1322.2</ele>
        <time>2024-07-08T07:53:00Z</time>
      </trkpt>
      <trkpt lat="42.70864" lon="1.45582">
        <ele>1324</ele>
        <time>2024-07-08T07:53:07Z</time>
      </trkpt>
      <trkpt lat="42.70871" lon="1.45579">
        <ele>1325</ele>
        <time>2024-07-08T07:53:14Z</time>
      </trkpt>
      <trkpt lat="42.7088" lon="1.45581">
        <ele>1326.6</ele>
        <time>2024-07-08T07:53:22Z</time>
      </trkpt>
      <trkpt lat="42.70881" lon="1.45581">
        <ele>1327</ele>
        <time>2024-07-08T07:53:23Z</time>
      </trkpt>
      <trkpt lat="42.70892" lon="1.45584">
        <ele>1330</ele>
        <time>2024-07-08T07:53:31Z</time>
      </trkpt>
      <trkpt lat="42.70897" lon="1.45585">
        <ele>1333</ele>
        <time>2024-07-08T07:53:38Z</time>
      </trkpt>
      <trkpt lat="42.70903" lon="1.45588">
        <ele>1334.6</ele>
        <time>2024-07-08T07:53:44Z</time>
      </trkpt>
      <trkpt lat="42.70904" lon="1.45587">
        <ele>1334.6</ele>
        <time>2024-07-08T07:53:45Z</time>
      </trkpt>
      <trkpt lat="42.70905" lon="1.45587">
        <ele>1334.4</ele>
        <time>2024-07-08T07:53:46Z</time>
      </trkpt>
      <trkpt lat="42.70906" lon="1.45588">
        <ele>1335.4</ele>
        <time>2024-07-08T07:53:49Z</time>
      </trkpt>
      <trkpt lat="42.70899" lon="1.45591">
        <ele>1340.6</ele>
        <time>2024-07-08T07:53:57Z</time>
      </trkpt>
      <trkpt lat="42.70894" lon="1.45592">
        <ele>1342.6</ele>
        <time>2024-07-08T07:54:03Z</time>
      </trkpt>
      <trkpt lat="42.70893" lon="1.45593">
        <ele>1343</ele>
        <time>2024-07-08T07:54:04Z</time>
      </trkpt>
      <trkpt lat="42.70891" lon="1.45593">
        <ele>1343.6</ele>
        <time>2024-07-08T07:54:06Z</time>
      </trkpt>
      <trkpt lat="42.70889" lon="1.45593">
        <ele>1344</ele>
        <time>2024-07-08T07:54:08Z</time>
      </trkpt>
      <trkpt lat="42.70887" lon="1.45592">
        <ele>1344.4</ele>
        <time>2024-07-08T07:54:10Z</time>
      </trkpt>
      <trkpt lat="42.70886" lon="1.45593">
        <ele>1344.4</ele>
        <time>2024-07-08T07:54:12Z</time>
      </trkpt>
      <trkpt lat="42.70885" lon="1.45593">
        <ele>1344.4</ele>
        <time>2024-07-08T07:54:13Z</time>
      </trkpt>
      <trkpt lat="42.70882" lon="1.45594">
        <ele>1344.6</ele>
        <time>2024-07-08T07:54:18Z</time>
      </trkpt>
      <trkpt lat="42.70877" lon="1.45596">
        <ele>1345.8</ele>
        <time>2024-07-08T07:54:26Z</time>
      </trkpt>
      <trkpt lat="42.70874" lon="1.45602">
        <ele>1346.6</ele>
        <time>2024-07-08T07:54:31Z</time>
      </trkpt>
      <trkpt lat="42.70871" lon="1.45605">
        <ele>1345.6</ele>
        <time>2024-07-08T07:54:38Z</time>
      </trkpt>
      <trkpt lat="42.70869" lon="1.45607">
        <ele>1345.2</ele>
        <time>2024-07-08T07:54:40Z</time>
      </trkpt>
      <trkpt lat="42.70869" lon="1.4561">
        <ele>1345</ele>
        <time>2024-07-08T07:54:42Z</time>
      </trkpt>
      <trkpt lat="42.70869" lon="1.45612">
        <ele>1344.8</ele>
        <time>2024-07-08T07:54:43Z</time>
      </trkpt>
      <trkpt lat="42.70868" lon="1.45614">
        <ele>1344.4</ele>
        <time>2024-07-08T07:54:45Z</time>
      </trkpt>
      <trkpt lat="42.70866" lon="1.45616">
        <ele>1343</ele>
        <time>2024-07-08T07:54:48Z</time>
      </trkpt>
      <trkpt lat="42.70859" lon="1.45618">
        <ele>1344.8</ele>
        <time>2024-07-08T07:54:55Z</time>
      </trkpt>
      <trkpt lat="42.70855" lon="1.45619">
        <ele>1348.6</ele>
        <time>2024-07-08T07:55:02Z</time>
      </trkpt>
      <trkpt lat="42.70849" lon="1.45621">
        <ele>1349.6</ele>
        <time>2024-07-08T07:55:11Z</time>
      </trkpt>
      <trkpt lat="42.70845" lon="1.45622">
        <ele>1352.4</ele>
        <time>2024-07-08T07:55:17Z</time>
      </trkpt>
      <trkpt lat="42.70842" lon="1.45625">
        <ele>1354.8</ele>
        <time>2024-07-08T07:55:23Z</time>
      </trkpt>
      <trkpt lat="42.70839" lon="1.45624">
        <ele>1355.2</ele>
        <time>2024-07-08T07:55:26Z</time>
      </trkpt>
      <trkpt lat="42.70837" lon="1.45624">
        <ele>1355.4</ele>
        <time>2024-07-08T07:55:28Z</time>
      </trkpt>
      <trkpt lat="42.70836" lon="1.45624">
        <ele>1355.6</ele>
        <time>2024-07-08T07:55:29Z</time>
      </trkpt>
      <trkpt lat="42.70833" lon="1.45625">
        <ele>1357</ele>
        <time>2024-07-08T07:55:32Z</time>
      </trkpt>
      <trkpt lat="42.70827" lon="1.45626">
        <ele>1359.4</ele>
        <time>2024-07-08T07:55:38Z</time>
      </trkpt>
      <trkpt lat="42.70826" lon="1.45626">
        <ele>1359.6</ele>
        <time>2024-07-08T07:55:39Z</time>
      </trkpt>
      <trkpt lat="42.70823" lon="1.45629">
        <ele>1360.2</ele>
        <time>2024-07-08T07:55:44Z</time>
      </trkpt>
      <trkpt lat="42.70822" lon="1.4563">
        <ele>1360.4</ele>
        <time>2024-07-08T07:55:45Z</time>
      </trkpt>
      <trkpt lat="42.7082" lon="1.45634">
        <ele>1360.6</ele>
        <time>2024-07-08T07:55:50Z</time>
      </trkpt>
      <trkpt lat="42.70815" lon="1.45639">
        <ele>1361.2</ele>
        <time>2024-07-08T07:55:58Z</time>
      </trkpt>
      <trkpt lat="42.70814" lon="1.45639">
        <ele>1361.4</ele>
        <time>2024-07-08T07:55:59Z</time>
      </trkpt>
      <trkpt lat="42.70809" lon="1.45639">
        <ele>1362</ele>
        <time>2024-07-08T07:56:03Z</time>
      </trkpt>
      <trkpt lat="42.70807" lon="1.4564">
        <ele>1363.4</ele>
        <time>2024-07-08T07:56:09Z</time>
      </trkpt>
      <trkpt lat="42.70811" lon="1.45642">
        <ele>1364</ele>
        <time>2024-07-08T07:56:14Z</time>
      </trkpt>
      <trkpt lat="42.70811" lon="1.45643">
        <ele>1364.2</ele>
        <time>2024-07-08T07:56:15Z</time>
      </trkpt>
      <trkpt lat="42.70817" lon="1.45646">
        <ele>1365.6</ele>
        <time>2024-07-08T07:56:22Z</time>
      </trkpt>
      <trkpt lat="42.70823" lon="1.4565">
        <ele>1367</ele>
        <time>2024-07-08T07:56:30Z</time>
      </trkpt>
      <trkpt lat="42.70826" lon="1.4565">
        <ele>1368.8</ele>
        <time>2024-07-08T07:56:36Z</time>
      </trkpt>
      <trkpt lat="42.70835" lon="1.45655">
        <ele>1370.2</ele>
        <time>2024-07-08T07:56:42Z</time>
      </trkpt>
      <trkpt lat="42.70837" lon="1.45655">
        <ele>1369.6</ele>
        <time>2024-07-08T07:56:46Z</time>
      </trkpt>
      <trkpt lat="42.70841" lon="1.45657">
        <ele>1369.8</ele>
        <time>2024-07-08T07:56:52Z</time>
      </trkpt>
      <trkpt lat="42.70847" lon="1.45661">
        <ele>1371.6</ele>
        <time>2024-07-08T07:56:59Z</time>
      </trkpt>
      <trkpt lat="42.70852" lon="1.45662">
        <ele>1373.4</ele>
        <time>2024-07-08T07:57:05Z</time>
      </trkpt>
      <trkpt lat="42.70858" lon="1.45662">
        <ele>1377</ele>
        <time>2024-07-08T07:57:10Z</time>
      </trkpt>
      <trkpt lat="42.70863" lon="1.45666">
        <ele>1379.2</ele>
        <time>2024-07-08T07:57:17Z</time>
      </trkpt>
      <trkpt lat="42.70865" lon="1.45666">
        <ele>1380</ele>
        <time>2024-07-08T07:57:21Z</time>
      </trkpt>
      <trkpt lat="42.70868" lon="1.45662">
        <ele>1381.2</ele>
        <time>2024-07-08T07:57:26Z</time>
      </trkpt>
      <trkpt lat="42.70874" lon="1.45663">
        <ele>1383.2</ele>
        <time>2024-07-08T07:57:32Z</time>
      </trkpt>
      <trkpt lat="42.70875" lon="1.45664">
        <ele>1384.8</ele>
        <time>2024-07-08T07:57:38Z</time>
      </trkpt>
      <trkpt lat="42.70883" lon="1.45669">
        <ele>1384.8</ele>
        <time>2024-07-08T07:57:46Z</time>
      </trkpt>
      <trkpt lat="42.70885" lon="1.4567">
        <ele>1385</ele>
        <time>2024-07-08T07:57:48Z</time>
      </trkpt>
      <trkpt lat="42.70887" lon="1.4567">
        <ele>1385.4</ele>
        <time>2024-07-08T07:57:51Z</time>
      </trkpt>
      <trkpt lat="42.70895" lon="1.45674">
        <ele>1388.6</ele>
        <time>2024-07-08T07:58:00Z</time>
      </trkpt>
      <trkpt lat="42.709" lon="1.45673">
        <ele>1390</ele>
        <time>2024-07-08T07:58:07Z</time>
      </trkpt>
      <trkpt lat="42.70908" lon="1.45675">
        <ele>1390.8</ele>
        <time>2024-07-08T07:58:14Z</time>
      </trkpt>
      <trkpt lat="42.70911" lon="1.45679">
        <ele>1389.8</ele>
        <time>2024-07-08T07:58:20Z</time>
      </trkpt>
      <trkpt lat="42.70915" lon="1.4568">
        <ele>1389.8</ele>
        <time>2024-07-08T07:58:26Z</time>
      </trkpt>
      <trkpt lat="42.70919" lon="1.45685">
        <ele>1391.8</ele>
        <time>2024-07-08T07:58:33Z</time>
      </trkpt>
      <trkpt lat="42.70926" lon="1.4569">
        <ele>1393.2</ele>
        <time>2024-07-08T07:58:41Z</time>
      </trkpt>
      <trkpt lat="42.7093" lon="1.45693">
        <ele>1394</ele>
        <time>2024-07-08T07:58:47Z</time>
      </trkpt>
      <trkpt lat="42.70935" lon="1.45701">
        <ele>1395</ele>
        <time>2024-07-08T07:58:54Z</time>
      </trkpt>
      <trkpt lat="42.70943" lon="1.45709">
        <ele>1396.8</ele>
        <time>2024-07-08T07:59:01Z</time>
      </trkpt>
      <trkpt lat="42.70943" lon="1.45709">
        <ele>1397</ele>
        <time>2024-07-08T07:59:02Z</time>
      </trkpt>
      <trkpt lat="42.70944" lon="1.45709">
        <ele>1397.6</ele>
        <time>2024-07-08T07:59:04Z</time>
      </trkpt>
      <trkpt lat="42.70946" lon="1.45711">
        <ele>1398.2</ele>
        <time>2024-07-08T07:59:06Z</time>
      </trkpt>
      <trkpt lat="42.70955" lon="1.45716">
        <ele>1403</ele>
        <time>2024-07-08T07:59:15Z</time>
      </trkpt>
      <trkpt lat="42.70962" lon="1.45717">
        <ele>1409.8</ele>
        <time>2024-07-08T07:59:24Z</time>
      </trkpt>
      <trkpt lat="42.70967" lon="1.45722">
        <ele>1412.6</ele>
        <time>2024-07-08T07:59:29Z</time>
      </trkpt>
      <trkpt lat="42.70968" lon="1.45722">
        <ele>1413.2</ele>
        <time>2024-07-08T07:59:31Z</time>
      </trkpt>
      <trkpt lat="42.70971" lon="1.45724">
        <ele>1414.2</ele>
        <time>2024-07-08T07:59:35Z</time>
      </trkpt>
      <trkpt lat="42.70977" lon="1.45726">
        <ele>1415.2</ele>
        <time>2024-07-08T07:59:40Z</time>
      </trkpt>
      <trkpt lat="42.70981" lon="1.45726">
        <ele>1418.6</ele>
        <time>2024-07-08T07:59:45Z</time>
      </trkpt>
      <trkpt lat="42.70983" lon="1.45727">
        <ele>1419.6</ele>
        <time>2024-07-08T07:59:47Z</time>
      </trkpt>
      <trkpt lat="42.70984" lon="1.45728">
        <ele>1420.4</ele>
        <time>2024-07-08T07:59:48Z</time>
      </trkpt>
      <trkpt lat="42.70989" lon="1.45734">
        <ele>1423.4</ele>
        <time>2024-07-08T07:59:54Z</time>
      </trkpt>
      <trkpt lat="42.70994" lon="1.45734">
        <ele>1424.4</ele>
        <time>2024-07-08T07:59:59Z</time>
      </trkpt>
      <trkpt lat="42.70995" lon="1.45734">
        <ele>1424.8</ele>
        <time>2024-07-08T08:00:00Z</time>
      </trkpt>
      <trkpt lat="42.71" lon="1.45734">
        <ele>1428.6</ele>
        <time>2024-07-08T08:00:05Z</time>
      </trkpt>
      <trkpt lat="42.71005" lon="1.45738">
        <ele>1430.6</ele>
        <time>2024-07-08T08:00:10Z</time>
      </trkpt>
      <trkpt lat="42.71006" lon="1.45738">
        <ele>1430.6</ele>
        <time>2024-07-08T08:00:11Z</time>
      </trkpt>
      <trkpt lat="42.71008" lon="1.45738">
        <ele>1430.6</ele>
        <time>2024-07-08T08:00:13Z</time>
      </trkpt>
      <trkpt lat="42.71011" lon="1.45741">
        <ele>1430.6</ele>
        <time>2024-07-08T08:00:15Z</time>
      </trkpt>
      <trkpt lat="42.71012" lon="1.45743">
        <ele>1430.6</ele>
        <time>2024-07-08T08:00:16Z</time>
      </trkpt>
      <trkpt lat="42.71013" lon="1.45744">
        <ele>1430.6</ele>
        <time>2024-07-08T08:00:17Z</time>
      </trkpt>
      <trkpt lat="42.71016" lon="1.45748">
        <ele>1429.8</ele>
        <time>2024-07-08T08:00:21Z</time>
      </trkpt>
      <trkpt lat="42.71016" lon="1.45747">
        <ele>1429.4</ele>
        <time>2024-07-08T08:00:22Z</time>
      </trkpt>
      <trkpt lat="42.7102" lon="1.45749">
        <ele>1426.8</ele>
        <time>2024-07-08T08:00:27Z</time>
      </trkpt>
      <trkpt lat="42.71026" lon="1.4575">
        <ele>1424</ele>
        <time>2024-07-08T08:00:34Z</time>
      </trkpt>
      <trkpt lat="42.71027" lon="1.45751">
        <ele>1423.8</ele>
        <time>2024-07-08T08:00:35Z</time>
      </trkpt>
      <trkpt lat="42.71031" lon="1.45752">
        <ele>1423.4</ele>
        <time>2024-07-08T08:00:37Z</time>
      </trkpt>
      <trkpt lat="42.71034" lon="1.45751">
        <ele>1423.2</ele>
        <time>2024-07-08T08:00:39Z</time>
      </trkpt>
      <trkpt lat="42.71042" lon="1.4576">
        <ele>1424.6</ele>
        <time>2024-07-08T08:00:47Z</time>
      </trkpt>
      <trkpt lat="42.71044" lon="1.45765">
        <ele>1423.8</ele>
        <time>2024-07-08T08:00:50Z</time>
      </trkpt>
      <trkpt lat="42.71046" lon="1.45768">
        <ele>1423.4</ele>
        <time>2024-07-08T08:00:52Z</time>
      </trkpt>
      <trkpt lat="42.71049" lon="1.45771">
        <ele>1422.6</ele>
        <time>2024-07-08T08:00:59Z</time>
      </trkpt>
      <trkpt lat="42.71051" lon="1.45772">
        <ele>1422</ele>
        <time>2024-07-08T08:01:07Z</time>
      </trkpt>
      <trkpt lat="42.71058" lon="1.45773">
        <ele>1422.6</ele>
        <time>2024-07-08T08:01:13Z</time>
      </trkpt>
      <trkpt lat="42.71062" lon="1.45775">
        <ele>1423.2</ele>
        <time>2024-07-08T08:01:17Z</time>
      </trkpt>
      <trkpt lat="42.71062" lon="1.45775">
        <ele>1423.6</ele>
        <time>2024-07-08T08:01:19Z</time>
      </trkpt>
      <trkpt lat="42.71066" lon="1.45776">
        <ele>1426.6</ele>
        <time>2024-07-08T08:01:25Z</time>
      </trkpt>
      <trkpt lat="42.71072" lon="1.45777">
        <ele>1430</ele>
        <time>2024-07-08T08:01:32Z</time>
      </trkpt>
      <trkpt lat="42.71079" lon="1.45779">
        <ele>1432.2</ele>
        <time>2024-07-08T08:01:40Z</time>
      </trkpt>
      <trkpt lat="42.71084" lon="1.45781">
        <ele>1432</ele>
        <time>2024-07-08T08:01:45Z</time>
      </trkpt>
      <trkpt lat="42.71092" lon="1.45786">
        <ele>1431.4</ele>
        <time>2024-07-08T08:01:52Z</time>
      </trkpt>
      <trkpt lat="42.71094" lon="1.45786">
        <ele>1431</ele>
        <time>2024-07-08T08:01:54Z</time>
      </trkpt>
      <trkpt lat="42.71104" lon="1.4579">
        <ele>1430</ele>
        <time>2024-07-08T08:02:02Z</time>
      </trkpt>
      <trkpt lat="42.7111" lon="1.4579">
        <ele>1429</ele>
        <time>2024-07-08T08:02:08Z</time>
      </trkpt>
      <trkpt lat="42.71112" lon="1.45791">
        <ele>1428.8</ele>
        <time>2024-07-08T08:02:10Z</time>
      </trkpt>
      <trkpt lat="42.71122" lon="1.45795">
        <ele>1427.6</ele>
        <time>2024-07-08T08:02:17Z</time>
      </trkpt>
      <trkpt lat="42.71134" lon="1.45796">
        <ele>1424.6</ele>
        <time>2024-07-08T08:02:25Z</time>
      </trkpt>
      <trkpt lat="42.71142" lon="1.45803">
        <ele>1423.2</ele>
        <time>2024-07-08T08:02:30Z</time>
      </trkpt>
      <trkpt lat="42.71145" lon="1.45807">
        <ele>1422.8</ele>
        <time>2024-07-08T08:02:32Z</time>
      </trkpt>
      <trkpt lat="42.71152" lon="1.45827">
        <ele>1423.2</ele>
        <time>2024-07-08T08:02:43Z</time>
      </trkpt>
      <trkpt lat="42.71151" lon="1.45836">
        <ele>1426.4</ele>
        <time>2024-07-08T08:02:50Z</time>
      </trkpt>
      <trkpt lat="42.71151" lon="1.45837">
        <ele>1427</ele>
        <time>2024-07-08T08:02:51Z</time>
      </trkpt>
      <trkpt lat="42.71153" lon="1.4584">
        <ele>1428</ele>
        <time>2024-07-08T08:02:54Z</time>
      </trkpt>
      <trkpt lat="42.71154" lon="1.45839">
        <ele>1428.2</ele>
        <time>2024-07-08T08:02:55Z</time>
      </trkpt>
      <trkpt lat="42.71155" lon="1.45837">
        <ele>1428.4</ele>
        <time>2024-07-08T08:02:57Z</time>
      </trkpt>
      <trkpt lat="42.71158" lon="1.45832">
        <ele>1428.4</ele>
        <time>2024-07-08T08:03:02Z</time>
      </trkpt>
      <trkpt lat="42.71162" lon="1.45825">
        <ele>1430</ele>
        <time>2024-07-08T08:03:09Z</time>
      </trkpt>
      <trkpt lat="42.71164" lon="1.45823">
        <ele>1430.6</ele>
        <time>2024-07-08T08:03:11Z</time>
      </trkpt>
      <trkpt lat="42.71168" lon="1.45822">
        <ele>1433.6</ele>
        <time>2024-07-08T08:03:15Z</time>
      </trkpt>
      <trkpt lat="42.71176" lon="1.4582">
        <ele>1437.2</ele>
        <time>2024-07-08T08:03:24Z</time>
      </trkpt>
      <trkpt lat="42.71184" lon="1.45823">
        <ele>1438.6</ele>
        <time>2024-07-08T08:03:33Z</time>
      </trkpt>
      <trkpt lat="42.71186" lon="1.45823">
        <ele>1440.2</ele>
        <time>2024-07-08T08:03:39Z</time>
      </trkpt>
      <trkpt lat="42.71194" lon="1.45824">
        <ele>1441.2</ele>
        <time>2024-07-08T08:03:46Z</time>
      </trkpt>
      <trkpt lat="42.71199" lon="1.45823">
        <ele>1442.6</ele>
        <time>2024-07-08T08:03:50Z</time>
      </trkpt>
      <trkpt lat="42.71203" lon="1.45822">
        <ele>1444</ele>
        <time>2024-07-08T08:03:54Z</time>
      </trkpt>
      <trkpt lat="42.71204" lon="1.45822">
        <ele>1444.4</ele>
        <time>2024-07-08T08:03:55Z</time>
      </trkpt>
      <trkpt lat="42.71209" lon="1.45823">
        <ele>1445.4</ele>
        <time>2024-07-08T08:04:00Z</time>
      </trkpt>
      <trkpt lat="42.71219" lon="1.45826">
        <ele>1444.8</ele>
        <time>2024-07-08T08:04:08Z</time>
      </trkpt>
      <trkpt lat="42.7122" lon="1.45827">
        <ele>1444.6</ele>
        <time>2024-07-08T08:04:09Z</time>
      </trkpt>
      <trkpt lat="42.71229" lon="1.45829">
        <ele>1442.8</ele>
        <time>2024-07-08T08:04:17Z</time>
      </trkpt>
      <trkpt lat="42.71238" lon="1.45833">
        <ele>1441.4</ele>
        <time>2024-07-08T08:04:25Z</time>
      </trkpt>
      <trkpt lat="42.71245" lon="1.45841">
        <ele>1440.8</ele>
        <time>2024-07-08T08:04:32Z</time>
      </trkpt>
      <trkpt lat="42.71251" lon="1.45839">
        <ele>1440.4</ele>
        <time>2024-07-08T08:04:37Z</time>
      </trkpt>
      <trkpt lat="42.71254" lon="1.45838">
        <ele>1440.2</ele>
        <time>2024-07-08T08:04:39Z</time>
      </trkpt>
      <trkpt lat="42.71263" lon="1.45836">
        <ele>1443.4</ele>
        <time>2024-07-08T08:04:47Z</time>
      </trkpt>
      <trkpt lat="42.71264" lon="1.45835">
        <ele>1443.6</ele>
        <time>2024-07-08T08:04:48Z</time>
      </trkpt>
      <trkpt lat="42.71271" lon="1.4583">
        <ele>1444.2</ele>
        <time>2024-07-08T08:04:54Z</time>
      </trkpt>
      <trkpt lat="42.7128" lon="1.45829">
        <ele>1444.6</ele>
        <time>2024-07-08T08:05:03Z</time>
      </trkpt>
      <trkpt lat="42.7129" lon="1.45835">
        <ele>1444.2</ele>
        <time>2024-07-08T08:05:11Z</time>
      </trkpt>
      <trkpt lat="42.71298" lon="1.45845">
        <ele>1443.8</ele>
        <time>2024-07-08T08:05:19Z</time>
      </trkpt>
      <trkpt lat="42.71305" lon="1.45852">
        <ele>1442.6</ele>
        <time>2024-07-08T08:05:27Z</time>
      </trkpt>
      <trkpt lat="42.71315" lon="1.4586">
        <ele>1444.8</ele>
        <time>2024-07-08T08:05:37Z</time>
      </trkpt>
      <trkpt lat="42.71325" lon="1.45866">
        <ele>1444.2</ele>
        <time>2024-07-08T08:05:46Z</time>
      </trkpt>
      <trkpt lat="42.71337" lon="1.45871">
        <ele>1444.4</ele>
        <time>2024-07-08T08:05:55Z</time>
      </trkpt>
      <trkpt lat="42.71347" lon="1.45875">
        <ele>1447.2</ele>
        <time>2024-07-08T08:06:03Z</time>
      </trkpt>
      <trkpt lat="42.7136" lon="1.45884">
        <ele>1452</ele>
        <time>2024-07-08T08:06:14Z</time>
      </trkpt>
      <trkpt lat="42.71365" lon="1.45888">
        <ele>1452</ele>
        <time>2024-07-08T08:06:18Z</time>
      </trkpt>
      <trkpt lat="42.71367" lon="1.4589">
        <ele>1451.8</ele>
        <time>2024-07-08T08:06:20Z</time>
      </trkpt>
      <trkpt lat="42.71374" lon="1.459">
        <ele>1455</ele>
        <time>2024-07-08T08:06:27Z</time>
      </trkpt>
      <trkpt lat="42.71374" lon="1.45901">
        <ele>1455.4</ele>
        <time>2024-07-08T08:06:28Z</time>
      </trkpt>
      <trkpt lat="42.71376" lon="1.45903">
        <ele>1455.8</ele>
        <time>2024-07-08T08:06:29Z</time>
      </trkpt>
      <trkpt lat="42.71377" lon="1.45906">
        <ele>1456.4</ele>
        <time>2024-07-08T08:06:32Z</time>
      </trkpt>
      <trkpt lat="42.71378" lon="1.45908">
        <ele>1456.6</ele>
        <time>2024-07-08T08:06:33Z</time>
      </trkpt>
      <trkpt lat="42.71382" lon="1.45918">
        <ele>1456.8</ele>
        <time>2024-07-08T08:06:40Z</time>
      </trkpt>
      <trkpt lat="42.71388" lon="1.45924">
        <ele>1456.8</ele>
        <time>2024-07-08T08:06:47Z</time>
      </trkpt>
      <trkpt lat="42.71394" lon="1.45937">
        <ele>1458.2</ele>
        <time>2024-07-08T08:06:56Z</time>
      </trkpt>
      <trkpt lat="42.714" lon="1.45945">
        <ele>1457</ele>
        <time>2024-07-08T08:07:05Z</time>
      </trkpt>
      <trkpt lat="42.71407" lon="1.45951">
        <ele>1457</ele>
        <time>2024-07-08T08:07:12Z</time>
      </trkpt>
      <trkpt lat="42.71411" lon="1.45957">
        <ele>1457.6</ele>
        <time>2024-07-08T08:07:16Z</time>
      </trkpt>
      <trkpt lat="42.71413" lon="1.45963">
        <ele>1457.4</ele>
        <time>2024-07-08T08:07:19Z</time>
      </trkpt>
      <trkpt lat="42.71415" lon="1.45966">
        <ele>1456.8</ele>
        <time>2024-07-08T08:07:21Z</time>
      </trkpt>
      <trkpt lat="42.7142" lon="1.45971">
        <ele>1456</ele>
        <time>2024-07-08T08:07:26Z</time>
      </trkpt>
      <trkpt lat="42.71424" lon="1.45973">
        <ele>1456.2</ele>
        <time>2024-07-08T08:07:29Z</time>
      </trkpt>
      <trkpt lat="42.71427" lon="1.45973">
        <ele>1456.2</ele>
        <time>2024-07-08T08:07:33Z</time>
      </trkpt>
      <trkpt lat="42.71431" lon="1.45971">
        <ele>1456.4</ele>
        <time>2024-07-08T08:07:41Z</time>
      </trkpt>
      <trkpt lat="42.71437" lon="1.45966">
        <ele>1457.2</ele>
        <time>2024-07-08T08:07:49Z</time>
      </trkpt>
      <trkpt lat="42.71441" lon="1.4596">
        <ele>1458</ele>
        <time>2024-07-08T08:07:54Z</time>
      </trkpt>
      <trkpt lat="42.71443" lon="1.45958">
        <ele>1458.4</ele>
        <time>2024-07-08T08:07:56Z</time>
      </trkpt>
      <trkpt lat="42.71448" lon="1.45948">
        <ele>1460.6</ele>
        <time>2024-07-08T08:08:04Z</time>
      </trkpt>
      <trkpt lat="42.71451" lon="1.45941">
        <ele>1461.4</ele>
        <time>2024-07-08T08:08:08Z</time>
      </trkpt>
      <trkpt lat="42.71453" lon="1.45938">
        <ele>1462.6</ele>
        <time>2024-07-08T08:08:11Z</time>
      </trkpt>
      <trkpt lat="42.71458" lon="1.45933">
        <ele>1464.4</ele>
        <time>2024-07-08T08:08:15Z</time>
      </trkpt>
      <trkpt lat="42.7146" lon="1.45931">
        <ele>1464.6</ele>
        <time>2024-07-08T08:08:17Z</time>
      </trkpt>
      <trkpt lat="42.71461" lon="1.4593">
        <ele>1464.6</ele>
        <time>2024-07-08T08:08:18Z</time>
      </trkpt>
      <trkpt lat="42.71467" lon="1.45923">
        <ele>1465.6</ele>
        <time>2024-07-08T08:08:24Z</time>
      </trkpt>
      <trkpt lat="42.71468" lon="1.45924">
        <ele>1466</ele>
        <time>2024-07-08T08:08:26Z</time>
      </trkpt>
      <trkpt lat="42.71476" lon="1.45922">
        <ele>1466.2</ele>
        <time>2024-07-08T08:08:32Z</time>
      </trkpt>
      <trkpt lat="42.71486" lon="1.45922">
        <ele>1465</ele>
        <time>2024-07-08T08:08:40Z</time>
      </trkpt>
      <trkpt lat="42.71495" lon="1.45927">
        <ele>1466.6</ele>
        <time>2024-07-08T08:08:47Z</time>
      </trkpt>
      <trkpt lat="42.71497" lon="1.45926">
        <ele>1466.6</ele>
        <time>2024-07-08T08:08:49Z</time>
      </trkpt>
      <trkpt lat="42.71504" lon="1.45926">
        <ele>1467.2</ele>
        <time>2024-07-08T08:08:54Z</time>
      </trkpt>
      <trkpt lat="42.71518" lon="1.45928">
        <ele>1468.2</ele>
        <time>2024-07-08T08:09:03Z</time>
      </trkpt>
      <trkpt lat="42.71524" lon="1.4593">
        <ele>1468.8</ele>
        <time>2024-07-08T08:09:08Z</time>
      </trkpt>
      <trkpt lat="42.71526" lon="1.4593">
        <ele>1468.8</ele>
        <time>2024-07-08T08:09:09Z</time>
      </trkpt>
      <trkpt lat="42.71535" lon="1.45933">
        <ele>1472.2</ele>
        <time>2024-07-08T08:09:17Z</time>
      </trkpt>
      <trkpt lat="42.7154" lon="1.45929">
        <ele>1474.4</ele>
        <time>2024-07-08T08:09:23Z</time>
      </trkpt>
      <trkpt lat="42.71542" lon="1.4593">
        <ele>1474.6</ele>
        <time>2024-07-08T08:09:24Z</time>
      </trkpt>
      <trkpt lat="42.71546" lon="1.45934">
        <ele>1475.8</ele>
        <time>2024-07-08T08:09:29Z</time>
      </trkpt>
      <trkpt lat="42.71548" lon="1.45937">
        <ele>1476.4</ele>
        <time>2024-07-08T08:09:31Z</time>
      </trkpt>
      <trkpt lat="42.71557" lon="1.4594">
        <ele>1477.8</ele>
        <time>2024-07-08T08:09:38Z</time>
      </trkpt>
      <trkpt lat="42.71565" lon="1.45942">
        <ele>1477.4</ele>
        <time>2024-07-08T08:09:46Z</time>
      </trkpt>
      <trkpt lat="42.71575" lon="1.45942">
        <ele>1477.6</ele>
        <time>2024-07-08T08:09:55Z</time>
      </trkpt>
      <trkpt lat="42.71583" lon="1.45937">
        <ele>1477.4</ele>
        <time>2024-07-08T08:10:04Z</time>
      </trkpt>
      <trkpt lat="42.71588" lon="1.45925">
        <ele>1476.4</ele>
        <time>2024-07-08T08:10:14Z</time>
      </trkpt>
      <trkpt lat="42.71588" lon="1.45925">
        <ele>1476.4</ele>
        <time>2024-07-08T08:10:15Z</time>
      </trkpt>
      <trkpt lat="42.71593" lon="1.45917">
        <ele>1476.4</ele>
        <time>2024-07-08T08:10:23Z</time>
      </trkpt>
      <trkpt lat="42.71593" lon="1.45916">
        <ele>1476.6</ele>
        <time>2024-07-08T08:10:24Z</time>
      </trkpt>
      <trkpt lat="42.71594" lon="1.45913">
        <ele>1476.8</ele>
        <time>2024-07-08T08:10:26Z</time>
      </trkpt>
      <trkpt lat="42.71594" lon="1.45913">
        <ele>1477.8</ele>
        <time>2024-07-08T08:10:30Z</time>
      </trkpt>
      <trkpt lat="42.71594" lon="1.45912">
        <ele>1478.6</ele>
        <time>2024-07-08T08:10:37Z</time>
      </trkpt>
      <trkpt lat="42.71594" lon="1.45912">
        <ele>1479.8</ele>
        <time>2024-07-08T08:10:54Z</time>
      </trkpt>
      <trkpt lat="42.71596" lon="1.45912">
        <ele>1481</ele>
        <time>2024-07-08T08:16:10Z</time>
      </trkpt>
      <trkpt lat="42.71605" lon="1.45902">
        <ele>1482.6</ele>
        <time>2024-07-08T08:16:19Z</time>
      </trkpt>
      <trkpt lat="42.71616" lon="1.45894">
        <ele>1482</ele>
        <time>2024-07-08T08:16:29Z</time>
      </trkpt>
      <trkpt lat="42.71616" lon="1.45893">
        <ele>1481.8</ele>
        <time>2024-07-08T08:16:30Z</time>
      </trkpt>
      <trkpt lat="42.71623" lon="1.45883">
        <ele>1481.8</ele>
        <time>2024-07-08T08:16:37Z</time>
      </trkpt>
      <trkpt lat="42.71625" lon="1.45882">
        <ele>1483</ele>
        <time>2024-07-08T08:16:39Z</time>
      </trkpt>
      <trkpt lat="42.71628" lon="1.45876">
        <ele>1484.4</ele>
        <time>2024-07-08T08:16:44Z</time>
      </trkpt>
      <trkpt lat="42.71636" lon="1.4587">
        <ele>1484.8</ele>
        <time>2024-07-08T08:16:51Z</time>
      </trkpt>
      <trkpt lat="42.71645" lon="1.45865">
        <ele>1484.4</ele>
        <time>2024-07-08T08:16:59Z</time>
      </trkpt>
      <trkpt lat="42.71648" lon="1.45864">
        <ele>1484.4</ele>
        <time>2024-07-08T08:17:01Z</time>
      </trkpt>
      <trkpt lat="42.71651" lon="1.45864">
        <ele>1484.2</ele>
        <time>2024-07-08T08:17:04Z</time>
      </trkpt>
      <trkpt lat="42.71658" lon="1.45863">
        <ele>1485</ele>
        <time>2024-07-08T08:17:10Z</time>
      </trkpt>
      <trkpt lat="42.71662" lon="1.45864">
        <ele>1485.6</ele>
        <time>2024-07-08T08:17:14Z</time>
      </trkpt>
      <trkpt lat="42.71665" lon="1.45867">
        <ele>1486</ele>
        <time>2024-07-08T08:17:17Z</time>
      </trkpt>
      <trkpt lat="42.71668" lon="1.45871">
        <ele>1485.6</ele>
        <time>2024-07-08T08:17:20Z</time>
      </trkpt>
      <trkpt lat="42.71673" lon="1.45873">
        <ele>1484.8</ele>
        <time>2024-07-08T08:17:24Z</time>
      </trkpt>
      <trkpt lat="42.71678" lon="1.45874">
        <ele>1483</ele>
        <time>2024-07-08T08:17:29Z</time>
      </trkpt>
      <trkpt lat="42.71679" lon="1.45873">
        <ele>1483.2</ele>
        <time>2024-07-08T08:17:31Z</time>
      </trkpt>
      <trkpt lat="42.71682" lon="1.45874">
        <ele>1483.4</ele>
        <time>2024-07-08T08:17:34Z</time>
      </trkpt>
      <trkpt lat="42.71683" lon="1.45875">
        <ele>1483.4</ele>
        <time>2024-07-08T08:17:35Z</time>
      </trkpt>
      <trkpt lat="42.71687" lon="1.45879">
        <ele>1484.6</ele>
        <time>2024-07-08T08:17:39Z</time>
      </trkpt>
      <trkpt lat="42.71689" lon="1.45879">
        <ele>1485</ele>
        <time>2024-07-08T08:17:40Z</time>
      </trkpt>
      <trkpt lat="42.71696" lon="1.45886">
        <ele>1485.4</ele>
        <time>2024-07-08T08:17:47Z</time>
      </trkpt>
      <trkpt lat="42.717" lon="1.45893">
        <ele>1485.8</ele>
        <time>2024-07-08T08:17:53Z</time>
      </trkpt>
      <trkpt lat="42.71701" lon="1.45895">
        <ele>1486.2</ele>
        <time>2024-07-08T08:17:55Z</time>
      </trkpt>
      <trkpt lat="42.71706" lon="1.45904">
        <ele>1487.4</ele>
        <time>2024-07-08T08:18:03Z</time>
      </trkpt>
      <trkpt lat="42.71707" lon="1.45905">
        <ele>1487.8</ele>
        <time>2024-07-08T08:18:06Z</time>
      </trkpt>
      <trkpt lat="42.71709" lon="1.45905">
        <ele>1488</ele>
        <time>2024-07-08T08:18:08Z</time>
      </trkpt>
      <trkpt lat="42.71713" lon="1.45906">
        <ele>1489</ele>
        <time>2024-07-08T08:18:12Z</time>
      </trkpt>
      <trkpt lat="42.71715" lon="1.45907">
        <ele>1490</ele>
        <time>2024-07-08T08:18:14Z</time>
      </trkpt>
      <trkpt lat="42.71718" lon="1.45907">
        <ele>1492</ele>
        <time>2024-07-08T08:18:17Z</time>
      </trkpt>
      <trkpt lat="42.71721" lon="1.45909">
        <ele>1493.6</ele>
        <time>2024-07-08T08:18:20Z</time>
      </trkpt>
      <trkpt lat="42.71732" lon="1.45916">
        <ele>1495.4</ele>
        <time>2024-07-08T08:18:29Z</time>
      </trkpt>
      <trkpt lat="42.71737" lon="1.4592">
        <ele>1495.2</ele>
        <time>2024-07-08T08:18:33Z</time>
      </trkpt>
      <trkpt lat="42.7174" lon="1.45922">
        <ele>1495</ele>
        <time>2024-07-08T08:18:35Z</time>
      </trkpt>
      <trkpt lat="42.71741" lon="1.45922">
        <ele>1495</ele>
        <time>2024-07-08T08:18:36Z</time>
      </trkpt>
      <trkpt lat="42.71748" lon="1.45925">
        <ele>1494.4</ele>
        <time>2024-07-08T08:18:41Z</time>
      </trkpt>
      <trkpt lat="42.71756" lon="1.45931">
        <ele>1492.8</ele>
        <time>2024-07-08T08:18:49Z</time>
      </trkpt>
      <trkpt lat="42.71759" lon="1.45933">
        <ele>1492.6</ele>
        <time>2024-07-08T08:18:51Z</time>
      </trkpt>
      <trkpt lat="42.71759" lon="1.45934">
        <ele>1492.4</ele>
        <time>2024-07-08T08:18:53Z</time>
      </trkpt>
      <trkpt lat="42.71761" lon="1.45938">
        <ele>1492.6</ele>
        <time>2024-07-08T08:18:55Z</time>
      </trkpt>
      <trkpt lat="42.71764" lon="1.45943">
        <ele>1492.4</ele>
        <time>2024-07-08T08:19:00Z</time>
      </trkpt>
      <trkpt lat="42.71765" lon="1.45946">
        <ele>1492.2</ele>
        <time>2024-07-08T08:19:03Z</time>
      </trkpt>
      <trkpt lat="42.7177" lon="1.45949">
        <ele>1492</ele>
        <time>2024-07-08T08:19:06Z</time>
      </trkpt>
      <trkpt lat="42.71771" lon="1.45949">
        <ele>1491.8</ele>
        <time>2024-07-08T08:19:07Z</time>
      </trkpt>
      <trkpt lat="42.71776" lon="1.4595">
        <ele>1490.6</ele>
        <time>2024-07-08T08:19:11Z</time>
      </trkpt>
      <trkpt lat="42.71778" lon="1.45952">
        <ele>1491</ele>
        <time>2024-07-08T08:19:16Z</time>
      </trkpt>
      <trkpt lat="42.71783" lon="1.45955">
        <ele>1493.6</ele>
        <time>2024-07-08T08:19:22Z</time>
      </trkpt>
      <trkpt lat="42.71785" lon="1.45959">
        <ele>1495.6</ele>
        <time>2024-07-08T08:19:27Z</time>
      </trkpt>
      <trkpt lat="42.71787" lon="1.45964">
        <ele>1496.4</ele>
        <time>2024-07-08T08:19:32Z</time>
      </trkpt>
      <trkpt lat="42.71799" lon="1.45971">
        <ele>1497.8</ele>
        <time>2024-07-08T08:19:38Z</time>
      </trkpt>
      <trkpt lat="42.71805" lon="1.45978">
        <ele>1497.4</ele>
        <time>2024-07-08T08:19:44Z</time>
      </trkpt>
      <trkpt lat="42.71809" lon="1.45989">
        <ele>1496.4</ele>
        <time>2024-07-08T08:19:51Z</time>
      </trkpt>
      <trkpt lat="42.71813" lon="1.46001">
        <ele>1496.4</ele>
        <time>2024-07-08T08:19:59Z</time>
      </trkpt>
      <trkpt lat="42.71815" lon="1.46003">
        <ele>1496.4</ele>
        <time>2024-07-08T08:20:01Z</time>
      </trkpt>
      <trkpt lat="42.71821" lon="1.46005">
        <ele>1496.8</ele>
        <time>2024-07-08T08:20:06Z</time>
      </trkpt>
      <trkpt lat="42.71826" lon="1.46009">
        <ele>1498.6</ele>
        <time>2024-07-08T08:20:12Z</time>
      </trkpt>
      <trkpt lat="42.71834" lon="1.46013">
        <ele>1500.2</ele>
        <time>2024-07-08T08:20:19Z</time>
      </trkpt>
      <trkpt lat="42.71842" lon="1.46015">
        <ele>1501.8</ele>
        <time>2024-07-08T08:20:26Z</time>
      </trkpt>
      <trkpt lat="42.71844" lon="1.46017">
        <ele>1503.4</ele>
        <time>2024-07-08T08:20:28Z</time>
      </trkpt>
      <trkpt lat="42.71847" lon="1.46018">
        <ele>1505.2</ele>
        <time>2024-07-08T08:20:32Z</time>
      </trkpt>
      <trkpt lat="42.71854" lon="1.46022">
        <ele>1508.6</ele>
        <time>2024-07-08T08:20:38Z</time>
      </trkpt>
      <trkpt lat="42.71858" lon="1.46023">
        <ele>1515.6</ele>
        <time>2024-07-08T08:20:45Z</time>
      </trkpt>
      <trkpt lat="42.71859" lon="1.46028">
        <ele>1517</ele>
        <time>2024-07-08T08:20:49Z</time>
      </trkpt>
      <trkpt lat="42.71861" lon="1.46031">
        <ele>1517.2</ele>
        <time>2024-07-08T08:20:50Z</time>
      </trkpt>
      <trkpt lat="42.71865" lon="1.46033">
        <ele>1517.6</ele>
        <time>2024-07-08T08:20:55Z</time>
      </trkpt>
      <trkpt lat="42.71865" lon="1.46034">
        <ele>1518</ele>
        <time>2024-07-08T08:21:00Z</time>
      </trkpt>
      <trkpt lat="42.71871" lon="1.46039">
        <ele>1520.2</ele>
        <time>2024-07-08T08:21:06Z</time>
      </trkpt>
      <trkpt lat="42.71875" lon="1.46042">
        <ele>1523.6</ele>
        <time>2024-07-08T08:21:11Z</time>
      </trkpt>
      <trkpt lat="42.71877" lon="1.46046">
        <ele>1525.2</ele>
        <time>2024-07-08T08:21:16Z</time>
      </trkpt>
      <trkpt lat="42.7188" lon="1.46051">
        <ele>1526.2</ele>
        <time>2024-07-08T08:21:21Z</time>
      </trkpt>
      <trkpt lat="42.71887" lon="1.46055">
        <ele>1527</ele>
        <time>2024-07-08T08:21:27Z</time>
      </trkpt>
      <trkpt lat="42.71893" lon="1.46056">
        <ele>1530</ele>
        <time>2024-07-08T08:21:33Z</time>
      </trkpt>
      <trkpt lat="42.71896" lon="1.46057">
        <ele>1530.4</ele>
        <time>2024-07-08T08:21:35Z</time>
      </trkpt>
      <trkpt lat="42.71901" lon="1.46064">
        <ele>1530</ele>
        <time>2024-07-08T08:21:39Z</time>
      </trkpt>
      <trkpt lat="42.71902" lon="1.46065">
        <ele>1529.8</ele>
        <time>2024-07-08T08:21:40Z</time>
      </trkpt>
      <trkpt lat="42.71904" lon="1.46067">
        <ele>1529.6</ele>
        <time>2024-07-08T08:21:44Z</time>
      </trkpt>
      <trkpt lat="42.71913" lon="1.46069">
        <ele>1531.6</ele>
        <time>2024-07-08T08:21:51Z</time>
      </trkpt>
      <trkpt lat="42.71919" lon="1.46071">
        <ele>1531.4</ele>
        <time>2024-07-08T08:21:56Z</time>
      </trkpt>
      <trkpt lat="42.7192" lon="1.46076">
        <ele>1531</ele>
        <time>2024-07-08T08:21:58Z</time>
      </trkpt>
      <trkpt lat="42.71919" lon="1.4608">
        <ele>1530.8</ele>
        <time>2024-07-08T08:22:00Z</time>
      </trkpt>
      <trkpt lat="42.7192" lon="1.46084">
        <ele>1530.4</ele>
        <time>2024-07-08T08:22:02Z</time>
      </trkpt>
      <trkpt lat="42.71921" lon="1.46086">
        <ele>1530</ele>
        <time>2024-07-08T08:22:03Z</time>
      </trkpt>
      <trkpt lat="42.71921" lon="1.46091">
        <ele>1528.8</ele>
        <time>2024-07-08T08:22:05Z</time>
      </trkpt>
      <trkpt lat="42.71922" lon="1.46093">
        <ele>1526.6</ele>
        <time>2024-07-08T08:22:08Z</time>
      </trkpt>
      <trkpt lat="42.71925" lon="1.461">
        <ele>1525.6</ele>
        <time>2024-07-08T08:22:14Z</time>
      </trkpt>
      <trkpt lat="42.71927" lon="1.46112">
        <ele>1527</ele>
        <time>2024-07-08T08:22:23Z</time>
      </trkpt>
      <trkpt lat="42.71929" lon="1.46117">
        <ele>1528.2</ele>
        <time>2024-07-08T08:22:31Z</time>
      </trkpt>
      <trkpt lat="42.71933" lon="1.46123">
        <ele>1530.8</ele>
        <time>2024-07-08T08:22:37Z</time>
      </trkpt>
      <trkpt lat="42.71937" lon="1.46125">
        <ele>1532.6</ele>
        <time>2024-07-08T08:22:44Z</time>
      </trkpt>
      <trkpt lat="42.71936" lon="1.46128">
        <ele>1535.4</ele>
        <time>2024-07-08T08:22:49Z</time>
      </trkpt>
      <trkpt lat="42.71931" lon="1.46131">
        <ele>1536.6</ele>
        <time>2024-07-08T08:22:55Z</time>
      </trkpt>
      <trkpt lat="42.71926" lon="1.46133">
        <ele>1539.6</ele>
        <time>2024-07-08T08:23:01Z</time>
      </trkpt>
      <trkpt lat="42.71924" lon="1.46132">
        <ele>1540</ele>
        <time>2024-07-08T08:23:02Z</time>
      </trkpt>
      <trkpt lat="42.71916" lon="1.46125">
        <ele>1542.4</ele>
        <time>2024-07-08T08:23:08Z</time>
      </trkpt>
      <trkpt lat="42.71914" lon="1.46122">
        <ele>1545.4</ele>
        <time>2024-07-08T08:23:14Z</time>
      </trkpt>
      <trkpt lat="42.71912" lon="1.46119">
        <ele>1546.4</ele>
        <time>2024-07-08T08:23:19Z</time>
      </trkpt>
      <trkpt lat="42.7191" lon="1.46117">
        <ele>1547</ele>
        <time>2024-07-08T08:23:26Z</time>
      </trkpt>
      <trkpt lat="42.71902" lon="1.46118">
        <ele>1549.8</ele>
        <time>2024-07-08T08:23:32Z</time>
      </trkpt>
      <trkpt lat="42.71899" lon="1.46119">
        <ele>1551.4</ele>
        <time>2024-07-08T08:23:36Z</time>
      </trkpt>
      <trkpt lat="42.71894" lon="1.46117">
        <ele>1551.2</ele>
        <time>2024-07-08T08:23:42Z</time>
      </trkpt>
      <trkpt lat="42.71889" lon="1.46115">
        <ele>1551.2</ele>
        <time>2024-07-08T08:23:49Z</time>
      </trkpt>
      <trkpt lat="42.71886" lon="1.46117">
        <ele>1551.8</ele>
        <time>2024-07-08T08:23:53Z</time>
      </trkpt>
      <trkpt lat="42.71884" lon="1.46118">
        <ele>1551.8</ele>
        <time>2024-07-08T08:23:54Z</time>
      </trkpt>
      <trkpt lat="42.71876" lon="1.46119">
        <ele>1553</ele>
        <time>2024-07-08T08:23:58Z</time>
      </trkpt>
      <trkpt lat="42.71873" lon="1.46118">
        <ele>1554.8</ele>
        <time>2024-07-08T08:24:00Z</time>
      </trkpt>
      <trkpt lat="42.71871" lon="1.46117">
        <ele>1556.4</ele>
        <time>2024-07-08T08:24:03Z</time>
      </trkpt>
      <trkpt lat="42.71869" lon="1.46114">
        <ele>1557</ele>
        <time>2024-07-08T08:24:05Z</time>
      </trkpt>
      <trkpt lat="42.71869" lon="1.46113">
        <ele>1557.4</ele>
        <time>2024-07-08T08:24:07Z</time>
      </trkpt>
      <trkpt lat="42.71862" lon="1.46112">
        <ele>1557</ele>
        <time>2024-07-08T08:24:13Z</time>
      </trkpt>
      <trkpt lat="42.71863" lon="1.46114">
        <ele>1557.2</ele>
        <time>2024-07-08T08:24:19Z</time>
      </trkpt>
      <trkpt lat="42.71861" lon="1.46114">
        <ele>1559.2</ele>
        <time>2024-07-08T08:24:26Z</time>
      </trkpt>
      <trkpt lat="42.71864" lon="1.46115">
        <ele>1563.2</ele>
        <time>2024-07-08T08:24:32Z</time>
      </trkpt>
      <trkpt lat="42.71866" lon="1.46116">
        <ele>1564.8</ele>
        <time>2024-07-08T08:24:38Z</time>
      </trkpt>
      <trkpt lat="42.71868" lon="1.46118">
        <ele>1566.8</ele>
        <time>2024-07-08T08:24:44Z</time>
      </trkpt>
      <trkpt lat="42.71875" lon="1.46122">
        <ele>1569.8</ele>
        <time>2024-07-08T08:24:52Z</time>
      </trkpt>
      <trkpt lat="42.71883" lon="1.46128">
        <ele>1575.6</ele>
        <time>2024-07-08T08:25:00Z</time>
      </trkpt>
      <trkpt lat="42.71889" lon="1.46135">
        <ele>1577.2</ele>
        <time>2024-07-08T08:25:07Z</time>
      </trkpt>
      <trkpt lat="42.71892" lon="1.46136">
        <ele>1577</ele>
        <time>2024-07-08T08:25:09Z</time>
      </trkpt>
      <trkpt lat="42.71896" lon="1.46143">
        <ele>1575</ele>
        <time>2024-07-08T08:25:13Z</time>
      </trkpt>
      <trkpt lat="42.719" lon="1.46144">
        <ele>1573</ele>
        <time>2024-07-08T08:25:18Z</time>
      </trkpt>
      <trkpt lat="42.71904" lon="1.46152">
        <ele>1575.4</ele>
        <time>2024-07-08T08:25:24Z</time>
      </trkpt>
      <trkpt lat="42.71907" lon="1.46153">
        <ele>1575.6</ele>
        <time>2024-07-08T08:25:30Z</time>
      </trkpt>
      <trkpt lat="42.71917" lon="1.46164">
        <ele>1574.2</ele>
        <time>2024-07-08T08:25:38Z</time>
      </trkpt>
      <trkpt lat="42.71924" lon="1.46169">
        <ele>1572.2</ele>
        <time>2024-07-08T08:25:44Z</time>
      </trkpt>
      <trkpt lat="42.71929" lon="1.46176">
        <ele>1566.2</ele>
        <time>2024-07-08T08:25:50Z</time>
      </trkpt>
      <trkpt lat="42.7193" lon="1.46183">
        <ele>1564.8</ele>
        <time>2024-07-08T08:25:56Z</time>
      </trkpt>
      <trkpt lat="42.71934" lon="1.46193">
        <ele>1565.4</ele>
        <time>2024-07-08T08:26:03Z</time>
      </trkpt>
      <trkpt lat="42.71937" lon="1.46201">
        <ele>1567.4</ele>
        <time>2024-07-08T08:26:09Z</time>
      </trkpt>
      <trkpt lat="42.7194" lon="1.46208">
        <ele>1568.8</ele>
        <time>2024-07-08T08:26:17Z</time>
      </trkpt>
      <trkpt lat="42.71943" lon="1.46213">
        <ele>1573.2</ele>
        <time>2024-07-08T08:26:23Z</time>
      </trkpt>
      <trkpt lat="42.71945" lon="1.46216">
        <ele>1575</ele>
        <time>2024-07-08T08:26:25Z</time>
      </trkpt>
      <trkpt lat="42.71945" lon="1.46218">
        <ele>1577</ele>
        <time>2024-07-08T08:26:27Z</time>
      </trkpt>
      <trkpt lat="42.71945" lon="1.4622">
        <ele>1578.6</ele>
        <time>2024-07-08T08:26:29Z</time>
      </trkpt>
      <trkpt lat="42.71946" lon="1.46223">
        <ele>1580.6</ele>
        <time>2024-07-08T08:26:34Z</time>
      </trkpt>
      <trkpt lat="42.71957" lon="1.46233">
        <ele>1582.2</ele>
        <time>2024-07-08T08:26:43Z</time>
      </trkpt>
      <trkpt lat="42.71962" lon="1.46238">
        <ele>1583.6</ele>
        <time>2024-07-08T08:26:49Z</time>
      </trkpt>
      <trkpt lat="42.71967" lon="1.46242">
        <ele>1586.4</ele>
        <time>2024-07-08T08:26:54Z</time>
      </trkpt>
      <trkpt lat="42.71971" lon="1.46244">
        <ele>1587.2</ele>
        <time>2024-07-08T08:26:57Z</time>
      </trkpt>
      <trkpt lat="42.71974" lon="1.46247">
        <ele>1586.6</ele>
        <time>2024-07-08T08:27:01Z</time>
      </trkpt>
      <trkpt lat="42.71976" lon="1.46248">
        <ele>1586</ele>
        <time>2024-07-08T08:27:03Z</time>
      </trkpt>
      <trkpt lat="42.71979" lon="1.46252">
        <ele>1585.8</ele>
        <time>2024-07-08T08:27:08Z</time>
      </trkpt>
      <trkpt lat="42.71983" lon="1.46257">
        <ele>1587.8</ele>
        <time>2024-07-08T08:27:16Z</time>
      </trkpt>
      <trkpt lat="42.71986" lon="1.46258">
        <ele>1588</ele>
        <time>2024-07-08T08:27:18Z</time>
      </trkpt>
      <trkpt lat="42.7199" lon="1.46262">
        <ele>1590.2</ele>
        <time>2024-07-08T08:27:22Z</time>
      </trkpt>
      <trkpt lat="42.71998" lon="1.46264">
        <ele>1591.4</ele>
        <time>2024-07-08T08:27:29Z</time>
      </trkpt>
      <trkpt lat="42.72" lon="1.46266">
        <ele>1593</ele>
        <time>2024-07-08T08:27:34Z</time>
      </trkpt>
      <trkpt lat="42.72003" lon="1.46269">
        <ele>1594</ele>
        <time>2024-07-08T08:27:39Z</time>
      </trkpt>
      <trkpt lat="42.72007" lon="1.46271">
        <ele>1593.8</ele>
        <time>2024-07-08T08:27:44Z</time>
      </trkpt>
      <trkpt lat="42.72011" lon="1.46274">
        <ele>1593.8</ele>
        <time>2024-07-08T08:27:49Z</time>
      </trkpt>
      <trkpt lat="42.7202" lon="1.46282">
        <ele>1596</ele>
        <time>2024-07-08T08:27:56Z</time>
      </trkpt>
      <trkpt lat="42.72027" lon="1.46291">
        <ele>1595.2</ele>
        <time>2024-07-08T08:28:02Z</time>
      </trkpt>
      <trkpt lat="42.72038" lon="1.46298">
        <ele>1591.6</ele>
        <time>2024-07-08T08:28:08Z</time>
      </trkpt>
      <trkpt lat="42.72039" lon="1.46299">
        <ele>1590.6</ele>
        <time>2024-07-08T08:28:09Z</time>
      </trkpt>
      <trkpt lat="42.7204" lon="1.46304">
        <ele>1588.2</ele>
        <time>2024-07-08T08:28:13Z</time>
      </trkpt>
      <trkpt lat="42.72041" lon="1.46307">
        <ele>1588</ele>
        <time>2024-07-08T08:28:15Z</time>
      </trkpt>
      <trkpt lat="42.72043" lon="1.4631">
        <ele>1590</ele>
        <time>2024-07-08T08:28:19Z</time>
      </trkpt>
      <trkpt lat="42.72046" lon="1.46311">
        <ele>1598</ele>
        <time>2024-07-08T08:28:26Z</time>
      </trkpt>
      <trkpt lat="42.72054" lon="1.46316">
        <ele>1608.8</ele>
        <time>2024-07-08T08:28:34Z</time>
      </trkpt>
      <trkpt lat="42.72057" lon="1.46318">
        <ele>1610</ele>
        <time>2024-07-08T08:28:37Z</time>
      </trkpt>
      <trkpt lat="42.72059" lon="1.46321">
        <ele>1610.6</ele>
        <time>2024-07-08T08:28:40Z</time>
      </trkpt>
      <trkpt lat="42.72064" lon="1.46321">
        <ele>1611.4</ele>
        <time>2024-07-08T08:28:46Z</time>
      </trkpt>
      <trkpt lat="42.7207" lon="1.46325">
        <ele>1613.6</ele>
        <time>2024-07-08T08:28:53Z</time>
      </trkpt>
      <trkpt lat="42.72078" lon="1.46328">
        <ele>1614.2</ele>
        <time>2024-07-08T08:29:00Z</time>
      </trkpt>
      <trkpt lat="42.7208" lon="1.46327">
        <ele>1614.4</ele>
        <time>2024-07-08T08:29:02Z</time>
      </trkpt>
      <trkpt lat="42.72084" lon="1.46327">
        <ele>1615.8</ele>
        <time>2024-07-08T08:29:06Z</time>
      </trkpt>
      <trkpt lat="42.72087" lon="1.46327">
        <ele>1616.4</ele>
        <time>2024-07-08T08:29:09Z</time>
      </trkpt>
      <trkpt lat="42.72087" lon="1.46328">
        <ele>1616.8</ele>
        <time>2024-07-08T08:29:11Z</time>
      </trkpt>
      <trkpt lat="42.72092" lon="1.46329">
        <ele>1617.2</ele>
        <time>2024-07-08T08:29:16Z</time>
      </trkpt>
      <trkpt lat="42.72099" lon="1.46331">
        <ele>1617.4</ele>
        <time>2024-07-08T08:29:22Z</time>
      </trkpt>
      <trkpt lat="42.72101" lon="1.46332">
        <ele>1617.4</ele>
        <time>2024-07-08T08:29:24Z</time>
      </trkpt>
      <trkpt lat="42.72106" lon="1.46336">
        <ele>1616.6</ele>
        <time>2024-07-08T08:29:32Z</time>
      </trkpt>
      <trkpt lat="42.72107" lon="1.46339">
        <ele>1615.6</ele>
        <time>2024-07-08T08:29:35Z</time>
      </trkpt>
      <trkpt lat="42.72106" lon="1.46342">
        <ele>1613.8</ele>
        <time>2024-07-08T08:29:38Z</time>
      </trkpt>
      <trkpt lat="42.72103" lon="1.46344">
        <ele>1611.2</ele>
        <time>2024-07-08T08:29:43Z</time>
      </trkpt>
      <trkpt lat="42.72095" lon="1.46351">
        <ele>1609.2</ele>
        <time>2024-07-08T08:29:50Z</time>
      </trkpt>
      <trkpt lat="42.72088" lon="1.46353">
        <ele>1612.4</ele>
        <time>2024-07-08T08:29:58Z</time>
      </trkpt>
      <trkpt lat="42.72089" lon="1.46353">
        <ele>1613.2</ele>
        <time>2024-07-08T08:30:02Z</time>
      </trkpt>
      <trkpt lat="42.72094" lon="1.46355">
        <ele>1613.4</ele>
        <time>2024-07-08T08:30:07Z</time>
      </trkpt>
      <trkpt lat="42.72095" lon="1.46357">
        <ele>1613.2</ele>
        <time>2024-07-08T08:30:09Z</time>
      </trkpt>
      <trkpt lat="42.72101" lon="1.4636">
        <ele>1613.2</ele>
        <time>2024-07-08T08:30:15Z</time>
      </trkpt>
      <trkpt lat="42.72105" lon="1.46366">
        <ele>1615.4</ele>
        <time>2024-07-08T08:30:23Z</time>
      </trkpt>
      <trkpt lat="42.72111" lon="1.46372">
        <ele>1619.8</ele>
        <time>2024-07-08T08:30:31Z</time>
      </trkpt>
      <trkpt lat="42.72112" lon="1.46379">
        <ele>1621</ele>
        <time>2024-07-08T08:30:38Z</time>
      </trkpt>
      <trkpt lat="42.72113" lon="1.4638">
        <ele>1622.2</ele>
        <time>2024-07-08T08:30:43Z</time>
      </trkpt>
      <trkpt lat="42.72115" lon="1.46381">
        <ele>1623.6</ele>
        <time>2024-07-08T08:30:48Z</time>
      </trkpt>
      <trkpt lat="42.72117" lon="1.46383">
        <ele>1627</ele>
        <time>2024-07-08T08:30:53Z</time>
      </trkpt>
      <trkpt lat="42.72122" lon="1.46386">
        <ele>1628.8</ele>
        <time>2024-07-08T08:30:58Z</time>
      </trkpt>
      <trkpt lat="42.72132" lon="1.46391">
        <ele>1629.2</ele>
        <time>2024-07-08T08:31:05Z</time>
      </trkpt>
      <trkpt lat="42.72133" lon="1.46391">
        <ele>1629</ele>
        <time>2024-07-08T08:31:06Z</time>
      </trkpt>
      <trkpt lat="42.72138" lon="1.46393">
        <ele>1628.6</ele>
        <time>2024-07-08T08:31:08Z</time>
      </trkpt>
      <trkpt lat="42.72142" lon="1.46392">
        <ele>1628.4</ele>
        <time>2024-07-08T08:31:11Z</time>
      </trkpt>
      <trkpt lat="42.72147" lon="1.46395">
        <ele>1630.2</ele>
        <time>2024-07-08T08:31:16Z</time>
      </trkpt>
      <trkpt lat="42.72149" lon="1.46397">
        <ele>1630.6</ele>
        <time>2024-07-08T08:31:18Z</time>
      </trkpt>
      <trkpt lat="42.72156" lon="1.464">
        <ele>1631.4</ele>
        <time>2024-07-08T08:31:24Z</time>
      </trkpt>
      <trkpt lat="42.72157" lon="1.464">
        <ele>1632</ele>
        <time>2024-07-08T08:31:25Z</time>
      </trkpt>
      <trkpt lat="42.72165" lon="1.46402">
        <ele>1634.2</ele>
        <time>2024-07-08T08:31:31Z</time>
      </trkpt>
      <trkpt lat="42.7217" lon="1.46403">
        <ele>1637.8</ele>
        <time>2024-07-08T08:31:38Z</time>
      </trkpt>
      <trkpt lat="42.7217" lon="1.46402">
        <ele>1639.4</ele>
        <time>2024-07-08T08:31:52Z</time>
      </trkpt>
      <trkpt lat="42.72171" lon="1.46401">
        <ele>1640.4</ele>
        <time>2024-07-08T08:32:55Z</time>
      </trkpt>
      <trkpt lat="42.72174" lon="1.46398">
        <ele>1642.2</ele>
        <time>2024-07-08T08:33:01Z</time>
      </trkpt>
      <trkpt lat="42.72173" lon="1.46404">
        <ele>1644.2</ele>
        <time>2024-07-08T08:33:05Z</time>
      </trkpt>
      <trkpt lat="42.72174" lon="1.46404">
        <ele>1644.4</ele>
        <time>2024-07-08T08:33:11Z</time>
      </trkpt>
      <trkpt lat="42.72173" lon="1.46403">
        <ele>1644.2</ele>
        <time>2024-07-08T08:33:15Z</time>
      </trkpt>
      <trkpt lat="42.72176" lon="1.46409">
        <ele>1644.2</ele>
        <time>2024-07-08T08:33:22Z</time>
      </trkpt>
      <trkpt lat="42.72173" lon="1.46405">
        <ele>1643</ele>
        <time>2024-07-08T08:33:28Z</time>
      </trkpt>
      <trkpt lat="42.72181" lon="1.46409">
        <ele>1642.8</ele>
        <time>2024-07-08T08:33:32Z</time>
      </trkpt>
      <trkpt lat="42.72182" lon="1.46406">
        <ele>1642.8</ele>
        <time>2024-07-08T08:33:35Z</time>
      </trkpt>
      <trkpt lat="42.72181" lon="1.46406">
        <ele>1642.4</ele>
        <time>2024-07-08T08:33:38Z</time>
      </trkpt>
      <trkpt lat="42.72178" lon="1.46406">
        <ele>1642</ele>
        <time>2024-07-08T08:33:44Z</time>
      </trkpt>
      <trkpt lat="42.72171" lon="1.46401">
        <ele>1639.6</ele>
        <time>2024-07-08T08:33:49Z</time>
      </trkpt>
      <trkpt lat="42.72174" lon="1.46402">
        <ele>1637.8</ele>
        <time>2024-07-08T08:33:52Z</time>
      </trkpt>
      <trkpt lat="42.72176" lon="1.46401">
        <ele>1635.8</ele>
        <time>2024-07-08T08:33:57Z</time>
      </trkpt>
      <trkpt lat="42.72176" lon="1.46405">
        <ele>1634.6</ele>
        <time>2024-07-08T08:34:03Z</time>
      </trkpt>
      <trkpt lat="42.72177" lon="1.46404">
        <ele>1634.2</ele>
        <time>2024-07-08T08:34:11Z</time>
      </trkpt>
      <trkpt lat="42.7218" lon="1.46406">
        <ele>1633</ele>
        <time>2024-07-08T08:36:25Z</time>
      </trkpt>
      <trkpt lat="42.7219" lon="1.46415">
        <ele>1634.8</ele>
        <time>2024-07-08T08:36:34Z</time>
      </trkpt>
      <trkpt lat="42.72195" lon="1.4642">
        <ele>1634.2</ele>
        <time>2024-07-08T08:36:41Z</time>
      </trkpt>
      <trkpt lat="42.72197" lon="1.46421">
        <ele>1632</ele>
        <time>2024-07-08T08:36:49Z</time>
      </trkpt>
      <trkpt lat="42.72202" lon="1.46423">
        <ele>1632.6</ele>
        <time>2024-07-08T08:36:54Z</time>
      </trkpt>
      <trkpt lat="42.7221" lon="1.4642">
        <ele>1632.2</ele>
        <time>2024-07-08T08:37:01Z</time>
      </trkpt>
      <trkpt lat="42.72211" lon="1.4642">
        <ele>1632.2</ele>
        <time>2024-07-08T08:37:03Z</time>
      </trkpt>
      <trkpt lat="42.72215" lon="1.46418">
        <ele>1632.8</ele>
        <time>2024-07-08T08:37:07Z</time>
      </trkpt>
      <trkpt lat="42.72217" lon="1.46417">
        <ele>1634.4</ele>
        <time>2024-07-08T08:37:09Z</time>
      </trkpt>
      <trkpt lat="42.7222" lon="1.46416">
        <ele>1636.4</ele>
        <time>2024-07-08T08:37:11Z</time>
      </trkpt>
      <trkpt lat="42.72221" lon="1.46415">
        <ele>1637</ele>
        <time>2024-07-08T08:37:12Z</time>
      </trkpt>
      <trkpt lat="42.72229" lon="1.46414">
        <ele>1639.2</ele>
        <time>2024-07-08T08:37:19Z</time>
      </trkpt>
      <trkpt lat="42.72241" lon="1.46411">
        <ele>1638.8</ele>
        <time>2024-07-08T08:37:26Z</time>
      </trkpt>
      <trkpt lat="42.72249" lon="1.46411">
        <ele>1638</ele>
        <time>2024-07-08T08:37:32Z</time>
      </trkpt>
      <trkpt lat="42.7225" lon="1.46412">
        <ele>1637.8</ele>
        <time>2024-07-08T08:37:33Z</time>
      </trkpt>
      <trkpt lat="42.72252" lon="1.46412">
        <ele>1637.6</ele>
        <time>2024-07-08T08:37:34Z</time>
      </trkpt>
      <trkpt lat="42.72256" lon="1.46412">
        <ele>1637.6</ele>
        <time>2024-07-08T08:37:38Z</time>
      </trkpt>
      <trkpt lat="42.72258" lon="1.46412">
        <ele>1637.8</ele>
        <time>2024-07-08T08:37:39Z</time>
      </trkpt>
      <trkpt lat="42.72269" lon="1.46411">
        <ele>1638.8</ele>
        <time>2024-07-08T08:37:46Z</time>
      </trkpt>
      <trkpt lat="42.72276" lon="1.4641">
        <ele>1638.8</ele>
        <time>2024-07-08T08:37:50Z</time>
      </trkpt>
      <trkpt lat="42.72282" lon="1.46409">
        <ele>1638.6</ele>
        <time>2024-07-08T08:37:53Z</time>
      </trkpt>
      <trkpt lat="42.72293" lon="1.46411">
        <ele>1636.6</ele>
        <time>2024-07-08T08:37:59Z</time>
      </trkpt>
      <trkpt lat="42.72307" lon="1.46414">
        <ele>1632.8</ele>
        <time>2024-07-08T08:38:07Z</time>
      </trkpt>
      <trkpt lat="42.72316" lon="1.46416">
        <ele>1629.2</ele>
        <time>2024-07-08T08:38:12Z</time>
      </trkpt>
      <trkpt lat="42.7232" lon="1.46416">
        <ele>1628.2</ele>
        <time>2024-07-08T08:38:14Z</time>
      </trkpt>
      <trkpt lat="42.72335" lon="1.46416">
        <ele>1624.2</ele>
        <time>2024-07-08T08:38:23Z</time>
      </trkpt>
      <trkpt lat="42.72344" lon="1.46416">
        <ele>1621</ele>
        <time>2024-07-08T08:38:29Z</time>
      </trkpt>
      <trkpt lat="42.72358" lon="1.46417">
        <ele>1618.2</ele>
        <time>2024-07-08T08:38:37Z</time>
      </trkpt>
      <trkpt lat="42.7237" lon="1.46419">
        <ele>1612.4</ele>
        <time>2024-07-08T08:38:44Z</time>
      </trkpt>
      <trkpt lat="42.72381" lon="1.46419">
        <ele>1609.6</ele>
        <time>2024-07-08T08:38:52Z</time>
      </trkpt>
      <trkpt lat="42.72396" lon="1.46422">
        <ele>1610.4</ele>
        <time>2024-07-08T08:39:01Z</time>
      </trkpt>
      <trkpt lat="42.7241" lon="1.4643">
        <ele>1611.6</ele>
        <time>2024-07-08T08:39:09Z</time>
      </trkpt>
      <trkpt lat="42.72419" lon="1.46434">
        <ele>1604</ele>
        <time>2024-07-08T08:39:17Z</time>
      </trkpt>
      <trkpt lat="42.72418" lon="1.46434">
        <ele>1603.2</ele>
        <time>2024-07-08T08:39:18Z</time>
      </trkpt>
      <trkpt lat="42.72413" lon="1.46428">
        <ele>1600.6</ele>
        <time>2024-07-08T08:39:23Z</time>
      </trkpt>
      <trkpt lat="42.72411" lon="1.46423">
        <ele>1598.2</ele>
        <time>2024-07-08T08:39:27Z</time>
      </trkpt>
      <trkpt lat="42.72413" lon="1.46422">
        <ele>1596.6</ele>
        <time>2024-07-08T08:39:29Z</time>
      </trkpt>
      <trkpt lat="42.72415" lon="1.46422">
        <ele>1595.2</ele>
        <time>2024-07-08T08:39:31Z</time>
      </trkpt>
      <trkpt lat="42.72421" lon="1.46427">
        <ele>1593.2</ele>
        <time>2024-07-08T08:39:35Z</time>
      </trkpt>
      <trkpt lat="42.72431" lon="1.4644">
        <ele>1589</ele>
        <time>2024-07-08T08:39:45Z</time>
      </trkpt>
      <trkpt lat="42.72432" lon="1.46443">
        <ele>1589.6</ele>
        <time>2024-07-08T08:39:47Z</time>
      </trkpt>
      <trkpt lat="42.72434" lon="1.46451">
        <ele>1591.2</ele>
        <time>2024-07-08T08:39:51Z</time>
      </trkpt>
      <trkpt lat="42.72437" lon="1.46465">
        <ele>1593.4</ele>
        <time>2024-07-08T08:39:59Z</time>
      </trkpt>
      <trkpt lat="42.72445" lon="1.46471">
        <ele>1592</ele>
        <time>2024-07-08T08:40:04Z</time>
      </trkpt>
      <trkpt lat="42.72447" lon="1.46472">
        <ele>1591.4</ele>
        <time>2024-07-08T08:40:05Z</time>
      </trkpt>
      <trkpt lat="42.72452" lon="1.46473">
        <ele>1590</ele>
        <time>2024-07-08T08:40:10Z</time>
      </trkpt>
      <trkpt lat="42.72454" lon="1.46474">
        <ele>1590.6</ele>
        <time>2024-07-08T08:40:12Z</time>
      </trkpt>
      <trkpt lat="42.72456" lon="1.46479">
        <ele>1591.2</ele>
        <time>2024-07-08T08:40:16Z</time>
      </trkpt>
      <trkpt lat="42.72456" lon="1.46482">
        <ele>1591.4</ele>
        <time>2024-07-08T08:40:18Z</time>
      </trkpt>
      <trkpt lat="42.72457" lon="1.46483">
        <ele>1591.8</ele>
        <time>2024-07-08T08:40:19Z</time>
      </trkpt>
      <trkpt lat="42.72461" lon="1.46487">
        <ele>1592.2</ele>
        <time>2024-07-08T08:40:22Z</time>
      </trkpt>
      <trkpt lat="42.72466" lon="1.4649">
        <ele>1591.4</ele>
        <time>2024-07-08T08:40:27Z</time>
      </trkpt>
      <trkpt lat="42.72468" lon="1.4649">
        <ele>1590.8</ele>
        <time>2024-07-08T08:40:28Z</time>
      </trkpt>
      <trkpt lat="42.72473" lon="1.46492">
        <ele>1589.2</ele>
        <time>2024-07-08T08:40:32Z</time>
      </trkpt>
      <trkpt lat="42.7248" lon="1.46491">
        <ele>1591.2</ele>
        <time>2024-07-08T08:40:38Z</time>
      </trkpt>
      <trkpt lat="42.7249" lon="1.46496">
        <ele>1593.6</ele>
        <time>2024-07-08T08:40:46Z</time>
      </trkpt>
      <trkpt lat="42.72498" lon="1.46497">
        <ele>1595.2</ele>
        <time>2024-07-08T08:40:52Z</time>
      </trkpt>
      <trkpt lat="42.72504" lon="1.46497">
        <ele>1597</ele>
        <time>2024-07-08T08:40:59Z</time>
      </trkpt>
      <trkpt lat="42.72505" lon="1.46498">
        <ele>1597</ele>
        <time>2024-07-08T08:41:00Z</time>
      </trkpt>
      <trkpt lat="42.72513" lon="1.46504">
        <ele>1594.2</ele>
        <time>2024-07-08T08:41:08Z</time>
      </trkpt>
      <trkpt lat="42.7252" lon="1.46511">
        <ele>1592.2</ele>
        <time>2024-07-08T08:41:14Z</time>
      </trkpt>
      <trkpt lat="42.72526" lon="1.46517">
        <ele>1591.2</ele>
        <time>2024-07-08T08:41:21Z</time>
      </trkpt>
      <trkpt lat="42.72527" lon="1.46518">
        <ele>1591.2</ele>
        <time>2024-07-08T08:41:22Z</time>
      </trkpt>
      <trkpt lat="42.72533" lon="1.46525">
        <ele>1591</ele>
        <time>2024-07-08T08:41:28Z</time>
      </trkpt>
      <trkpt lat="42.72539" lon="1.46526">
        <ele>1591.8</ele>
        <time>2024-07-08T08:41:32Z</time>
      </trkpt>
      <trkpt lat="42.72541" lon="1.46525">
        <ele>1592</ele>
        <time>2024-07-08T08:41:34Z</time>
      </trkpt>
      <trkpt lat="42.72544" lon="1.46531">
        <ele>1591.8</ele>
        <time>2024-07-08T08:41:37Z</time>
      </trkpt>
      <trkpt lat="42.72545" lon="1.46533">
        <ele>1591.6</ele>
        <time>2024-07-08T08:41:38Z</time>
      </trkpt>
      <trkpt lat="42.7255" lon="1.46538">
        <ele>1588.2</ele>
        <time>2024-07-08T08:41:44Z</time>
      </trkpt>
      <trkpt lat="42.72557" lon="1.46545">
        <ele>1588.4</ele>
        <time>2024-07-08T08:41:52Z</time>
      </trkpt>
      <trkpt lat="42.72559" lon="1.46551">
        <ele>1589.8</ele>
        <time>2024-07-08T08:41:56Z</time>
      </trkpt>
      <trkpt lat="42.72562" lon="1.46554">
        <ele>1590.4</ele>
        <time>2024-07-08T08:41:58Z</time>
      </trkpt>
      <trkpt lat="42.72565" lon="1.4656">
        <ele>1591.2</ele>
        <time>2024-07-08T08:42:03Z</time>
      </trkpt>
      <trkpt lat="42.72567" lon="1.46564">
        <ele>1591.6</ele>
        <time>2024-07-08T08:42:06Z</time>
      </trkpt>
      <trkpt lat="42.72572" lon="1.46573">
        <ele>1590.8</ele>
        <time>2024-07-08T08:42:14Z</time>
      </trkpt>
      <trkpt lat="42.72573" lon="1.46574">
        <ele>1590.6</ele>
        <time>2024-07-08T08:42:15Z</time>
      </trkpt>
      <trkpt lat="42.72574" lon="1.46578">
        <ele>1590.2</ele>
        <time>2024-07-08T08:42:17Z</time>
      </trkpt>
      <trkpt lat="42.72576" lon="1.46581">
        <ele>1590.2</ele>
        <time>2024-07-08T08:42:19Z</time>
      </trkpt>
      <trkpt lat="42.72583" lon="1.4659">
        <ele>1591</ele>
        <time>2024-07-08T08:42:26Z</time>
      </trkpt>
      <trkpt lat="42.72584" lon="1.46606">
        <ele>1593</ele>
        <time>2024-07-08T08:42:36Z</time>
      </trkpt>
      <trkpt lat="42.72585" lon="1.46607">
        <ele>1593.8</ele>
        <time>2024-07-08T08:42:37Z</time>
      </trkpt>
      <trkpt lat="42.72588" lon="1.46613">
        <ele>1598.4</ele>
        <time>2024-07-08T08:42:41Z</time>
      </trkpt>
      <trkpt lat="42.72589" lon="1.46615">
        <ele>1599.4</ele>
        <time>2024-07-08T08:42:42Z</time>
      </trkpt>
      <trkpt lat="42.72594" lon="1.46626">
        <ele>1600</ele>
        <time>2024-07-08T08:42:50Z</time>
      </trkpt>
      <trkpt lat="42.72595" lon="1.46628">
        <ele>1599.4</ele>
        <time>2024-07-08T08:42:51Z</time>
      </trkpt>
      <trkpt lat="42.726" lon="1.46635">
        <ele>1597.2</ele>
        <time>2024-07-08T08:42:57Z</time>
      </trkpt>
      <trkpt lat="42.72608" lon="1.46641">
        <ele>1597</ele>
        <time>2024-07-08T08:43:04Z</time>
      </trkpt>
      <trkpt lat="42.72617" lon="1.46647">
        <ele>1601</ele>
        <time>2024-07-08T08:43:13Z</time>
      </trkpt>
      <trkpt lat="42.7262" lon="1.46649">
        <ele>1602.8</ele>
        <time>2024-07-08T08:43:15Z</time>
      </trkpt>
      <trkpt lat="42.72624" lon="1.46655">
        <ele>1606.2</ele>
        <time>2024-07-08T08:43:21Z</time>
      </trkpt>
      <trkpt lat="42.72629" lon="1.46664">
        <ele>1606.4</ele>
        <time>2024-07-08T08:43:26Z</time>
      </trkpt>
      <trkpt lat="42.72633" lon="1.46665">
        <ele>1606.2</ele>
        <time>2024-07-08T08:43:28Z</time>
      </trkpt>
      <trkpt lat="42.72637" lon="1.46668">
        <ele>1605.8</ele>
        <time>2024-07-08T08:43:31Z</time>
      </trkpt>
      <trkpt lat="42.7264" lon="1.46672">
        <ele>1605.6</ele>
        <time>2024-07-08T08:43:34Z</time>
      </trkpt>
      <trkpt lat="42.72647" lon="1.46689">
        <ele>1602.2</ele>
        <time>2024-07-08T08:43:44Z</time>
      </trkpt>
      <trkpt lat="42.72659" lon="1.46699">
        <ele>1601.6</ele>
        <time>2024-07-08T08:43:55Z</time>
      </trkpt>
      <trkpt lat="42.72669" lon="1.46707">
        <ele>1604.4</ele>
        <time>2024-07-08T08:44:05Z</time>
      </trkpt>
      <trkpt lat="42.72672" lon="1.46712">
        <ele>1605</ele>
        <time>2024-07-08T08:44:10Z</time>
      </trkpt>
      <trkpt lat="42.72675" lon="1.46714">
        <ele>1604.6</ele>
        <time>2024-07-08T08:44:12Z</time>
      </trkpt>
      <trkpt lat="42.7268" lon="1.46719">
        <ele>1602.8</ele>
        <time>2024-07-08T08:44:17Z</time>
      </trkpt>
      <trkpt lat="42.72682" lon="1.46724">
        <ele>1602.6</ele>
        <time>2024-07-08T08:44:22Z</time>
      </trkpt>
      <trkpt lat="42.72687" lon="1.46728">
        <ele>1605.4</ele>
        <time>2024-07-08T08:44:29Z</time>
      </trkpt>
      <trkpt lat="42.72691" lon="1.46733">
        <ele>1607.6</ele>
        <time>2024-07-08T08:44:35Z</time>
      </trkpt>
      <trkpt lat="42.72695" lon="1.46735">
        <ele>1606.8</ele>
        <time>2024-07-08T08:44:41Z</time>
      </trkpt>
      <trkpt lat="42.72697" lon="1.46736">
        <ele>1606.8</ele>
        <time>2024-07-08T08:44:43Z</time>
      </trkpt>
      <trkpt lat="42.72699" lon="1.46737">
        <ele>1606.6</ele>
        <time>2024-07-08T08:44:45Z</time>
      </trkpt>
      <trkpt lat="42.72701" lon="1.46738">
        <ele>1606.6</ele>
        <time>2024-07-08T08:44:46Z</time>
      </trkpt>
      <trkpt lat="42.72715" lon="1.46746">
        <ele>1605.4</ele>
        <time>2024-07-08T08:44:57Z</time>
      </trkpt>
      <trkpt lat="42.72724" lon="1.46752">
        <ele>1605.6</ele>
        <time>2024-07-08T08:45:05Z</time>
      </trkpt>
      <trkpt lat="42.72731" lon="1.4676">
        <ele>1607.4</ele>
        <time>2024-07-08T08:45:13Z</time>
      </trkpt>
      <trkpt lat="42.72738" lon="1.46768">
        <ele>1611.6</ele>
        <time>2024-07-08T08:45:20Z</time>
      </trkpt>
      <trkpt lat="42.72741" lon="1.46769">
        <ele>1613.8</ele>
        <time>2024-07-08T08:45:23Z</time>
      </trkpt>
      <trkpt lat="42.72746" lon="1.46773">
        <ele>1616.6</ele>
        <time>2024-07-08T08:45:27Z</time>
      </trkpt>
      <trkpt lat="42.7275" lon="1.46775">
        <ele>1618</ele>
        <time>2024-07-08T08:45:31Z</time>
      </trkpt>
      <trkpt lat="42.7275" lon="1.46779">
        <ele>1618.6</ele>
        <time>2024-07-08T08:45:33Z</time>
      </trkpt>
      <trkpt lat="42.72752" lon="1.46781">
        <ele>1618.8</ele>
        <time>2024-07-08T08:45:34Z</time>
      </trkpt>
      <trkpt lat="42.72756" lon="1.4678">
        <ele>1620.6</ele>
        <time>2024-07-08T08:45:40Z</time>
      </trkpt>
      <trkpt lat="42.72761" lon="1.46778">
        <ele>1622.6</ele>
        <time>2024-07-08T08:45:44Z</time>
      </trkpt>
      <trkpt lat="42.72763" lon="1.46777">
        <ele>1624.4</ele>
        <time>2024-07-08T08:45:48Z</time>
      </trkpt>
      <trkpt lat="42.72772" lon="1.46774">
        <ele>1626</ele>
        <time>2024-07-08T08:45:57Z</time>
      </trkpt>
      <trkpt lat="42.72774" lon="1.46775">
        <ele>1626.8</ele>
        <time>2024-07-08T08:45:59Z</time>
      </trkpt>
      <trkpt lat="42.72777" lon="1.46772">
        <ele>1627.8</ele>
        <time>2024-07-08T08:46:02Z</time>
      </trkpt>
      <trkpt lat="42.72781" lon="1.46764">
        <ele>1628.4</ele>
        <time>2024-07-08T08:46:06Z</time>
      </trkpt>
      <trkpt lat="42.7278" lon="1.46761">
        <ele>1628.8</ele>
        <time>2024-07-08T08:46:08Z</time>
      </trkpt>
      <trkpt lat="42.7278" lon="1.4676">
        <ele>1629.2</ele>
        <time>2024-07-08T08:46:09Z</time>
      </trkpt>
      <trkpt lat="42.72785" lon="1.4675">
        <ele>1631.4</ele>
        <time>2024-07-08T08:46:17Z</time>
      </trkpt>
      <trkpt lat="42.72786" lon="1.46751">
        <ele>1631.6</ele>
        <time>2024-07-08T08:46:18Z</time>
      </trkpt>
      <trkpt lat="42.7279" lon="1.46754">
        <ele>1631.4</ele>
        <time>2024-07-08T08:46:22Z</time>
      </trkpt>
      <trkpt lat="42.72792" lon="1.46755">
        <ele>1631.4</ele>
        <time>2024-07-08T08:46:23Z</time>
      </trkpt>
      <trkpt lat="42.72796" lon="1.4676">
        <ele>1630.6</ele>
        <time>2024-07-08T08:46:27Z</time>
      </trkpt>
      <trkpt lat="42.728" lon="1.4676">
        <ele>1629</ele>
        <time>2024-07-08T08:46:32Z</time>
      </trkpt>
      <trkpt lat="42.72806" lon="1.4676">
        <ele>1627</ele>
        <time>2024-07-08T08:46:38Z</time>
      </trkpt>
      <trkpt lat="42.7281" lon="1.46759">
        <ele>1626.2</ele>
        <time>2024-07-08T08:46:40Z</time>
      </trkpt>
      <trkpt lat="42.72817" lon="1.4676">
        <ele>1625</ele>
        <time>2024-07-08T08:46:44Z</time>
      </trkpt>
      <trkpt lat="42.72827" lon="1.46762">
        <ele>1625.2</ele>
        <time>2024-07-08T08:46:50Z</time>
      </trkpt>
      <trkpt lat="42.7284" lon="1.46766">
        <ele>1627</ele>
        <time>2024-07-08T08:46:58Z</time>
      </trkpt>
      <trkpt lat="42.72846" lon="1.46768">
        <ele>1626.8</ele>
        <time>2024-07-08T08:47:04Z</time>
      </trkpt>
      <trkpt lat="42.72847" lon="1.46769">
        <ele>1626.8</ele>
        <time>2024-07-08T08:47:05Z</time>
      </trkpt>
      <trkpt lat="42.72854" lon="1.46768">
        <ele>1626.6</ele>
        <time>2024-07-08T08:47:12Z</time>
      </trkpt>
      <trkpt lat="42.72866" lon="1.46766">
        <ele>1631.4</ele>
        <time>2024-07-08T08:47:20Z</time>
      </trkpt>
      <trkpt lat="42.72873" lon="1.4677">
        <ele>1635.6</ele>
        <time>2024-07-08T08:47:26Z</time>
      </trkpt>
      <trkpt lat="42.72881" lon="1.46775">
        <ele>1636.8</ele>
        <time>2024-07-08T08:47:33Z</time>
      </trkpt>
      <trkpt lat="42.72888" lon="1.46779">
        <ele>1635.8</ele>
        <time>2024-07-08T08:47:38Z</time>
      </trkpt>
      <trkpt lat="42.72889" lon="1.46779">
        <ele>1635.6</ele>
        <time>2024-07-08T08:47:39Z</time>
      </trkpt>
      <trkpt lat="42.72894" lon="1.46781">
        <ele>1634.4</ele>
        <time>2024-07-08T08:47:45Z</time>
      </trkpt>
      <trkpt lat="42.72901" lon="1.46785">
        <ele>1635.2</ele>
        <time>2024-07-08T08:47:52Z</time>
      </trkpt>
      <trkpt lat="42.72908" lon="1.4679">
        <ele>1636</ele>
        <time>2024-07-08T08:47:58Z</time>
      </trkpt>
      <trkpt lat="42.72915" lon="1.46792">
        <ele>1637.2</ele>
        <time>2024-07-08T08:48:03Z</time>
      </trkpt>
      <trkpt lat="42.7292" lon="1.46794">
        <ele>1637.8</ele>
        <time>2024-07-08T08:48:07Z</time>
      </trkpt>
      <trkpt lat="42.72922" lon="1.46794">
        <ele>1638</ele>
        <time>2024-07-08T08:48:08Z</time>
      </trkpt>
      <trkpt lat="42.72928" lon="1.46798">
        <ele>1638.6</ele>
        <time>2024-07-08T08:48:14Z</time>
      </trkpt>
      <trkpt lat="42.72935" lon="1.46804">
        <ele>1641.4</ele>
        <time>2024-07-08T08:48:20Z</time>
      </trkpt>
      <trkpt lat="42.72944" lon="1.46806">
        <ele>1642.8</ele>
        <time>2024-07-08T08:48:27Z</time>
      </trkpt>
      <trkpt lat="42.72957" lon="1.46807">
        <ele>1644.2</ele>
        <time>2024-07-08T08:48:35Z</time>
      </trkpt>
      <trkpt lat="42.72962" lon="1.46813">
        <ele>1643</ele>
        <time>2024-07-08T08:48:40Z</time>
      </trkpt>
      <trkpt lat="42.7297" lon="1.46816">
        <ele>1643.2</ele>
        <time>2024-07-08T08:48:48Z</time>
      </trkpt>
      <trkpt lat="42.7298" lon="1.46817">
        <ele>1644</ele>
        <time>2024-07-08T08:48:53Z</time>
      </trkpt>
      <trkpt lat="42.72988" lon="1.46821">
        <ele>1644.2</ele>
        <time>2024-07-08T08:48:57Z</time>
      </trkpt>
      <trkpt lat="42.7299" lon="1.46823">
        <ele>1644.6</ele>
        <time>2024-07-08T08:48:59Z</time>
      </trkpt>
      <trkpt lat="42.72995" lon="1.46824">
        <ele>1645.6</ele>
        <time>2024-07-08T08:49:03Z</time>
      </trkpt>
      <trkpt lat="42.72993" lon="1.46827">
        <ele>1646.4</ele>
        <time>2024-07-08T08:49:05Z</time>
      </trkpt>
      <trkpt lat="42.72998" lon="1.46831">
        <ele>1650</ele>
        <time>2024-07-08T08:49:11Z</time>
      </trkpt>
      <trkpt lat="42.73006" lon="1.46829">
        <ele>1649.6</ele>
        <time>2024-07-08T08:49:17Z</time>
      </trkpt>
      <trkpt lat="42.73009" lon="1.46827">
        <ele>1649</ele>
        <time>2024-07-08T08:49:19Z</time>
      </trkpt>
      <trkpt lat="42.73016" lon="1.46826">
        <ele>1646</ele>
        <time>2024-07-08T08:49:25Z</time>
      </trkpt>
      <trkpt lat="42.73036" lon="1.46824">
        <ele>1643.4</ele>
        <time>2024-07-08T08:49:35Z</time>
      </trkpt>
      <trkpt lat="42.73048" lon="1.46822">
        <ele>1636.6</ele>
        <time>2024-07-08T08:49:44Z</time>
      </trkpt>
      <trkpt lat="42.73061" lon="1.46819">
        <ele>1629.4</ele>
        <time>2024-07-08T08:49:52Z</time>
      </trkpt>
      <trkpt lat="42.73071" lon="1.46819">
        <ele>1628.6</ele>
        <time>2024-07-08T08:49:59Z</time>
      </trkpt>
      <trkpt lat="42.73083" lon="1.46816">
        <ele>1629.2</ele>
        <time>2024-07-08T08:50:07Z</time>
      </trkpt>
      <trkpt lat="42.73088" lon="1.46816">
        <ele>1630</ele>
        <time>2024-07-08T08:50:12Z</time>
      </trkpt>
      <trkpt lat="42.73091" lon="1.46817">
        <ele>1630.2</ele>
        <time>2024-07-08T08:50:14Z</time>
      </trkpt>
      <trkpt lat="42.73094" lon="1.46818">
        <ele>1630.2</ele>
        <time>2024-07-08T08:50:16Z</time>
      </trkpt>
      <trkpt lat="42.73095" lon="1.46818">
        <ele>1630.2</ele>
        <time>2024-07-08T08:50:17Z</time>
      </trkpt>
      <trkpt lat="42.73098" lon="1.4682">
        <ele>1630.2</ele>
        <time>2024-07-08T08:50:19Z</time>
      </trkpt>
      <trkpt lat="42.73101" lon="1.46824">
        <ele>1629.8</ele>
        <time>2024-07-08T08:50:22Z</time>
      </trkpt>
      <trkpt lat="42.73105" lon="1.46825">
        <ele>1629.4</ele>
        <time>2024-07-08T08:50:28Z</time>
      </trkpt>
      <trkpt lat="42.73106" lon="1.46825">
        <ele>1630.4</ele>
        <time>2024-07-08T08:50:33Z</time>
      </trkpt>
      <trkpt lat="42.73107" lon="1.46827">
        <ele>1631</ele>
        <time>2024-07-08T08:50:36Z</time>
      </trkpt>
      <trkpt lat="42.73106" lon="1.46828">
        <ele>1630.8</ele>
        <time>2024-07-08T08:50:38Z</time>
      </trkpt>
      <trkpt lat="42.73113" lon="1.46827">
        <ele>1630</ele>
        <time>2024-07-08T08:50:44Z</time>
      </trkpt>
      <trkpt lat="42.73116" lon="1.46831">
        <ele>1630.6</ele>
        <time>2024-07-08T08:50:50Z</time>
      </trkpt>
      <trkpt lat="42.73118" lon="1.46834">
        <ele>1630.6</ele>
        <time>2024-07-08T08:50:53Z</time>
      </trkpt>
      <trkpt lat="42.7312" lon="1.46835">
        <ele>1630.6</ele>
        <time>2024-07-08T08:50:54Z</time>
      </trkpt>
      <trkpt lat="42.73122" lon="1.46836">
        <ele>1630.6</ele>
        <time>2024-07-08T08:50:55Z</time>
      </trkpt>
      <trkpt lat="42.73127" lon="1.46843">
        <ele>1630.4</ele>
        <time>2024-07-08T08:51:00Z</time>
      </trkpt>
      <trkpt lat="42.73128" lon="1.46847">
        <ele>1629.8</ele>
        <time>2024-07-08T08:51:03Z</time>
      </trkpt>
      <trkpt lat="42.73129" lon="1.46848">
        <ele>1629.6</ele>
        <time>2024-07-08T08:51:04Z</time>
      </trkpt>
      <trkpt lat="42.73131" lon="1.4685">
        <ele>1629</ele>
        <time>2024-07-08T08:51:06Z</time>
      </trkpt>
      <trkpt lat="42.73137" lon="1.4685">
        <ele>1628</ele>
        <time>2024-07-08T08:51:10Z</time>
      </trkpt>
      <trkpt lat="42.73138" lon="1.46851">
        <ele>1627.8</ele>
        <time>2024-07-08T08:51:11Z</time>
      </trkpt>
      <trkpt lat="42.73144" lon="1.46854">
        <ele>1627.4</ele>
        <time>2024-07-08T08:51:15Z</time>
      </trkpt>
      <trkpt lat="42.73149" lon="1.46857">
        <ele>1627.4</ele>
        <time>2024-07-08T08:51:17Z</time>
      </trkpt>
      <trkpt lat="42.73156" lon="1.46857">
        <ele>1628</ele>
        <time>2024-07-08T08:51:19Z</time>
      </trkpt>
      <trkpt lat="42.73158" lon="1.46858">
        <ele>1628.8</ele>
        <time>2024-07-08T08:51:21Z</time>
      </trkpt>
      <trkpt lat="42.73166" lon="1.46863">
        <ele>1628.2</ele>
        <time>2024-07-08T08:51:28Z</time>
      </trkpt>
      <trkpt lat="42.73178" lon="1.46871">
        <ele>1625.2</ele>
        <time>2024-07-08T08:51:38Z</time>
      </trkpt>
      <trkpt lat="42.7319" lon="1.46877">
        <ele>1622</ele>
        <time>2024-07-08T08:51:46Z</time>
      </trkpt>
      <trkpt lat="42.73199" lon="1.46877">
        <ele>1615.6</ele>
        <time>2024-07-08T08:51:52Z</time>
      </trkpt>
      <trkpt lat="42.73215" lon="1.46879">
        <ele>1615</ele>
        <time>2024-07-08T08:52:03Z</time>
      </trkpt>
      <trkpt lat="42.73225" lon="1.46874">
        <ele>1615.2</ele>
        <time>2024-07-08T08:52:11Z</time>
      </trkpt>
      <trkpt lat="42.7323" lon="1.46874">
        <ele>1617.2</ele>
        <time>2024-07-08T08:52:16Z</time>
      </trkpt>
      <trkpt lat="42.73233" lon="1.46873">
        <ele>1617.8</ele>
        <time>2024-07-08T08:52:18Z</time>
      </trkpt>
      <trkpt lat="42.73247" lon="1.46872">
        <ele>1619.6</ele>
        <time>2024-07-08T08:52:27Z</time>
      </trkpt>
      <trkpt lat="42.73259" lon="1.46866">
        <ele>1619.2</ele>
        <time>2024-07-08T08:52:35Z</time>
      </trkpt>
      <trkpt lat="42.73262" lon="1.46863">
        <ele>1619.4</ele>
        <time>2024-07-08T08:52:38Z</time>
      </trkpt>
      <trkpt lat="42.73267" lon="1.46864">
        <ele>1619.2</ele>
        <time>2024-07-08T08:52:42Z</time>
      </trkpt>
      <trkpt lat="42.73278" lon="1.46862">
        <ele>1616.2</ele>
        <time>2024-07-08T08:52:50Z</time>
      </trkpt>
      <trkpt lat="42.73279" lon="1.4686">
        <ele>1616</ele>
        <time>2024-07-08T08:52:51Z</time>
      </trkpt>
      <trkpt lat="42.73284" lon="1.46856">
        <ele>1616.4</ele>
        <time>2024-07-08T08:52:58Z</time>
      </trkpt>
      <trkpt lat="42.7329" lon="1.46857">
        <ele>1616.6</ele>
        <time>2024-07-08T08:53:02Z</time>
      </trkpt>
      <trkpt lat="42.7329" lon="1.46859">
        <ele>1616.4</ele>
        <time>2024-07-08T08:53:03Z</time>
      </trkpt>
      <trkpt lat="42.73296" lon="1.4686">
        <ele>1615.2</ele>
        <time>2024-07-08T08:53:07Z</time>
      </trkpt>
      <trkpt lat="42.73297" lon="1.4686">
        <ele>1614.2</ele>
        <time>2024-07-08T08:53:09Z</time>
      </trkpt>
      <trkpt lat="42.73306" lon="1.46861">
        <ele>1610.6</ele>
        <time>2024-07-08T08:53:15Z</time>
      </trkpt>
      <trkpt lat="42.73316" lon="1.46863">
        <ele>1606.8</ele>
        <time>2024-07-08T08:53:22Z</time>
      </trkpt>
      <trkpt lat="42.73319" lon="1.46864">
        <ele>1605.8</ele>
        <time>2024-07-08T08:53:25Z</time>
      </trkpt>
      <trkpt lat="42.73321" lon="1.46866">
        <ele>1605</ele>
        <time>2024-07-08T08:53:27Z</time>
      </trkpt>
      <trkpt lat="42.73322" lon="1.46866">
        <ele>1604.6</ele>
        <time>2024-07-08T08:53:28Z</time>
      </trkpt>
      <trkpt lat="42.73325" lon="1.46867">
        <ele>1603.8</ele>
        <time>2024-07-08T08:53:30Z</time>
      </trkpt>
      <trkpt lat="42.73327" lon="1.4687">
        <ele>1603</ele>
        <time>2024-07-08T08:53:33Z</time>
      </trkpt>
      <trkpt lat="42.73329" lon="1.46869">
        <ele>1602.8</ele>
        <time>2024-07-08T08:53:34Z</time>
      </trkpt>
      <trkpt lat="42.73338" lon="1.4687">
        <ele>1602.4</ele>
        <time>2024-07-08T08:53:40Z</time>
      </trkpt>
      <trkpt lat="42.73345" lon="1.46872">
        <ele>1600.2</ele>
        <time>2024-07-08T08:53:49Z</time>
      </trkpt>
      <trkpt lat="42.73355" lon="1.46874">
        <ele>1599.4</ele>
        <time>2024-07-08T08:53:55Z</time>
      </trkpt>
      <trkpt lat="42.73356" lon="1.46874">
        <ele>1599.2</ele>
        <time>2024-07-08T08:53:56Z</time>
      </trkpt>
      <trkpt lat="42.7336" lon="1.46869">
        <ele>1596</ele>
        <time>2024-07-08T08:54:01Z</time>
      </trkpt>
      <trkpt lat="42.73364" lon="1.46874">
        <ele>1593.4</ele>
        <time>2024-07-08T08:54:07Z</time>
      </trkpt>
      <trkpt lat="42.73368" lon="1.46874">
        <ele>1591.4</ele>
        <time>2024-07-08T08:54:12Z</time>
      </trkpt>
      <trkpt lat="42.73373" lon="1.46877">
        <ele>1589.8</ele>
        <time>2024-07-08T08:54:18Z</time>
      </trkpt>
      <trkpt lat="42.73376" lon="1.46875">
        <ele>1586.4</ele>
        <time>2024-07-08T08:54:24Z</time>
      </trkpt>
      <trkpt lat="42.73383" lon="1.46878">
        <ele>1583.8</ele>
        <time>2024-07-08T08:54:32Z</time>
      </trkpt>
      <trkpt lat="42.73388" lon="1.46876">
        <ele>1580.2</ele>
        <time>2024-07-08T08:54:38Z</time>
      </trkpt>
      <trkpt lat="42.7339" lon="1.46872">
        <ele>1579.2</ele>
        <time>2024-07-08T08:54:44Z</time>
      </trkpt>
      <trkpt lat="42.73389" lon="1.46871">
        <ele>1579.8</ele>
        <time>2024-07-08T08:54:54Z</time>
      </trkpt>
      <trkpt lat="42.73389" lon="1.46869">
        <ele>1580.6</ele>
        <time>2024-07-08T08:55:03Z</time>
      </trkpt>
      <trkpt lat="42.7339" lon="1.46869">
        <ele>1581.4</ele>
        <time>2024-07-08T08:55:22Z</time>
      </trkpt>
      <trkpt lat="42.7339" lon="1.46869">
        <ele>1581.4</ele>
        <time>2024-07-08T08:55:23Z</time>
      </trkpt>
      <trkpt lat="42.73401" lon="1.4687">
        <ele>1581.2</ele>
        <time>2024-07-08T09:06:11Z</time>
      </trkpt>
      <trkpt lat="42.73395" lon="1.46877">
        <ele>1581.4</ele>
        <time>2024-07-08T09:06:17Z</time>
      </trkpt>
      <trkpt lat="42.73386" lon="1.4688">
        <ele>1580.6</ele>
        <time>2024-07-08T09:06:24Z</time>
      </trkpt>
      <trkpt lat="42.73382" lon="1.46879">
        <ele>1581.6</ele>
        <time>2024-07-08T09:06:30Z</time>
      </trkpt>
      <trkpt lat="42.7338" lon="1.46876">
        <ele>1582.6</ele>
        <time>2024-07-08T09:06:35Z</time>
      </trkpt>
      <trkpt lat="42.73377" lon="1.46877">
        <ele>1582.8</ele>
        <time>2024-07-08T09:06:41Z</time>
      </trkpt>
      <trkpt lat="42.73373" lon="1.46877">
        <ele>1579.8</ele>
        <time>2024-07-08T09:06:52Z</time>
      </trkpt>
      <trkpt lat="42.73372" lon="1.46881">
        <ele>1580.6</ele>
        <time>2024-07-08T09:06:56Z</time>
      </trkpt>
      <trkpt lat="42.73371" lon="1.46889">
        <ele>1582.2</ele>
        <time>2024-07-08T09:07:02Z</time>
      </trkpt>
      <trkpt lat="42.7337" lon="1.4689">
        <ele>1582.2</ele>
        <time>2024-07-08T09:07:03Z</time>
      </trkpt>
      <trkpt lat="42.73367" lon="1.46895">
        <ele>1582.2</ele>
        <time>2024-07-08T09:07:08Z</time>
      </trkpt>
      <trkpt lat="42.73364" lon="1.46905">
        <ele>1580.8</ele>
        <time>2024-07-08T09:07:16Z</time>
      </trkpt>
      <trkpt lat="42.73359" lon="1.46912">
        <ele>1582.8</ele>
        <time>2024-07-08T09:07:23Z</time>
      </trkpt>
      <trkpt lat="42.73358" lon="1.46914">
        <ele>1583.2</ele>
        <time>2024-07-08T09:07:25Z</time>
      </trkpt>
      <trkpt lat="42.73354" lon="1.4692">
        <ele>1582.4</ele>
        <time>2024-07-08T09:07:29Z</time>
      </trkpt>
      <trkpt lat="42.73353" lon="1.46923">
        <ele>1582</ele>
        <time>2024-07-08T09:07:32Z</time>
      </trkpt>
      <trkpt lat="42.73351" lon="1.46926">
        <ele>1581.2</ele>
        <time>2024-07-08T09:07:35Z</time>
      </trkpt>
      <trkpt lat="42.73347" lon="1.4693">
        <ele>1578.4</ele>
        <time>2024-07-08T09:07:40Z</time>
      </trkpt>
      <trkpt lat="42.73347" lon="1.46931">
        <ele>1578</ele>
        <time>2024-07-08T09:07:41Z</time>
      </trkpt>
      <trkpt lat="42.73341" lon="1.46936">
        <ele>1576</ele>
        <time>2024-07-08T09:07:46Z</time>
      </trkpt>
      <trkpt lat="42.7334" lon="1.46936">
        <ele>1575.4</ele>
        <time>2024-07-08T09:07:48Z</time>
      </trkpt>
      <trkpt lat="42.73338" lon="1.46938">
        <ele>1574.2</ele>
        <time>2024-07-08T09:07:51Z</time>
      </trkpt>
      <trkpt lat="42.73336" lon="1.46939">
        <ele>1572.4</ele>
        <time>2024-07-08T09:07:54Z</time>
      </trkpt>
      <trkpt lat="42.73331" lon="1.46942">
        <ele>1568.2</ele>
        <time>2024-07-08T09:07:59Z</time>
      </trkpt>
      <trkpt lat="42.7333" lon="1.46942">
        <ele>1567.2</ele>
        <time>2024-07-08T09:08:00Z</time>
      </trkpt>
      <trkpt lat="42.73328" lon="1.46944">
        <ele>1565.2</ele>
        <time>2024-07-08T09:08:02Z</time>
      </trkpt>
      <trkpt lat="42.73327" lon="1.46947">
        <ele>1563.2</ele>
        <time>2024-07-08T09:08:05Z</time>
      </trkpt>
      <trkpt lat="42.73327" lon="1.46948">
        <ele>1562.8</ele>
        <time>2024-07-08T09:08:06Z</time>
      </trkpt>
      <trkpt lat="42.73321" lon="1.4696">
        <ele>1560.8</ele>
        <time>2024-07-08T09:08:13Z</time>
      </trkpt>
      <trkpt lat="42.73316" lon="1.46969">
        <ele>1560</ele>
        <time>2024-07-08T09:08:21Z</time>
      </trkpt>
      <trkpt lat="42.73319" lon="1.46968">
        <ele>1561</ele>
        <time>2024-07-08T09:08:28Z</time>
      </trkpt>
      <trkpt lat="42.73322" lon="1.46971">
        <ele>1560.6</ele>
        <time>2024-07-08T09:08:32Z</time>
      </trkpt>
      <trkpt lat="42.73323" lon="1.46973">
        <ele>1560.2</ele>
        <time>2024-07-08T09:08:33Z</time>
      </trkpt>
      <trkpt lat="42.73325" lon="1.46975">
        <ele>1558.8</ele>
        <time>2024-07-08T09:08:37Z</time>
      </trkpt>
      <trkpt lat="42.73325" lon="1.46979">
        <ele>1558.6</ele>
        <time>2024-07-08T09:08:42Z</time>
      </trkpt>
      <trkpt lat="42.73324" lon="1.4698">
        <ele>1558.6</ele>
        <time>2024-07-08T09:08:43Z</time>
      </trkpt>
      <trkpt lat="42.73322" lon="1.46981">
        <ele>1558.6</ele>
        <time>2024-07-08T09:08:45Z</time>
      </trkpt>
      <trkpt lat="42.73321" lon="1.46985">
        <ele>1558.6</ele>
        <time>2024-07-08T09:08:48Z</time>
      </trkpt>
      <trkpt lat="42.7332" lon="1.46995">
        <ele>1557.8</ele>
        <time>2024-07-08T09:08:54Z</time>
      </trkpt>
      <trkpt lat="42.73319" lon="1.46997">
        <ele>1557.6</ele>
        <time>2024-07-08T09:08:55Z</time>
      </trkpt>
      <trkpt lat="42.73316" lon="1.46999">
        <ele>1557.4</ele>
        <time>2024-07-08T09:08:57Z</time>
      </trkpt>
      <trkpt lat="42.73316" lon="1.47004">
        <ele>1557</ele>
        <time>2024-07-08T09:09:00Z</time>
      </trkpt>
      <trkpt lat="42.73314" lon="1.4701">
        <ele>1556.4</ele>
        <time>2024-07-08T09:09:03Z</time>
      </trkpt>
      <trkpt lat="42.73313" lon="1.47017">
        <ele>1555.2</ele>
        <time>2024-07-08T09:09:06Z</time>
      </trkpt>
      <trkpt lat="42.73314" lon="1.47027">
        <ele>1554.4</ele>
        <time>2024-07-08T09:09:12Z</time>
      </trkpt>
      <trkpt lat="42.73312" lon="1.47039">
        <ele>1553.4</ele>
        <time>2024-07-08T09:09:18Z</time>
      </trkpt>
      <trkpt lat="42.73312" lon="1.47041">
        <ele>1553.2</ele>
        <time>2024-07-08T09:09:19Z</time>
      </trkpt>
      <trkpt lat="42.73312" lon="1.47043">
        <ele>1552.8</ele>
        <time>2024-07-08T09:09:20Z</time>
      </trkpt>
      <trkpt lat="42.73311" lon="1.47049">
        <ele>1551.4</ele>
        <time>2024-07-08T09:09:24Z</time>
      </trkpt>
      <trkpt lat="42.73311" lon="1.4705">
        <ele>1551</ele>
        <time>2024-07-08T09:09:26Z</time>
      </trkpt>
      <trkpt lat="42.73311" lon="1.47053">
        <ele>1550.8</ele>
        <time>2024-07-08T09:09:28Z</time>
      </trkpt>
      <trkpt lat="42.7331" lon="1.47056">
        <ele>1550.4</ele>
        <time>2024-07-08T09:09:30Z</time>
      </trkpt>
      <trkpt lat="42.73309" lon="1.47061">
        <ele>1549.8</ele>
        <time>2024-07-08T09:09:33Z</time>
      </trkpt>
      <trkpt lat="42.73309" lon="1.47064">
        <ele>1548.8</ele>
        <time>2024-07-08T09:09:36Z</time>
      </trkpt>
      <trkpt lat="42.73309" lon="1.47067">
        <ele>1548.2</ele>
        <time>2024-07-08T09:09:38Z</time>
      </trkpt>
      <trkpt lat="42.73309" lon="1.47069">
        <ele>1547.8</ele>
        <time>2024-07-08T09:09:39Z</time>
      </trkpt>
      <trkpt lat="42.73306" lon="1.47076">
        <ele>1543</ele>
        <time>2024-07-08T09:09:44Z</time>
      </trkpt>
      <trkpt lat="42.73304" lon="1.47077">
        <ele>1540.4</ele>
        <time>2024-07-08T09:09:46Z</time>
      </trkpt>
      <trkpt lat="42.73301" lon="1.4708">
        <ele>1538.6</ele>
        <time>2024-07-08T09:09:48Z</time>
      </trkpt>
      <trkpt lat="42.73296" lon="1.47091">
        <ele>1533.2</ele>
        <time>2024-07-08T09:09:53Z</time>
      </trkpt>
      <trkpt lat="42.73295" lon="1.47095">
        <ele>1531.2</ele>
        <time>2024-07-08T09:09:55Z</time>
      </trkpt>
      <trkpt lat="42.73295" lon="1.47102">
        <ele>1528.2</ele>
        <time>2024-07-08T09:09:58Z</time>
      </trkpt>
      <trkpt lat="42.73292" lon="1.47117">
        <ele>1524</ele>
        <time>2024-07-08T09:10:06Z</time>
      </trkpt>
      <trkpt lat="42.73291" lon="1.47122">
        <ele>1522.2</ele>
        <time>2024-07-08T09:10:09Z</time>
      </trkpt>
      <trkpt lat="42.73292" lon="1.47127">
        <ele>1521</ele>
        <time>2024-07-08T09:10:11Z</time>
      </trkpt>
      <trkpt lat="42.73292" lon="1.4713">
        <ele>1520</ele>
        <time>2024-07-08T09:10:13Z</time>
      </trkpt>
      <trkpt lat="42.73293" lon="1.47132">
        <ele>1519</ele>
        <time>2024-07-08T09:10:16Z</time>
      </trkpt>
      <trkpt lat="42.7329" lon="1.47145">
        <ele>1515.6</ele>
        <time>2024-07-08T09:10:23Z</time>
      </trkpt>
      <trkpt lat="42.7329" lon="1.47147">
        <ele>1515.2</ele>
        <time>2024-07-08T09:10:24Z</time>
      </trkpt>
      <trkpt lat="42.73287" lon="1.47156">
        <ele>1513.4</ele>
        <time>2024-07-08T09:10:29Z</time>
      </trkpt>
      <trkpt lat="42.73286" lon="1.47158">
        <ele>1512.6</ele>
        <time>2024-07-08T09:10:30Z</time>
      </trkpt>
      <trkpt lat="42.73282" lon="1.4717">
        <ele>1508.6</ele>
        <time>2024-07-08T09:10:36Z</time>
      </trkpt>
      <trkpt lat="42.73277" lon="1.47177">
        <ele>1505.8</ele>
        <time>2024-07-08T09:10:40Z</time>
      </trkpt>
      <trkpt lat="42.73273" lon="1.47188">
        <ele>1502.8</ele>
        <time>2024-07-08T09:10:46Z</time>
      </trkpt>
      <trkpt lat="42.73273" lon="1.47204">
        <ele>1500.6</ele>
        <time>2024-07-08T09:10:54Z</time>
      </trkpt>
      <trkpt lat="42.73273" lon="1.47218">
        <ele>1499</ele>
        <time>2024-07-08T09:11:03Z</time>
      </trkpt>
      <trkpt lat="42.73271" lon="1.47222">
        <ele>1498.8</ele>
        <time>2024-07-08T09:11:10Z</time>
      </trkpt>
      <trkpt lat="42.73266" lon="1.4722">
        <ele>1498.4</ele>
        <time>2024-07-08T09:11:13Z</time>
      </trkpt>
      <trkpt lat="42.73264" lon="1.47217">
        <ele>1496</ele>
        <time>2024-07-08T09:11:16Z</time>
      </trkpt>
      <trkpt lat="42.73263" lon="1.47217">
        <ele>1493.6</ele>
        <time>2024-07-08T09:11:23Z</time>
      </trkpt>
      <trkpt lat="42.73264" lon="1.47217">
        <ele>1492.6</ele>
        <time>2024-07-08T09:11:32Z</time>
      </trkpt>
      <trkpt lat="42.73265" lon="1.47214">
        <ele>1492.4</ele>
        <time>2024-07-08T09:11:40Z</time>
      </trkpt>
      <trkpt lat="42.73269" lon="1.47211">
        <ele>1491.4</ele>
        <time>2024-07-08T09:11:45Z</time>
      </trkpt>
      <trkpt lat="42.73275" lon="1.47211">
        <ele>1489.8</ele>
        <time>2024-07-08T09:11:51Z</time>
      </trkpt>
      <trkpt lat="42.73285" lon="1.47207">
        <ele>1488.2</ele>
        <time>2024-07-08T09:11:58Z</time>
      </trkpt>
      <trkpt lat="42.73293" lon="1.47198">
        <ele>1486</ele>
        <time>2024-07-08T09:12:07Z</time>
      </trkpt>
      <trkpt lat="42.73298" lon="1.47195">
        <ele>1484.8</ele>
        <time>2024-07-08T09:12:13Z</time>
      </trkpt>
      <trkpt lat="42.73305" lon="1.47191">
        <ele>1484.2</ele>
        <time>2024-07-08T09:12:18Z</time>
      </trkpt>
      <trkpt lat="42.73314" lon="1.47187">
        <ele>1482.8</ele>
        <time>2024-07-08T09:12:25Z</time>
      </trkpt>
      <trkpt lat="42.73316" lon="1.47184">
        <ele>1480.8</ele>
        <time>2024-07-08T09:12:29Z</time>
      </trkpt>
      <trkpt lat="42.73316" lon="1.47183">
        <ele>1479.8</ele>
        <time>2024-07-08T09:12:30Z</time>
      </trkpt>
      <trkpt lat="42.73318" lon="1.47182">
        <ele>1479</ele>
        <time>2024-07-08T09:12:31Z</time>
      </trkpt>
      <trkpt lat="42.73323" lon="1.47183">
        <ele>1475.6</ele>
        <time>2024-07-08T09:12:34Z</time>
      </trkpt>
      <trkpt lat="42.73326" lon="1.47183">
        <ele>1474.8</ele>
        <time>2024-07-08T09:12:35Z</time>
      </trkpt>
      <trkpt lat="42.73329" lon="1.47175">
        <ele>1473.4</ele>
        <time>2024-07-08T09:12:39Z</time>
      </trkpt>
      <trkpt lat="42.7333" lon="1.47174">
        <ele>1473.2</ele>
        <time>2024-07-08T09:12:40Z</time>
      </trkpt>
      <trkpt lat="42.73342" lon="1.47167">
        <ele>1472.6</ele>
        <time>2024-07-08T09:12:46Z</time>
      </trkpt>
      <trkpt lat="42.73345" lon="1.47166">
        <ele>1472.2</ele>
        <time>2024-07-08T09:12:48Z</time>
      </trkpt>
      <trkpt lat="42.73348" lon="1.47162">
        <ele>1472</ele>
        <time>2024-07-08T09:12:51Z</time>
      </trkpt>
      <trkpt lat="42.73361" lon="1.47152">
        <ele>1470</ele>
        <time>2024-07-08T09:13:00Z</time>
      </trkpt>
      <trkpt lat="42.73364" lon="1.47149">
        <ele>1469.6</ele>
        <time>2024-07-08T09:13:02Z</time>
      </trkpt>
      <trkpt lat="42.73369" lon="1.47142">
        <ele>1468.6</ele>
        <time>2024-07-08T09:13:05Z</time>
      </trkpt>
      <trkpt lat="42.73369" lon="1.47139">
        <ele>1468.2</ele>
        <time>2024-07-08T09:13:06Z</time>
      </trkpt>
      <trkpt lat="42.73371" lon="1.47133">
        <ele>1467</ele>
        <time>2024-07-08T09:13:10Z</time>
      </trkpt>
      <trkpt lat="42.73375" lon="1.47128">
        <ele>1464.6</ele>
        <time>2024-07-08T09:13:14Z</time>
      </trkpt>
      <trkpt lat="42.73389" lon="1.47115">
        <ele>1464</ele>
        <time>2024-07-08T09:13:23Z</time>
      </trkpt>
      <trkpt lat="42.73394" lon="1.47111">
        <ele>1465</ele>
        <time>2024-07-08T09:13:28Z</time>
      </trkpt>
      <trkpt lat="42.73395" lon="1.4711">
        <ele>1465.4</ele>
        <time>2024-07-08T09:13:29Z</time>
      </trkpt>
      <trkpt lat="42.73406" lon="1.47103">
        <ele>1466.8</ele>
        <time>2024-07-08T09:13:35Z</time>
      </trkpt>
      <trkpt lat="42.73409" lon="1.47104">
        <ele>1467</ele>
        <time>2024-07-08T09:13:37Z</time>
      </trkpt>
      <trkpt lat="42.73414" lon="1.47104">
        <ele>1466.6</ele>
        <time>2024-07-08T09:13:40Z</time>
      </trkpt>
      <trkpt lat="42.73424" lon="1.47101">
        <ele>1465</ele>
        <time>2024-07-08T09:13:47Z</time>
      </trkpt>
      <trkpt lat="42.73425" lon="1.47101">
        <ele>1465</ele>
        <time>2024-07-08T09:13:48Z</time>
      </trkpt>
      <trkpt lat="42.73426" lon="1.47099">
        <ele>1465.4</ele>
        <time>2024-07-08T09:13:51Z</time>
      </trkpt>
      <trkpt lat="42.73429" lon="1.47094">
        <ele>1465.6</ele>
        <time>2024-07-08T09:13:55Z</time>
      </trkpt>
      <trkpt lat="42.73433" lon="1.47089">
        <ele>1465.4</ele>
        <time>2024-07-08T09:13:59Z</time>
      </trkpt>
      <trkpt lat="42.73436" lon="1.47086">
        <ele>1464.8</ele>
        <time>2024-07-08T09:14:01Z</time>
      </trkpt>
      <trkpt lat="42.73441" lon="1.47082">
        <ele>1463.4</ele>
        <time>2024-07-08T09:14:04Z</time>
      </trkpt>
      <trkpt lat="42.73444" lon="1.47075">
        <ele>1462.6</ele>
        <time>2024-07-08T09:14:07Z</time>
      </trkpt>
      <trkpt lat="42.73456" lon="1.47068">
        <ele>1458</ele>
        <time>2024-07-08T09:14:13Z</time>
      </trkpt>
      <trkpt lat="42.73458" lon="1.47066">
        <ele>1456.4</ele>
        <time>2024-07-08T09:14:15Z</time>
      </trkpt>
      <trkpt lat="42.73465" lon="1.47061">
        <ele>1454.4</ele>
        <time>2024-07-08T09:14:18Z</time>
      </trkpt>
      <trkpt lat="42.7347" lon="1.4706">
        <ele>1453.4</ele>
        <time>2024-07-08T09:14:20Z</time>
      </trkpt>
      <trkpt lat="42.73475" lon="1.47062">
        <ele>1449.8</ele>
        <time>2024-07-08T09:14:24Z</time>
      </trkpt>
      <trkpt lat="42.73483" lon="1.47063">
        <ele>1445.2</ele>
        <time>2024-07-08T09:14:29Z</time>
      </trkpt>
      <trkpt lat="42.73485" lon="1.47065">
        <ele>1443</ele>
        <time>2024-07-08T09:14:33Z</time>
      </trkpt>
      <trkpt lat="42.73495" lon="1.47071">
        <ele>1437.6</ele>
        <time>2024-07-08T09:14:39Z</time>
      </trkpt>
      <trkpt lat="42.7351" lon="1.4707">
        <ele>1435.8</ele>
        <time>2024-07-08T09:14:44Z</time>
      </trkpt>
      <trkpt lat="42.73516" lon="1.47066">
        <ele>1434</ele>
        <time>2024-07-08T09:14:49Z</time>
      </trkpt>
      <trkpt lat="42.73524" lon="1.47067">
        <ele>1428.6</ele>
        <time>2024-07-08T09:14:55Z</time>
      </trkpt>
      <trkpt lat="42.73532" lon="1.47071">
        <ele>1426.4</ele>
        <time>2024-07-08T09:15:01Z</time>
      </trkpt>
      <trkpt lat="42.73535" lon="1.4707">
        <ele>1426</ele>
        <time>2024-07-08T09:15:03Z</time>
      </trkpt>
      <trkpt lat="42.73542" lon="1.47067">
        <ele>1426.6</ele>
        <time>2024-07-08T09:15:10Z</time>
      </trkpt>
      <trkpt lat="42.73543" lon="1.47068">
        <ele>1426.4</ele>
        <time>2024-07-08T09:15:11Z</time>
      </trkpt>
      <trkpt lat="42.73544" lon="1.47067">
        <ele>1426.4</ele>
        <time>2024-07-08T09:15:14Z</time>
      </trkpt>
      <trkpt lat="42.7355" lon="1.47063">
        <ele>1426.4</ele>
        <time>2024-07-08T09:15:17Z</time>
      </trkpt>
      <trkpt lat="42.73554" lon="1.4706">
        <ele>1426.4</ele>
        <time>2024-07-08T09:15:20Z</time>
      </trkpt>
      <trkpt lat="42.73555" lon="1.47065">
        <ele>1425.8</ele>
        <time>2024-07-08T09:15:23Z</time>
      </trkpt>
      <trkpt lat="42.73551" lon="1.47075">
        <ele>1422.2</ele>
        <time>2024-07-08T09:15:30Z</time>
      </trkpt>
      <trkpt lat="42.7355" lon="1.47076">
        <ele>1421.6</ele>
        <time>2024-07-08T09:15:31Z</time>
      </trkpt>
      <trkpt lat="42.73544" lon="1.47084">
        <ele>1418</ele>
        <time>2024-07-08T09:15:37Z</time>
      </trkpt>
      <trkpt lat="42.73533" lon="1.4709">
        <ele>1415.4</ele>
        <time>2024-07-08T09:15:44Z</time>
      </trkpt>
      <trkpt lat="42.73523" lon="1.47096">
        <ele>1410.2</ele>
        <time>2024-07-08T09:15:52Z</time>
      </trkpt>
      <trkpt lat="42.73514" lon="1.47102">
        <ele>1407.4</ele>
        <time>2024-07-08T09:15:59Z</time>
      </trkpt>
      <trkpt lat="42.73502" lon="1.4711">
        <ele>1405.8</ele>
        <time>2024-07-08T09:16:08Z</time>
      </trkpt>
      <trkpt lat="42.73491" lon="1.47112">
        <ele>1404.4</ele>
        <time>2024-07-08T09:16:15Z</time>
      </trkpt>
      <trkpt lat="42.73486" lon="1.47114">
        <ele>1403.2</ele>
        <time>2024-07-08T09:16:18Z</time>
      </trkpt>
      <trkpt lat="42.73482" lon="1.47116">
        <ele>1402.6</ele>
        <time>2024-07-08T09:16:20Z</time>
      </trkpt>
      <trkpt lat="42.73472" lon="1.47123">
        <ele>1401</ele>
        <time>2024-07-08T09:16:27Z</time>
      </trkpt>
      <trkpt lat="42.73465" lon="1.47137">
        <ele>1399.6</ele>
        <time>2024-07-08T09:16:35Z</time>
      </trkpt>
      <trkpt lat="42.73461" lon="1.47141">
        <ele>1399.4</ele>
        <time>2024-07-08T09:16:38Z</time>
      </trkpt>
      <trkpt lat="42.73459" lon="1.47146">
        <ele>1399.6</ele>
        <time>2024-07-08T09:16:41Z</time>
      </trkpt>
      <trkpt lat="42.73458" lon="1.47149">
        <ele>1399.8</ele>
        <time>2024-07-08T09:16:44Z</time>
      </trkpt>
      <trkpt lat="42.73455" lon="1.47152">
        <ele>1399.4</ele>
        <time>2024-07-08T09:16:46Z</time>
      </trkpt>
      <trkpt lat="42.73447" lon="1.47161">
        <ele>1398.2</ele>
        <time>2024-07-08T09:16:53Z</time>
      </trkpt>
      <trkpt lat="42.73445" lon="1.47167">
        <ele>1397.2</ele>
        <time>2024-07-08T09:16:59Z</time>
      </trkpt>
      <trkpt lat="42.73446" lon="1.47169">
        <ele>1397</ele>
        <time>2024-07-08T09:17:00Z</time>
      </trkpt>
      <trkpt lat="42.73446" lon="1.47171">
        <ele>1397</ele>
        <time>2024-07-08T09:17:01Z</time>
      </trkpt>
      <trkpt lat="42.73447" lon="1.47177">
        <ele>1397.2</ele>
        <time>2024-07-08T09:17:04Z</time>
      </trkpt>
      <trkpt lat="42.73444" lon="1.4718">
        <ele>1397.6</ele>
        <time>2024-07-08T09:17:06Z</time>
      </trkpt>
      <trkpt lat="42.73439" lon="1.47192">
        <ele>1396.8</ele>
        <time>2024-07-08T09:17:12Z</time>
      </trkpt>
      <trkpt lat="42.73438" lon="1.47203">
        <ele>1395</ele>
        <time>2024-07-08T09:17:18Z</time>
      </trkpt>
      <trkpt lat="42.73434" lon="1.47219">
        <ele>1392.8</ele>
        <time>2024-07-08T09:17:24Z</time>
      </trkpt>
      <trkpt lat="42.73429" lon="1.47236">
        <ele>1385.2</ele>
        <time>2024-07-08T09:17:33Z</time>
      </trkpt>
      <trkpt lat="42.7342" lon="1.47255">
        <ele>1381.4</ele>
        <time>2024-07-08T09:17:42Z</time>
      </trkpt>
      <trkpt lat="42.73414" lon="1.47277">
        <ele>1378.6</ele>
        <time>2024-07-08T09:17:51Z</time>
      </trkpt>
      <trkpt lat="42.7341" lon="1.47285">
        <ele>1376.6</ele>
        <time>2024-07-08T09:17:57Z</time>
      </trkpt>
      <trkpt lat="42.73401" lon="1.47299">
        <ele>1373.6</ele>
        <time>2024-07-08T09:18:05Z</time>
      </trkpt>
      <trkpt lat="42.73399" lon="1.47314">
        <ele>1373.8</ele>
        <time>2024-07-08T09:18:13Z</time>
      </trkpt>
      <trkpt lat="42.73398" lon="1.47316">
        <ele>1373.6</ele>
        <time>2024-07-08T09:18:14Z</time>
      </trkpt>
      <trkpt lat="42.73391" lon="1.47324">
        <ele>1373.4</ele>
        <time>2024-07-08T09:18:18Z</time>
      </trkpt>
      <trkpt lat="42.73384" lon="1.47337">
        <ele>1370.4</ele>
        <time>2024-07-08T09:18:26Z</time>
      </trkpt>
      <trkpt lat="42.73383" lon="1.47338">
        <ele>1370</ele>
        <time>2024-07-08T09:18:27Z</time>
      </trkpt>
      <trkpt lat="42.7338" lon="1.47346">
        <ele>1368.4</ele>
        <time>2024-07-08T09:18:31Z</time>
      </trkpt>
      <trkpt lat="42.73369" lon="1.47365">
        <ele>1366</ele>
        <time>2024-07-08T09:18:41Z</time>
      </trkpt>
      <trkpt lat="42.73361" lon="1.4738">
        <ele>1363.2</ele>
        <time>2024-07-08T09:18:49Z</time>
      </trkpt>
      <trkpt lat="42.73351" lon="1.47398">
        <ele>1358.6</ele>
        <time>2024-07-08T09:18:59Z</time>
      </trkpt>
      <trkpt lat="42.73349" lon="1.47398">
        <ele>1358.4</ele>
        <time>2024-07-08T09:19:00Z</time>
      </trkpt>
      <trkpt lat="42.73343" lon="1.47405">
        <ele>1356.4</ele>
        <time>2024-07-08T09:19:06Z</time>
      </trkpt>
      <trkpt lat="42.73344" lon="1.47405">
        <ele>1355</ele>
        <time>2024-07-08T09:19:10Z</time>
      </trkpt>
      <trkpt lat="42.73353" lon="1.474">
        <ele>1351.6</ele>
        <time>2024-07-08T09:19:18Z</time>
      </trkpt>
      <trkpt lat="42.7336" lon="1.4739">
        <ele>1350.2</ele>
        <time>2024-07-08T09:19:26Z</time>
      </trkpt>
      <trkpt lat="42.73368" lon="1.47384">
        <ele>1349.4</ele>
        <time>2024-07-08T09:19:32Z</time>
      </trkpt>
      <trkpt lat="42.73379" lon="1.47375">
        <ele>1349.8</ele>
        <time>2024-07-08T09:19:40Z</time>
      </trkpt>
      <trkpt lat="42.73386" lon="1.47366">
        <ele>1350.6</ele>
        <time>2024-07-08T09:19:46Z</time>
      </trkpt>
      <trkpt lat="42.73387" lon="1.47365">
        <ele>1350.4</ele>
        <time>2024-07-08T09:19:47Z</time>
      </trkpt>
      <trkpt lat="42.73394" lon="1.47355">
        <ele>1350.2</ele>
        <time>2024-07-08T09:19:54Z</time>
      </trkpt>
      <trkpt lat="42.73399" lon="1.47352">
        <ele>1350.4</ele>
        <time>2024-07-08T09:19:56Z</time>
      </trkpt>
      <trkpt lat="42.7341" lon="1.47345">
        <ele>1349.6</ele>
        <time>2024-07-08T09:20:03Z</time>
      </trkpt>
      <trkpt lat="42.73419" lon="1.4734">
        <ele>1348.6</ele>
        <time>2024-07-08T09:20:10Z</time>
      </trkpt>
      <trkpt lat="42.73427" lon="1.47329">
        <ele>1348</ele>
        <time>2024-07-08T09:20:19Z</time>
      </trkpt>
      <trkpt lat="42.73429" lon="1.47328">
        <ele>1347.8</ele>
        <time>2024-07-08T09:20:20Z</time>
      </trkpt>
      <trkpt lat="42.73438" lon="1.4732">
        <ele>1345.6</ele>
        <time>2024-07-08T09:20:26Z</time>
      </trkpt>
      <trkpt lat="42.73445" lon="1.47314">
        <ele>1344.4</ele>
        <time>2024-07-08T09:20:30Z</time>
      </trkpt>
      <trkpt lat="42.7345" lon="1.4731">
        <ele>1343.2</ele>
        <time>2024-07-08T09:20:33Z</time>
      </trkpt>
      <trkpt lat="42.73461" lon="1.47294">
        <ele>1342.4</ele>
        <time>2024-07-08T09:20:40Z</time>
      </trkpt>
      <trkpt lat="42.73468" lon="1.47287">
        <ele>1338</ele>
        <time>2024-07-08T09:20:48Z</time>
      </trkpt>
      <trkpt lat="42.73476" lon="1.47281">
        <ele>1335.2</ele>
        <time>2024-07-08T09:20:54Z</time>
      </trkpt>
      <trkpt lat="42.73485" lon="1.47271">
        <ele>1331.2</ele>
        <time>2024-07-08T09:21:02Z</time>
      </trkpt>
      <trkpt lat="42.73492" lon="1.47261">
        <ele>1330.6</ele>
        <time>2024-07-08T09:21:08Z</time>
      </trkpt>
      <trkpt lat="42.73492" lon="1.47261">
        <ele>1330.6</ele>
        <time>2024-07-08T09:21:09Z</time>
      </trkpt>
      <trkpt lat="42.73495" lon="1.47257">
        <ele>1329.8</ele>
        <time>2024-07-08T09:21:12Z</time>
      </trkpt>
      <trkpt lat="42.73497" lon="1.47253">
        <ele>1329.4</ele>
        <time>2024-07-08T09:21:14Z</time>
      </trkpt>
      <trkpt lat="42.73501" lon="1.47247">
        <ele>1329</ele>
        <time>2024-07-08T09:21:17Z</time>
      </trkpt>
      <trkpt lat="42.73508" lon="1.47237">
        <ele>1328.6</ele>
        <time>2024-07-08T09:21:24Z</time>
      </trkpt>
      <trkpt lat="42.73509" lon="1.47238">
        <ele>1328.6</ele>
        <time>2024-07-08T09:21:25Z</time>
      </trkpt>
      <trkpt lat="42.73511" lon="1.47238">
        <ele>1328.4</ele>
        <time>2024-07-08T09:21:27Z</time>
      </trkpt>
      <trkpt lat="42.73516" lon="1.47241">
        <ele>1328.6</ele>
        <time>2024-07-08T09:21:29Z</time>
      </trkpt>
      <trkpt lat="42.73524" lon="1.47242">
        <ele>1329.8</ele>
        <time>2024-07-08T09:21:33Z</time>
      </trkpt>
      <trkpt lat="42.73527" lon="1.4724">
        <ele>1330.6</ele>
        <time>2024-07-08T09:21:35Z</time>
      </trkpt>
      <trkpt lat="42.73531" lon="1.4724">
        <ele>1331</ele>
        <time>2024-07-08T09:21:37Z</time>
      </trkpt>
      <trkpt lat="42.73536" lon="1.47242">
        <ele>1330.8</ele>
        <time>2024-07-08T09:21:40Z</time>
      </trkpt>
      <trkpt lat="42.73544" lon="1.47236">
        <ele>1329.6</ele>
        <time>2024-07-08T09:21:46Z</time>
      </trkpt>
      <trkpt lat="42.73548" lon="1.47233">
        <ele>1327</ele>
        <time>2024-07-08T09:21:52Z</time>
      </trkpt>
      <trkpt lat="42.73553" lon="1.47232">
        <ele>1324.2</ele>
        <time>2024-07-08T09:21:55Z</time>
      </trkpt>
      <trkpt lat="42.73557" lon="1.47231">
        <ele>1322.8</ele>
        <time>2024-07-08T09:21:57Z</time>
      </trkpt>
      <trkpt lat="42.73558" lon="1.47231">
        <ele>1322.2</ele>
        <time>2024-07-08T09:21:58Z</time>
      </trkpt>
      <trkpt lat="42.73571" lon="1.47226">
        <ele>1321.8</ele>
        <time>2024-07-08T09:22:03Z</time>
      </trkpt>
      <trkpt lat="42.73576" lon="1.47221">
        <ele>1321.8</ele>
        <time>2024-07-08T09:22:08Z</time>
      </trkpt>
      <trkpt lat="42.7358" lon="1.47221">
        <ele>1321.4</ele>
        <time>2024-07-08T09:22:10Z</time>
      </trkpt>
      <trkpt lat="42.73584" lon="1.47217">
        <ele>1320.8</ele>
        <time>2024-07-08T09:22:12Z</time>
      </trkpt>
      <trkpt lat="42.73592" lon="1.47214">
        <ele>1320.2</ele>
        <time>2024-07-08T09:22:16Z</time>
      </trkpt>
      <trkpt lat="42.73599" lon="1.47207">
        <ele>1316.6</ele>
        <time>2024-07-08T09:22:22Z</time>
      </trkpt>
      <trkpt lat="42.73608" lon="1.47201">
        <ele>1313.6</ele>
        <time>2024-07-08T09:22:28Z</time>
      </trkpt>
      <trkpt lat="42.73608" lon="1.47201">
        <ele>1313</ele>
        <time>2024-07-08T09:22:29Z</time>
      </trkpt>
      <trkpt lat="42.7361" lon="1.47201">
        <ele>1312.6</ele>
        <time>2024-07-08T09:22:30Z</time>
      </trkpt>
      <trkpt lat="42.73616" lon="1.47198">
        <ele>1311.4</ele>
        <time>2024-07-08T09:22:34Z</time>
      </trkpt>
      <trkpt lat="42.73617" lon="1.47195">
        <ele>1311.2</ele>
        <time>2024-07-08T09:22:36Z</time>
      </trkpt>
      <trkpt lat="42.73621" lon="1.47189">
        <ele>1310.8</ele>
        <time>2024-07-08T09:22:40Z</time>
      </trkpt>
      <trkpt lat="42.73624" lon="1.47189">
        <ele>1310.2</ele>
        <time>2024-07-08T09:22:42Z</time>
      </trkpt>
      <trkpt lat="42.73628" lon="1.47187">
        <ele>1309.4</ele>
        <time>2024-07-08T09:22:45Z</time>
      </trkpt>
      <trkpt lat="42.7363" lon="1.47186">
        <ele>1308.6</ele>
        <time>2024-07-08T09:22:47Z</time>
      </trkpt>
      <trkpt lat="42.73635" lon="1.47186">
        <ele>1307.6</ele>
        <time>2024-07-08T09:22:50Z</time>
      </trkpt>
      <trkpt lat="42.73645" lon="1.47182">
        <ele>1308</ele>
        <time>2024-07-08T09:22:56Z</time>
      </trkpt>
      <trkpt lat="42.73655" lon="1.47179">
        <ele>1310.8</ele>
        <time>2024-07-08T09:23:02Z</time>
      </trkpt>
      <trkpt lat="42.73655" lon="1.47178">
        <ele>1311.2</ele>
        <time>2024-07-08T09:23:03Z</time>
      </trkpt>
      <trkpt lat="42.73659" lon="1.47175">
        <ele>1310.4</ele>
        <time>2024-07-08T09:23:07Z</time>
      </trkpt>
      <trkpt lat="42.73661" lon="1.47173">
        <ele>1309.4</ele>
        <time>2024-07-08T09:23:09Z</time>
      </trkpt>
      <trkpt lat="42.73674" lon="1.47163">
        <ele>1304.6</ele>
        <time>2024-07-08T09:23:17Z</time>
      </trkpt>
      <trkpt lat="42.73681" lon="1.47159">
        <ele>1298.4</ele>
        <time>2024-07-08T09:23:23Z</time>
      </trkpt>
      <trkpt lat="42.7369" lon="1.47154">
        <ele>1295.6</ele>
        <time>2024-07-08T09:23:28Z</time>
      </trkpt>
      <trkpt lat="42.73691" lon="1.47152">
        <ele>1294.6</ele>
        <time>2024-07-08T09:23:30Z</time>
      </trkpt>
      <trkpt lat="42.73697" lon="1.47147">
        <ele>1292.2</ele>
        <time>2024-07-08T09:23:36Z</time>
      </trkpt>
      <trkpt lat="42.73699" lon="1.47146">
        <ele>1292</ele>
        <time>2024-07-08T09:23:37Z</time>
      </trkpt>
      <trkpt lat="42.73702" lon="1.47141">
        <ele>1291.6</ele>
        <time>2024-07-08T09:23:42Z</time>
      </trkpt>
      <trkpt lat="42.73704" lon="1.47139">
        <ele>1291.6</ele>
        <time>2024-07-08T09:23:43Z</time>
      </trkpt>
      <trkpt lat="42.73717" lon="1.4713">
        <ele>1292.2</ele>
        <time>2024-07-08T09:23:52Z</time>
      </trkpt>
      <trkpt lat="42.73723" lon="1.47125">
        <ele>1292.4</ele>
        <time>2024-07-08T09:23:56Z</time>
      </trkpt>
      <trkpt lat="42.73727" lon="1.47123">
        <ele>1292.4</ele>
        <time>2024-07-08T09:23:58Z</time>
      </trkpt>
      <trkpt lat="42.73736" lon="1.47119">
        <ele>1293</ele>
        <time>2024-07-08T09:24:04Z</time>
      </trkpt>
      <trkpt lat="42.73737" lon="1.47118">
        <ele>1293.2</ele>
        <time>2024-07-08T09:24:05Z</time>
      </trkpt>
      <trkpt lat="42.73741" lon="1.47114">
        <ele>1293.4</ele>
        <time>2024-07-08T09:24:09Z</time>
      </trkpt>
      <trkpt lat="42.73745" lon="1.4711">
        <ele>1293</ele>
        <time>2024-07-08T09:24:13Z</time>
      </trkpt>
      <trkpt lat="42.73753" lon="1.47094">
        <ele>1291</ele>
        <time>2024-07-08T09:24:20Z</time>
      </trkpt>
      <trkpt lat="42.7376" lon="1.47083">
        <ele>1286.6</ele>
        <time>2024-07-08T09:24:26Z</time>
      </trkpt>
      <trkpt lat="42.7376" lon="1.4708">
        <ele>1286.2</ele>
        <time>2024-07-08T09:24:27Z</time>
      </trkpt>
      <trkpt lat="42.73768" lon="1.47069">
        <ele>1280.6</ele>
        <time>2024-07-08T09:24:34Z</time>
      </trkpt>
      <trkpt lat="42.73774" lon="1.47057">
        <ele>1276.2</ele>
        <time>2024-07-08T09:24:41Z</time>
      </trkpt>
      <trkpt lat="42.73777" lon="1.47049">
        <ele>1277</ele>
        <time>2024-07-08T09:24:48Z</time>
      </trkpt>
      <trkpt lat="42.73783" lon="1.47041">
        <ele>1277.2</ele>
        <time>2024-07-08T09:24:55Z</time>
      </trkpt>
      <trkpt lat="42.73784" lon="1.47039">
        <ele>1277</ele>
        <time>2024-07-08T09:24:57Z</time>
      </trkpt>
      <trkpt lat="42.7379" lon="1.47035">
        <ele>1277.2</ele>
        <time>2024-07-08T09:25:01Z</time>
      </trkpt>
      <trkpt lat="42.73793" lon="1.47031">
        <ele>1277.6</ele>
        <time>2024-07-08T09:25:05Z</time>
      </trkpt>
      <trkpt lat="42.73794" lon="1.4703">
        <ele>1277.6</ele>
        <time>2024-07-08T09:25:06Z</time>
      </trkpt>
      <trkpt lat="42.73795" lon="1.47029">
        <ele>1277.6</ele>
        <time>2024-07-08T09:25:07Z</time>
      </trkpt>
      <trkpt lat="42.73796" lon="1.47029">
        <ele>1277.6</ele>
        <time>2024-07-08T09:25:09Z</time>
      </trkpt>
      <trkpt lat="42.73796" lon="1.47029">
        <ele>1277.6</ele>
        <time>2024-07-08T09:25:10Z</time>
      </trkpt>
      <trkpt lat="42.73796" lon="1.47031">
        <ele>1277.2</ele>
        <time>2024-07-08T09:25:12Z</time>
      </trkpt>
      <trkpt lat="42.73797" lon="1.47036">
        <ele>1276</ele>
        <time>2024-07-08T09:25:15Z</time>
      </trkpt>
      <trkpt lat="42.738" lon="1.47039">
        <ele>1273</ele>
        <time>2024-07-08T09:25:19Z</time>
      </trkpt>
      <trkpt lat="42.73799" lon="1.47043">
        <ele>1271.2</ele>
        <time>2024-07-08T09:25:23Z</time>
      </trkpt>
      <trkpt lat="42.73797" lon="1.47055">
        <ele>1268.2</ele>
        <time>2024-07-08T09:25:29Z</time>
      </trkpt>
      <trkpt lat="42.73797" lon="1.4706">
        <ele>1266.8</ele>
        <time>2024-07-08T09:25:32Z</time>
      </trkpt>
      <trkpt lat="42.73796" lon="1.47062">
        <ele>1266.4</ele>
        <time>2024-07-08T09:25:34Z</time>
      </trkpt>
      <trkpt lat="42.73797" lon="1.47065">
        <ele>1266</ele>
        <time>2024-07-08T09:25:36Z</time>
      </trkpt>
      <trkpt lat="42.73795" lon="1.47068">
        <ele>1265.4</ele>
        <time>2024-07-08T09:25:40Z</time>
      </trkpt>
      <trkpt lat="42.7379" lon="1.47081">
        <ele>1262.8</ele>
        <time>2024-07-08T09:25:46Z</time>
      </trkpt>
      <trkpt lat="42.73787" lon="1.47092">
        <ele>1260.2</ele>
        <time>2024-07-08T09:25:51Z</time>
      </trkpt>
      <trkpt lat="42.73786" lon="1.47094">
        <ele>1259.6</ele>
        <time>2024-07-08T09:25:52Z</time>
      </trkpt>
      <trkpt lat="42.73783" lon="1.47111">
        <ele>1256.4</ele>
        <time>2024-07-08T09:26:00Z</time>
      </trkpt>
      <trkpt lat="42.73778" lon="1.47118">
        <ele>1253.8</ele>
        <time>2024-07-08T09:26:04Z</time>
      </trkpt>
      <trkpt lat="42.73778" lon="1.47123">
        <ele>1252.8</ele>
        <time>2024-07-08T09:26:06Z</time>
      </trkpt>
      <trkpt lat="42.73775" lon="1.47125">
        <ele>1251.8</ele>
        <time>2024-07-08T09:26:08Z</time>
      </trkpt>
      <trkpt lat="42.73774" lon="1.47133">
        <ele>1250.8</ele>
        <time>2024-07-08T09:26:11Z</time>
      </trkpt>
      <trkpt lat="42.73768" lon="1.47151">
        <ele>1249</ele>
        <time>2024-07-08T09:26:18Z</time>
      </trkpt>
      <trkpt lat="42.73764" lon="1.47162">
        <ele>1249</ele>
        <time>2024-07-08T09:26:24Z</time>
      </trkpt>
      <trkpt lat="42.73764" lon="1.47165">
        <ele>1248.8</ele>
        <time>2024-07-08T09:26:26Z</time>
      </trkpt>
      <trkpt lat="42.73764" lon="1.47175">
        <ele>1248</ele>
        <time>2024-07-08T09:26:30Z</time>
      </trkpt>
      <trkpt lat="42.73762" lon="1.47178">
        <ele>1248</ele>
        <time>2024-07-08T09:26:31Z</time>
      </trkpt>
      <trkpt lat="42.73762" lon="1.47185">
        <ele>1247.8</ele>
        <time>2024-07-08T09:26:34Z</time>
      </trkpt>
      <trkpt lat="42.73758" lon="1.47189">
        <ele>1248</ele>
        <time>2024-07-08T09:26:36Z</time>
      </trkpt>
      <trkpt lat="42.73757" lon="1.47194">
        <ele>1248.2</ele>
        <time>2024-07-08T09:26:39Z</time>
      </trkpt>
      <trkpt lat="42.73756" lon="1.47195">
        <ele>1248.2</ele>
        <time>2024-07-08T09:26:40Z</time>
      </trkpt>
      <trkpt lat="42.73753" lon="1.47201">
        <ele>1247.2</ele>
        <time>2024-07-08T09:26:44Z</time>
      </trkpt>
      <trkpt lat="42.73751" lon="1.47202">
        <ele>1246.6</ele>
        <time>2024-07-08T09:26:45Z</time>
      </trkpt>
      <trkpt lat="42.73747" lon="1.47205">
        <ele>1245.2</ele>
        <time>2024-07-08T09:26:47Z</time>
      </trkpt>
      <trkpt lat="42.73743" lon="1.47209">
        <ele>1243.8</ele>
        <time>2024-07-08T09:26:49Z</time>
      </trkpt>
      <trkpt lat="42.73738" lon="1.47214">
        <ele>1238.8</ele>
        <time>2024-07-08T09:26:55Z</time>
      </trkpt>
      <trkpt lat="42.7373" lon="1.47227">
        <ele>1235</ele>
        <time>2024-07-08T09:27:02Z</time>
      </trkpt>
      <trkpt lat="42.73727" lon="1.4723">
        <ele>1234.4</ele>
        <time>2024-07-08T09:27:04Z</time>
      </trkpt>
      <trkpt lat="42.73718" lon="1.47239">
        <ele>1234</ele>
        <time>2024-07-08T09:27:10Z</time>
      </trkpt>
      <trkpt lat="42.73716" lon="1.4724">
        <ele>1233.6</ele>
        <time>2024-07-08T09:27:12Z</time>
      </trkpt>
      <trkpt lat="42.73704" lon="1.47249">
        <ele>1231.4</ele>
        <time>2024-07-08T09:27:20Z</time>
      </trkpt>
      <trkpt lat="42.73702" lon="1.47251">
        <ele>1230.2</ele>
        <time>2024-07-08T09:27:25Z</time>
      </trkpt>
      <trkpt lat="42.73711" lon="1.47246">
        <ele>1231</ele>
        <time>2024-07-08T09:27:32Z</time>
      </trkpt>
      <trkpt lat="42.73718" lon="1.47245">
        <ele>1231.8</ele>
        <time>2024-07-08T09:27:38Z</time>
      </trkpt>
      <trkpt lat="42.73725" lon="1.47242">
        <ele>1232.2</ele>
        <time>2024-07-08T09:27:43Z</time>
      </trkpt>
      <trkpt lat="42.73727" lon="1.47242">
        <ele>1232</ele>
        <time>2024-07-08T09:27:45Z</time>
      </trkpt>
      <trkpt lat="42.73732" lon="1.47237">
        <ele>1231.4</ele>
        <time>2024-07-08T09:27:51Z</time>
      </trkpt>
      <trkpt lat="42.73737" lon="1.47235">
        <ele>1231.4</ele>
        <time>2024-07-08T09:27:53Z</time>
      </trkpt>
      <trkpt lat="42.73741" lon="1.47231">
        <ele>1232.4</ele>
        <time>2024-07-08T09:27:57Z</time>
      </trkpt>
      <trkpt lat="42.73752" lon="1.4722">
        <ele>1231.6</ele>
        <time>2024-07-08T09:28:05Z</time>
      </trkpt>
      <trkpt lat="42.73766" lon="1.47208">
        <ele>1227.4</ele>
        <time>2024-07-08T09:28:14Z</time>
      </trkpt>
      <trkpt lat="42.73778" lon="1.47199">
        <ele>1228.6</ele>
        <time>2024-07-08T09:28:22Z</time>
      </trkpt>
      <trkpt lat="42.73781" lon="1.4719">
        <ele>1228.8</ele>
        <time>2024-07-08T09:28:26Z</time>
      </trkpt>
      <trkpt lat="42.73788" lon="1.47188">
        <ele>1228.4</ele>
        <time>2024-07-08T09:28:32Z</time>
      </trkpt>
      <trkpt lat="42.73796" lon="1.47176">
        <ele>1226.6</ele>
        <time>2024-07-08T09:28:40Z</time>
      </trkpt>
      <trkpt lat="42.73797" lon="1.47174">
        <ele>1226</ele>
        <time>2024-07-08T09:28:41Z</time>
      </trkpt>
      <trkpt lat="42.738" lon="1.47168">
        <ele>1224.6</ele>
        <time>2024-07-08T09:28:45Z</time>
      </trkpt>
      <trkpt lat="42.73806" lon="1.47158">
        <ele>1222.6</ele>
        <time>2024-07-08T09:28:50Z</time>
      </trkpt>
      <trkpt lat="42.73808" lon="1.47157">
        <ele>1221.8</ele>
        <time>2024-07-08T09:28:51Z</time>
      </trkpt>
      <trkpt lat="42.73811" lon="1.47149">
        <ele>1217.6</ele>
        <time>2024-07-08T09:28:57Z</time>
      </trkpt>
      <trkpt lat="42.73813" lon="1.47147">
        <ele>1217.2</ele>
        <time>2024-07-08T09:28:58Z</time>
      </trkpt>
      <trkpt lat="42.73817" lon="1.47139">
        <ele>1216.4</ele>
        <time>2024-07-08T09:29:03Z</time>
      </trkpt>
      <trkpt lat="42.73829" lon="1.47131">
        <ele>1216.6</ele>
        <time>2024-07-08T09:29:09Z</time>
      </trkpt>
      <trkpt lat="42.73832" lon="1.47132">
        <ele>1216.8</ele>
        <time>2024-07-08T09:29:12Z</time>
      </trkpt>
      <trkpt lat="42.73832" lon="1.47134">
        <ele>1216.8</ele>
        <time>2024-07-08T09:29:14Z</time>
      </trkpt>
      <trkpt lat="42.73834" lon="1.4714">
        <ele>1215.6</ele>
        <time>2024-07-08T09:29:18Z</time>
      </trkpt>
      <trkpt lat="42.73836" lon="1.47144">
        <ele>1212.8</ele>
        <time>2024-07-08T09:29:21Z</time>
      </trkpt>
      <trkpt lat="42.73836" lon="1.47153">
        <ele>1207.8</ele>
        <time>2024-07-08T09:29:25Z</time>
      </trkpt>
      <trkpt lat="42.73837" lon="1.47159">
        <ele>1205.8</ele>
        <time>2024-07-08T09:29:28Z</time>
      </trkpt>
      <trkpt lat="42.73828" lon="1.47174">
        <ele>1204</ele>
        <time>2024-07-08T09:29:36Z</time>
      </trkpt>
      <trkpt lat="42.73823" lon="1.47187">
        <ele>1201.2</ele>
        <time>2024-07-08T09:29:44Z</time>
      </trkpt>
      <trkpt lat="42.73824" lon="1.47188">
        <ele>1200.8</ele>
        <time>2024-07-08T09:29:45Z</time>
      </trkpt>
      <trkpt lat="42.73821" lon="1.47198">
        <ele>1199.6</ele>
        <time>2024-07-08T09:29:49Z</time>
      </trkpt>
      <trkpt lat="42.73819" lon="1.47207">
        <ele>1198.8</ele>
        <time>2024-07-08T09:29:55Z</time>
      </trkpt>
      <trkpt lat="42.73818" lon="1.47211">
        <ele>1197.2</ele>
        <time>2024-07-08T09:29:57Z</time>
      </trkpt>
      <trkpt lat="42.73815" lon="1.47218">
        <ele>1195.2</ele>
        <time>2024-07-08T09:30:01Z</time>
      </trkpt>
      <trkpt lat="42.73813" lon="1.47224">
        <ele>1193.8</ele>
        <time>2024-07-08T09:30:03Z</time>
      </trkpt>
      <trkpt lat="42.73805" lon="1.4724">
        <ele>1188</ele>
        <time>2024-07-08T09:30:11Z</time>
      </trkpt>
      <trkpt lat="42.73797" lon="1.47246">
        <ele>1185.4</ele>
        <time>2024-07-08T09:30:17Z</time>
      </trkpt>
      <trkpt lat="42.73789" lon="1.47263">
        <ele>1184.8</ele>
        <time>2024-07-08T09:30:24Z</time>
      </trkpt>
      <trkpt lat="42.73784" lon="1.47273">
        <ele>1182</ele>
        <time>2024-07-08T09:30:31Z</time>
      </trkpt>
      <trkpt lat="42.73775" lon="1.47286">
        <ele>1180.6</ele>
        <time>2024-07-08T09:30:38Z</time>
      </trkpt>
      <trkpt lat="42.73773" lon="1.4729">
        <ele>1180.4</ele>
        <time>2024-07-08T09:30:40Z</time>
      </trkpt>
      <trkpt lat="42.73764" lon="1.47304">
        <ele>1178.6</ele>
        <time>2024-07-08T09:30:49Z</time>
      </trkpt>
      <trkpt lat="42.73757" lon="1.47317">
        <ele>1172.8</ele>
        <time>2024-07-08T09:30:57Z</time>
      </trkpt>
      <trkpt lat="42.73757" lon="1.47319">
        <ele>1172.4</ele>
        <time>2024-07-08T09:30:58Z</time>
      </trkpt>
      <trkpt lat="42.73752" lon="1.47324">
        <ele>1172</ele>
        <time>2024-07-08T09:31:02Z</time>
      </trkpt>
      <trkpt lat="42.73751" lon="1.47326">
        <ele>1172</ele>
        <time>2024-07-08T09:31:03Z</time>
      </trkpt>
      <trkpt lat="42.73746" lon="1.4733">
        <ele>1171</ele>
        <time>2024-07-08T09:31:07Z</time>
      </trkpt>
      <trkpt lat="42.7374" lon="1.4733">
        <ele>1169.8</ele>
        <time>2024-07-08T09:31:10Z</time>
      </trkpt>
      <trkpt lat="42.73736" lon="1.47331">
        <ele>1169.2</ele>
        <time>2024-07-08T09:31:12Z</time>
      </trkpt>
      <trkpt lat="42.73728" lon="1.47335">
        <ele>1167.6</ele>
        <time>2024-07-08T09:31:17Z</time>
      </trkpt>
      <trkpt lat="42.73716" lon="1.47346">
        <ele>1166.2</ele>
        <time>2024-07-08T09:31:25Z</time>
      </trkpt>
      <trkpt lat="42.73707" lon="1.47349">
        <ele>1166</ele>
        <time>2024-07-08T09:31:31Z</time>
      </trkpt>
      <trkpt lat="42.737" lon="1.47356">
        <ele>1166.6</ele>
        <time>2024-07-08T09:31:39Z</time>
      </trkpt>
      <trkpt lat="42.73697" lon="1.47359">
        <ele>1166.2</ele>
        <time>2024-07-08T09:31:41Z</time>
      </trkpt>
      <trkpt lat="42.73687" lon="1.47366">
        <ele>1164.8</ele>
        <time>2024-07-08T09:31:46Z</time>
      </trkpt>
      <trkpt lat="42.73684" lon="1.47366">
        <ele>1164.6</ele>
        <time>2024-07-08T09:31:47Z</time>
      </trkpt>
      <trkpt lat="42.7368" lon="1.47373">
        <ele>1163.6</ele>
        <time>2024-07-08T09:31:51Z</time>
      </trkpt>
      <trkpt lat="42.73673" lon="1.47381">
        <ele>1163</ele>
        <time>2024-07-08T09:31:57Z</time>
      </trkpt>
      <trkpt lat="42.73672" lon="1.47382">
        <ele>1163</ele>
        <time>2024-07-08T09:31:59Z</time>
      </trkpt>
      <trkpt lat="42.73675" lon="1.4738">
        <ele>1162.8</ele>
        <time>2024-07-08T09:32:01Z</time>
      </trkpt>
      <trkpt lat="42.73676" lon="1.47375">
        <ele>1162</ele>
        <time>2024-07-08T09:32:03Z</time>
      </trkpt>
      <trkpt lat="42.73683" lon="1.47367">
        <ele>1161</ele>
        <time>2024-07-08T09:32:07Z</time>
      </trkpt>
      <trkpt lat="42.73694" lon="1.47368">
        <ele>1161.2</ele>
        <time>2024-07-08T09:32:14Z</time>
      </trkpt>
      <trkpt lat="42.73701" lon="1.47366">
        <ele>1162</ele>
        <time>2024-07-08T09:32:19Z</time>
      </trkpt>
      <trkpt lat="42.73707" lon="1.47363">
        <ele>1161.8</ele>
        <time>2024-07-08T09:32:24Z</time>
      </trkpt>
      <trkpt lat="42.73719" lon="1.4736">
        <ele>1160.8</ele>
        <time>2024-07-08T09:32:31Z</time>
      </trkpt>
      <trkpt lat="42.73729" lon="1.47361">
        <ele>1159.2</ele>
        <time>2024-07-08T09:32:38Z</time>
      </trkpt>
      <trkpt lat="42.73735" lon="1.47363">
        <ele>1157.6</ele>
        <time>2024-07-08T09:32:45Z</time>
      </trkpt>
      <trkpt lat="42.73736" lon="1.47365">
        <ele>1155.8</ele>
        <time>2024-07-08T09:32:50Z</time>
      </trkpt>
      <trkpt lat="42.73732" lon="1.47371">
        <ele>1153.2</ele>
        <time>2024-07-08T09:32:59Z</time>
      </trkpt>
      <trkpt lat="42.7373" lon="1.47375">
        <ele>1153.2</ele>
        <time>2024-07-08T09:33:02Z</time>
      </trkpt>
      <trkpt lat="42.73728" lon="1.47377">
        <ele>1153</ele>
        <time>2024-07-08T09:33:04Z</time>
      </trkpt>
      <trkpt lat="42.73722" lon="1.47383">
        <ele>1152.6</ele>
        <time>2024-07-08T09:33:10Z</time>
      </trkpt>
      <trkpt lat="42.73721" lon="1.47385">
        <ele>1152.4</ele>
        <time>2024-07-08T09:33:12Z</time>
      </trkpt>
      <trkpt lat="42.7372" lon="1.47389">
        <ele>1152.4</ele>
        <time>2024-07-08T09:33:15Z</time>
      </trkpt>
      <trkpt lat="42.73714" lon="1.47396">
        <ele>1152.6</ele>
        <time>2024-07-08T09:33:19Z</time>
      </trkpt>
      <trkpt lat="42.73711" lon="1.47398">
        <ele>1152.2</ele>
        <time>2024-07-08T09:33:21Z</time>
      </trkpt>
      <trkpt lat="42.73707" lon="1.474">
        <ele>1151.4</ele>
        <time>2024-07-08T09:33:24Z</time>
      </trkpt>
      <trkpt lat="42.73704" lon="1.47402">
        <ele>1149.6</ele>
        <time>2024-07-08T09:33:27Z</time>
      </trkpt>
      <trkpt lat="42.73693" lon="1.47414">
        <ele>1148.4</ele>
        <time>2024-07-08T09:33:33Z</time>
      </trkpt>
      <trkpt lat="42.73694" lon="1.47415">
        <ele>1148.4</ele>
        <time>2024-07-08T09:33:35Z</time>
      </trkpt>
      <trkpt lat="42.73686" lon="1.47422">
        <ele>1147.6</ele>
        <time>2024-07-08T09:33:40Z</time>
      </trkpt>
      <trkpt lat="42.73683" lon="1.47425">
        <ele>1146.8</ele>
        <time>2024-07-08T09:33:43Z</time>
      </trkpt>
      <trkpt lat="42.73682" lon="1.47426">
        <ele>1146.8</ele>
        <time>2024-07-08T09:33:44Z</time>
      </trkpt>
      <trkpt lat="42.73673" lon="1.47438">
        <ele>1146.8</ele>
        <time>2024-07-08T09:33:51Z</time>
      </trkpt>
      <trkpt lat="42.73671" lon="1.47439">
        <ele>1147.4</ele>
        <time>2024-07-08T09:33:53Z</time>
      </trkpt>
      <trkpt lat="42.73672" lon="1.47437">
        <ele>1148</ele>
        <time>2024-07-08T09:33:55Z</time>
      </trkpt>
      <trkpt lat="42.73677" lon="1.47433">
        <ele>1151</ele>
        <time>2024-07-08T09:34:02Z</time>
      </trkpt>
      <trkpt lat="42.73681" lon="1.47431">
        <ele>1151.8</ele>
        <time>2024-07-08T09:34:05Z</time>
      </trkpt>
      <trkpt lat="42.73686" lon="1.47429">
        <ele>1152</ele>
        <time>2024-07-08T09:34:08Z</time>
      </trkpt>
      <trkpt lat="42.73695" lon="1.47431">
        <ele>1150.2</ele>
        <time>2024-07-08T09:34:14Z</time>
      </trkpt>
      <trkpt lat="42.73697" lon="1.47432">
        <ele>1149.4</ele>
        <time>2024-07-08T09:34:15Z</time>
      </trkpt>
      <trkpt lat="42.73697" lon="1.47435">
        <ele>1148</ele>
        <time>2024-07-08T09:34:17Z</time>
      </trkpt>
      <trkpt lat="42.73692" lon="1.4744">
        <ele>1146.6</ele>
        <time>2024-07-08T09:34:21Z</time>
      </trkpt>
      <trkpt lat="42.73689" lon="1.47445">
        <ele>1146.2</ele>
        <time>2024-07-08T09:34:24Z</time>
      </trkpt>
      <trkpt lat="42.73687" lon="1.47447">
        <ele>1146</ele>
        <time>2024-07-08T09:34:27Z</time>
      </trkpt>
      <trkpt lat="42.73684" lon="1.47448">
        <ele>1146</ele>
        <time>2024-07-08T09:34:30Z</time>
      </trkpt>
      <trkpt lat="42.73681" lon="1.47463">
        <ele>1145.8</ele>
        <time>2024-07-08T09:34:34Z</time>
      </trkpt>
      <trkpt lat="42.73674" lon="1.47473">
        <ele>1146.2</ele>
        <time>2024-07-08T09:34:41Z</time>
      </trkpt>
      <trkpt lat="42.73673" lon="1.47474">
        <ele>1146.2</ele>
        <time>2024-07-08T09:34:42Z</time>
      </trkpt>
      <trkpt lat="42.73673" lon="1.47474">
        <ele>1146.8</ele>
        <time>2024-07-08T09:34:47Z</time>
      </trkpt>
      <trkpt lat="42.73677" lon="1.47473">
        <ele>1147.6</ele>
        <time>2024-07-08T09:34:52Z</time>
      </trkpt>
      <trkpt lat="42.73678" lon="1.47468">
        <ele>1147</ele>
        <time>2024-07-08T09:34:57Z</time>
      </trkpt>
      <trkpt lat="42.7368" lon="1.47469">
        <ele>1145.4</ele>
        <time>2024-07-08T09:35:02Z</time>
      </trkpt>
      <trkpt lat="42.7368" lon="1.47468">
        <ele>1144.8</ele>
        <time>2024-07-08T09:35:16Z</time>
      </trkpt>
      <trkpt lat="42.73674" lon="1.47465">
        <ele>1144.6</ele>
        <time>2024-07-08T09:35:30Z</time>
      </trkpt>
      <trkpt lat="42.73669" lon="1.47467">
        <ele>1146.6</ele>
        <time>2024-07-08T09:35:36Z</time>
      </trkpt>
      <trkpt lat="42.7367" lon="1.47465">
        <ele>1149</ele>
        <time>2024-07-08T09:35:40Z</time>
      </trkpt>
      <trkpt lat="42.73669" lon="1.47466">
        <ele>1151.6</ele>
        <time>2024-07-08T09:35:48Z</time>
      </trkpt>
      <trkpt lat="42.73668" lon="1.47469">
        <ele>1152.2</ele>
        <time>2024-07-08T09:35:52Z</time>
      </trkpt>
      <trkpt lat="42.73669" lon="1.47471">
        <ele>1151.6</ele>
        <time>2024-07-08T09:35:56Z</time>
      </trkpt>
      <trkpt lat="42.73667" lon="1.47472">
        <ele>1151</ele>
        <time>2024-07-08T09:36:01Z</time>
      </trkpt>
      <trkpt lat="42.73667" lon="1.47473">
        <ele>1151.2</ele>
        <time>2024-07-08T09:36:05Z</time>
      </trkpt>
      <trkpt lat="42.73665" lon="1.47475">
        <ele>1151.8</ele>
        <time>2024-07-08T09:36:09Z</time>
      </trkpt>
      <trkpt lat="42.73666" lon="1.47476">
        <ele>1152</ele>
        <time>2024-07-08T09:36:15Z</time>
      </trkpt>
      <trkpt lat="42.73665" lon="1.47476">
        <ele>1152.8</ele>
        <time>2024-07-08T09:36:23Z</time>
      </trkpt>
      <trkpt lat="42.73664" lon="1.47476">
        <ele>1150.8</ele>
        <time>2024-07-08T09:36:29Z</time>
      </trkpt>
      <trkpt lat="42.73666" lon="1.47473">
        <ele>1145.6</ele>
        <time>2024-07-08T09:36:35Z</time>
      </trkpt>
      <trkpt lat="42.73665" lon="1.47472">
        <ele>1140.8</ele>
        <time>2024-07-08T09:36:42Z</time>
      </trkpt>
      <trkpt lat="42.73667" lon="1.47472">
        <ele>1139</ele>
        <time>2024-07-08T09:36:48Z</time>
      </trkpt>
      <trkpt lat="42.73667" lon="1.47469">
        <ele>1140.2</ele>
        <time>2024-07-08T09:36:53Z</time>
      </trkpt>
      <trkpt lat="42.73668" lon="1.47467">
        <ele>1141.4</ele>
        <time>2024-07-08T09:36:59Z</time>
      </trkpt>
      <trkpt lat="42.73669" lon="1.47467">
        <ele>1142.2</ele>
        <time>2024-07-08T09:37:05Z</time>
      </trkpt>
      <trkpt lat="42.73671" lon="1.47467">
        <ele>1143</ele>
        <time>2024-07-08T09:37:10Z</time>
      </trkpt>
      <trkpt lat="42.73669" lon="1.47468">
        <ele>1143.6</ele>
        <time>2024-07-08T09:37:15Z</time>
      </trkpt>
      <trkpt lat="42.73668" lon="1.47469">
        <ele>1144</ele>
        <time>2024-07-08T09:37:20Z</time>
      </trkpt>
      <trkpt lat="42.73668" lon="1.47468">
        <ele>1144.6</ele>
        <time>2024-07-08T09:37:23Z</time>
      </trkpt>
      <trkpt lat="42.73667" lon="1.47466">
        <ele>1145</ele>
        <time>2024-07-08T09:37:26Z</time>
      </trkpt>
      <trkpt lat="42.73664" lon="1.47464">
        <ele>1143.8</ele>
        <time>2024-07-08T09:37:30Z</time>
      </trkpt>
      <trkpt lat="42.73662" lon="1.47461">
        <ele>1140.8</ele>
        <time>2024-07-08T09:37:35Z</time>
      </trkpt>
      <trkpt lat="42.73663" lon="1.47461">
        <ele>1138.8</ele>
        <time>2024-07-08T09:37:40Z</time>
      </trkpt>
      <trkpt lat="42.73664" lon="1.47462">
        <ele>1139.6</ele>
        <time>2024-07-08T09:37:46Z</time>
      </trkpt>
      <trkpt lat="42.73663" lon="1.47464">
        <ele>1140.8</ele>
        <time>2024-07-08T09:37:51Z</time>
      </trkpt>
      <trkpt lat="42.73663" lon="1.47464">
        <ele>1141.6</ele>
        <time>2024-07-08T09:37:56Z</time>
      </trkpt>
      <trkpt lat="42.73662" lon="1.47464">
        <ele>1142.6</ele>
        <time>2024-07-08T09:38:00Z</time>
      </trkpt>
      <trkpt lat="42.73661" lon="1.4746">
        <ele>1144.2</ele>
        <time>2024-07-08T09:38:06Z</time>
      </trkpt>
      <trkpt lat="42.73662" lon="1.47459">
        <ele>1144.6</ele>
        <time>2024-07-08T09:38:10Z</time>
      </trkpt>
      <trkpt lat="42.73661" lon="1.47457">
        <ele>1145</ele>
        <time>2024-07-08T09:38:15Z</time>
      </trkpt>
      <trkpt lat="42.73667" lon="1.47458">
        <ele>1145</ele>
        <time>2024-07-08T09:38:20Z</time>
      </trkpt>
      <trkpt lat="42.73667" lon="1.47461">
        <ele>1145.6</ele>
        <time>2024-07-08T09:38:25Z</time>
      </trkpt>
      <trkpt lat="42.73667" lon="1.47462">
        <ele>1148.4</ele>
        <time>2024-07-08T09:38:32Z</time>
      </trkpt>
      <trkpt lat="42.73668" lon="1.47461">
        <ele>1151.2</ele>
        <time>2024-07-08T09:38:41Z</time>
      </trkpt>
      <trkpt lat="42.7367" lon="1.47462">
        <ele>1154</ele>
        <time>2024-07-08T09:38:47Z</time>
      </trkpt>
      <trkpt lat="42.73668" lon="1.47462">
        <ele>1155</ele>
        <time>2024-07-08T09:38:52Z</time>
      </trkpt>
      <trkpt lat="42.7367" lon="1.47465">
        <ele>1158.6</ele>
        <time>2024-07-08T09:39:00Z</time>
      </trkpt>
      <trkpt lat="42.7367" lon="1.4747">
        <ele>1160.2</ele>
        <time>2024-07-08T09:39:05Z</time>
      </trkpt>
      <trkpt lat="42.73667" lon="1.47472">
        <ele>1162</ele>
        <time>2024-07-08T09:39:13Z</time>
      </trkpt>
      <trkpt lat="42.73669" lon="1.47474">
        <ele>1162.4</ele>
        <time>2024-07-08T09:39:18Z</time>
      </trkpt>
      <trkpt lat="42.73671" lon="1.47475">
        <ele>1161.6</ele>
        <time>2024-07-08T09:39:24Z</time>
      </trkpt>
      <trkpt lat="42.73672" lon="1.47475">
        <ele>1161.2</ele>
        <time>2024-07-08T09:39:30Z</time>
      </trkpt>
      <trkpt lat="42.73669" lon="1.47475">
        <ele>1161.2</ele>
        <time>2024-07-08T09:39:36Z</time>
      </trkpt>
      <trkpt lat="42.7367" lon="1.47474">
        <ele>1159.6</ele>
        <time>2024-07-08T09:39:40Z</time>
      </trkpt>
      <trkpt lat="42.73671" lon="1.47473">
        <ele>1158.6</ele>
        <time>2024-07-08T09:39:46Z</time>
      </trkpt>
      <trkpt lat="42.73671" lon="1.47473">
        <ele>1159.4</ele>
        <time>2024-07-08T09:39:48Z</time>
      </trkpt>
      <trkpt lat="42.73671" lon="1.47473">
        <ele>1160.4</ele>
        <time>2024-07-08T09:39:51Z</time>
      </trkpt>
      <trkpt lat="42.7367" lon="1.47473">
        <ele>1162.6</ele>
        <time>2024-07-08T09:40:00Z</time>
      </trkpt>
      <trkpt lat="42.73671" lon="1.47477">
        <ele>1163.2</ele>
        <time>2024-07-08T09:40:05Z</time>
      </trkpt>
      <trkpt lat="42.73669" lon="1.47476">
        <ele>1164.6</ele>
        <time>2024-07-08T09:40:11Z</time>
      </trkpt>
      <trkpt lat="42.73671" lon="1.47473">
        <ele>1165.2</ele>
        <time>2024-07-08T09:40:18Z</time>
      </trkpt>
      <trkpt lat="42.7367" lon="1.47473">
        <ele>1165.8</ele>
        <time>2024-07-08T09:40:22Z</time>
      </trkpt>
      <trkpt lat="42.7367" lon="1.4747">
        <ele>1166.8</ele>
        <time>2024-07-08T09:40:28Z</time>
      </trkpt>
      <trkpt lat="42.7367" lon="1.47466">
        <ele>1165.8</ele>
        <time>2024-07-08T09:40:34Z</time>
      </trkpt>
      <trkpt lat="42.73669" lon="1.47465">
        <ele>1163.2</ele>
        <time>2024-07-08T09:40:40Z</time>
      </trkpt>
      <trkpt lat="42.73671" lon="1.47465">
        <ele>1162.4</ele>
        <time>2024-07-08T09:40:46Z</time>
      </trkpt>
      <trkpt lat="42.73667" lon="1.47468">
        <ele>1163.2</ele>
        <time>2024-07-08T09:40:53Z</time>
      </trkpt>
      <trkpt lat="42.73669" lon="1.47475">
        <ele>1163.4</ele>
        <time>2024-07-08T09:40:56Z</time>
      </trkpt>
      <trkpt lat="42.73675" lon="1.47476">
        <ele>1163</ele>
        <time>2024-07-08T09:41:01Z</time>
      </trkpt>
      <trkpt lat="42.73676" lon="1.47483">
        <ele>1163.4</ele>
        <time>2024-07-08T09:41:05Z</time>
      </trkpt>
      <trkpt lat="42.73677" lon="1.47484">
        <ele>1164</ele>
        <time>2024-07-08T09:41:09Z</time>
      </trkpt>
      <trkpt lat="42.73678" lon="1.47483">
        <ele>1165.2</ele>
        <time>2024-07-08T09:41:15Z</time>
      </trkpt>
      <trkpt lat="42.73675" lon="1.47483">
        <ele>1162.8</ele>
        <time>2024-07-08T09:41:20Z</time>
      </trkpt>
      <trkpt lat="42.73675" lon="1.47482">
        <ele>1160.4</ele>
        <time>2024-07-08T09:41:24Z</time>
      </trkpt>
      <trkpt lat="42.73676" lon="1.47484">
        <ele>1158.6</ele>
        <time>2024-07-08T09:41:28Z</time>
      </trkpt>
      <trkpt lat="42.73675" lon="1.47483">
        <ele>1156</ele>
        <time>2024-07-08T09:41:37Z</time>
      </trkpt>
      <trkpt lat="42.73674" lon="1.47484">
        <ele>1156.4</ele>
        <time>2024-07-08T09:41:43Z</time>
      </trkpt>
      <trkpt lat="42.73669" lon="1.47484">
        <ele>1156.2</ele>
        <time>2024-07-08T09:41:48Z</time>
      </trkpt>
      <trkpt lat="42.73667" lon="1.47486">
        <ele>1154.6</ele>
        <time>2024-07-08T09:41:55Z</time>
      </trkpt>
      <trkpt lat="42.73667" lon="1.4749">
        <ele>1155.4</ele>
        <time>2024-07-08T09:42:02Z</time>
      </trkpt>
      <trkpt lat="42.73664" lon="1.47491">
        <ele>1157.8</ele>
        <time>2024-07-08T09:42:11Z</time>
      </trkpt>
      <trkpt lat="42.73661" lon="1.47491">
        <ele>1157</ele>
        <time>2024-07-08T09:42:19Z</time>
      </trkpt>
      <trkpt lat="42.7366" lon="1.47493">
        <ele>1157.2</ele>
        <time>2024-07-08T09:42:29Z</time>
      </trkpt>
      <trkpt lat="42.73659" lon="1.47494">
        <ele>1156.8</ele>
        <time>2024-07-08T09:42:39Z</time>
      </trkpt>
      <trkpt lat="42.73664" lon="1.47497">
        <ele>1153.2</ele>
        <time>2024-07-08T09:43:00Z</time>
      </trkpt>
      <trkpt lat="42.73662" lon="1.47494">
        <ele>1149.2</ele>
        <time>2024-07-08T09:43:06Z</time>
      </trkpt>
      <trkpt lat="42.73662" lon="1.47495">
        <ele>1147</ele>
        <time>2024-07-08T09:43:11Z</time>
      </trkpt>
      <trkpt lat="42.73663" lon="1.47495">
        <ele>1145</ele>
        <time>2024-07-08T09:43:17Z</time>
      </trkpt>
      <trkpt lat="42.73662" lon="1.47496">
        <ele>1144.8</ele>
        <time>2024-07-08T09:43:24Z</time>
      </trkpt>
      <trkpt lat="42.73661" lon="1.47495">
        <ele>1145.4</ele>
        <time>2024-07-08T09:43:31Z</time>
      </trkpt>
      <trkpt lat="42.73666" lon="1.47494">
        <ele>1146</ele>
        <time>2024-07-08T09:43:54Z</time>
      </trkpt>
      <trkpt lat="42.73668" lon="1.47492">
        <ele>1146.8</ele>
        <time>2024-07-08T09:43:59Z</time>
      </trkpt>
      <trkpt lat="42.73667" lon="1.47489">
        <ele>1148</ele>
        <time>2024-07-08T09:44:06Z</time>
      </trkpt>
      <trkpt lat="42.73663" lon="1.47481">
        <ele>1150.8</ele>
        <time>2024-07-08T09:46:09Z</time>
      </trkpt>
      <trkpt lat="42.73664" lon="1.47484">
        <ele>1150.6</ele>
        <time>2024-07-08T09:46:19Z</time>
      </trkpt>
      <trkpt lat="42.73666" lon="1.47484">
        <ele>1150.6</ele>
        <time>2024-07-08T09:46:23Z</time>
      </trkpt>
      <trkpt lat="42.73667" lon="1.47484">
        <ele>1149.6</ele>
        <time>2024-07-08T09:46:30Z</time>
      </trkpt>
      <trkpt lat="42.73665" lon="1.47482">
        <ele>1148.6</ele>
        <time>2024-07-08T09:46:35Z</time>
      </trkpt>
      <trkpt lat="42.73662" lon="1.47482">
        <ele>1147.4</ele>
        <time>2024-07-08T09:46:40Z</time>
      </trkpt>
      <trkpt lat="42.73664" lon="1.47482">
        <ele>1145.2</ele>
        <time>2024-07-08T09:46:43Z</time>
      </trkpt>
      <trkpt lat="42.73666" lon="1.4748">
        <ele>1144</ele>
        <time>2024-07-08T09:46:45Z</time>
      </trkpt>
      <trkpt lat="42.7367" lon="1.47477">
        <ele>1141.2</ele>
        <time>2024-07-08T09:46:50Z</time>
      </trkpt>
      <trkpt lat="42.7367" lon="1.47476">
        <ele>1140.6</ele>
        <time>2024-07-08T09:46:51Z</time>
      </trkpt>
      <trkpt lat="42.7367" lon="1.47476">
        <ele>1139.8</ele>
        <time>2024-07-08T09:46:52Z</time>
      </trkpt>
      <trkpt lat="42.73671" lon="1.47474">
        <ele>1138.4</ele>
        <time>2024-07-08T09:46:54Z</time>
      </trkpt>
      <trkpt lat="42.73674" lon="1.47472">
        <ele>1135.8</ele>
        <time>2024-07-08T09:46:58Z</time>
      </trkpt>
      <trkpt lat="42.73682" lon="1.47466">
        <ele>1131.8</ele>
        <time>2024-07-08T09:47:04Z</time>
      </trkpt>
      <trkpt lat="42.73691" lon="1.47459">
        <ele>1126.2</ele>
        <time>2024-07-08T09:47:11Z</time>
      </trkpt>
      <trkpt lat="42.73694" lon="1.47459">
        <ele>1125.4</ele>
        <time>2024-07-08T09:47:12Z</time>
      </trkpt>
      <trkpt lat="42.73706" lon="1.4746">
        <ele>1122.2</ele>
        <time>2024-07-08T09:47:20Z</time>
      </trkpt>
      <trkpt lat="42.73705" lon="1.47464">
        <ele>1121.6</ele>
        <time>2024-07-08T09:47:23Z</time>
      </trkpt>
      <trkpt lat="42.73703" lon="1.47468">
        <ele>1120.8</ele>
        <time>2024-07-08T09:47:25Z</time>
      </trkpt>
      <trkpt lat="42.737" lon="1.47472">
        <ele>1118.8</ele>
        <time>2024-07-08T09:47:29Z</time>
      </trkpt>
      <trkpt lat="42.73697" lon="1.47476">
        <ele>1117.6</ele>
        <time>2024-07-08T09:47:31Z</time>
      </trkpt>
      <trkpt lat="42.73694" lon="1.47479">
        <ele>1115.6</ele>
        <time>2024-07-08T09:47:33Z</time>
      </trkpt>
      <trkpt lat="42.7369" lon="1.47485">
        <ele>1112.6</ele>
        <time>2024-07-08T09:47:38Z</time>
      </trkpt>
      <trkpt lat="42.73689" lon="1.47485">
        <ele>1112.4</ele>
        <time>2024-07-08T09:47:39Z</time>
      </trkpt>
      <trkpt lat="42.73684" lon="1.47491">
        <ele>1113.6</ele>
        <time>2024-07-08T09:47:45Z</time>
      </trkpt>
      <trkpt lat="42.73672" lon="1.47499">
        <ele>1113.8</ele>
        <time>2024-07-08T09:47:52Z</time>
      </trkpt>
      <trkpt lat="42.73664" lon="1.47504">
        <ele>1113</ele>
        <time>2024-07-08T09:47:58Z</time>
      </trkpt>
      <trkpt lat="42.73663" lon="1.47505">
        <ele>1113</ele>
        <time>2024-07-08T09:47:59Z</time>
      </trkpt>
      <trkpt lat="42.73662" lon="1.47505">
        <ele>1112.8</ele>
        <time>2024-07-08T09:48:01Z</time>
      </trkpt>
      <trkpt lat="42.73657" lon="1.47511">
        <ele>1111.8</ele>
        <time>2024-07-08T09:48:05Z</time>
      </trkpt>
      <trkpt lat="42.73655" lon="1.47511">
        <ele>1111.4</ele>
        <time>2024-07-08T09:48:06Z</time>
      </trkpt>
      <trkpt lat="42.73654" lon="1.47512">
        <ele>1110.2</ele>
        <time>2024-07-08T09:48:08Z</time>
      </trkpt>
      <trkpt lat="42.73653" lon="1.47514">
        <ele>1109</ele>
        <time>2024-07-08T09:48:10Z</time>
      </trkpt>
      <trkpt lat="42.7365" lon="1.4752">
        <ele>1105.2</ele>
        <time>2024-07-08T09:48:15Z</time>
      </trkpt>
      <trkpt lat="42.73647" lon="1.47527">
        <ele>1101.2</ele>
        <time>2024-07-08T09:48:20Z</time>
      </trkpt>
      <trkpt lat="42.73646" lon="1.47528">
        <ele>1100.4</ele>
        <time>2024-07-08T09:48:21Z</time>
      </trkpt>
      <trkpt lat="42.73644" lon="1.47533">
        <ele>1095.2</ele>
        <time>2024-07-08T09:48:26Z</time>
      </trkpt>
      <trkpt lat="42.73645" lon="1.47532">
        <ele>1093.4</ele>
        <time>2024-07-08T09:48:29Z</time>
      </trkpt>
      <trkpt lat="42.73648" lon="1.4753">
        <ele>1092.6</ele>
        <time>2024-07-08T09:48:31Z</time>
      </trkpt>
      <trkpt lat="42.73653" lon="1.47525">
        <ele>1089.6</ele>
        <time>2024-07-08T09:48:37Z</time>
      </trkpt>
      <trkpt lat="42.73659" lon="1.47517">
        <ele>1086.2</ele>
        <time>2024-07-08T09:48:45Z</time>
      </trkpt>
      <trkpt lat="42.73662" lon="1.47515">
        <ele>1084.6</ele>
        <time>2024-07-08T09:48:48Z</time>
      </trkpt>
      <trkpt lat="42.73664" lon="1.47517">
        <ele>1084.2</ele>
        <time>2024-07-08T09:48:50Z</time>
      </trkpt>
      <trkpt lat="42.73661" lon="1.47522">
        <ele>1083.6</ele>
        <time>2024-07-08T09:48:56Z</time>
      </trkpt>
      <trkpt lat="42.73657" lon="1.47526">
        <ele>1082.2</ele>
        <time>2024-07-08T09:48:59Z</time>
      </trkpt>
      <trkpt lat="42.73656" lon="1.4753">
        <ele>1080.6</ele>
        <time>2024-07-08T09:49:01Z</time>
      </trkpt>
      <trkpt lat="42.73651" lon="1.47535">
        <ele>1079</ele>
        <time>2024-07-08T09:49:05Z</time>
      </trkpt>
      <trkpt lat="42.7365" lon="1.47539">
        <ele>1078.4</ele>
        <time>2024-07-08T09:49:07Z</time>
      </trkpt>
      <trkpt lat="42.7365" lon="1.47544">
        <ele>1078.2</ele>
        <time>2024-07-08T09:49:09Z</time>
      </trkpt>
      <trkpt lat="42.73648" lon="1.47549">
        <ele>1078</ele>
        <time>2024-07-08T09:49:13Z</time>
      </trkpt>
      <trkpt lat="42.73646" lon="1.47547">
        <ele>1079.8</ele>
        <time>2024-07-08T09:49:19Z</time>
      </trkpt>
      <trkpt lat="42.73646" lon="1.47547">
        <ele>1082.2</ele>
        <time>2024-07-08T09:49:36Z</time>
      </trkpt>
      <trkpt lat="42.73641" lon="1.47552">
        <ele>1081.8</ele>
        <time>2024-07-08T09:49:53Z</time>
      </trkpt>
      <trkpt lat="42.73637" lon="1.47555">
        <ele>1081.2</ele>
        <time>2024-07-08T09:49:56Z</time>
      </trkpt>
      <trkpt lat="42.73635" lon="1.47559">
        <ele>1080.2</ele>
        <time>2024-07-08T09:49:58Z</time>
      </trkpt>
      <trkpt lat="42.73632" lon="1.47567">
        <ele>1078</ele>
        <time>2024-07-08T09:50:03Z</time>
      </trkpt>
      <trkpt lat="42.73633" lon="1.47569">
        <ele>1077.4</ele>
        <time>2024-07-08T09:50:05Z</time>
      </trkpt>
      <trkpt lat="42.73632" lon="1.47567">
        <ele>1076</ele>
        <time>2024-07-08T09:50:12Z</time>
      </trkpt>
      <trkpt lat="42.73645" lon="1.47566">
        <ele>1076.4</ele>
        <time>2024-07-08T09:50:20Z</time>
      </trkpt>
      <trkpt lat="42.73648" lon="1.47566">
        <ele>1077</ele>
        <time>2024-07-08T09:50:22Z</time>
      </trkpt>
      <trkpt lat="42.73655" lon="1.47567">
        <ele>1079.2</ele>
        <time>2024-07-08T09:50:27Z</time>
      </trkpt>
      <trkpt lat="42.73657" lon="1.47572">
        <ele>1079.6</ele>
        <time>2024-07-08T09:50:31Z</time>
      </trkpt>
      <trkpt lat="42.73656" lon="1.47575">
        <ele>1079.6</ele>
        <time>2024-07-08T09:50:32Z</time>
      </trkpt>
      <trkpt lat="42.73655" lon="1.47576">
        <ele>1079.6</ele>
        <time>2024-07-08T09:50:33Z</time>
      </trkpt>
      <trkpt lat="42.73652" lon="1.47581">
        <ele>1079</ele>
        <time>2024-07-08T09:50:37Z</time>
      </trkpt>
      <trkpt lat="42.73642" lon="1.47593">
        <ele>1078.4</ele>
        <time>2024-07-08T09:50:46Z</time>
      </trkpt>
      <trkpt lat="42.73643" lon="1.47595">
        <ele>1078.2</ele>
        <time>2024-07-08T09:50:48Z</time>
      </trkpt>
      <trkpt lat="42.73642" lon="1.47602">
        <ele>1077.4</ele>
        <time>2024-07-08T09:50:52Z</time>
      </trkpt>
      <trkpt lat="42.7364" lon="1.47608">
        <ele>1076.8</ele>
        <time>2024-07-08T09:50:56Z</time>
      </trkpt>
      <trkpt lat="42.73644" lon="1.47615">
        <ele>1076.2</ele>
        <time>2024-07-08T09:50:59Z</time>
      </trkpt>
      <trkpt lat="42.73639" lon="1.47629">
        <ele>1074</ele>
        <time>2024-07-08T09:51:07Z</time>
      </trkpt>
      <trkpt lat="42.73632" lon="1.47643">
        <ele>1072.2</ele>
        <time>2024-07-08T09:51:14Z</time>
      </trkpt>
      <trkpt lat="42.73624" lon="1.47662">
        <ele>1068.8</ele>
        <time>2024-07-08T09:51:24Z</time>
      </trkpt>
      <trkpt lat="42.73621" lon="1.47676">
        <ele>1067.4</ele>
        <time>2024-07-08T09:51:31Z</time>
      </trkpt>
      <trkpt lat="42.73616" lon="1.47689">
        <ele>1064.2</ele>
        <time>2024-07-08T09:51:39Z</time>
      </trkpt>
      <trkpt lat="42.73612" lon="1.47695">
        <ele>1062.8</ele>
        <time>2024-07-08T09:51:42Z</time>
      </trkpt>
      <trkpt lat="42.7361" lon="1.47702">
        <ele>1061.4</ele>
        <time>2024-07-08T09:51:45Z</time>
      </trkpt>
      <trkpt lat="42.73608" lon="1.47708">
        <ele>1061</ele>
        <time>2024-07-08T09:51:47Z</time>
      </trkpt>
      <trkpt lat="42.73602" lon="1.47716">
        <ele>1061.4</ele>
        <time>2024-07-08T09:51:52Z</time>
      </trkpt>
      <trkpt lat="42.73591" lon="1.47732">
        <ele>1055.8</ele>
        <time>2024-07-08T09:52:01Z</time>
      </trkpt>
      <trkpt lat="42.73581" lon="1.47746">
        <ele>1047.8</ele>
        <time>2024-07-08T09:52:10Z</time>
      </trkpt>
      <trkpt lat="42.73574" lon="1.47755">
        <ele>1042</ele>
        <time>2024-07-08T09:52:18Z</time>
      </trkpt>
      <trkpt lat="42.7356" lon="1.47764">
        <ele>1040</ele>
        <time>2024-07-08T09:52:27Z</time>
      </trkpt>
      <trkpt lat="42.73552" lon="1.47772">
        <ele>1039.2</ele>
        <time>2024-07-08T09:52:32Z</time>
      </trkpt>
      <trkpt lat="42.73544" lon="1.47783">
        <ele>1035.8</ele>
        <time>2024-07-08T09:52:39Z</time>
      </trkpt>
      <trkpt lat="42.73543" lon="1.47784">
        <ele>1035.2</ele>
        <time>2024-07-08T09:52:41Z</time>
      </trkpt>
      <trkpt lat="42.7354" lon="1.47793">
        <ele>1032.6</ele>
        <time>2024-07-08T09:52:46Z</time>
      </trkpt>
      <trkpt lat="42.73535" lon="1.47807">
        <ele>1029.6</ele>
        <time>2024-07-08T09:52:54Z</time>
      </trkpt>
      <trkpt lat="42.73527" lon="1.47822">
        <ele>1029</ele>
        <time>2024-07-08T09:53:02Z</time>
      </trkpt>
      <trkpt lat="42.73524" lon="1.47835">
        <ele>1028.2</ele>
        <time>2024-07-08T09:53:08Z</time>
      </trkpt>
      <trkpt lat="42.73523" lon="1.47842">
        <ele>1027</ele>
        <time>2024-07-08T09:53:11Z</time>
      </trkpt>
      <trkpt lat="42.7352" lon="1.47848">
        <ele>1025.6</ele>
        <time>2024-07-08T09:53:15Z</time>
      </trkpt>
      <trkpt lat="42.73518" lon="1.47858">
        <ele>1024</ele>
        <time>2024-07-08T09:53:22Z</time>
      </trkpt>
      <trkpt lat="42.73517" lon="1.47855">
        <ele>1023</ele>
        <time>2024-07-08T09:53:29Z</time>
      </trkpt>
      <trkpt lat="42.73517" lon="1.47855">
        <ele>1022</ele>
        <time>2024-07-08T09:53:37Z</time>
      </trkpt>
      <trkpt lat="42.73511" lon="1.47856">
        <ele>1015</ele>
        <time>2024-07-08T09:55:16Z</time>
      </trkpt>
      <trkpt lat="42.73508" lon="1.47856">
        <ele>1015.4</ele>
        <time>2024-07-08T09:55:18Z</time>
      </trkpt>
      <trkpt lat="42.73503" lon="1.47858">
        <ele>1016</ele>
        <time>2024-07-08T09:55:21Z</time>
      </trkpt>
      <trkpt lat="42.735" lon="1.4786">
        <ele>1016.2</ele>
        <time>2024-07-08T09:55:23Z</time>
      </trkpt>
      <trkpt lat="42.73498" lon="1.47863">
        <ele>1018</ele>
        <time>2024-07-08T09:55:27Z</time>
      </trkpt>
      <trkpt lat="42.73493" lon="1.47869">
        <ele>1021</ele>
        <time>2024-07-08T09:55:33Z</time>
      </trkpt>
      <trkpt lat="42.73489" lon="1.4787">
        <ele>1022.4</ele>
        <time>2024-07-08T09:55:36Z</time>
      </trkpt>
      <trkpt lat="42.73487" lon="1.47872">
        <ele>1023.6</ele>
        <time>2024-07-08T09:55:38Z</time>
      </trkpt>
      <trkpt lat="42.73485" lon="1.47877">
        <ele>1027</ele>
        <time>2024-07-08T09:55:43Z</time>
      </trkpt>
      <trkpt lat="42.73484" lon="1.47879">
        <ele>1028.2</ele>
        <time>2024-07-08T09:55:45Z</time>
      </trkpt>
      <trkpt lat="42.73481" lon="1.47881">
        <ele>1030.6</ele>
        <time>2024-07-08T09:55:49Z</time>
      </trkpt>
      <trkpt lat="42.73476" lon="1.47882">
        <ele>1034.4</ele>
        <time>2024-07-08T09:55:56Z</time>
      </trkpt>
      <trkpt lat="42.73472" lon="1.47886">
        <ele>1036.8</ele>
        <time>2024-07-08T09:56:01Z</time>
      </trkpt>
      <trkpt lat="42.73469" lon="1.47889">
        <ele>1038.2</ele>
        <time>2024-07-08T09:56:04Z</time>
      </trkpt>
      <trkpt lat="42.73467" lon="1.47889">
        <ele>1039.2</ele>
        <time>2024-07-08T09:56:06Z</time>
      </trkpt>
      <trkpt lat="42.73465" lon="1.4789">
        <ele>1040.2</ele>
        <time>2024-07-08T09:56:08Z</time>
      </trkpt>
      <trkpt lat="42.73463" lon="1.4789">
        <ele>1040.8</ele>
        <time>2024-07-08T09:56:11Z</time>
      </trkpt>
      <trkpt lat="42.73461" lon="1.47891">
        <ele>1041</ele>
        <time>2024-07-08T09:56:13Z</time>
      </trkpt>
      <trkpt lat="42.73457" lon="1.47892">
        <ele>1041.4</ele>
        <time>2024-07-08T09:56:17Z</time>
      </trkpt>
      <trkpt lat="42.7345" lon="1.47897">
        <ele>1043</ele>
        <time>2024-07-08T09:56:27Z</time>
      </trkpt>
      <trkpt lat="42.73446" lon="1.47901">
        <ele>1045.2</ele>
        <time>2024-07-08T09:56:34Z</time>
      </trkpt>
      <trkpt lat="42.73442" lon="1.47903">
        <ele>1046.6</ele>
        <time>2024-07-08T09:56:40Z</time>
      </trkpt>
      <trkpt lat="42.73439" lon="1.47905">
        <ele>1048.6</ele>
        <time>2024-07-08T09:56:45Z</time>
      </trkpt>
      <trkpt lat="42.73433" lon="1.47906">
        <ele>1046.8</ele>
        <time>2024-07-08T09:56:51Z</time>
      </trkpt>
      <trkpt lat="42.73425" lon="1.47912">
        <ele>1044.4</ele>
        <time>2024-07-08T09:57:00Z</time>
      </trkpt>
      <trkpt lat="42.73419" lon="1.47916">
        <ele>1041.6</ele>
        <time>2024-07-08T09:57:06Z</time>
      </trkpt>
      <trkpt lat="42.73416" lon="1.47916">
        <ele>1041</ele>
        <time>2024-07-08T09:57:09Z</time>
      </trkpt>
      <trkpt lat="42.73412" lon="1.47919">
        <ele>1041.8</ele>
        <time>2024-07-08T09:57:15Z</time>
      </trkpt>
      <trkpt lat="42.73403" lon="1.47922">
        <ele>1041.4</ele>
        <time>2024-07-08T09:57:24Z</time>
      </trkpt>
      <trkpt lat="42.73396" lon="1.47924">
        <ele>1040.6</ele>
        <time>2024-07-08T09:57:30Z</time>
      </trkpt>
      <trkpt lat="42.73391" lon="1.47924">
        <ele>1040.2</ele>
        <time>2024-07-08T09:57:36Z</time>
      </trkpt>
      <trkpt lat="42.73382" lon="1.47927">
        <ele>1040.6</ele>
        <time>2024-07-08T09:57:44Z</time>
      </trkpt>
      <trkpt lat="42.73378" lon="1.47935">
        <ele>1043.4</ele>
        <time>2024-07-08T09:57:51Z</time>
      </trkpt>
      <trkpt lat="42.73373" lon="1.47941">
        <ele>1043.2</ele>
        <time>2024-07-08T09:58:00Z</time>
      </trkpt>
      <trkpt lat="42.73367" lon="1.47946">
        <ele>1043.8</ele>
        <time>2024-07-08T09:58:06Z</time>
      </trkpt>
      <trkpt lat="42.73362" lon="1.47952">
        <ele>1048.8</ele>
        <time>2024-07-08T09:58:12Z</time>
      </trkpt>
      <trkpt lat="42.73355" lon="1.47957">
        <ele>1053.4</ele>
        <time>2024-07-08T09:58:19Z</time>
      </trkpt>
      <trkpt lat="42.73353" lon="1.47959">
        <ele>1053.8</ele>
        <time>2024-07-08T09:58:20Z</time>
      </trkpt>
      <trkpt lat="42.73345" lon="1.47967">
        <ele>1056.4</ele>
        <time>2024-07-08T09:58:27Z</time>
      </trkpt>
      <trkpt lat="42.73344" lon="1.47968">
        <ele>1056.6</ele>
        <time>2024-07-08T09:58:28Z</time>
      </trkpt>
      <trkpt lat="42.7334" lon="1.47971">
        <ele>1057.2</ele>
        <time>2024-07-08T09:58:31Z</time>
      </trkpt>
      <trkpt lat="42.73336" lon="1.47976">
        <ele>1057.4</ele>
        <time>2024-07-08T09:58:35Z</time>
      </trkpt>
      <trkpt lat="42.73329" lon="1.47982">
        <ele>1056.8</ele>
        <time>2024-07-08T09:58:41Z</time>
      </trkpt>
      <trkpt lat="42.73328" lon="1.47983">
        <ele>1056.6</ele>
        <time>2024-07-08T09:58:42Z</time>
      </trkpt>
      <trkpt lat="42.73322" lon="1.47983">
        <ele>1056.8</ele>
        <time>2024-07-08T09:58:45Z</time>
      </trkpt>
      <trkpt lat="42.73318" lon="1.47984">
        <ele>1057.2</ele>
        <time>2024-07-08T09:58:48Z</time>
      </trkpt>
      <trkpt lat="42.73317" lon="1.47985">
        <ele>1057.2</ele>
        <time>2024-07-08T09:58:49Z</time>
      </trkpt>
      <trkpt lat="42.73317" lon="1.47986">
        <ele>1057.6</ele>
        <time>2024-07-08T09:58:50Z</time>
      </trkpt>
      <trkpt lat="42.73312" lon="1.47986">
        <ele>1061.8</ele>
        <time>2024-07-08T09:58:56Z</time>
      </trkpt>
      <trkpt lat="42.73308" lon="1.47986">
        <ele>1063.6</ele>
        <time>2024-07-08T09:59:01Z</time>
      </trkpt>
      <trkpt lat="42.73298" lon="1.47993">
        <ele>1064.8</ele>
        <time>2024-07-08T09:59:08Z</time>
      </trkpt>
      <trkpt lat="42.73294" lon="1.47994">
        <ele>1064.4</ele>
        <time>2024-07-08T09:59:11Z</time>
      </trkpt>
      <trkpt lat="42.73292" lon="1.47997">
        <ele>1062.6</ele>
        <time>2024-07-08T09:59:15Z</time>
      </trkpt>
      <trkpt lat="42.73287" lon="1.48001">
        <ele>1060.6</ele>
        <time>2024-07-08T09:59:21Z</time>
      </trkpt>
      <trkpt lat="42.73277" lon="1.48005">
        <ele>1062.4</ele>
        <time>2024-07-08T09:59:30Z</time>
      </trkpt>
      <trkpt lat="42.73274" lon="1.48006">
        <ele>1062.2</ele>
        <time>2024-07-08T09:59:33Z</time>
      </trkpt>
      <trkpt lat="42.73273" lon="1.48006">
        <ele>1061.4</ele>
        <time>2024-07-08T09:59:36Z</time>
      </trkpt>
      <trkpt lat="42.73272" lon="1.48007">
        <ele>1060.2</ele>
        <time>2024-07-08T09:59:45Z</time>
      </trkpt>
      <trkpt lat="42.73271" lon="1.48007">
        <ele>1060.4</ele>
        <time>2024-07-08T09:59:54Z</time>
      </trkpt>
      <trkpt lat="42.73265" lon="1.48009">
        <ele>1060.4</ele>
        <time>2024-07-08T09:59:59Z</time>
      </trkpt>
      <trkpt lat="42.73256" lon="1.48008">
        <ele>1057.8</ele>
        <time>2024-07-08T10:00:08Z</time>
      </trkpt>
      <trkpt lat="42.73246" lon="1.48012">
        <ele>1057.4</ele>
        <time>2024-07-08T10:00:17Z</time>
      </trkpt>
      <trkpt lat="42.73239" lon="1.48015">
        <ele>1056.6</ele>
        <time>2024-07-08T10:00:23Z</time>
      </trkpt>
      <trkpt lat="42.73231" lon="1.48017">
        <ele>1059.2</ele>
        <time>2024-07-08T10:00:28Z</time>
      </trkpt>
      <trkpt lat="42.73229" lon="1.48016">
        <ele>1060.2</ele>
        <time>2024-07-08T10:00:30Z</time>
      </trkpt>
      <trkpt lat="42.7322" lon="1.48019">
        <ele>1059.4</ele>
        <time>2024-07-08T10:00:37Z</time>
      </trkpt>
      <trkpt lat="42.73218" lon="1.48027">
        <ele>1057.2</ele>
        <time>2024-07-08T10:00:43Z</time>
      </trkpt>
      <trkpt lat="42.73217" lon="1.48028">
        <ele>1056.6</ele>
        <time>2024-07-08T10:00:44Z</time>
      </trkpt>
      <trkpt lat="42.73215" lon="1.48033">
        <ele>1054.2</ele>
        <time>2024-07-08T10:00:48Z</time>
      </trkpt>
      <trkpt lat="42.73213" lon="1.48035">
        <ele>1053</ele>
        <time>2024-07-08T10:00:50Z</time>
      </trkpt>
      <trkpt lat="42.73213" lon="1.48035">
        <ele>1052.4</ele>
        <time>2024-07-08T10:00:51Z</time>
      </trkpt>
      <trkpt lat="42.7321" lon="1.48038">
        <ele>1049.8</ele>
        <time>2024-07-08T10:00:57Z</time>
      </trkpt>
      <trkpt lat="42.73208" lon="1.48041">
        <ele>1049.6</ele>
        <time>2024-07-08T10:01:00Z</time>
      </trkpt>
      <trkpt lat="42.73203" lon="1.48045">
        <ele>1049.8</ele>
        <time>2024-07-08T10:01:04Z</time>
      </trkpt>
      <trkpt lat="42.73197" lon="1.48048">
        <ele>1050.4</ele>
        <time>2024-07-08T10:01:10Z</time>
      </trkpt>
      <trkpt lat="42.73187" lon="1.48054">
        <ele>1051.2</ele>
        <time>2024-07-08T10:01:18Z</time>
      </trkpt>
      <trkpt lat="42.7318" lon="1.48061">
        <ele>1051</ele>
        <time>2024-07-08T10:01:24Z</time>
      </trkpt>
      <trkpt lat="42.73173" lon="1.48068">
        <ele>1051.4</ele>
        <time>2024-07-08T10:01:31Z</time>
      </trkpt>
      <trkpt lat="42.73169" lon="1.48077">
        <ele>1053.2</ele>
        <time>2024-07-08T10:01:36Z</time>
      </trkpt>
      <trkpt lat="42.73169" lon="1.48079">
        <ele>1053.6</ele>
        <time>2024-07-08T10:01:37Z</time>
      </trkpt>
      <trkpt lat="42.73165" lon="1.48086">
        <ele>1055.8</ele>
        <time>2024-07-08T10:01:42Z</time>
      </trkpt>
      <trkpt lat="42.73159" lon="1.48092">
        <ele>1056.8</ele>
        <time>2024-07-08T10:01:46Z</time>
      </trkpt>
      <trkpt lat="42.73156" lon="1.48091">
        <ele>1057.2</ele>
        <time>2024-07-08T10:01:49Z</time>
      </trkpt>
      <trkpt lat="42.73153" lon="1.48092">
        <ele>1057.2</ele>
        <time>2024-07-08T10:01:51Z</time>
      </trkpt>
      <trkpt lat="42.73152" lon="1.48092">
        <ele>1057.2</ele>
        <time>2024-07-08T10:01:52Z</time>
      </trkpt>
      <trkpt lat="42.73142" lon="1.48096">
        <ele>1057.4</ele>
        <time>2024-07-08T10:01:58Z</time>
      </trkpt>
      <trkpt lat="42.73131" lon="1.48105">
        <ele>1058</ele>
        <time>2024-07-08T10:02:05Z</time>
      </trkpt>
      <trkpt lat="42.73126" lon="1.48109">
        <ele>1055</ele>
        <time>2024-07-08T10:02:11Z</time>
      </trkpt>
      <trkpt lat="42.73122" lon="1.48114">
        <ele>1053.6</ele>
        <time>2024-07-08T10:02:15Z</time>
      </trkpt>
      <trkpt lat="42.73119" lon="1.48119">
        <ele>1053</ele>
        <time>2024-07-08T10:02:18Z</time>
      </trkpt>
      <trkpt lat="42.7311" lon="1.48129">
        <ele>1051.4</ele>
        <time>2024-07-08T10:02:28Z</time>
      </trkpt>
      <trkpt lat="42.73105" lon="1.48133">
        <ele>1051.6</ele>
        <time>2024-07-08T10:02:33Z</time>
      </trkpt>
      <trkpt lat="42.73102" lon="1.48137">
        <ele>1051.6</ele>
        <time>2024-07-08T10:02:36Z</time>
      </trkpt>
      <trkpt lat="42.73097" lon="1.48145">
        <ele>1049.6</ele>
        <time>2024-07-08T10:02:44Z</time>
      </trkpt>
      <trkpt lat="42.73094" lon="1.48148">
        <ele>1048.2</ele>
        <time>2024-07-08T10:02:47Z</time>
      </trkpt>
      <trkpt lat="42.73087" lon="1.48151">
        <ele>1046.2</ele>
        <time>2024-07-08T10:02:52Z</time>
      </trkpt>
      <trkpt lat="42.73077" lon="1.48154">
        <ele>1042.8</ele>
        <time>2024-07-08T10:02:59Z</time>
      </trkpt>
      <trkpt lat="42.73075" lon="1.48155">
        <ele>1042</ele>
        <time>2024-07-08T10:03:01Z</time>
      </trkpt>
      <trkpt lat="42.73069" lon="1.48162">
        <ele>1041.2</ele>
        <time>2024-07-08T10:03:06Z</time>
      </trkpt>
      <trkpt lat="42.73067" lon="1.48164">
        <ele>1040.6</ele>
        <time>2024-07-08T10:03:09Z</time>
      </trkpt>
      <trkpt lat="42.73064" lon="1.48164">
        <ele>1040</ele>
        <time>2024-07-08T10:03:12Z</time>
      </trkpt>
      <trkpt lat="42.73062" lon="1.48163">
        <ele>1040</ele>
        <time>2024-07-08T10:03:13Z</time>
      </trkpt>
      <trkpt lat="42.73056" lon="1.48165">
        <ele>1040.4</ele>
        <time>2024-07-08T10:03:19Z</time>
      </trkpt>
      <trkpt lat="42.73056" lon="1.48166">
        <ele>1040.8</ele>
        <time>2024-07-08T10:03:20Z</time>
      </trkpt>
      <trkpt lat="42.73048" lon="1.48163">
        <ele>1045.4</ele>
        <time>2024-07-08T10:03:26Z</time>
      </trkpt>
      <trkpt lat="42.73044" lon="1.48161">
        <ele>1046.6</ele>
        <time>2024-07-08T10:03:29Z</time>
      </trkpt>
      <trkpt lat="42.73041" lon="1.4816">
        <ele>1047.8</ele>
        <time>2024-07-08T10:03:33Z</time>
      </trkpt>
      <trkpt lat="42.7303" lon="1.48158">
        <ele>1052.4</ele>
        <time>2024-07-08T10:03:40Z</time>
      </trkpt>
      <trkpt lat="42.73029" lon="1.48158">
        <ele>1053</ele>
        <time>2024-07-08T10:03:41Z</time>
      </trkpt>
      <trkpt lat="42.73019" lon="1.48154">
        <ele>1055.2</ele>
        <time>2024-07-08T10:03:49Z</time>
      </trkpt>
      <trkpt lat="42.73009" lon="1.4815">
        <ele>1055.2</ele>
        <time>2024-07-08T10:03:58Z</time>
      </trkpt>
      <trkpt lat="42.73007" lon="1.48146">
        <ele>1055</ele>
        <time>2024-07-08T10:04:03Z</time>
      </trkpt>
      <trkpt lat="42.72994" lon="1.48137">
        <ele>1056.2</ele>
        <time>2024-07-08T10:04:12Z</time>
      </trkpt>
      <trkpt lat="42.72986" lon="1.48131">
        <ele>1054.2</ele>
        <time>2024-07-08T10:04:20Z</time>
      </trkpt>
      <trkpt lat="42.72983" lon="1.48129">
        <ele>1054</ele>
        <time>2024-07-08T10:04:23Z</time>
      </trkpt>
      <trkpt lat="42.72981" lon="1.48129">
        <ele>1053.8</ele>
        <time>2024-07-08T10:04:25Z</time>
      </trkpt>
      <trkpt lat="42.7298" lon="1.48129">
        <ele>1053.8</ele>
        <time>2024-07-08T10:04:26Z</time>
      </trkpt>
      <trkpt lat="42.72972" lon="1.48127">
        <ele>1054.4</ele>
        <time>2024-07-08T10:04:34Z</time>
      </trkpt>
      <trkpt lat="42.72964" lon="1.48118">
        <ele>1056.4</ele>
        <time>2024-07-08T10:04:41Z</time>
      </trkpt>
      <trkpt lat="42.7296" lon="1.48116">
        <ele>1054.6</ele>
        <time>2024-07-08T10:04:46Z</time>
      </trkpt>
      <trkpt lat="42.72954" lon="1.48117">
        <ele>1053.6</ele>
        <time>2024-07-08T10:04:52Z</time>
      </trkpt>
      <trkpt lat="42.72947" lon="1.48116">
        <ele>1052.6</ele>
        <time>2024-07-08T10:04:58Z</time>
      </trkpt>
      <trkpt lat="42.72941" lon="1.48117">
        <ele>1051.6</ele>
        <time>2024-07-08T10:05:05Z</time>
      </trkpt>
      <trkpt lat="42.72934" lon="1.48121">
        <ele>1052.6</ele>
        <time>2024-07-08T10:05:12Z</time>
      </trkpt>
      <trkpt lat="42.7293" lon="1.48121">
        <ele>1052</ele>
        <time>2024-07-08T10:05:19Z</time>
      </trkpt>
      <trkpt lat="42.7293" lon="1.48121">
        <ele>1050.8</ele>
        <time>2024-07-08T10:05:25Z</time>
      </trkpt>
      <trkpt lat="42.72929" lon="1.48122">
        <ele>1049.2</ele>
        <time>2024-07-08T10:05:37Z</time>
      </trkpt>
      <trkpt lat="42.72921" lon="1.48123">
        <ele>1050</ele>
        <time>2024-07-08T10:05:44Z</time>
      </trkpt>
      <trkpt lat="42.72917" lon="1.48123">
        <ele>1052</ele>
        <time>2024-07-08T10:05:49Z</time>
      </trkpt>
      <trkpt lat="42.72914" lon="1.48123">
        <ele>1053.2</ele>
        <time>2024-07-08T10:05:55Z</time>
      </trkpt>
      <trkpt lat="42.72908" lon="1.48124">
        <ele>1054.6</ele>
        <time>2024-07-08T10:06:02Z</time>
      </trkpt>
      <trkpt lat="42.72903" lon="1.48125">
        <ele>1055.2</ele>
        <time>2024-07-08T10:06:07Z</time>
      </trkpt>
      <trkpt lat="42.72897" lon="1.48125">
        <ele>1053.8</ele>
        <time>2024-07-08T10:06:13Z</time>
      </trkpt>
      <trkpt lat="42.72893" lon="1.48126">
        <ele>1053.8</ele>
        <time>2024-07-08T10:06:19Z</time>
      </trkpt>
      <trkpt lat="42.72888" lon="1.4813">
        <ele>1055</ele>
        <time>2024-07-08T10:06:27Z</time>
      </trkpt>
      <trkpt lat="42.72883" lon="1.48131">
        <ele>1058.8</ele>
        <time>2024-07-08T10:06:33Z</time>
      </trkpt>
      <trkpt lat="42.72876" lon="1.48134">
        <ele>1061.8</ele>
        <time>2024-07-08T10:06:39Z</time>
      </trkpt>
      <trkpt lat="42.72867" lon="1.48136">
        <ele>1064.2</ele>
        <time>2024-07-08T10:06:47Z</time>
      </trkpt>
      <trkpt lat="42.7286" lon="1.48139">
        <ele>1066.4</ele>
        <time>2024-07-08T10:06:53Z</time>
      </trkpt>
      <trkpt lat="42.72856" lon="1.48144">
        <ele>1067.2</ele>
        <time>2024-07-08T10:06:59Z</time>
      </trkpt>
      <trkpt lat="42.7285" lon="1.48145">
        <ele>1067</ele>
        <time>2024-07-08T10:07:06Z</time>
      </trkpt>
      <trkpt lat="42.7284" lon="1.48149">
        <ele>1070.8</ele>
        <time>2024-07-08T10:07:15Z</time>
      </trkpt>
      <trkpt lat="42.72833" lon="1.48153">
        <ele>1073.6</ele>
        <time>2024-07-08T10:07:23Z</time>
      </trkpt>
      <trkpt lat="42.72827" lon="1.48158">
        <ele>1076.6</ele>
        <time>2024-07-08T10:07:30Z</time>
      </trkpt>
      <trkpt lat="42.72823" lon="1.4816">
        <ele>1079</ele>
        <time>2024-07-08T10:07:36Z</time>
      </trkpt>
      <trkpt lat="42.72818" lon="1.48164">
        <ele>1080.6</ele>
        <time>2024-07-08T10:07:42Z</time>
      </trkpt>
      <trkpt lat="42.72813" lon="1.48168">
        <ele>1083.4</ele>
        <time>2024-07-08T10:07:50Z</time>
      </trkpt>
      <trkpt lat="42.7281" lon="1.4817">
        <ele>1086</ele>
        <time>2024-07-08T10:07:59Z</time>
      </trkpt>
      <trkpt lat="42.72809" lon="1.48172">
        <ele>1088.4</ele>
        <time>2024-07-08T10:08:07Z</time>
      </trkpt>
      <trkpt lat="42.72809" lon="1.48172">
        <ele>1092.8</ele>
        <time>2024-07-08T10:08:17Z</time>
      </trkpt>
      <trkpt lat="42.72802" lon="1.48169">
        <ele>1095.6</ele>
        <time>2024-07-08T10:09:02Z</time>
      </trkpt>
      <trkpt lat="42.72795" lon="1.48171">
        <ele>1095</ele>
        <time>2024-07-08T10:09:09Z</time>
      </trkpt>
      <trkpt lat="42.72788" lon="1.48174">
        <ele>1094.8</ele>
        <time>2024-07-08T10:09:15Z</time>
      </trkpt>
      <trkpt lat="42.72783" lon="1.48177">
        <ele>1093.4</ele>
        <time>2024-07-08T10:09:22Z</time>
      </trkpt>
      <trkpt lat="42.7278" lon="1.48177">
        <ele>1096.2</ele>
        <time>2024-07-08T10:09:29Z</time>
      </trkpt>
      <trkpt lat="42.72772" lon="1.48181">
        <ele>1099.8</ele>
        <time>2024-07-08T10:09:38Z</time>
      </trkpt>
      <trkpt lat="42.72772" lon="1.48182">
        <ele>1102.4</ele>
        <time>2024-07-08T10:09:44Z</time>
      </trkpt>
      <trkpt lat="42.72765" lon="1.48184">
        <ele>1103.4</ele>
        <time>2024-07-08T10:09:50Z</time>
      </trkpt>
      <trkpt lat="42.72758" lon="1.48187">
        <ele>1100.8</ele>
        <time>2024-07-08T10:09:56Z</time>
      </trkpt>
      <trkpt lat="42.72748" lon="1.48187">
        <ele>1097</ele>
        <time>2024-07-08T10:10:05Z</time>
      </trkpt>
      <trkpt lat="42.72741" lon="1.48185">
        <ele>1097.4</ele>
        <time>2024-07-08T10:10:14Z</time>
      </trkpt>
      <trkpt lat="42.72737" lon="1.48185">
        <ele>1096.2</ele>
        <time>2024-07-08T10:10:21Z</time>
      </trkpt>
      <trkpt lat="42.72732" lon="1.48183">
        <ele>1093.8</ele>
        <time>2024-07-08T10:10:27Z</time>
      </trkpt>
      <trkpt lat="42.72724" lon="1.48183">
        <ele>1090</ele>
        <time>2024-07-08T10:10:35Z</time>
      </trkpt>
      <trkpt lat="42.7272" lon="1.48185">
        <ele>1090.4</ele>
        <time>2024-07-08T10:10:38Z</time>
      </trkpt>
      <trkpt lat="42.72715" lon="1.48184">
        <ele>1092.6</ele>
        <time>2024-07-08T10:10:42Z</time>
      </trkpt>
      <trkpt lat="42.72709" lon="1.48186">
        <ele>1092.6</ele>
        <time>2024-07-08T10:10:47Z</time>
      </trkpt>
      <trkpt lat="42.72707" lon="1.48187">
        <ele>1091.4</ele>
        <time>2024-07-08T10:10:49Z</time>
      </trkpt>
      <trkpt lat="42.72706" lon="1.48187">
        <ele>1091</ele>
        <time>2024-07-08T10:10:50Z</time>
      </trkpt>
      <trkpt lat="42.72705" lon="1.48191">
        <ele>1090.4</ele>
        <time>2024-07-08T10:10:52Z</time>
      </trkpt>
      <trkpt lat="42.72704" lon="1.48193">
        <ele>1090.2</ele>
        <time>2024-07-08T10:10:54Z</time>
      </trkpt>
      <trkpt lat="42.727" lon="1.48199">
        <ele>1090</ele>
        <time>2024-07-08T10:10:58Z</time>
      </trkpt>
      <trkpt lat="42.72697" lon="1.482">
        <ele>1090.6</ele>
        <time>2024-07-08T10:11:01Z</time>
      </trkpt>
      <trkpt lat="42.72696" lon="1.48201">
        <ele>1091.6</ele>
        <time>2024-07-08T10:11:02Z</time>
      </trkpt>
      <trkpt lat="42.7269" lon="1.48204">
        <ele>1095.2</ele>
        <time>2024-07-08T10:11:07Z</time>
      </trkpt>
      <trkpt lat="42.72688" lon="1.48204">
        <ele>1095.6</ele>
        <time>2024-07-08T10:11:08Z</time>
      </trkpt>
      <trkpt lat="42.72679" lon="1.48208">
        <ele>1098.2</ele>
        <time>2024-07-08T10:11:16Z</time>
      </trkpt>
      <trkpt lat="42.72671" lon="1.48211">
        <ele>1102</ele>
        <time>2024-07-08T10:11:22Z</time>
      </trkpt>
      <trkpt lat="42.72657" lon="1.4822">
        <ele>1102.4</ele>
        <time>2024-07-08T10:11:31Z</time>
      </trkpt>
      <trkpt lat="42.7265" lon="1.48223">
        <ele>1100.4</ele>
        <time>2024-07-08T10:11:37Z</time>
      </trkpt>
      <trkpt lat="42.72648" lon="1.48225">
        <ele>1100.6</ele>
        <time>2024-07-08T10:11:39Z</time>
      </trkpt>
      <trkpt lat="42.72642" lon="1.48233">
        <ele>1101.6</ele>
        <time>2024-07-08T10:11:44Z</time>
      </trkpt>
      <trkpt lat="42.72638" lon="1.48232">
        <ele>1101.6</ele>
        <time>2024-07-08T10:11:47Z</time>
      </trkpt>
      <trkpt lat="42.72635" lon="1.48233">
        <ele>1101.6</ele>
        <time>2024-07-08T10:11:50Z</time>
      </trkpt>
      <trkpt lat="42.72634" lon="1.48235">
        <ele>1101.6</ele>
        <time>2024-07-08T10:11:53Z</time>
      </trkpt>
      <trkpt lat="42.72627" lon="1.48242">
        <ele>1100.4</ele>
        <time>2024-07-08T10:11:59Z</time>
      </trkpt>
      <trkpt lat="42.72627" lon="1.48244">
        <ele>1100.2</ele>
        <time>2024-07-08T10:12:00Z</time>
      </trkpt>
      <trkpt lat="42.72625" lon="1.4825">
        <ele>1097.8</ele>
        <time>2024-07-08T10:12:07Z</time>
      </trkpt>
      <trkpt lat="42.72621" lon="1.48259">
        <ele>1095.8</ele>
        <time>2024-07-08T10:12:14Z</time>
      </trkpt>
      <trkpt lat="42.72613" lon="1.48266">
        <ele>1091</ele>
        <time>2024-07-08T10:12:22Z</time>
      </trkpt>
      <trkpt lat="42.72611" lon="1.48269">
        <ele>1089.4</ele>
        <time>2024-07-08T10:12:28Z</time>
      </trkpt>
      <trkpt lat="42.72609" lon="1.48271">
        <ele>1087.8</ele>
        <time>2024-07-08T10:12:35Z</time>
      </trkpt>
      <trkpt lat="42.72609" lon="1.4827">
        <ele>1086.2</ele>
        <time>2024-07-08T10:12:42Z</time>
      </trkpt>
      <trkpt lat="42.7261" lon="1.48269">
        <ele>1083.4</ele>
        <time>2024-07-08T10:12:56Z</time>
      </trkpt>
      <trkpt lat="42.72601" lon="1.48274">
        <ele>1084.4</ele>
        <time>2024-07-08T10:13:25Z</time>
      </trkpt>
      <trkpt lat="42.72593" lon="1.48284">
        <ele>1085.2</ele>
        <time>2024-07-08T10:13:31Z</time>
      </trkpt>
      <trkpt lat="42.72584" lon="1.48287">
        <ele>1087</ele>
        <time>2024-07-08T10:13:38Z</time>
      </trkpt>
      <trkpt lat="42.72579" lon="1.4829">
        <ele>1089.6</ele>
        <time>2024-07-08T10:13:43Z</time>
      </trkpt>
      <trkpt lat="42.72575" lon="1.48288">
        <ele>1092.2</ele>
        <time>2024-07-08T10:13:48Z</time>
      </trkpt>
      <trkpt lat="42.72572" lon="1.48287">
        <ele>1093</ele>
        <time>2024-07-08T10:13:50Z</time>
      </trkpt>
      <trkpt lat="42.72568" lon="1.4829">
        <ele>1094</ele>
        <time>2024-07-08T10:13:54Z</time>
      </trkpt>
      <trkpt lat="42.72563" lon="1.4829">
        <ele>1094.4</ele>
        <time>2024-07-08T10:13:57Z</time>
      </trkpt>
      <trkpt lat="42.72557" lon="1.48292">
        <ele>1094.4</ele>
        <time>2024-07-08T10:14:00Z</time>
      </trkpt>
      <trkpt lat="42.72556" lon="1.48292">
        <ele>1094</ele>
        <time>2024-07-08T10:14:01Z</time>
      </trkpt>
      <trkpt lat="42.72544" lon="1.48291">
        <ele>1091</ele>
        <time>2024-07-08T10:14:10Z</time>
      </trkpt>
      <trkpt lat="42.72541" lon="1.48291">
        <ele>1090.8</ele>
        <time>2024-07-08T10:14:13Z</time>
      </trkpt>
      <trkpt lat="42.72537" lon="1.48291">
        <ele>1090.4</ele>
        <time>2024-07-08T10:14:16Z</time>
      </trkpt>
      <trkpt lat="42.72533" lon="1.48292">
        <ele>1089.6</ele>
        <time>2024-07-08T10:14:20Z</time>
      </trkpt>
      <trkpt lat="42.7253" lon="1.48293">
        <ele>1089.4</ele>
        <time>2024-07-08T10:14:23Z</time>
      </trkpt>
      <trkpt lat="42.72524" lon="1.48297">
        <ele>1090.6</ele>
        <time>2024-07-08T10:14:29Z</time>
      </trkpt>
      <trkpt lat="42.72523" lon="1.48298">
        <ele>1090.8</ele>
        <time>2024-07-08T10:14:30Z</time>
      </trkpt>
      <trkpt lat="42.7252" lon="1.48299">
        <ele>1092</ele>
        <time>2024-07-08T10:14:33Z</time>
      </trkpt>
      <trkpt lat="42.72516" lon="1.483">
        <ele>1094.2</ele>
        <time>2024-07-08T10:14:37Z</time>
      </trkpt>
      <trkpt lat="42.72507" lon="1.48303">
        <ele>1095.8</ele>
        <time>2024-07-08T10:14:45Z</time>
      </trkpt>
      <trkpt lat="42.725" lon="1.48308">
        <ele>1097.8</ele>
        <time>2024-07-08T10:14:52Z</time>
      </trkpt>
      <trkpt lat="42.72498" lon="1.48309">
        <ele>1097.8</ele>
        <time>2024-07-08T10:14:54Z</time>
      </trkpt>
      <trkpt lat="42.72493" lon="1.4831">
        <ele>1096.2</ele>
        <time>2024-07-08T10:15:02Z</time>
      </trkpt>
      <trkpt lat="42.7249" lon="1.48313">
        <ele>1095.6</ele>
        <time>2024-07-08T10:15:08Z</time>
      </trkpt>
      <trkpt lat="42.72489" lon="1.48312">
        <ele>1096.6</ele>
        <time>2024-07-08T10:15:18Z</time>
      </trkpt>
      <trkpt lat="42.72481" lon="1.48313">
        <ele>1096.4</ele>
        <time>2024-07-08T10:15:24Z</time>
      </trkpt>
      <trkpt lat="42.72473" lon="1.48313">
        <ele>1093.4</ele>
        <time>2024-07-08T10:15:31Z</time>
      </trkpt>
      <trkpt lat="42.72469" lon="1.48317">
        <ele>1091</ele>
        <time>2024-07-08T10:15:37Z</time>
      </trkpt>
      <trkpt lat="42.72465" lon="1.48315">
        <ele>1089.2</ele>
        <time>2024-07-08T10:15:44Z</time>
      </trkpt>
      <trkpt lat="42.72459" lon="1.48313">
        <ele>1088.4</ele>
        <time>2024-07-08T10:15:50Z</time>
      </trkpt>
      <trkpt lat="42.72459" lon="1.48311">
        <ele>1087.8</ele>
        <time>2024-07-08T10:15:55Z</time>
      </trkpt>
      <trkpt lat="42.72458" lon="1.48309">
        <ele>1088.6</ele>
        <time>2024-07-08T10:16:02Z</time>
      </trkpt>
      <trkpt lat="42.72457" lon="1.48307">
        <ele>1089.4</ele>
        <time>2024-07-08T10:16:08Z</time>
      </trkpt>
      <trkpt lat="42.72457" lon="1.48306">
        <ele>1089</ele>
        <time>2024-07-08T10:16:15Z</time>
      </trkpt>
      <trkpt lat="42.72451" lon="1.48305">
        <ele>1088</ele>
        <time>2024-07-08T10:16:31Z</time>
      </trkpt>
      <trkpt lat="42.72444" lon="1.48304">
        <ele>1087</ele>
        <time>2024-07-08T10:16:37Z</time>
      </trkpt>
      <trkpt lat="42.72443" lon="1.48304">
        <ele>1086.8</ele>
        <time>2024-07-08T10:16:38Z</time>
      </trkpt>
      <trkpt lat="42.72442" lon="1.48303">
        <ele>1086.6</ele>
        <time>2024-07-08T10:16:40Z</time>
      </trkpt>
      <trkpt lat="42.7244" lon="1.48304">
        <ele>1087.4</ele>
        <time>2024-07-08T10:16:43Z</time>
      </trkpt>
      <trkpt lat="42.72436" lon="1.48307">
        <ele>1089.2</ele>
        <time>2024-07-08T10:16:48Z</time>
      </trkpt>
      <trkpt lat="42.72433" lon="1.4831">
        <ele>1092.4</ele>
        <time>2024-07-08T10:16:55Z</time>
      </trkpt>
      <trkpt lat="42.72432" lon="1.48313">
        <ele>1095.2</ele>
        <time>2024-07-08T10:17:00Z</time>
      </trkpt>
      <trkpt lat="42.72432" lon="1.48314">
        <ele>1095.8</ele>
        <time>2024-07-08T10:17:01Z</time>
      </trkpt>
      <trkpt lat="42.72427" lon="1.48316">
        <ele>1097</ele>
        <time>2024-07-08T10:17:07Z</time>
      </trkpt>
      <trkpt lat="42.72422" lon="1.48319">
        <ele>1097.6</ele>
        <time>2024-07-08T10:17:13Z</time>
      </trkpt>
      <trkpt lat="42.72415" lon="1.48324">
        <ele>1098.4</ele>
        <time>2024-07-08T10:17:20Z</time>
      </trkpt>
      <trkpt lat="42.72408" lon="1.48328">
        <ele>1096.8</ele>
        <time>2024-07-08T10:17:26Z</time>
      </trkpt>
      <trkpt lat="42.72405" lon="1.48329">
        <ele>1095.4</ele>
        <time>2024-07-08T10:17:33Z</time>
      </trkpt>
      <trkpt lat="42.72401" lon="1.4833">
        <ele>1096.2</ele>
        <time>2024-07-08T10:17:39Z</time>
      </trkpt>
      <trkpt lat="42.72399" lon="1.48334">
        <ele>1098.6</ele>
        <time>2024-07-08T10:17:44Z</time>
      </trkpt>
      <trkpt lat="42.72388" lon="1.48334">
        <ele>1099.6</ele>
        <time>2024-07-08T10:17:52Z</time>
      </trkpt>
      <trkpt lat="42.72383" lon="1.48334">
        <ele>1100.6</ele>
        <time>2024-07-08T10:17:59Z</time>
      </trkpt>
      <trkpt lat="42.72378" lon="1.48336">
        <ele>1103.2</ele>
        <time>2024-07-08T10:18:04Z</time>
      </trkpt>
      <trkpt lat="42.72377" lon="1.48339">
        <ele>1104.8</ele>
        <time>2024-07-08T10:18:08Z</time>
      </trkpt>
      <trkpt lat="42.72376" lon="1.48342">
        <ele>1107.6</ele>
        <time>2024-07-08T10:18:14Z</time>
      </trkpt>
      <trkpt lat="42.72376" lon="1.48341">
        <ele>1109.2</ele>
        <time>2024-07-08T10:18:19Z</time>
      </trkpt>
      <trkpt lat="42.72375" lon="1.48344">
        <ele>1110.4</ele>
        <time>2024-07-08T10:18:24Z</time>
      </trkpt>
      <trkpt lat="42.72375" lon="1.48345">
        <ele>1112.2</ele>
        <time>2024-07-08T10:18:30Z</time>
      </trkpt>
      <trkpt lat="42.72375" lon="1.48342">
        <ele>1115</ele>
        <time>2024-07-08T10:18:37Z</time>
      </trkpt>
      <trkpt lat="42.72376" lon="1.48337">
        <ele>1116.4</ele>
        <time>2024-07-08T10:18:42Z</time>
      </trkpt>
      <trkpt lat="42.72376" lon="1.48336">
        <ele>1117.8</ele>
        <time>2024-07-08T10:18:50Z</time>
      </trkpt>
      <trkpt lat="42.72381" lon="1.48325">
        <ele>1120.2</ele>
        <time>2024-07-08T10:19:37Z</time>
      </trkpt>
      <trkpt lat="42.72389" lon="1.48317">
        <ele>1117.8</ele>
        <time>2024-07-08T10:19:45Z</time>
      </trkpt>
      <trkpt lat="42.7239" lon="1.48315">
        <ele>1115.8</ele>
        <time>2024-07-08T10:19:51Z</time>
      </trkpt>
      <trkpt lat="42.72388" lon="1.48306">
        <ele>1116.8</ele>
        <time>2024-07-08T10:19:57Z</time>
      </trkpt>
      <trkpt lat="42.72387" lon="1.48302">
        <ele>1117.6</ele>
        <time>2024-07-08T10:19:59Z</time>
      </trkpt>
      <trkpt lat="42.72384" lon="1.48301">
        <ele>1118.4</ele>
        <time>2024-07-08T10:20:03Z</time>
      </trkpt>
      <trkpt lat="42.72381" lon="1.48297">
        <ele>1120</ele>
        <time>2024-07-08T10:20:09Z</time>
      </trkpt>
      <trkpt lat="42.7238" lon="1.48286">
        <ele>1121</ele>
        <time>2024-07-08T10:20:16Z</time>
      </trkpt>
      <trkpt lat="42.7238" lon="1.48281">
        <ele>1117</ele>
        <time>2024-07-08T10:20:23Z</time>
      </trkpt>
      <trkpt lat="42.72384" lon="1.48275">
        <ele>1119.8</ele>
        <time>2024-07-08T10:20:30Z</time>
      </trkpt>
      <trkpt lat="42.72384" lon="1.48273">
        <ele>1122.8</ele>
        <time>2024-07-08T10:20:37Z</time>
      </trkpt>
      <trkpt lat="42.72384" lon="1.48275">
        <ele>1124.8</ele>
        <time>2024-07-08T10:20:51Z</time>
      </trkpt>
      <trkpt lat="42.72381" lon="1.48273">
        <ele>1123.4</ele>
        <time>2024-07-08T10:21:29Z</time>
      </trkpt>
      <trkpt lat="42.7238" lon="1.48266">
        <ele>1125.4</ele>
        <time>2024-07-08T10:21:35Z</time>
      </trkpt>
      <trkpt lat="42.7238" lon="1.48264">
        <ele>1128.4</ele>
        <time>2024-07-08T10:21:42Z</time>
      </trkpt>
      <trkpt lat="42.72379" lon="1.4826">
        <ele>1130.8</ele>
        <time>2024-07-08T10:21:48Z</time>
      </trkpt>
      <trkpt lat="42.7238" lon="1.48258">
        <ele>1132.2</ele>
        <time>2024-07-08T10:21:54Z</time>
      </trkpt>
      <trkpt lat="42.72378" lon="1.48253">
        <ele>1133.4</ele>
        <time>2024-07-08T10:22:01Z</time>
      </trkpt>
      <trkpt lat="42.72377" lon="1.48253">
        <ele>1134.4</ele>
        <time>2024-07-08T10:22:07Z</time>
      </trkpt>
      <trkpt lat="42.72377" lon="1.48253">
        <ele>1135.2</ele>
        <time>2024-07-08T10:22:14Z</time>
      </trkpt>
      <trkpt lat="42.72375" lon="1.48254">
        <ele>1137.2</ele>
        <time>2024-07-08T10:22:20Z</time>
      </trkpt>
      <trkpt lat="42.72371" lon="1.48252">
        <ele>1142</ele>
        <time>2024-07-08T10:22:27Z</time>
      </trkpt>
      <trkpt lat="42.72369" lon="1.48251">
        <ele>1144.2</ele>
        <time>2024-07-08T10:22:33Z</time>
      </trkpt>
      <trkpt lat="42.72364" lon="1.4825">
        <ele>1146</ele>
        <time>2024-07-08T10:22:40Z</time>
      </trkpt>
      <trkpt lat="42.72362" lon="1.48251">
        <ele>1146</ele>
        <time>2024-07-08T10:22:48Z</time>
      </trkpt>
      <trkpt lat="42.72361" lon="1.48251">
        <ele>1145.8</ele>
        <time>2024-07-08T10:22:55Z</time>
      </trkpt>
      <trkpt lat="42.72361" lon="1.48252">
        <ele>1144.4</ele>
        <time>2024-07-08T10:23:12Z</time>
      </trkpt>
      <trkpt lat="42.72351" lon="1.48249">
        <ele>1144.8</ele>
        <time>2024-07-08T10:23:39Z</time>
      </trkpt>
      <trkpt lat="42.7235" lon="1.48248">
        <ele>1148.6</ele>
        <time>2024-07-08T10:23:47Z</time>
      </trkpt>
      <trkpt lat="42.7235" lon="1.48247">
        <ele>1152.6</ele>
        <time>2024-07-08T10:23:56Z</time>
      </trkpt>
      <trkpt lat="42.7235" lon="1.48241">
        <ele>1154</ele>
        <time>2024-07-08T10:24:02Z</time>
      </trkpt>
      <trkpt lat="42.72348" lon="1.4824">
        <ele>1154.6</ele>
        <time>2024-07-08T10:24:07Z</time>
      </trkpt>
      <trkpt lat="42.72346" lon="1.48234">
        <ele>1155.6</ele>
        <time>2024-07-08T10:24:15Z</time>
      </trkpt>
      <trkpt lat="42.72342" lon="1.48234">
        <ele>1155.6</ele>
        <time>2024-07-08T10:24:21Z</time>
      </trkpt>
      <trkpt lat="42.72337" lon="1.48232">
        <ele>1156.8</ele>
        <time>2024-07-08T10:24:28Z</time>
      </trkpt>
      <trkpt lat="42.72335" lon="1.4823">
        <ele>1157.8</ele>
        <time>2024-07-08T10:24:34Z</time>
      </trkpt>
      <trkpt lat="42.72331" lon="1.48233">
        <ele>1157.2</ele>
        <time>2024-07-08T10:24:41Z</time>
      </trkpt>
      <trkpt lat="42.7233" lon="1.4823">
        <ele>1161</ele>
        <time>2024-07-08T10:24:46Z</time>
      </trkpt>
      <trkpt lat="42.72328" lon="1.48236">
        <ele>1162.2</ele>
        <time>2024-07-08T10:24:52Z</time>
      </trkpt>
      <trkpt lat="42.7233" lon="1.48238">
        <ele>1161.8</ele>
        <time>2024-07-08T10:24:57Z</time>
      </trkpt>
      <trkpt lat="42.72328" lon="1.48246">
        <ele>1159.6</ele>
        <time>2024-07-08T10:25:03Z</time>
      </trkpt>
      <trkpt lat="42.72322" lon="1.48253">
        <ele>1159.2</ele>
        <time>2024-07-08T10:25:09Z</time>
      </trkpt>
      <trkpt lat="42.72314" lon="1.48256">
        <ele>1158.2</ele>
        <time>2024-07-08T10:25:16Z</time>
      </trkpt>
      <trkpt lat="42.72313" lon="1.48255">
        <ele>1155</ele>
        <time>2024-07-08T10:25:21Z</time>
      </trkpt>
      <trkpt lat="42.72311" lon="1.48256">
        <ele>1152.2</ele>
        <time>2024-07-08T10:25:25Z</time>
      </trkpt>
      <trkpt lat="42.72304" lon="1.48259">
        <ele>1150.4</ele>
        <time>2024-07-08T10:25:31Z</time>
      </trkpt>
      <trkpt lat="42.72294" lon="1.4826">
        <ele>1152.8</ele>
        <time>2024-07-08T10:25:39Z</time>
      </trkpt>
      <trkpt lat="42.72283" lon="1.4826">
        <ele>1155.2</ele>
        <time>2024-07-08T10:25:47Z</time>
      </trkpt>
      <trkpt lat="42.72274" lon="1.48259">
        <ele>1156.2</ele>
        <time>2024-07-08T10:25:52Z</time>
      </trkpt>
      <trkpt lat="42.72273" lon="1.48259">
        <ele>1156.2</ele>
        <time>2024-07-08T10:25:54Z</time>
      </trkpt>
      <trkpt lat="42.72264" lon="1.48264">
        <ele>1158</ele>
        <time>2024-07-08T10:26:01Z</time>
      </trkpt>
      <trkpt lat="42.72254" lon="1.48269">
        <ele>1165.4</ele>
        <time>2024-07-08T10:26:09Z</time>
      </trkpt>
      <trkpt lat="42.72251" lon="1.4827">
        <ele>1165.6</ele>
        <time>2024-07-08T10:26:11Z</time>
      </trkpt>
      <trkpt lat="42.72247" lon="1.48271">
        <ele>1165.2</ele>
        <time>2024-07-08T10:26:15Z</time>
      </trkpt>
      <trkpt lat="42.72239" lon="1.48276">
        <ele>1162.6</ele>
        <time>2024-07-08T10:26:22Z</time>
      </trkpt>
      <trkpt lat="42.7223" lon="1.48283">
        <ele>1164.6</ele>
        <time>2024-07-08T10:26:30Z</time>
      </trkpt>
      <trkpt lat="42.72224" lon="1.48287">
        <ele>1168.2</ele>
        <time>2024-07-08T10:26:35Z</time>
      </trkpt>
      <trkpt lat="42.72212" lon="1.48294">
        <ele>1170.6</ele>
        <time>2024-07-08T10:26:45Z</time>
      </trkpt>
      <trkpt lat="42.72211" lon="1.48294">
        <ele>1170.2</ele>
        <time>2024-07-08T10:26:46Z</time>
      </trkpt>
      <trkpt lat="42.72201" lon="1.48301">
        <ele>1166.4</ele>
        <time>2024-07-08T10:26:54Z</time>
      </trkpt>
      <trkpt lat="42.72199" lon="1.48303">
        <ele>1165.8</ele>
        <time>2024-07-08T10:26:56Z</time>
      </trkpt>
      <trkpt lat="42.72194" lon="1.48308">
        <ele>1165</ele>
        <time>2024-07-08T10:27:01Z</time>
      </trkpt>
      <trkpt lat="42.72192" lon="1.48324">
        <ele>1163</ele>
        <time>2024-07-08T10:27:09Z</time>
      </trkpt>
      <trkpt lat="42.72189" lon="1.48337">
        <ele>1162.8</ele>
        <time>2024-07-08T10:27:17Z</time>
      </trkpt>
      <trkpt lat="42.72185" lon="1.48344">
        <ele>1162.6</ele>
        <time>2024-07-08T10:27:22Z</time>
      </trkpt>
      <trkpt lat="42.72184" lon="1.48344">
        <ele>1162.4</ele>
        <time>2024-07-08T10:27:23Z</time>
      </trkpt>
      <trkpt lat="42.72183" lon="1.48345">
        <ele>1162</ele>
        <time>2024-07-08T10:27:24Z</time>
      </trkpt>
      <trkpt lat="42.72173" lon="1.48347">
        <ele>1160.4</ele>
        <time>2024-07-08T10:27:29Z</time>
      </trkpt>
      <trkpt lat="42.7217" lon="1.48351">
        <ele>1159.8</ele>
        <time>2024-07-08T10:27:31Z</time>
      </trkpt>
      <trkpt lat="42.72169" lon="1.48361">
        <ele>1161.6</ele>
        <time>2024-07-08T10:27:36Z</time>
      </trkpt>
      <trkpt lat="42.72162" lon="1.48367">
        <ele>1165.8</ele>
        <time>2024-07-08T10:27:43Z</time>
      </trkpt>
      <trkpt lat="42.7216" lon="1.48368">
        <ele>1167.6</ele>
        <time>2024-07-08T10:27:45Z</time>
      </trkpt>
      <trkpt lat="42.72156" lon="1.48372">
        <ele>1170.6</ele>
        <time>2024-07-08T10:27:50Z</time>
      </trkpt>
      <trkpt lat="42.72156" lon="1.48373">
        <ele>1170.8</ele>
        <time>2024-07-08T10:27:51Z</time>
      </trkpt>
      <trkpt lat="42.72155" lon="1.48374">
        <ele>1171</ele>
        <time>2024-07-08T10:27:52Z</time>
      </trkpt>
      <trkpt lat="42.72149" lon="1.48382">
        <ele>1172.2</ele>
        <time>2024-07-08T10:27:58Z</time>
      </trkpt>
      <trkpt lat="42.72148" lon="1.48383">
        <ele>1172.2</ele>
        <time>2024-07-08T10:27:59Z</time>
      </trkpt>
      <trkpt lat="42.72142" lon="1.48388">
        <ele>1170.6</ele>
        <time>2024-07-08T10:28:04Z</time>
      </trkpt>
      <trkpt lat="42.72134" lon="1.48392">
        <ele>1169.6</ele>
        <time>2024-07-08T10:28:10Z</time>
      </trkpt>
      <trkpt lat="42.72131" lon="1.48392">
        <ele>1169.4</ele>
        <time>2024-07-08T10:28:12Z</time>
      </trkpt>
      <trkpt lat="42.72125" lon="1.48397">
        <ele>1169</ele>
        <time>2024-07-08T10:28:16Z</time>
      </trkpt>
      <trkpt lat="42.7212" lon="1.48398">
        <ele>1169.2</ele>
        <time>2024-07-08T10:28:18Z</time>
      </trkpt>
      <trkpt lat="42.72104" lon="1.48401">
        <ele>1167.4</ele>
        <time>2024-07-08T10:28:29Z</time>
      </trkpt>
      <trkpt lat="42.72094" lon="1.48396">
        <ele>1168.4</ele>
        <time>2024-07-08T10:28:36Z</time>
      </trkpt>
      <trkpt lat="42.72079" lon="1.48391">
        <ele>1167.4</ele>
        <time>2024-07-08T10:28:45Z</time>
      </trkpt>
      <trkpt lat="42.72074" lon="1.4839">
        <ele>1166.2</ele>
        <time>2024-07-08T10:28:50Z</time>
      </trkpt>
      <trkpt lat="42.7207" lon="1.48388">
        <ele>1166</ele>
        <time>2024-07-08T10:28:52Z</time>
      </trkpt>
      <trkpt lat="42.72063" lon="1.48387">
        <ele>1165.6</ele>
        <time>2024-07-08T10:28:59Z</time>
      </trkpt>
      <trkpt lat="42.72062" lon="1.48386">
        <ele>1165.6</ele>
        <time>2024-07-08T10:29:00Z</time>
      </trkpt>
      <trkpt lat="42.72059" lon="1.48389">
        <ele>1166.6</ele>
        <time>2024-07-08T10:29:04Z</time>
      </trkpt>
      <trkpt lat="42.72056" lon="1.48391">
        <ele>1168.6</ele>
        <time>2024-07-08T10:29:11Z</time>
      </trkpt>
      <trkpt lat="42.72052" lon="1.48394">
        <ele>1168.4</ele>
        <time>2024-07-08T10:29:18Z</time>
      </trkpt>
      <trkpt lat="42.72043" lon="1.48396">
        <ele>1172</ele>
        <time>2024-07-08T10:29:24Z</time>
      </trkpt>
      <trkpt lat="42.72035" lon="1.48391">
        <ele>1173</ele>
        <time>2024-07-08T10:29:31Z</time>
      </trkpt>
      <trkpt lat="42.72022" lon="1.48389">
        <ele>1174</ele>
        <time>2024-07-08T10:29:39Z</time>
      </trkpt>
      <trkpt lat="42.72014" lon="1.4839">
        <ele>1175</ele>
        <time>2024-07-08T10:29:47Z</time>
      </trkpt>
      <trkpt lat="42.72014" lon="1.48392">
        <ele>1175.2</ele>
        <time>2024-07-08T10:29:48Z</time>
      </trkpt>
      <trkpt lat="42.72013" lon="1.48394">
        <ele>1175.6</ele>
        <time>2024-07-08T10:29:50Z</time>
      </trkpt>
      <trkpt lat="42.72013" lon="1.48396">
        <ele>1176.6</ele>
        <time>2024-07-08T10:29:52Z</time>
      </trkpt>
      <trkpt lat="42.72013" lon="1.484">
        <ele>1178</ele>
        <time>2024-07-08T10:29:58Z</time>
      </trkpt>
      <trkpt lat="42.72012" lon="1.48409">
        <ele>1177</ele>
        <time>2024-07-08T10:30:05Z</time>
      </trkpt>
      <trkpt lat="42.7201" lon="1.48414">
        <ele>1177.2</ele>
        <time>2024-07-08T10:30:10Z</time>
      </trkpt>
      <trkpt lat="42.7201" lon="1.48416">
        <ele>1177.8</ele>
        <time>2024-07-08T10:30:17Z</time>
      </trkpt>
      <trkpt lat="42.72011" lon="1.48419">
        <ele>1176.4</ele>
        <time>2024-07-08T10:30:23Z</time>
      </trkpt>
      <trkpt lat="42.72012" lon="1.48431">
        <ele>1169.4</ele>
        <time>2024-07-08T10:30:31Z</time>
      </trkpt>
      <trkpt lat="42.7201" lon="1.48439">
        <ele>1164</ele>
        <time>2024-07-08T10:30:37Z</time>
      </trkpt>
      <trkpt lat="42.7201" lon="1.48446">
        <ele>1161</ele>
        <time>2024-07-08T10:30:42Z</time>
      </trkpt>
      <trkpt lat="42.72011" lon="1.48447">
        <ele>1160.4</ele>
        <time>2024-07-08T10:30:44Z</time>
      </trkpt>
      <trkpt lat="42.72012" lon="1.48448">
        <ele>1160</ele>
        <time>2024-07-08T10:30:47Z</time>
      </trkpt>
      <trkpt lat="42.72016" lon="1.48446">
        <ele>1159</ele>
        <time>2024-07-08T10:30:51Z</time>
      </trkpt>
      <trkpt lat="42.72018" lon="1.48445">
        <ele>1158.4</ele>
        <time>2024-07-08T10:30:53Z</time>
      </trkpt>
      <trkpt lat="42.72021" lon="1.48444">
        <ele>1157.8</ele>
        <time>2024-07-08T10:30:55Z</time>
      </trkpt>
      <trkpt lat="42.72022" lon="1.48444">
        <ele>1157.6</ele>
        <time>2024-07-08T10:30:56Z</time>
      </trkpt>
      <trkpt lat="42.72028" lon="1.48445">
        <ele>1155.2</ele>
        <time>2024-07-08T10:31:03Z</time>
      </trkpt>
      <trkpt lat="42.72038" lon="1.48449">
        <ele>1151</ele>
        <time>2024-07-08T10:31:11Z</time>
      </trkpt>
      <trkpt lat="42.7204" lon="1.48451">
        <ele>1149.8</ele>
        <time>2024-07-08T10:31:13Z</time>
      </trkpt>
      <trkpt lat="42.72042" lon="1.48452">
        <ele>1148.8</ele>
        <time>2024-07-08T10:31:16Z</time>
      </trkpt>
      <trkpt lat="42.72044" lon="1.48453">
        <ele>1148.4</ele>
        <time>2024-07-08T10:31:19Z</time>
      </trkpt>
      <trkpt lat="42.72048" lon="1.48456">
        <ele>1148.8</ele>
        <time>2024-07-08T10:31:29Z</time>
      </trkpt>
      <trkpt lat="42.72055" lon="1.48462">
        <ele>1148</ele>
        <time>2024-07-08T10:31:36Z</time>
      </trkpt>
      <trkpt lat="42.72062" lon="1.48467">
        <ele>1145.8</ele>
        <time>2024-07-08T10:31:43Z</time>
      </trkpt>
      <trkpt lat="42.72068" lon="1.48463">
        <ele>1144.8</ele>
        <time>2024-07-08T10:31:49Z</time>
      </trkpt>
      <trkpt lat="42.72069" lon="1.48463">
        <ele>1144.6</ele>
        <time>2024-07-08T10:31:50Z</time>
      </trkpt>
      <trkpt lat="42.72074" lon="1.48459">
        <ele>1143.6</ele>
        <time>2024-07-08T10:31:56Z</time>
      </trkpt>
      <trkpt lat="42.72076" lon="1.48459">
        <ele>1143.4</ele>
        <time>2024-07-08T10:31:57Z</time>
      </trkpt>
      <trkpt lat="42.72081" lon="1.48458">
        <ele>1143.2</ele>
        <time>2024-07-08T10:32:02Z</time>
      </trkpt>
      <trkpt lat="42.72085" lon="1.48457">
        <ele>1143.6</ele>
        <time>2024-07-08T10:32:05Z</time>
      </trkpt>
      <trkpt lat="42.72086" lon="1.48458">
        <ele>1144</ele>
        <time>2024-07-08T10:32:07Z</time>
      </trkpt>
      <trkpt lat="42.72091" lon="1.48459">
        <ele>1144.6</ele>
        <time>2024-07-08T10:32:11Z</time>
      </trkpt>
      <trkpt lat="42.72101" lon="1.48465">
        <ele>1144.2</ele>
        <time>2024-07-08T10:32:18Z</time>
      </trkpt>
      <trkpt lat="42.72109" lon="1.48472">
        <ele>1141.4</ele>
        <time>2024-07-08T10:32:25Z</time>
      </trkpt>
      <trkpt lat="42.72114" lon="1.48472">
        <ele>1139.6</ele>
        <time>2024-07-08T10:32:32Z</time>
      </trkpt>
      <trkpt lat="42.72114" lon="1.48471">
        <ele>1140.2</ele>
        <time>2024-07-08T10:32:40Z</time>
      </trkpt>
      <trkpt lat="42.72119" lon="1.48469">
        <ele>1139.6</ele>
        <time>2024-07-08T10:32:46Z</time>
      </trkpt>
      <trkpt lat="42.72126" lon="1.48473">
        <ele>1136.8</ele>
        <time>2024-07-08T10:32:53Z</time>
      </trkpt>
      <trkpt lat="42.72136" lon="1.48478">
        <ele>1139.6</ele>
        <time>2024-07-08T10:33:01Z</time>
      </trkpt>
      <trkpt lat="42.72144" lon="1.48486">
        <ele>1140.4</ele>
        <time>2024-07-08T10:33:06Z</time>
      </trkpt>
      <trkpt lat="42.72143" lon="1.48488">
        <ele>1140.4</ele>
        <time>2024-07-08T10:33:07Z</time>
      </trkpt>
      <trkpt lat="42.72139" lon="1.48497">
        <ele>1138</ele>
        <time>2024-07-08T10:33:13Z</time>
      </trkpt>
      <trkpt lat="42.72141" lon="1.48503">
        <ele>1136.6</ele>
        <time>2024-07-08T10:33:16Z</time>
      </trkpt>
      <trkpt lat="42.72142" lon="1.48507">
        <ele>1135.8</ele>
        <time>2024-07-08T10:33:18Z</time>
      </trkpt>
      <trkpt lat="42.7215" lon="1.48511">
        <ele>1133</ele>
        <time>2024-07-08T10:33:28Z</time>
      </trkpt>
      <trkpt lat="42.72147" lon="1.4851">
        <ele>1133</ele>
        <time>2024-07-08T10:33:30Z</time>
      </trkpt>
      <trkpt lat="42.72146" lon="1.48517">
        <ele>1133.2</ele>
        <time>2024-07-08T10:33:34Z</time>
      </trkpt>
      <trkpt lat="42.72146" lon="1.48521">
        <ele>1132.6</ele>
        <time>2024-07-08T10:33:36Z</time>
      </trkpt>
      <trkpt lat="42.72142" lon="1.48525">
        <ele>1129.8</ele>
        <time>2024-07-08T10:33:40Z</time>
      </trkpt>
      <trkpt lat="42.72137" lon="1.48529">
        <ele>1126.8</ele>
        <time>2024-07-08T10:33:46Z</time>
      </trkpt>
      <trkpt lat="42.72134" lon="1.4853">
        <ele>1126.2</ele>
        <time>2024-07-08T10:33:48Z</time>
      </trkpt>
      <trkpt lat="42.72131" lon="1.48534">
        <ele>1125.6</ele>
        <time>2024-07-08T10:33:52Z</time>
      </trkpt>
      <trkpt lat="42.72129" lon="1.48539">
        <ele>1125.6</ele>
        <time>2024-07-08T10:33:56Z</time>
      </trkpt>
      <trkpt lat="42.72128" lon="1.4854">
        <ele>1125.6</ele>
        <time>2024-07-08T10:34:01Z</time>
      </trkpt>
      <trkpt lat="42.72128" lon="1.48539">
        <ele>1125.2</ele>
        <time>2024-07-08T10:34:09Z</time>
      </trkpt>
      <trkpt lat="42.72128" lon="1.4854">
        <ele>1125</ele>
        <time>2024-07-08T10:34:21Z</time>
      </trkpt>
      <trkpt lat="42.72125" lon="1.48546">
        <ele>1123.4</ele>
        <time>2024-07-08T10:34:45Z</time>
      </trkpt>
      <trkpt lat="42.72117" lon="1.48559">
        <ele>1122.6</ele>
        <time>2024-07-08T10:34:54Z</time>
      </trkpt>
      <trkpt lat="42.7211" lon="1.48573">
        <ele>1123.6</ele>
        <time>2024-07-08T10:35:04Z</time>
      </trkpt>
      <trkpt lat="42.72101" lon="1.48588">
        <ele>1122.4</ele>
        <time>2024-07-08T10:35:15Z</time>
      </trkpt>
      <trkpt lat="42.72095" lon="1.486">
        <ele>1122.6</ele>
        <time>2024-07-08T10:35:23Z</time>
      </trkpt>
      <trkpt lat="42.72093" lon="1.48606">
        <ele>1123.2</ele>
        <time>2024-07-08T10:35:27Z</time>
      </trkpt>
      <trkpt lat="42.72092" lon="1.48607">
        <ele>1123.4</ele>
        <time>2024-07-08T10:35:29Z</time>
      </trkpt>
      <trkpt lat="42.72092" lon="1.48607">
        <ele>1123.4</ele>
        <time>2024-07-08T10:35:30Z</time>
      </trkpt>
      <trkpt lat="42.72091" lon="1.48607">
        <ele>1123.4</ele>
        <time>2024-07-08T10:35:32Z</time>
      </trkpt>
      <trkpt lat="42.72091" lon="1.48606">
        <ele>1123.2</ele>
        <time>2024-07-08T10:35:41Z</time>
      </trkpt>
      <trkpt lat="42.72091" lon="1.48606">
        <ele>1121.4</ele>
        <time>2024-07-08T10:36:04Z</time>
      </trkpt>
      <trkpt lat="42.72093" lon="1.4861">
        <ele>1121.2</ele>
        <time>2024-07-08T10:36:12Z</time>
      </trkpt>
      <trkpt lat="42.72098" lon="1.48616">
        <ele>1121.6</ele>
        <time>2024-07-08T10:36:17Z</time>
      </trkpt>
      <trkpt lat="42.72101" lon="1.48618">
        <ele>1123.4</ele>
        <time>2024-07-08T10:36:22Z</time>
      </trkpt>
      <trkpt lat="42.72101" lon="1.48621">
        <ele>1125.4</ele>
        <time>2024-07-08T10:36:30Z</time>
      </trkpt>
      <trkpt lat="42.72101" lon="1.4862">
        <ele>1126.4</ele>
        <time>2024-07-08T10:36:41Z</time>
      </trkpt>
      <trkpt lat="42.72106" lon="1.48625">
        <ele>1126.6</ele>
        <time>2024-07-08T10:36:49Z</time>
      </trkpt>
      <trkpt lat="42.72114" lon="1.4863">
        <ele>1129.2</ele>
        <time>2024-07-08T10:36:55Z</time>
      </trkpt>
      <trkpt lat="42.72115" lon="1.48631">
        <ele>1129.8</ele>
        <time>2024-07-08T10:36:56Z</time>
      </trkpt>
      <trkpt lat="42.7212" lon="1.48632">
        <ele>1134.2</ele>
        <time>2024-07-08T10:37:03Z</time>
      </trkpt>
      <trkpt lat="42.72128" lon="1.48634">
        <ele>1135.6</ele>
        <time>2024-07-08T10:37:09Z</time>
      </trkpt>
      <trkpt lat="42.72135" lon="1.48641">
        <ele>1136.4</ele>
        <time>2024-07-08T10:37:18Z</time>
      </trkpt>
      <trkpt lat="42.72137" lon="1.48642">
        <ele>1137</ele>
        <time>2024-07-08T10:37:26Z</time>
      </trkpt>
      <trkpt lat="42.72139" lon="1.48643">
        <ele>1137.6</ele>
        <time>2024-07-08T10:37:33Z</time>
      </trkpt>
      <trkpt lat="42.72139" lon="1.48642">
        <ele>1139.4</ele>
        <time>2024-07-08T10:37:43Z</time>
      </trkpt>
      <trkpt lat="42.72139" lon="1.48646">
        <ele>1140.2</ele>
        <time>2024-07-08T10:38:18Z</time>
      </trkpt>
      <trkpt lat="42.72142" lon="1.48651">
        <ele>1139.6</ele>
        <time>2024-07-08T10:38:27Z</time>
      </trkpt>
      <trkpt lat="42.72148" lon="1.48661">
        <ele>1141</ele>
        <time>2024-07-08T10:38:34Z</time>
      </trkpt>
      <trkpt lat="42.7215" lon="1.48662">
        <ele>1141.6</ele>
        <time>2024-07-08T10:38:37Z</time>
      </trkpt>
      <trkpt lat="42.72151" lon="1.4866">
        <ele>1142.8</ele>
        <time>2024-07-08T10:38:42Z</time>
      </trkpt>
      <trkpt lat="42.72152" lon="1.48656">
        <ele>1143.4</ele>
        <time>2024-07-08T10:38:48Z</time>
      </trkpt>
      <trkpt lat="42.72153" lon="1.48653">
        <ele>1144.8</ele>
        <time>2024-07-08T10:38:53Z</time>
      </trkpt>
      <trkpt lat="42.72154" lon="1.48652">
        <ele>1145.8</ele>
        <time>2024-07-08T10:38:58Z</time>
      </trkpt>
      <trkpt lat="42.7215" lon="1.48653">
        <ele>1146</ele>
        <time>2024-07-08T10:39:03Z</time>
      </trkpt>
      <trkpt lat="42.7215" lon="1.48655">
        <ele>1147.2</ele>
        <time>2024-07-08T10:39:07Z</time>
      </trkpt>
      <trkpt lat="42.72146" lon="1.48658">
        <ele>1148.4</ele>
        <time>2024-07-08T10:39:12Z</time>
      </trkpt>
      <trkpt lat="42.72145" lon="1.48658">
        <ele>1148.8</ele>
        <time>2024-07-08T10:39:15Z</time>
      </trkpt>
      <trkpt lat="42.72146" lon="1.48659">
        <ele>1150.4</ele>
        <time>2024-07-08T10:39:20Z</time>
      </trkpt>
      <trkpt lat="42.72147" lon="1.48659">
        <ele>1152.2</ele>
        <time>2024-07-08T10:39:24Z</time>
      </trkpt>
      <trkpt lat="42.72147" lon="1.48661">
        <ele>1153.6</ele>
        <time>2024-07-08T10:39:34Z</time>
      </trkpt>
      <trkpt lat="42.72148" lon="1.48665">
        <ele>1153.6</ele>
        <time>2024-07-08T10:39:39Z</time>
      </trkpt>
      <trkpt lat="42.72151" lon="1.48669">
        <ele>1155.8</ele>
        <time>2024-07-08T10:39:44Z</time>
      </trkpt>
      <trkpt lat="42.72155" lon="1.48675">
        <ele>1158.6</ele>
        <time>2024-07-08T10:39:49Z</time>
      </trkpt>
      <trkpt lat="42.72157" lon="1.48676">
        <ele>1160.8</ele>
        <time>2024-07-08T10:39:53Z</time>
      </trkpt>
      <trkpt lat="42.72162" lon="1.48679">
        <ele>1164</ele>
        <time>2024-07-08T10:40:00Z</time>
      </trkpt>
      <trkpt lat="42.72164" lon="1.48681">
        <ele>1165.6</ele>
        <time>2024-07-08T10:40:05Z</time>
      </trkpt>
      <trkpt lat="42.72162" lon="1.48682">
        <ele>1166.4</ele>
        <time>2024-07-08T10:40:09Z</time>
      </trkpt>
      <trkpt lat="42.72164" lon="1.48691">
        <ele>1167.6</ele>
        <time>2024-07-08T10:40:16Z</time>
      </trkpt>
      <trkpt lat="42.7216" lon="1.48689">
        <ele>1166.8</ele>
        <time>2024-07-08T10:40:20Z</time>
      </trkpt>
      <trkpt lat="42.72158" lon="1.48686">
        <ele>1166.6</ele>
        <time>2024-07-08T10:40:23Z</time>
      </trkpt>
      <trkpt lat="42.72154" lon="1.48682">
        <ele>1166.8</ele>
        <time>2024-07-08T10:40:26Z</time>
      </trkpt>
      <trkpt lat="42.72153" lon="1.48682">
        <ele>1167</ele>
        <time>2024-07-08T10:40:27Z</time>
      </trkpt>
      <trkpt lat="42.72152" lon="1.48682">
        <ele>1167.2</ele>
        <time>2024-07-08T10:40:29Z</time>
      </trkpt>
      <trkpt lat="42.7215" lon="1.48681">
        <ele>1167.6</ele>
        <time>2024-07-08T10:40:32Z</time>
      </trkpt>
      <trkpt lat="42.72149" lon="1.48682">
        <ele>1167.8</ele>
        <time>2024-07-08T10:40:33Z</time>
      </trkpt>
      <trkpt lat="42.72148" lon="1.48681">
        <ele>1168</ele>
        <time>2024-07-08T10:40:34Z</time>
      </trkpt>
      <trkpt lat="42.72146" lon="1.48678">
        <ele>1168.4</ele>
        <time>2024-07-08T10:40:37Z</time>
      </trkpt>
      <trkpt lat="42.72145" lon="1.48678">
        <ele>1168.8</ele>
        <time>2024-07-08T10:40:39Z</time>
      </trkpt>
      <trkpt lat="42.72144" lon="1.48678">
        <ele>1169.2</ele>
        <time>2024-07-08T10:40:42Z</time>
      </trkpt>
      <trkpt lat="42.72148" lon="1.48683">
        <ele>1169.4</ele>
        <time>2024-07-08T10:40:47Z</time>
      </trkpt>
      <trkpt lat="42.72148" lon="1.48682">
        <ele>1171.2</ele>
        <time>2024-07-08T10:40:53Z</time>
      </trkpt>
      <trkpt lat="42.72147" lon="1.48683">
        <ele>1172.2</ele>
        <time>2024-07-08T10:40:58Z</time>
      </trkpt>
      <trkpt lat="42.72148" lon="1.48684">
        <ele>1175.6</ele>
        <time>2024-07-08T10:41:04Z</time>
      </trkpt>
      <trkpt lat="42.7215" lon="1.48687">
        <ele>1178.6</ele>
        <time>2024-07-08T10:41:09Z</time>
      </trkpt>
      <trkpt lat="42.72147" lon="1.48686">
        <ele>1180.2</ele>
        <time>2024-07-08T10:41:13Z</time>
      </trkpt>
      <trkpt lat="42.72146" lon="1.48688">
        <ele>1181.4</ele>
        <time>2024-07-08T10:41:19Z</time>
      </trkpt>
      <trkpt lat="42.72149" lon="1.48694">
        <ele>1182</ele>
        <time>2024-07-08T10:41:24Z</time>
      </trkpt>
      <trkpt lat="42.72149" lon="1.487">
        <ele>1182.8</ele>
        <time>2024-07-08T10:41:29Z</time>
      </trkpt>
      <trkpt lat="42.72149" lon="1.48702">
        <ele>1184.4</ele>
        <time>2024-07-08T10:41:33Z</time>
      </trkpt>
      <trkpt lat="42.72149" lon="1.48707">
        <ele>1185</ele>
        <time>2024-07-08T10:41:37Z</time>
      </trkpt>
      <trkpt lat="42.72148" lon="1.48711">
        <ele>1186.2</ele>
        <time>2024-07-08T10:41:42Z</time>
      </trkpt>
      <trkpt lat="42.7215" lon="1.48715">
        <ele>1187.2</ele>
        <time>2024-07-08T10:41:46Z</time>
      </trkpt>
      <trkpt lat="42.72148" lon="1.48716">
        <ele>1187.8</ele>
        <time>2024-07-08T10:41:50Z</time>
      </trkpt>
      <trkpt lat="42.72147" lon="1.48716">
        <ele>1188.2</ele>
        <time>2024-07-08T10:41:56Z</time>
      </trkpt>
      <trkpt lat="42.72148" lon="1.48719">
        <ele>1189.2</ele>
        <time>2024-07-08T10:42:00Z</time>
      </trkpt>
      <trkpt lat="42.72146" lon="1.4872">
        <ele>1190.6</ele>
        <time>2024-07-08T10:42:04Z</time>
      </trkpt>
      <trkpt lat="42.72147" lon="1.48723">
        <ele>1192.4</ele>
        <time>2024-07-08T10:42:09Z</time>
      </trkpt>
      <trkpt lat="42.72152" lon="1.48728">
        <ele>1193.4</ele>
        <time>2024-07-08T10:42:14Z</time>
      </trkpt>
      <trkpt lat="42.72153" lon="1.48727">
        <ele>1193.8</ele>
        <time>2024-07-08T10:42:18Z</time>
      </trkpt>
      <trkpt lat="42.72156" lon="1.48731">
        <ele>1193.6</ele>
        <time>2024-07-08T10:42:23Z</time>
      </trkpt>
      <trkpt lat="42.72157" lon="1.48733">
        <ele>1193.4</ele>
        <time>2024-07-08T10:42:30Z</time>
      </trkpt>
      <trkpt lat="42.72155" lon="1.48739">
        <ele>1194.6</ele>
        <time>2024-07-08T10:42:36Z</time>
      </trkpt>
      <trkpt lat="42.72159" lon="1.48741">
        <ele>1195.8</ele>
        <time>2024-07-08T10:42:40Z</time>
      </trkpt>
      <trkpt lat="42.72163" lon="1.48744">
        <ele>1197.8</ele>
        <time>2024-07-08T10:42:45Z</time>
      </trkpt>
      <trkpt lat="42.72169" lon="1.48747">
        <ele>1198.8</ele>
        <time>2024-07-08T10:42:52Z</time>
      </trkpt>
      <trkpt lat="42.72169" lon="1.48745">
        <ele>1199</ele>
        <time>2024-07-08T10:42:56Z</time>
      </trkpt>
      <trkpt lat="42.72168" lon="1.48742">
        <ele>1199.6</ele>
        <time>2024-07-08T10:43:01Z</time>
      </trkpt>
      <trkpt lat="42.72171" lon="1.48746">
        <ele>1205.4</ele>
        <time>2024-07-08T10:43:07Z</time>
      </trkpt>
      <trkpt lat="42.72169" lon="1.48747">
        <ele>1205.8</ele>
        <time>2024-07-08T10:43:12Z</time>
      </trkpt>
      <trkpt lat="42.72165" lon="1.48741">
        <ele>1205</ele>
        <time>2024-07-08T10:43:17Z</time>
      </trkpt>
      <trkpt lat="42.72167" lon="1.48743">
        <ele>1204.8</ele>
        <time>2024-07-08T10:43:21Z</time>
      </trkpt>
      <trkpt lat="42.72171" lon="1.4875">
        <ele>1205.2</ele>
        <time>2024-07-08T10:43:24Z</time>
      </trkpt>
      <trkpt lat="42.72174" lon="1.48754">
        <ele>1205.8</ele>
        <time>2024-07-08T10:43:28Z</time>
      </trkpt>
      <trkpt lat="42.72181" lon="1.48762">
        <ele>1206.2</ele>
        <time>2024-07-08T10:43:31Z</time>
      </trkpt>
      <trkpt lat="42.7218" lon="1.48761">
        <ele>1206.8</ele>
        <time>2024-07-08T10:43:34Z</time>
      </trkpt>
      <trkpt lat="42.7218" lon="1.48761">
        <ele>1207.6</ele>
        <time>2024-07-08T10:43:37Z</time>
      </trkpt>
      <trkpt lat="42.7218" lon="1.4876">
        <ele>1208.4</ele>
        <time>2024-07-08T10:43:40Z</time>
      </trkpt>
      <trkpt lat="42.72179" lon="1.4876">
        <ele>1209.2</ele>
        <time>2024-07-08T10:43:44Z</time>
      </trkpt>
      <trkpt lat="42.72179" lon="1.48761">
        <ele>1209.8</ele>
        <time>2024-07-08T10:43:48Z</time>
      </trkpt>
      <trkpt lat="42.72179" lon="1.48762">
        <ele>1210.4</ele>
        <time>2024-07-08T10:43:59Z</time>
      </trkpt>
      <trkpt lat="42.72168" lon="1.48756">
        <ele>1205</ele>
        <time>2024-07-08T10:44:40Z</time>
      </trkpt>
      <trkpt lat="42.72168" lon="1.48757">
        <ele>1203.8</ele>
        <time>2024-07-08T10:44:44Z</time>
      </trkpt>
      <trkpt lat="42.72168" lon="1.48757">
        <ele>1202.2</ele>
        <time>2024-07-08T10:44:49Z</time>
      </trkpt>
      <trkpt lat="42.72168" lon="1.48759">
        <ele>1201.8</ele>
        <time>2024-07-08T10:44:51Z</time>
      </trkpt>
      <trkpt lat="42.72168" lon="1.48759">
        <ele>1201.4</ele>
        <time>2024-07-08T10:44:53Z</time>
      </trkpt>
      <trkpt lat="42.72169" lon="1.48758">
        <ele>1200.8</ele>
        <time>2024-07-08T10:44:56Z</time>
      </trkpt>
      <trkpt lat="42.72162" lon="1.4874">
        <ele>1192.4</ele>
        <time>2024-07-08T10:48:38Z</time>
      </trkpt>
      <trkpt lat="42.72162" lon="1.48741">
        <ele>1192.2</ele>
        <time>2024-07-08T10:48:39Z</time>
      </trkpt>
      <trkpt lat="42.72164" lon="1.48741">
        <ele>1192.2</ele>
        <time>2024-07-08T10:48:43Z</time>
      </trkpt>
      <trkpt lat="42.72164" lon="1.48741">
        <ele>1192.6</ele>
        <time>2024-07-08T10:48:55Z</time>
      </trkpt>
      <trkpt lat="42.72167" lon="1.48739">
        <ele>1194.2</ele>
        <time>2024-07-08T10:49:13Z</time>
      </trkpt>
      <trkpt lat="42.72167" lon="1.48738">
        <ele>1195.8</ele>
        <time>2024-07-08T10:49:17Z</time>
      </trkpt>
      <trkpt lat="42.72167" lon="1.48738">
        <ele>1197.4</ele>
        <time>2024-07-08T10:49:29Z</time>
      </trkpt>
      <trkpt lat="42.7217" lon="1.4874">
        <ele>1197.4</ele>
        <time>2024-07-08T10:49:36Z</time>
      </trkpt>
      <trkpt lat="42.72176" lon="1.48746">
        <ele>1198.4</ele>
        <time>2024-07-08T10:49:43Z</time>
      </trkpt>
      <trkpt lat="42.72175" lon="1.48745">
        <ele>1198.8</ele>
        <time>2024-07-08T10:49:48Z</time>
      </trkpt>
      <trkpt lat="42.72178" lon="1.48747">
        <ele>1199.2</ele>
        <time>2024-07-08T10:49:55Z</time>
      </trkpt>
      <trkpt lat="42.72178" lon="1.48747">
        <ele>1197.6</ele>
        <time>2024-07-08T10:50:04Z</time>
      </trkpt>
      <trkpt lat="42.72179" lon="1.48748">
        <ele>1197.2</ele>
        <time>2024-07-08T10:50:10Z</time>
      </trkpt>
      <trkpt lat="42.7218" lon="1.48748">
        <ele>1197.2</ele>
        <time>2024-07-08T10:50:13Z</time>
      </trkpt>
      <trkpt lat="42.72181" lon="1.48748">
        <ele>1197.8</ele>
        <time>2024-07-08T10:50:16Z</time>
      </trkpt>
      <trkpt lat="42.72185" lon="1.4875">
        <ele>1199.6</ele>
        <time>2024-07-08T10:50:21Z</time>
      </trkpt>
      <trkpt lat="42.72186" lon="1.48746">
        <ele>1201.4</ele>
        <time>2024-07-08T10:50:27Z</time>
      </trkpt>
      <trkpt lat="42.72189" lon="1.48746">
        <ele>1202.8</ele>
        <time>2024-07-08T10:50:31Z</time>
      </trkpt>
      <trkpt lat="42.72193" lon="1.48752">
        <ele>1203.8</ele>
        <time>2024-07-08T10:50:37Z</time>
      </trkpt>
      <trkpt lat="42.72192" lon="1.48754">
        <ele>1203.8</ele>
        <time>2024-07-08T10:50:42Z</time>
      </trkpt>
      <trkpt lat="42.72189" lon="1.48755">
        <ele>1203.8</ele>
        <time>2024-07-08T10:50:46Z</time>
      </trkpt>
      <trkpt lat="42.72186" lon="1.48757">
        <ele>1204.8</ele>
        <time>2024-07-08T10:50:52Z</time>
      </trkpt>
      <trkpt lat="42.72186" lon="1.48763">
        <ele>1206.6</ele>
        <time>2024-07-08T10:50:59Z</time>
      </trkpt>
      <trkpt lat="42.72185" lon="1.48769">
        <ele>1208.8</ele>
        <time>2024-07-08T10:51:07Z</time>
      </trkpt>
      <trkpt lat="42.72185" lon="1.48773">
        <ele>1209</ele>
        <time>2024-07-08T10:51:14Z</time>
      </trkpt>
      <trkpt lat="42.72184" lon="1.48778">
        <ele>1209.8</ele>
        <time>2024-07-08T10:51:21Z</time>
      </trkpt>
      <trkpt lat="42.72185" lon="1.48783">
        <ele>1211.2</ele>
        <time>2024-07-08T10:51:27Z</time>
      </trkpt>
      <trkpt lat="42.72186" lon="1.48782">
        <ele>1212.6</ele>
        <time>2024-07-08T10:51:33Z</time>
      </trkpt>
      <trkpt lat="42.72187" lon="1.48778">
        <ele>1214.4</ele>
        <time>2024-07-08T10:51:38Z</time>
      </trkpt>
      <trkpt lat="42.72188" lon="1.48778">
        <ele>1217.6</ele>
        <time>2024-07-08T10:51:43Z</time>
      </trkpt>
      <trkpt lat="42.7219" lon="1.48777">
        <ele>1220.2</ele>
        <time>2024-07-08T10:51:48Z</time>
      </trkpt>
      <trkpt lat="42.72189" lon="1.48772">
        <ele>1221.8</ele>
        <time>2024-07-08T10:51:53Z</time>
      </trkpt>
      <trkpt lat="42.72189" lon="1.48772">
        <ele>1222.6</ele>
        <time>2024-07-08T10:51:57Z</time>
      </trkpt>
      <trkpt lat="42.72186" lon="1.48774">
        <ele>1225.2</ele>
        <time>2024-07-08T10:52:03Z</time>
      </trkpt>
      <trkpt lat="42.72186" lon="1.48776">
        <ele>1228</ele>
        <time>2024-07-08T10:52:09Z</time>
      </trkpt>
      <trkpt lat="42.72186" lon="1.48776">
        <ele>1231.4</ele>
        <time>2024-07-08T10:52:14Z</time>
      </trkpt>
      <trkpt lat="42.72189" lon="1.48781">
        <ele>1233.2</ele>
        <time>2024-07-08T10:52:18Z</time>
      </trkpt>
      <trkpt lat="42.72188" lon="1.48788">
        <ele>1233.6</ele>
        <time>2024-07-08T10:52:24Z</time>
      </trkpt>
      <trkpt lat="42.72186" lon="1.48787">
        <ele>1234.6</ele>
        <time>2024-07-08T10:52:29Z</time>
      </trkpt>
      <trkpt lat="42.72184" lon="1.48796">
        <ele>1235</ele>
        <time>2024-07-08T10:52:34Z</time>
      </trkpt>
      <trkpt lat="42.72183" lon="1.488">
        <ele>1234.8</ele>
        <time>2024-07-08T10:52:40Z</time>
      </trkpt>
      <trkpt lat="42.72183" lon="1.48803">
        <ele>1235</ele>
        <time>2024-07-08T10:52:46Z</time>
      </trkpt>
      <trkpt lat="42.72185" lon="1.48806">
        <ele>1235.6</ele>
        <time>2024-07-08T10:52:54Z</time>
      </trkpt>
      <trkpt lat="42.72184" lon="1.48805">
        <ele>1235.8</ele>
        <time>2024-07-08T10:53:01Z</time>
      </trkpt>
      <trkpt lat="42.72187" lon="1.48811">
        <ele>1236</ele>
        <time>2024-07-08T10:53:39Z</time>
      </trkpt>
      <trkpt lat="42.7219" lon="1.48815">
        <ele>1236.8</ele>
        <time>2024-07-08T10:53:45Z</time>
      </trkpt>
      <trkpt lat="42.72186" lon="1.48816">
        <ele>1236.6</ele>
        <time>2024-07-08T10:53:53Z</time>
      </trkpt>
      <trkpt lat="42.72183" lon="1.48817">
        <ele>1237.8</ele>
        <time>2024-07-08T10:54:01Z</time>
      </trkpt>
      <trkpt lat="42.72184" lon="1.48817">
        <ele>1239.2</ele>
        <time>2024-07-08T10:54:04Z</time>
      </trkpt>
      <trkpt lat="42.72184" lon="1.48818">
        <ele>1241.6</ele>
        <time>2024-07-08T10:54:10Z</time>
      </trkpt>
      <trkpt lat="42.72182" lon="1.48821">
        <ele>1244</ele>
        <time>2024-07-08T10:54:16Z</time>
      </trkpt>
      <trkpt lat="42.72181" lon="1.48827">
        <ele>1245.8</ele>
        <time>2024-07-08T10:54:21Z</time>
      </trkpt>
      <trkpt lat="42.72178" lon="1.48826">
        <ele>1247.6</ele>
        <time>2024-07-08T10:54:26Z</time>
      </trkpt>
      <trkpt lat="42.7218" lon="1.48831">
        <ele>1250.2</ele>
        <time>2024-07-08T10:54:32Z</time>
      </trkpt>
      <trkpt lat="42.72179" lon="1.48834">
        <ele>1252.8</ele>
        <time>2024-07-08T10:54:38Z</time>
      </trkpt>
      <trkpt lat="42.72182" lon="1.48839">
        <ele>1254.2</ele>
        <time>2024-07-08T10:54:43Z</time>
      </trkpt>
      <trkpt lat="42.72184" lon="1.4884">
        <ele>1255</ele>
        <time>2024-07-08T10:54:49Z</time>
      </trkpt>
      <trkpt lat="42.72183" lon="1.48841">
        <ele>1255.2</ele>
        <time>2024-07-08T10:54:54Z</time>
      </trkpt>
      <trkpt lat="42.72181" lon="1.48844">
        <ele>1255.4</ele>
        <time>2024-07-08T10:54:59Z</time>
      </trkpt>
      <trkpt lat="42.72179" lon="1.48845">
        <ele>1255.6</ele>
        <time>2024-07-08T10:55:03Z</time>
      </trkpt>
      <trkpt lat="42.72178" lon="1.48845">
        <ele>1255.6</ele>
        <time>2024-07-08T10:55:07Z</time>
      </trkpt>
      <trkpt lat="42.72183" lon="1.48848">
        <ele>1255.8</ele>
        <time>2024-07-08T10:55:13Z</time>
      </trkpt>
      <trkpt lat="42.72182" lon="1.48847">
        <ele>1256.2</ele>
        <time>2024-07-08T10:55:18Z</time>
      </trkpt>
      <trkpt lat="42.72181" lon="1.48846">
        <ele>1256.8</ele>
        <time>2024-07-08T10:55:22Z</time>
      </trkpt>
      <trkpt lat="42.72181" lon="1.48846">
        <ele>1258.2</ele>
        <time>2024-07-08T10:55:29Z</time>
      </trkpt>
      <trkpt lat="42.72178" lon="1.48848">
        <ele>1258.6</ele>
        <time>2024-07-08T10:55:46Z</time>
      </trkpt>
      <trkpt lat="42.72168" lon="1.48848">
        <ele>1262</ele>
        <time>2024-07-08T10:55:53Z</time>
      </trkpt>
      <trkpt lat="42.72164" lon="1.48851">
        <ele>1265.8</ele>
        <time>2024-07-08T10:55:59Z</time>
      </trkpt>
      <trkpt lat="42.72161" lon="1.48852">
        <ele>1266.8</ele>
        <time>2024-07-08T10:56:04Z</time>
      </trkpt>
      <trkpt lat="42.72159" lon="1.48856">
        <ele>1267</ele>
        <time>2024-07-08T10:56:09Z</time>
      </trkpt>
      <trkpt lat="42.7216" lon="1.48858">
        <ele>1268.2</ele>
        <time>2024-07-08T10:56:15Z</time>
      </trkpt>
      <trkpt lat="42.72167" lon="1.48864">
        <ele>1269.2</ele>
        <time>2024-07-08T10:56:22Z</time>
      </trkpt>
      <trkpt lat="42.72169" lon="1.48865">
        <ele>1267.8</ele>
        <time>2024-07-08T10:56:27Z</time>
      </trkpt>
      <trkpt lat="42.72171" lon="1.48869">
        <ele>1267.8</ele>
        <time>2024-07-08T10:56:32Z</time>
      </trkpt>
      <trkpt lat="42.72169" lon="1.48867">
        <ele>1268.8</ele>
        <time>2024-07-08T10:56:37Z</time>
      </trkpt>
      <trkpt lat="42.72167" lon="1.4887">
        <ele>1272.2</ele>
        <time>2024-07-08T10:56:43Z</time>
      </trkpt>
      <trkpt lat="42.72166" lon="1.48872">
        <ele>1273.8</ele>
        <time>2024-07-08T10:56:46Z</time>
      </trkpt>
      <trkpt lat="42.7216" lon="1.48872">
        <ele>1275.8</ele>
        <time>2024-07-08T10:56:51Z</time>
      </trkpt>
      <trkpt lat="42.7216" lon="1.48874">
        <ele>1278</ele>
        <time>2024-07-08T10:56:57Z</time>
      </trkpt>
      <trkpt lat="42.72165" lon="1.48882">
        <ele>1280.2</ele>
        <time>2024-07-08T10:57:05Z</time>
      </trkpt>
      <trkpt lat="42.72168" lon="1.48884">
        <ele>1280.6</ele>
        <time>2024-07-08T10:57:12Z</time>
      </trkpt>
      <trkpt lat="42.72174" lon="1.4889">
        <ele>1280.2</ele>
        <time>2024-07-08T10:57:18Z</time>
      </trkpt>
      <trkpt lat="42.72176" lon="1.48889">
        <ele>1279.8</ele>
        <time>2024-07-08T10:57:22Z</time>
      </trkpt>
      <trkpt lat="42.72177" lon="1.4889">
        <ele>1280.8</ele>
        <time>2024-07-08T10:57:27Z</time>
      </trkpt>
      <trkpt lat="42.72176" lon="1.48895">
        <ele>1281.4</ele>
        <time>2024-07-08T10:57:33Z</time>
      </trkpt>
      <trkpt lat="42.72177" lon="1.489">
        <ele>1283</ele>
        <time>2024-07-08T10:57:38Z</time>
      </trkpt>
      <trkpt lat="42.72176" lon="1.48901">
        <ele>1284.2</ele>
        <time>2024-07-08T10:57:43Z</time>
      </trkpt>
      <trkpt lat="42.72172" lon="1.48899">
        <ele>1285</ele>
        <time>2024-07-08T10:57:49Z</time>
      </trkpt>
      <trkpt lat="42.72165" lon="1.48896">
        <ele>1286.6</ele>
        <time>2024-07-08T10:57:54Z</time>
      </trkpt>
      <trkpt lat="42.72161" lon="1.48894">
        <ele>1288.8</ele>
        <time>2024-07-08T10:57:59Z</time>
      </trkpt>
      <trkpt lat="42.72162" lon="1.48898">
        <ele>1291.4</ele>
        <time>2024-07-08T10:58:04Z</time>
      </trkpt>
      <trkpt lat="42.72165" lon="1.48903">
        <ele>1291.8</ele>
        <time>2024-07-08T10:58:08Z</time>
      </trkpt>
      <trkpt lat="42.72167" lon="1.48904">
        <ele>1291.4</ele>
        <time>2024-07-08T10:58:13Z</time>
      </trkpt>
      <trkpt lat="42.72173" lon="1.48908">
        <ele>1292.6</ele>
        <time>2024-07-08T10:58:21Z</time>
      </trkpt>
      <trkpt lat="42.72177" lon="1.48908">
        <ele>1292.6</ele>
        <time>2024-07-08T10:58:28Z</time>
      </trkpt>
      <trkpt lat="42.72178" lon="1.48907">
        <ele>1292.6</ele>
        <time>2024-07-08T10:58:30Z</time>
      </trkpt>
      <trkpt lat="42.72179" lon="1.48906">
        <ele>1292.6</ele>
        <time>2024-07-08T10:58:32Z</time>
      </trkpt>
      <trkpt lat="42.72184" lon="1.48908">
        <ele>1294.6</ele>
        <time>2024-07-08T10:58:37Z</time>
      </trkpt>
      <trkpt lat="42.72184" lon="1.48906">
        <ele>1295.8</ele>
        <time>2024-07-08T10:58:40Z</time>
      </trkpt>
      <trkpt lat="42.72184" lon="1.48906">
        <ele>1296</ele>
        <time>2024-07-08T10:58:41Z</time>
      </trkpt>
      <trkpt lat="42.72184" lon="1.4891">
        <ele>1297.2</ele>
        <time>2024-07-08T10:58:46Z</time>
      </trkpt>
      <trkpt lat="42.72185" lon="1.48912">
        <ele>1297.4</ele>
        <time>2024-07-08T10:58:47Z</time>
      </trkpt>
      <trkpt lat="42.72186" lon="1.48913">
        <ele>1297.8</ele>
        <time>2024-07-08T10:58:50Z</time>
      </trkpt>
      <trkpt lat="42.72185" lon="1.48913">
        <ele>1298.8</ele>
        <time>2024-07-08T10:59:06Z</time>
      </trkpt>
      <trkpt lat="42.72185" lon="1.48914">
        <ele>1298.8</ele>
        <time>2024-07-08T10:59:19Z</time>
      </trkpt>
      <trkpt lat="42.72185" lon="1.48916">
        <ele>1299.4</ele>
        <time>2024-07-08T10:59:24Z</time>
      </trkpt>
      <trkpt lat="42.72184" lon="1.48915">
        <ele>1299.6</ele>
        <time>2024-07-08T10:59:28Z</time>
      </trkpt>
      <trkpt lat="42.72183" lon="1.48916">
        <ele>1299</ele>
        <time>2024-07-08T10:59:34Z</time>
      </trkpt>
      <trkpt lat="42.72183" lon="1.48914">
        <ele>1298.6</ele>
        <time>2024-07-08T10:59:40Z</time>
      </trkpt>
      <trkpt lat="42.72182" lon="1.48914">
        <ele>1300.8</ele>
        <time>2024-07-08T10:59:45Z</time>
      </trkpt>
      <trkpt lat="42.72182" lon="1.48914">
        <ele>1302.2</ele>
        <time>2024-07-08T10:59:51Z</time>
      </trkpt>
      <trkpt lat="42.72185" lon="1.48915">
        <ele>1305.8</ele>
        <time>2024-07-08T10:59:59Z</time>
      </trkpt>
      <trkpt lat="42.72183" lon="1.48915">
        <ele>1307.6</ele>
        <time>2024-07-08T11:00:06Z</time>
      </trkpt>
      <trkpt lat="42.72182" lon="1.48913">
        <ele>1307.8</ele>
        <time>2024-07-08T11:00:09Z</time>
      </trkpt>
      <trkpt lat="42.72179" lon="1.48902">
        <ele>1304.4</ele>
        <time>2024-07-08T11:05:42Z</time>
      </trkpt>
      <trkpt lat="42.72178" lon="1.48906">
        <ele>1304.2</ele>
        <time>2024-07-08T11:05:44Z</time>
      </trkpt>
      <trkpt lat="42.72175" lon="1.48922">
        <ele>1300.8</ele>
        <time>2024-07-08T11:05:51Z</time>
      </trkpt>
      <trkpt lat="42.72173" lon="1.48925">
        <ele>1297</ele>
        <time>2024-07-08T11:05:57Z</time>
      </trkpt>
      <trkpt lat="42.72172" lon="1.4893">
        <ele>1297.2</ele>
        <time>2024-07-08T11:06:02Z</time>
      </trkpt>
      <trkpt lat="42.72171" lon="1.48935">
        <ele>1297.6</ele>
        <time>2024-07-08T11:06:08Z</time>
      </trkpt>
      <trkpt lat="42.72168" lon="1.4894">
        <ele>1297.6</ele>
        <time>2024-07-08T11:06:16Z</time>
      </trkpt>
      <trkpt lat="42.72168" lon="1.48942">
        <ele>1298.6</ele>
        <time>2024-07-08T11:06:22Z</time>
      </trkpt>
      <trkpt lat="42.72171" lon="1.48939">
        <ele>1304.6</ele>
        <time>2024-07-08T11:06:30Z</time>
      </trkpt>
      <trkpt lat="42.72172" lon="1.48938">
        <ele>1307</ele>
        <time>2024-07-08T11:06:38Z</time>
      </trkpt>
      <trkpt lat="42.72173" lon="1.48936">
        <ele>1308.6</ele>
        <time>2024-07-08T11:06:46Z</time>
      </trkpt>
      <trkpt lat="42.72175" lon="1.48933">
        <ele>1316.4</ele>
        <time>2024-07-08T11:08:51Z</time>
      </trkpt>
      <trkpt lat="42.72176" lon="1.48946">
        <ele>1316.6</ele>
        <time>2024-07-08T11:08:57Z</time>
      </trkpt>
      <trkpt lat="42.72179" lon="1.4895">
        <ele>1316.6</ele>
        <time>2024-07-08T11:09:05Z</time>
      </trkpt>
      <trkpt lat="42.72178" lon="1.48958">
        <ele>1316.4</ele>
        <time>2024-07-08T11:09:14Z</time>
      </trkpt>
      <trkpt lat="42.72179" lon="1.48961">
        <ele>1316.6</ele>
        <time>2024-07-08T11:09:20Z</time>
      </trkpt>
      <trkpt lat="42.72179" lon="1.48965">
        <ele>1317.4</ele>
        <time>2024-07-08T11:09:27Z</time>
      </trkpt>
      <trkpt lat="42.72177" lon="1.48965">
        <ele>1318</ele>
        <time>2024-07-08T11:09:33Z</time>
      </trkpt>
      <trkpt lat="42.72173" lon="1.48964">
        <ele>1324.2</ele>
        <time>2024-07-08T11:11:29Z</time>
      </trkpt>
      <trkpt lat="42.72173" lon="1.48964">
        <ele>1324.4</ele>
        <time>2024-07-08T11:11:34Z</time>
      </trkpt>
      <trkpt lat="42.72175" lon="1.48962">
        <ele>1326.8</ele>
        <time>2024-07-08T11:11:38Z</time>
      </trkpt>
      <trkpt lat="42.72176" lon="1.48965">
        <ele>1330</ele>
        <time>2024-07-08T11:11:44Z</time>
      </trkpt>
      <trkpt lat="42.72179" lon="1.48965">
        <ele>1330.8</ele>
        <time>2024-07-08T11:11:51Z</time>
      </trkpt>
      <trkpt lat="42.72181" lon="1.48964">
        <ele>1332.4</ele>
        <time>2024-07-08T11:11:57Z</time>
      </trkpt>
      <trkpt lat="42.72182" lon="1.4897">
        <ele>1334.4</ele>
        <time>2024-07-08T11:12:02Z</time>
      </trkpt>
      <trkpt lat="42.72182" lon="1.48971">
        <ele>1335.6</ele>
        <time>2024-07-08T11:12:07Z</time>
      </trkpt>
      <trkpt lat="42.7218" lon="1.48973">
        <ele>1337.4</ele>
        <time>2024-07-08T11:12:14Z</time>
      </trkpt>
      <trkpt lat="42.72179" lon="1.48973">
        <ele>1339.6</ele>
        <time>2024-07-08T11:12:21Z</time>
      </trkpt>
      <trkpt lat="42.7218" lon="1.48976">
        <ele>1340.8</ele>
        <time>2024-07-08T11:12:28Z</time>
      </trkpt>
      <trkpt lat="42.72182" lon="1.48977">
        <ele>1344.2</ele>
        <time>2024-07-08T11:12:35Z</time>
      </trkpt>
      <trkpt lat="42.72185" lon="1.48976">
        <ele>1347.6</ele>
        <time>2024-07-08T11:12:42Z</time>
      </trkpt>
      <trkpt lat="42.72189" lon="1.48974">
        <ele>1350.8</ele>
        <time>2024-07-08T11:12:51Z</time>
      </trkpt>
      <trkpt lat="42.72194" lon="1.48974">
        <ele>1352.2</ele>
        <time>2024-07-08T11:13:00Z</time>
      </trkpt>
      <trkpt lat="42.72198" lon="1.48972">
        <ele>1353</ele>
        <time>2024-07-08T11:13:07Z</time>
      </trkpt>
      <trkpt lat="42.72201" lon="1.4897">
        <ele>1352.4</ele>
        <time>2024-07-08T11:13:14Z</time>
      </trkpt>
      <trkpt lat="42.72207" lon="1.48969">
        <ele>1350.2</ele>
        <time>2024-07-08T11:13:21Z</time>
      </trkpt>
      <trkpt lat="42.72213" lon="1.48965">
        <ele>1348</ele>
        <time>2024-07-08T11:13:27Z</time>
      </trkpt>
      <trkpt lat="42.72218" lon="1.48964">
        <ele>1348.4</ele>
        <time>2024-07-08T11:13:31Z</time>
      </trkpt>
      <trkpt lat="42.72223" lon="1.48967">
        <ele>1351.2</ele>
        <time>2024-07-08T11:13:37Z</time>
      </trkpt>
      <trkpt lat="42.72226" lon="1.48968">
        <ele>1352.2</ele>
        <time>2024-07-08T11:13:43Z</time>
      </trkpt>
      <trkpt lat="42.7223" lon="1.48971">
        <ele>1352.2</ele>
        <time>2024-07-08T11:13:51Z</time>
      </trkpt>
      <trkpt lat="42.72233" lon="1.48971">
        <ele>1351</ele>
        <time>2024-07-08T11:13:58Z</time>
      </trkpt>
      <trkpt lat="42.72235" lon="1.48967">
        <ele>1350.6</ele>
        <time>2024-07-08T11:14:05Z</time>
      </trkpt>
      <trkpt lat="42.72237" lon="1.48966">
        <ele>1350.2</ele>
        <time>2024-07-08T11:14:11Z</time>
      </trkpt>
      <trkpt lat="42.72243" lon="1.48965">
        <ele>1350.4</ele>
        <time>2024-07-08T11:14:17Z</time>
      </trkpt>
      <trkpt lat="42.72246" lon="1.48966">
        <ele>1353.6</ele>
        <time>2024-07-08T11:14:24Z</time>
      </trkpt>
      <trkpt lat="42.7225" lon="1.48965">
        <ele>1355.8</ele>
        <time>2024-07-08T11:14:30Z</time>
      </trkpt>
      <trkpt lat="42.72253" lon="1.48965">
        <ele>1357.6</ele>
        <time>2024-07-08T11:14:36Z</time>
      </trkpt>
      <trkpt lat="42.72252" lon="1.48964">
        <ele>1359</ele>
        <time>2024-07-08T11:14:43Z</time>
      </trkpt>
      <trkpt lat="42.72252" lon="1.48964">
        <ele>1360.4</ele>
        <time>2024-07-08T11:14:51Z</time>
      </trkpt>
      <trkpt lat="42.72262" lon="1.48964">
        <ele>1360.8</ele>
        <time>2024-07-08T11:15:18Z</time>
      </trkpt>
      <trkpt lat="42.7227" lon="1.48964">
        <ele>1362</ele>
        <time>2024-07-08T11:15:23Z</time>
      </trkpt>
      <trkpt lat="42.72275" lon="1.48962">
        <ele>1363.6</ele>
        <time>2024-07-08T11:15:30Z</time>
      </trkpt>
      <trkpt lat="42.72281" lon="1.48964">
        <ele>1367.2</ele>
        <time>2024-07-08T11:15:37Z</time>
      </trkpt>
      <trkpt lat="42.72288" lon="1.48967">
        <ele>1369</ele>
        <time>2024-07-08T11:15:45Z</time>
      </trkpt>
      <trkpt lat="42.72294" lon="1.48967">
        <ele>1372</ele>
        <time>2024-07-08T11:15:53Z</time>
      </trkpt>
      <trkpt lat="42.72299" lon="1.48965">
        <ele>1373.4</ele>
        <time>2024-07-08T11:16:00Z</time>
      </trkpt>
      <trkpt lat="42.72304" lon="1.48963">
        <ele>1375.8</ele>
        <time>2024-07-08T11:16:07Z</time>
      </trkpt>
      <trkpt lat="42.7231" lon="1.48961">
        <ele>1376.4</ele>
        <time>2024-07-08T11:16:12Z</time>
      </trkpt>
      <trkpt lat="42.72313" lon="1.48957">
        <ele>1376.6</ele>
        <time>2024-07-08T11:16:15Z</time>
      </trkpt>
      <trkpt lat="42.72323" lon="1.48955">
        <ele>1377.2</ele>
        <time>2024-07-08T11:16:22Z</time>
      </trkpt>
      <trkpt lat="42.72323" lon="1.48955">
        <ele>1377.4</ele>
        <time>2024-07-08T11:16:23Z</time>
      </trkpt>
      <trkpt lat="42.72328" lon="1.48958">
        <ele>1378.8</ele>
        <time>2024-07-08T11:16:28Z</time>
      </trkpt>
      <trkpt lat="42.72329" lon="1.48957">
        <ele>1379.2</ele>
        <time>2024-07-08T11:16:30Z</time>
      </trkpt>
      <trkpt lat="42.72332" lon="1.48958">
        <ele>1378.6</ele>
        <time>2024-07-08T11:16:36Z</time>
      </trkpt>
      <trkpt lat="42.72335" lon="1.4896">
        <ele>1378.8</ele>
        <time>2024-07-08T11:16:43Z</time>
      </trkpt>
      <trkpt lat="42.72341" lon="1.48961">
        <ele>1380.2</ele>
        <time>2024-07-08T11:16:50Z</time>
      </trkpt>
      <trkpt lat="42.72346" lon="1.48964">
        <ele>1385.6</ele>
        <time>2024-07-08T11:16:57Z</time>
      </trkpt>
      <trkpt lat="42.72349" lon="1.4897">
        <ele>1387.6</ele>
        <time>2024-07-08T11:17:03Z</time>
      </trkpt>
      <trkpt lat="42.72353" lon="1.48971">
        <ele>1388</ele>
        <time>2024-07-08T11:17:11Z</time>
      </trkpt>
      <trkpt lat="42.72354" lon="1.48971">
        <ele>1391.4</ele>
        <time>2024-07-08T11:17:17Z</time>
      </trkpt>
      <trkpt lat="42.72357" lon="1.48972">
        <ele>1395.2</ele>
        <time>2024-07-08T11:17:24Z</time>
      </trkpt>
      <trkpt lat="42.72359" lon="1.48974">
        <ele>1397.4</ele>
        <time>2024-07-08T11:17:30Z</time>
      </trkpt>
      <trkpt lat="42.72361" lon="1.48971">
        <ele>1398.6</ele>
        <time>2024-07-08T11:17:35Z</time>
      </trkpt>
      <trkpt lat="42.72364" lon="1.4897">
        <ele>1402.2</ele>
        <time>2024-07-08T11:17:43Z</time>
      </trkpt>
      <trkpt lat="42.72367" lon="1.48965">
        <ele>1401.8</ele>
        <time>2024-07-08T11:17:51Z</time>
      </trkpt>
      <trkpt lat="42.72368" lon="1.48964">
        <ele>1403.4</ele>
        <time>2024-07-08T11:17:58Z</time>
      </trkpt>
      <trkpt lat="42.7237" lon="1.48961">
        <ele>1404.8</ele>
        <time>2024-07-08T11:18:11Z</time>
      </trkpt>
      <trkpt lat="42.72374" lon="1.4896">
        <ele>1407.6</ele>
        <time>2024-07-08T11:18:16Z</time>
      </trkpt>
      <trkpt lat="42.72378" lon="1.48961">
        <ele>1411.8</ele>
        <time>2024-07-08T11:18:24Z</time>
      </trkpt>
      <trkpt lat="42.72381" lon="1.48963">
        <ele>1415.2</ele>
        <time>2024-07-08T11:18:31Z</time>
      </trkpt>
      <trkpt lat="42.72381" lon="1.48967">
        <ele>1416.6</ele>
        <time>2024-07-08T11:18:38Z</time>
      </trkpt>
      <trkpt lat="42.72383" lon="1.48966">
        <ele>1418.4</ele>
        <time>2024-07-08T11:18:44Z</time>
      </trkpt>
      <trkpt lat="42.72384" lon="1.48967">
        <ele>1419.2</ele>
        <time>2024-07-08T11:18:51Z</time>
      </trkpt>
      <trkpt lat="42.72382" lon="1.48972">
        <ele>1419.6</ele>
        <time>2024-07-08T11:18:57Z</time>
      </trkpt>
      <trkpt lat="42.72384" lon="1.48974">
        <ele>1420.6</ele>
        <time>2024-07-08T11:19:05Z</time>
      </trkpt>
      <trkpt lat="42.72388" lon="1.48973">
        <ele>1420.8</ele>
        <time>2024-07-08T11:19:12Z</time>
      </trkpt>
      <trkpt lat="42.7239" lon="1.48974">
        <ele>1421.6</ele>
        <time>2024-07-08T11:19:17Z</time>
      </trkpt>
      <trkpt lat="42.72395" lon="1.48974">
        <ele>1422.4</ele>
        <time>2024-07-08T11:19:24Z</time>
      </trkpt>
      <trkpt lat="42.72398" lon="1.48973">
        <ele>1423.4</ele>
        <time>2024-07-08T11:19:31Z</time>
      </trkpt>
      <trkpt lat="42.72397" lon="1.48972">
        <ele>1425</ele>
        <time>2024-07-08T11:19:39Z</time>
      </trkpt>
      <trkpt lat="42.72399" lon="1.48972">
        <ele>1426.2</ele>
        <time>2024-07-08T11:19:44Z</time>
      </trkpt>
      <trkpt lat="42.72399" lon="1.48973">
        <ele>1427.6</ele>
        <time>2024-07-08T11:19:50Z</time>
      </trkpt>
      <trkpt lat="42.72399" lon="1.48973">
        <ele>1427.6</ele>
        <time>2024-07-08T11:19:56Z</time>
      </trkpt>
      <trkpt lat="42.72399" lon="1.48988">
        <ele>1438.6</ele>
        <time>2024-07-08T11:21:55Z</time>
      </trkpt>
      <trkpt lat="42.72404" lon="1.48989">
        <ele>1439.6</ele>
        <time>2024-07-08T11:22:01Z</time>
      </trkpt>
      <trkpt lat="42.72409" lon="1.48989">
        <ele>1440</ele>
        <time>2024-07-08T11:22:09Z</time>
      </trkpt>
      <trkpt lat="42.72416" lon="1.48987">
        <ele>1438.2</ele>
        <time>2024-07-08T11:22:18Z</time>
      </trkpt>
      <trkpt lat="42.72419" lon="1.48989">
        <ele>1436.4</ele>
        <time>2024-07-08T11:22:24Z</time>
      </trkpt>
      <trkpt lat="42.72422" lon="1.48992">
        <ele>1435.2</ele>
        <time>2024-07-08T11:22:30Z</time>
      </trkpt>
      <trkpt lat="42.72424" lon="1.48993">
        <ele>1434.6</ele>
        <time>2024-07-08T11:22:36Z</time>
      </trkpt>
      <trkpt lat="42.72425" lon="1.48992">
        <ele>1434.8</ele>
        <time>2024-07-08T11:22:43Z</time>
      </trkpt>
      <trkpt lat="42.72425" lon="1.48993">
        <ele>1434.6</ele>
        <time>2024-07-08T11:22:51Z</time>
      </trkpt>
      <trkpt lat="42.7243" lon="1.48997">
        <ele>1434.2</ele>
        <time>2024-07-08T11:23:08Z</time>
      </trkpt>
      <trkpt lat="42.72433" lon="1.49005">
        <ele>1437.2</ele>
        <time>2024-07-08T11:23:16Z</time>
      </trkpt>
      <trkpt lat="42.72434" lon="1.49006">
        <ele>1439.6</ele>
        <time>2024-07-08T11:23:22Z</time>
      </trkpt>
      <trkpt lat="42.72434" lon="1.49012">
        <ele>1442.8</ele>
        <time>2024-07-08T11:23:28Z</time>
      </trkpt>
      <trkpt lat="42.7243" lon="1.49022">
        <ele>1443.8</ele>
        <time>2024-07-08T11:23:36Z</time>
      </trkpt>
      <trkpt lat="42.72431" lon="1.49025">
        <ele>1442.2</ele>
        <time>2024-07-08T11:23:42Z</time>
      </trkpt>
      <trkpt lat="42.72433" lon="1.4903">
        <ele>1442</ele>
        <time>2024-07-08T11:23:48Z</time>
      </trkpt>
      <trkpt lat="42.72432" lon="1.49031">
        <ele>1440.8</ele>
        <time>2024-07-08T11:23:53Z</time>
      </trkpt>
      <trkpt lat="42.72432" lon="1.4903">
        <ele>1439.6</ele>
        <time>2024-07-08T11:23:59Z</time>
      </trkpt>
      <trkpt lat="42.72434" lon="1.49031">
        <ele>1440.6</ele>
        <time>2024-07-08T11:24:04Z</time>
      </trkpt>
      <trkpt lat="42.72435" lon="1.49034">
        <ele>1442.2</ele>
        <time>2024-07-08T11:24:11Z</time>
      </trkpt>
      <trkpt lat="42.72442" lon="1.4904">
        <ele>1446.6</ele>
        <time>2024-07-08T11:24:36Z</time>
      </trkpt>
      <trkpt lat="42.72444" lon="1.49044">
        <ele>1451.4</ele>
        <time>2024-07-08T11:24:44Z</time>
      </trkpt>
      <trkpt lat="42.72445" lon="1.49048">
        <ele>1453.2</ele>
        <time>2024-07-08T11:24:51Z</time>
      </trkpt>
      <trkpt lat="42.72447" lon="1.4905">
        <ele>1454.2</ele>
        <time>2024-07-08T11:24:58Z</time>
      </trkpt>
      <trkpt lat="42.72447" lon="1.49051">
        <ele>1455.4</ele>
        <time>2024-07-08T11:25:04Z</time>
      </trkpt>
      <trkpt lat="42.72448" lon="1.49052">
        <ele>1457</ele>
        <time>2024-07-08T11:25:08Z</time>
      </trkpt>
      <trkpt lat="42.72448" lon="1.49052">
        <ele>1461.2</ele>
        <time>2024-07-08T11:25:21Z</time>
      </trkpt>
      <trkpt lat="42.72446" lon="1.49084">
        <ele>1474.4</ele>
        <time>2024-07-08T11:26:01Z</time>
      </trkpt>
      <trkpt lat="42.72442" lon="1.49101">
        <ele>1475.4</ele>
        <time>2024-07-08T11:26:08Z</time>
      </trkpt>
      <trkpt lat="42.72441" lon="1.49102">
        <ele>1476</ele>
        <time>2024-07-08T11:26:15Z</time>
      </trkpt>
      <trkpt lat="42.72441" lon="1.49102">
        <ele>1473.8</ele>
        <time>2024-07-08T11:26:31Z</time>
      </trkpt>
      <trkpt lat="42.72436" lon="1.49112">
        <ele>1474.2</ele>
        <time>2024-07-08T11:26:53Z</time>
      </trkpt>
      <trkpt lat="42.72433" lon="1.49118">
        <ele>1476.2</ele>
        <time>2024-07-08T11:26:58Z</time>
      </trkpt>
      <trkpt lat="42.72431" lon="1.49126">
        <ele>1480.8</ele>
        <time>2024-07-08T11:27:05Z</time>
      </trkpt>
      <trkpt lat="42.72432" lon="1.49134">
        <ele>1481.8</ele>
        <time>2024-07-08T11:27:14Z</time>
      </trkpt>
      <trkpt lat="42.72433" lon="1.49133">
        <ele>1482.6</ele>
        <time>2024-07-08T11:27:20Z</time>
      </trkpt>
      <trkpt lat="42.72435" lon="1.49131">
        <ele>1483.6</ele>
        <time>2024-07-08T11:27:23Z</time>
      </trkpt>
      <trkpt lat="42.72437" lon="1.49131">
        <ele>1485.8</ele>
        <time>2024-07-08T11:27:27Z</time>
      </trkpt>
      <trkpt lat="42.7244" lon="1.49129">
        <ele>1488.4</ele>
        <time>2024-07-08T11:27:34Z</time>
      </trkpt>
      <trkpt lat="42.72445" lon="1.49128">
        <ele>1489.4</ele>
        <time>2024-07-08T11:27:42Z</time>
      </trkpt>
      <trkpt lat="42.72447" lon="1.49127">
        <ele>1489.8</ele>
        <time>2024-07-08T11:27:49Z</time>
      </trkpt>
      <trkpt lat="42.72451" lon="1.49128">
        <ele>1490.8</ele>
        <time>2024-07-08T11:27:55Z</time>
      </trkpt>
      <trkpt lat="42.72458" lon="1.49127">
        <ele>1491.2</ele>
        <time>2024-07-08T11:28:04Z</time>
      </trkpt>
      <trkpt lat="42.72463" lon="1.49127">
        <ele>1491.8</ele>
        <time>2024-07-08T11:28:11Z</time>
      </trkpt>
      <trkpt lat="42.72464" lon="1.49127">
        <ele>1493</ele>
        <time>2024-07-08T11:28:15Z</time>
      </trkpt>
      <trkpt lat="42.72468" lon="1.49129">
        <ele>1495.4</ele>
        <time>2024-07-08T11:28:23Z</time>
      </trkpt>
      <trkpt lat="42.7247" lon="1.49129">
        <ele>1497.6</ele>
        <time>2024-07-08T11:28:28Z</time>
      </trkpt>
      <trkpt lat="42.72474" lon="1.49129">
        <ele>1500</ele>
        <time>2024-07-08T11:28:35Z</time>
      </trkpt>
      <trkpt lat="42.72476" lon="1.49128">
        <ele>1502.2</ele>
        <time>2024-07-08T11:28:41Z</time>
      </trkpt>
      <trkpt lat="42.72478" lon="1.49126">
        <ele>1505.2</ele>
        <time>2024-07-08T11:28:48Z</time>
      </trkpt>
      <trkpt lat="42.72483" lon="1.49128">
        <ele>1507.4</ele>
        <time>2024-07-08T11:28:55Z</time>
      </trkpt>
      <trkpt lat="42.72488" lon="1.49129">
        <ele>1509</ele>
        <time>2024-07-08T11:29:03Z</time>
      </trkpt>
      <trkpt lat="42.72489" lon="1.49127">
        <ele>1512.2</ele>
        <time>2024-07-08T11:29:11Z</time>
      </trkpt>
      <trkpt lat="42.72489" lon="1.49126">
        <ele>1515.4</ele>
        <time>2024-07-08T11:29:19Z</time>
      </trkpt>
      <trkpt lat="42.72496" lon="1.49124">
        <ele>1516.4</ele>
        <time>2024-07-08T11:29:49Z</time>
      </trkpt>
      <trkpt lat="42.725" lon="1.49124">
        <ele>1515.8</ele>
        <time>2024-07-08T11:29:53Z</time>
      </trkpt>
      <trkpt lat="42.72506" lon="1.49121">
        <ele>1514.6</ele>
        <time>2024-07-08T11:29:59Z</time>
      </trkpt>
      <trkpt lat="42.72509" lon="1.49123">
        <ele>1514.8</ele>
        <time>2024-07-08T11:30:05Z</time>
      </trkpt>
      <trkpt lat="42.72513" lon="1.49123">
        <ele>1516.8</ele>
        <time>2024-07-08T11:30:11Z</time>
      </trkpt>
      <trkpt lat="42.72515" lon="1.49123">
        <ele>1519.6</ele>
        <time>2024-07-08T11:30:17Z</time>
      </trkpt>
      <trkpt lat="42.72519" lon="1.49121">
        <ele>1524.4</ele>
        <time>2024-07-08T11:30:25Z</time>
      </trkpt>
      <trkpt lat="42.72522" lon="1.49122">
        <ele>1527.2</ele>
        <time>2024-07-08T11:30:31Z</time>
      </trkpt>
      <trkpt lat="42.72525" lon="1.49122">
        <ele>1527.6</ele>
        <time>2024-07-08T11:30:37Z</time>
      </trkpt>
      <trkpt lat="42.72527" lon="1.49121">
        <ele>1529.4</ele>
        <time>2024-07-08T11:30:43Z</time>
      </trkpt>
      <trkpt lat="42.72531" lon="1.49121">
        <ele>1530</ele>
        <time>2024-07-08T11:30:49Z</time>
      </trkpt>
      <trkpt lat="42.72535" lon="1.49121">
        <ele>1529.4</ele>
        <time>2024-07-08T11:30:57Z</time>
      </trkpt>
      <trkpt lat="42.7254" lon="1.4912">
        <ele>1528.8</ele>
        <time>2024-07-08T11:31:04Z</time>
      </trkpt>
      <trkpt lat="42.72544" lon="1.4912">
        <ele>1529.8</ele>
        <time>2024-07-08T11:31:10Z</time>
      </trkpt>
      <trkpt lat="42.72547" lon="1.49117">
        <ele>1532.2</ele>
        <time>2024-07-08T11:31:17Z</time>
      </trkpt>
      <trkpt lat="42.7255" lon="1.49114">
        <ele>1534</ele>
        <time>2024-07-08T11:31:24Z</time>
      </trkpt>
      <trkpt lat="42.72553" lon="1.49114">
        <ele>1537.2</ele>
        <time>2024-07-08T11:31:31Z</time>
      </trkpt>
      <trkpt lat="42.72553" lon="1.49119">
        <ele>1539.4</ele>
        <time>2024-07-08T11:31:37Z</time>
      </trkpt>
      <trkpt lat="42.72554" lon="1.49121">
        <ele>1540.2</ele>
        <time>2024-07-08T11:31:43Z</time>
      </trkpt>
      <trkpt lat="42.72555" lon="1.49128">
        <ele>1542.6</ele>
        <time>2024-07-08T11:31:50Z</time>
      </trkpt>
      <trkpt lat="42.72554" lon="1.49136">
        <ele>1541.6</ele>
        <time>2024-07-08T11:31:58Z</time>
      </trkpt>
      <trkpt lat="42.72555" lon="1.49141">
        <ele>1541.6</ele>
        <time>2024-07-08T11:32:06Z</time>
      </trkpt>
      <trkpt lat="42.72556" lon="1.49139">
        <ele>1544.8</ele>
        <time>2024-07-08T11:32:14Z</time>
      </trkpt>
      <trkpt lat="42.7256" lon="1.49139">
        <ele>1547.2</ele>
        <time>2024-07-08T11:32:21Z</time>
      </trkpt>
      <trkpt lat="42.72566" lon="1.49138">
        <ele>1548</ele>
        <time>2024-07-08T11:32:29Z</time>
      </trkpt>
      <trkpt lat="42.72569" lon="1.49138">
        <ele>1548.2</ele>
        <time>2024-07-08T11:32:37Z</time>
      </trkpt>
      <trkpt lat="42.72569" lon="1.49144">
        <ele>1550.2</ele>
        <time>2024-07-08T11:32:44Z</time>
      </trkpt>
      <trkpt lat="42.72569" lon="1.49143">
        <ele>1552</ele>
        <time>2024-07-08T11:32:51Z</time>
      </trkpt>
      <trkpt lat="42.72573" lon="1.4914">
        <ele>1555.4</ele>
        <time>2024-07-08T11:32:58Z</time>
      </trkpt>
      <trkpt lat="42.72575" lon="1.49135">
        <ele>1558.6</ele>
        <time>2024-07-08T11:33:05Z</time>
      </trkpt>
      <trkpt lat="42.72576" lon="1.49138">
        <ele>1560.4</ele>
        <time>2024-07-08T11:33:10Z</time>
      </trkpt>
      <trkpt lat="42.7258" lon="1.49141">
        <ele>1560.4</ele>
        <time>2024-07-08T11:33:17Z</time>
      </trkpt>
      <trkpt lat="42.72584" lon="1.49145">
        <ele>1560.4</ele>
        <time>2024-07-08T11:33:24Z</time>
      </trkpt>
      <trkpt lat="42.72583" lon="1.49148">
        <ele>1561</ele>
        <time>2024-07-08T11:33:29Z</time>
      </trkpt>
      <trkpt lat="42.72582" lon="1.49156">
        <ele>1563.4</ele>
        <time>2024-07-08T11:33:38Z</time>
      </trkpt>
      <trkpt lat="42.72582" lon="1.49161">
        <ele>1563.6</ele>
        <time>2024-07-08T11:33:46Z</time>
      </trkpt>
      <trkpt lat="42.72583" lon="1.49163">
        <ele>1563</ele>
        <time>2024-07-08T11:33:56Z</time>
      </trkpt>
      <trkpt lat="42.72586" lon="1.49166">
        <ele>1561.6</ele>
        <time>2024-07-08T11:34:32Z</time>
      </trkpt>
      <trkpt lat="42.72588" lon="1.4917">
        <ele>1562</ele>
        <time>2024-07-08T11:34:38Z</time>
      </trkpt>
      <trkpt lat="42.72588" lon="1.49174">
        <ele>1563.2</ele>
        <time>2024-07-08T11:34:46Z</time>
      </trkpt>
      <trkpt lat="42.72591" lon="1.49171">
        <ele>1564.8</ele>
        <time>2024-07-08T11:34:51Z</time>
      </trkpt>
      <trkpt lat="42.72596" lon="1.49169">
        <ele>1568.2</ele>
        <time>2024-07-08T11:34:59Z</time>
      </trkpt>
      <trkpt lat="42.72596" lon="1.49172">
        <ele>1569.6</ele>
        <time>2024-07-08T11:35:04Z</time>
      </trkpt>
      <trkpt lat="42.72598" lon="1.49173">
        <ele>1571.4</ele>
        <time>2024-07-08T11:35:10Z</time>
      </trkpt>
      <trkpt lat="42.72602" lon="1.49174">
        <ele>1573</ele>
        <time>2024-07-08T11:35:17Z</time>
      </trkpt>
      <trkpt lat="42.72603" lon="1.49173">
        <ele>1574.2</ele>
        <time>2024-07-08T11:35:22Z</time>
      </trkpt>
      <trkpt lat="42.72604" lon="1.49172">
        <ele>1579</ele>
        <time>2024-07-08T11:35:31Z</time>
      </trkpt>
      <trkpt lat="42.72604" lon="1.49171">
        <ele>1584</ele>
        <time>2024-07-08T11:35:46Z</time>
      </trkpt>
      <trkpt lat="42.72608" lon="1.4917">
        <ele>1583.8</ele>
        <time>2024-07-08T11:36:10Z</time>
      </trkpt>
      <trkpt lat="42.72613" lon="1.49159">
        <ele>1581.8</ele>
        <time>2024-07-08T11:36:18Z</time>
      </trkpt>
      <trkpt lat="42.72615" lon="1.49145">
        <ele>1579.8</ele>
        <time>2024-07-08T11:36:28Z</time>
      </trkpt>
      <trkpt lat="42.72615" lon="1.49144">
        <ele>1579.6</ele>
        <time>2024-07-08T11:36:29Z</time>
      </trkpt>
      <trkpt lat="42.72617" lon="1.49132">
        <ele>1577.4</ele>
        <time>2024-07-08T11:36:37Z</time>
      </trkpt>
      <trkpt lat="42.72615" lon="1.49129">
        <ele>1577.4</ele>
        <time>2024-07-08T11:36:39Z</time>
      </trkpt>
      <trkpt lat="42.72615" lon="1.49128">
        <ele>1577.6</ele>
        <time>2024-07-08T11:36:40Z</time>
      </trkpt>
      <trkpt lat="42.72615" lon="1.49127">
        <ele>1578.4</ele>
        <time>2024-07-08T11:36:44Z</time>
      </trkpt>
      <trkpt lat="42.72614" lon="1.49124">
        <ele>1578.6</ele>
        <time>2024-07-08T11:36:55Z</time>
      </trkpt>
      <trkpt lat="42.72613" lon="1.49112">
        <ele>1578.6</ele>
        <time>2024-07-08T11:37:03Z</time>
      </trkpt>
      <trkpt lat="42.72613" lon="1.49109">
        <ele>1578.8</ele>
        <time>2024-07-08T11:37:05Z</time>
      </trkpt>
      <trkpt lat="42.72612" lon="1.49102">
        <ele>1579.4</ele>
        <time>2024-07-08T11:37:10Z</time>
      </trkpt>
      <trkpt lat="42.72611" lon="1.49088">
        <ele>1580.6</ele>
        <time>2024-07-08T11:37:19Z</time>
      </trkpt>
      <trkpt lat="42.72612" lon="1.49078">
        <ele>1580.4</ele>
        <time>2024-07-08T11:37:28Z</time>
      </trkpt>
      <trkpt lat="42.72614" lon="1.49071">
        <ele>1580</ele>
        <time>2024-07-08T11:37:34Z</time>
      </trkpt>
      <trkpt lat="42.72614" lon="1.49055">
        <ele>1579.4</ele>
        <time>2024-07-08T11:37:45Z</time>
      </trkpt>
      <trkpt lat="42.72616" lon="1.49044">
        <ele>1579.2</ele>
        <time>2024-07-08T11:37:53Z</time>
      </trkpt>
      <trkpt lat="42.72621" lon="1.49033">
        <ele>1578.8</ele>
        <time>2024-07-08T11:38:03Z</time>
      </trkpt>
      <trkpt lat="42.72629" lon="1.49023">
        <ele>1579.2</ele>
        <time>2024-07-08T11:38:12Z</time>
      </trkpt>
      <trkpt lat="42.72638" lon="1.49016">
        <ele>1580</ele>
        <time>2024-07-08T11:38:23Z</time>
      </trkpt>
      <trkpt lat="42.7264" lon="1.49015">
        <ele>1580.2</ele>
        <time>2024-07-08T11:38:31Z</time>
      </trkpt>
      <trkpt lat="42.7264" lon="1.49015">
        <ele>1580.8</ele>
        <time>2024-07-08T11:38:54Z</time>
      </trkpt>
      <trkpt lat="42.72644" lon="1.49014">
        <ele>1579.4</ele>
        <time>2024-07-08T11:39:50Z</time>
      </trkpt>
      <trkpt lat="42.72654" lon="1.49011">
        <ele>1579.4</ele>
        <time>2024-07-08T11:39:58Z</time>
      </trkpt>
      <trkpt lat="42.72657" lon="1.4901">
        <ele>1581</ele>
        <time>2024-07-08T11:40:06Z</time>
      </trkpt>
      <trkpt lat="42.72657" lon="1.4901">
        <ele>1582</ele>
        <time>2024-07-08T11:40:23Z</time>
      </trkpt>
      <trkpt lat="42.72664" lon="1.49012">
        <ele>1582</ele>
        <time>2024-07-08T11:40:28Z</time>
      </trkpt>
      <trkpt lat="42.72674" lon="1.49015">
        <ele>1582.2</ele>
        <time>2024-07-08T11:40:36Z</time>
      </trkpt>
      <trkpt lat="42.72676" lon="1.49015">
        <ele>1582.6</ele>
        <time>2024-07-08T11:40:49Z</time>
      </trkpt>
      <trkpt lat="42.72683" lon="1.49013">
        <ele>1582.4</ele>
        <time>2024-07-08T11:40:55Z</time>
      </trkpt>
      <trkpt lat="42.72693" lon="1.49018">
        <ele>1581.8</ele>
        <time>2024-07-08T11:41:05Z</time>
      </trkpt>
      <trkpt lat="42.72694" lon="1.49019">
        <ele>1581.4</ele>
        <time>2024-07-08T11:41:06Z</time>
      </trkpt>
      <trkpt lat="42.72699" lon="1.49023">
        <ele>1580</ele>
        <time>2024-07-08T11:41:11Z</time>
      </trkpt>
      <trkpt lat="42.72699" lon="1.49024">
        <ele>1580</ele>
        <time>2024-07-08T11:41:12Z</time>
      </trkpt>
      <trkpt lat="42.727" lon="1.49026">
        <ele>1579.8</ele>
        <time>2024-07-08T11:41:13Z</time>
      </trkpt>
      <trkpt lat="42.72702" lon="1.4903">
        <ele>1580</ele>
        <time>2024-07-08T11:41:16Z</time>
      </trkpt>
      <trkpt lat="42.72704" lon="1.49031">
        <ele>1580</ele>
        <time>2024-07-08T11:41:18Z</time>
      </trkpt>
      <trkpt lat="42.72711" lon="1.49035">
        <ele>1581</ele>
        <time>2024-07-08T11:41:25Z</time>
      </trkpt>
      <trkpt lat="42.72712" lon="1.49035">
        <ele>1582</ele>
        <time>2024-07-08T11:41:31Z</time>
      </trkpt>
      <trkpt lat="42.72713" lon="1.49034">
        <ele>1582.2</ele>
        <time>2024-07-08T11:41:37Z</time>
      </trkpt>
      <trkpt lat="42.72721" lon="1.49033">
        <ele>1582</ele>
        <time>2024-07-08T11:41:44Z</time>
      </trkpt>
      <trkpt lat="42.72725" lon="1.49029">
        <ele>1581.8</ele>
        <time>2024-07-08T11:41:49Z</time>
      </trkpt>
      <trkpt lat="42.72733" lon="1.49029">
        <ele>1582</ele>
        <time>2024-07-08T11:41:56Z</time>
      </trkpt>
      <trkpt lat="42.72741" lon="1.49032">
        <ele>1583</ele>
        <time>2024-07-08T11:42:03Z</time>
      </trkpt>
      <trkpt lat="42.7275" lon="1.49035">
        <ele>1581.8</ele>
        <time>2024-07-08T11:42:13Z</time>
      </trkpt>
      <trkpt lat="42.72758" lon="1.4904">
        <ele>1581.2</ele>
        <time>2024-07-08T11:42:20Z</time>
      </trkpt>
      <trkpt lat="42.72768" lon="1.49045">
        <ele>1582.6</ele>
        <time>2024-07-08T11:42:30Z</time>
      </trkpt>
      <trkpt lat="42.72776" lon="1.49051">
        <ele>1581.8</ele>
        <time>2024-07-08T11:42:38Z</time>
      </trkpt>
      <trkpt lat="42.72777" lon="1.49051">
        <ele>1581.8</ele>
        <time>2024-07-08T11:42:40Z</time>
      </trkpt>
      <trkpt lat="42.72779" lon="1.49053">
        <ele>1583.8</ele>
        <time>2024-07-08T11:42:46Z</time>
      </trkpt>
      <trkpt lat="42.7278" lon="1.49053">
        <ele>1584</ele>
        <time>2024-07-08T11:42:47Z</time>
      </trkpt>
      <trkpt lat="42.72791" lon="1.49055">
        <ele>1586.6</ele>
        <time>2024-07-08T11:42:56Z</time>
      </trkpt>
      <trkpt lat="42.72793" lon="1.49055">
        <ele>1587</ele>
        <time>2024-07-08T11:43:03Z</time>
      </trkpt>
      <trkpt lat="42.72794" lon="1.49055">
        <ele>1586.6</ele>
        <time>2024-07-08T11:43:09Z</time>
      </trkpt>
      <trkpt lat="42.72798" lon="1.49062">
        <ele>1586.4</ele>
        <time>2024-07-08T11:43:36Z</time>
      </trkpt>
      <trkpt lat="42.72806" lon="1.49072">
        <ele>1587.6</ele>
        <time>2024-07-08T11:43:44Z</time>
      </trkpt>
      <trkpt lat="42.72812" lon="1.49078">
        <ele>1588</ele>
        <time>2024-07-08T11:43:51Z</time>
      </trkpt>
      <trkpt lat="42.72818" lon="1.49084">
        <ele>1587.6</ele>
        <time>2024-07-08T11:43:59Z</time>
      </trkpt>
      <trkpt lat="42.72824" lon="1.4909">
        <ele>1587.4</ele>
        <time>2024-07-08T11:44:05Z</time>
      </trkpt>
      <trkpt lat="42.72829" lon="1.49096">
        <ele>1587.6</ele>
        <time>2024-07-08T11:44:11Z</time>
      </trkpt>
      <trkpt lat="42.72829" lon="1.49097">
        <ele>1587.6</ele>
        <time>2024-07-08T11:44:12Z</time>
      </trkpt>
      <trkpt lat="42.7283" lon="1.49099">
        <ele>1587.4</ele>
        <time>2024-07-08T11:44:14Z</time>
      </trkpt>
      <trkpt lat="42.72832" lon="1.49102">
        <ele>1587.2</ele>
        <time>2024-07-08T11:44:17Z</time>
      </trkpt>
      <trkpt lat="42.72838" lon="1.49109">
        <ele>1586.4</ele>
        <time>2024-07-08T11:44:25Z</time>
      </trkpt>
      <trkpt lat="42.72839" lon="1.49109">
        <ele>1586.6</ele>
        <time>2024-07-08T11:44:26Z</time>
      </trkpt>
      <trkpt lat="42.72848" lon="1.49114">
        <ele>1588.4</ele>
        <time>2024-07-08T11:44:35Z</time>
      </trkpt>
      <trkpt lat="42.7286" lon="1.49119">
        <ele>1586.4</ele>
        <time>2024-07-08T11:44:45Z</time>
      </trkpt>
      <trkpt lat="42.72871" lon="1.49121">
        <ele>1583.6</ele>
        <time>2024-07-08T11:44:55Z</time>
      </trkpt>
      <trkpt lat="42.72882" lon="1.49122">
        <ele>1585.8</ele>
        <time>2024-07-08T11:45:04Z</time>
      </trkpt>
      <trkpt lat="42.72887" lon="1.49123">
        <ele>1586.6</ele>
        <time>2024-07-08T11:45:08Z</time>
      </trkpt>
      <trkpt lat="42.7289" lon="1.49123">
        <ele>1586.8</ele>
        <time>2024-07-08T11:45:11Z</time>
      </trkpt>
      <trkpt lat="42.729" lon="1.49117">
        <ele>1585.6</ele>
        <time>2024-07-08T11:45:20Z</time>
      </trkpt>
      <trkpt lat="42.72906" lon="1.4911">
        <ele>1586.4</ele>
        <time>2024-07-08T11:45:28Z</time>
      </trkpt>
      <trkpt lat="42.72912" lon="1.49101">
        <ele>1586.4</ele>
        <time>2024-07-08T11:45:36Z</time>
      </trkpt>
      <trkpt lat="42.72912" lon="1.491">
        <ele>1586.4</ele>
        <time>2024-07-08T11:45:37Z</time>
      </trkpt>
      <trkpt lat="42.72919" lon="1.49086">
        <ele>1585.6</ele>
        <time>2024-07-08T11:45:46Z</time>
      </trkpt>
      <trkpt lat="42.72923" lon="1.49083">
        <ele>1585.2</ele>
        <time>2024-07-08T11:45:52Z</time>
      </trkpt>
      <trkpt lat="42.72924" lon="1.49082">
        <ele>1585.4</ele>
        <time>2024-07-08T11:45:53Z</time>
      </trkpt>
      <trkpt lat="42.72929" lon="1.49072">
        <ele>1585.6</ele>
        <time>2024-07-08T11:46:00Z</time>
      </trkpt>
      <trkpt lat="42.72935" lon="1.49067">
        <ele>1586</ele>
        <time>2024-07-08T11:46:08Z</time>
      </trkpt>
      <trkpt lat="42.72938" lon="1.49062">
        <ele>1586.4</ele>
        <time>2024-07-08T11:46:14Z</time>
      </trkpt>
      <trkpt lat="42.72946" lon="1.4905">
        <ele>1585.8</ele>
        <time>2024-07-08T11:46:23Z</time>
      </trkpt>
      <trkpt lat="42.72952" lon="1.49043">
        <ele>1587</ele>
        <time>2024-07-08T11:46:31Z</time>
      </trkpt>
      <trkpt lat="42.7296" lon="1.49037">
        <ele>1586.4</ele>
        <time>2024-07-08T11:46:38Z</time>
      </trkpt>
      <trkpt lat="42.7297" lon="1.4903">
        <ele>1585.2</ele>
        <time>2024-07-08T11:46:47Z</time>
      </trkpt>
      <trkpt lat="42.72981" lon="1.49018">
        <ele>1584.8</ele>
        <time>2024-07-08T11:46:58Z</time>
      </trkpt>
      <trkpt lat="42.72985" lon="1.49014">
        <ele>1585.6</ele>
        <time>2024-07-08T11:47:03Z</time>
      </trkpt>
      <trkpt lat="42.72986" lon="1.49013">
        <ele>1585.6</ele>
        <time>2024-07-08T11:47:05Z</time>
      </trkpt>
      <trkpt lat="42.72988" lon="1.49008">
        <ele>1585.8</ele>
        <time>2024-07-08T11:47:09Z</time>
      </trkpt>
      <trkpt lat="42.72991" lon="1.49005">
        <ele>1586</ele>
        <time>2024-07-08T11:47:13Z</time>
      </trkpt>
      <trkpt lat="42.73" lon="1.48999">
        <ele>1586.2</ele>
        <time>2024-07-08T11:47:22Z</time>
      </trkpt>
      <trkpt lat="42.73007" lon="1.49002">
        <ele>1586.2</ele>
        <time>2024-07-08T11:47:29Z</time>
      </trkpt>
      <trkpt lat="42.73008" lon="1.49003">
        <ele>1586.2</ele>
        <time>2024-07-08T11:47:30Z</time>
      </trkpt>
      <trkpt lat="42.7302" lon="1.49005">
        <ele>1586.8</ele>
        <time>2024-07-08T11:47:39Z</time>
      </trkpt>
      <trkpt lat="42.73029" lon="1.4901">
        <ele>1586.2</ele>
        <time>2024-07-08T11:47:48Z</time>
      </trkpt>
      <trkpt lat="42.73038" lon="1.49013">
        <ele>1586</ele>
        <time>2024-07-08T11:47:56Z</time>
      </trkpt>
      <trkpt lat="42.73047" lon="1.49014">
        <ele>1586.8</ele>
        <time>2024-07-08T11:48:04Z</time>
      </trkpt>
      <trkpt lat="42.73053" lon="1.49018">
        <ele>1586.4</ele>
        <time>2024-07-08T11:48:11Z</time>
      </trkpt>
      <trkpt lat="42.73064" lon="1.49024">
        <ele>1583.2</ele>
        <time>2024-07-08T11:48:19Z</time>
      </trkpt>
      <trkpt lat="42.73073" lon="1.49028">
        <ele>1582</ele>
        <time>2024-07-08T11:48:28Z</time>
      </trkpt>
      <trkpt lat="42.73079" lon="1.49031">
        <ele>1582.6</ele>
        <time>2024-07-08T11:48:36Z</time>
      </trkpt>
      <trkpt lat="42.7309" lon="1.49032">
        <ele>1582.6</ele>
        <time>2024-07-08T11:48:45Z</time>
      </trkpt>
      <trkpt lat="42.73099" lon="1.49037">
        <ele>1581.6</ele>
        <time>2024-07-08T11:48:54Z</time>
      </trkpt>
      <trkpt lat="42.731" lon="1.49038">
        <ele>1581.4</ele>
        <time>2024-07-08T11:48:56Z</time>
      </trkpt>
      <trkpt lat="42.73107" lon="1.49039">
        <ele>1581.2</ele>
        <time>2024-07-08T11:49:01Z</time>
      </trkpt>
      <trkpt lat="42.73122" lon="1.49045">
        <ele>1581.4</ele>
        <time>2024-07-08T11:49:12Z</time>
      </trkpt>
      <trkpt lat="42.73135" lon="1.4905">
        <ele>1580.2</ele>
        <time>2024-07-08T11:49:22Z</time>
      </trkpt>
      <trkpt lat="42.73145" lon="1.49055">
        <ele>1580.2</ele>
        <time>2024-07-08T11:49:30Z</time>
      </trkpt>
      <trkpt lat="42.73156" lon="1.49057">
        <ele>1579.6</ele>
        <time>2024-07-08T11:49:38Z</time>
      </trkpt>
      <trkpt lat="42.73167" lon="1.49059">
        <ele>1577.8</ele>
        <time>2024-07-08T11:49:47Z</time>
      </trkpt>
      <trkpt lat="42.73178" lon="1.49068">
        <ele>1575</ele>
        <time>2024-07-08T11:49:56Z</time>
      </trkpt>
      <trkpt lat="42.73188" lon="1.4907">
        <ele>1574.4</ele>
        <time>2024-07-08T11:50:05Z</time>
      </trkpt>
      <trkpt lat="42.73197" lon="1.49073">
        <ele>1574.4</ele>
        <time>2024-07-08T11:50:13Z</time>
      </trkpt>
      <trkpt lat="42.73208" lon="1.49072">
        <ele>1572.6</ele>
        <time>2024-07-08T11:50:22Z</time>
      </trkpt>
      <trkpt lat="42.73222" lon="1.49074">
        <ele>1572.2</ele>
        <time>2024-07-08T11:50:32Z</time>
      </trkpt>
      <trkpt lat="42.73233" lon="1.49073">
        <ele>1572</ele>
        <time>2024-07-08T11:50:40Z</time>
      </trkpt>
      <trkpt lat="42.73248" lon="1.49071">
        <ele>1569.8</ele>
        <time>2024-07-08T11:50:51Z</time>
      </trkpt>
      <trkpt lat="42.7326" lon="1.49071">
        <ele>1569</ele>
        <time>2024-07-08T11:51:01Z</time>
      </trkpt>
      <trkpt lat="42.73271" lon="1.49069">
        <ele>1567.4</ele>
        <time>2024-07-08T11:51:09Z</time>
      </trkpt>
      <trkpt lat="42.73288" lon="1.49067">
        <ele>1565</ele>
        <time>2024-07-08T11:51:21Z</time>
      </trkpt>
      <trkpt lat="42.73301" lon="1.49071">
        <ele>1563.8</ele>
        <time>2024-07-08T11:51:31Z</time>
      </trkpt>
      <trkpt lat="42.73311" lon="1.49068">
        <ele>1562</ele>
        <time>2024-07-08T11:51:40Z</time>
      </trkpt>
      <trkpt lat="42.73322" lon="1.49066">
        <ele>1560.2</ele>
        <time>2024-07-08T11:51:48Z</time>
      </trkpt>
      <trkpt lat="42.73333" lon="1.49054">
        <ele>1557</ele>
        <time>2024-07-08T11:51:58Z</time>
      </trkpt>
      <trkpt lat="42.73339" lon="1.49043">
        <ele>1556.6</ele>
        <time>2024-07-08T11:52:06Z</time>
      </trkpt>
      <trkpt lat="42.7334" lon="1.49042">
        <ele>1556.6</ele>
        <time>2024-07-08T11:52:07Z</time>
      </trkpt>
      <trkpt lat="42.73352" lon="1.49031">
        <ele>1556.4</ele>
        <time>2024-07-08T11:52:17Z</time>
      </trkpt>
      <trkpt lat="42.73358" lon="1.49027">
        <ele>1555.4</ele>
        <time>2024-07-08T11:52:23Z</time>
      </trkpt>
      <trkpt lat="42.7336" lon="1.49024">
        <ele>1555.2</ele>
        <time>2024-07-08T11:52:25Z</time>
      </trkpt>
      <trkpt lat="42.73369" lon="1.4902">
        <ele>1554.4</ele>
        <time>2024-07-08T11:52:33Z</time>
      </trkpt>
      <trkpt lat="42.73382" lon="1.49015">
        <ele>1552.4</ele>
        <time>2024-07-08T11:52:42Z</time>
      </trkpt>
      <trkpt lat="42.73394" lon="1.49012">
        <ele>1550.8</ele>
        <time>2024-07-08T11:52:51Z</time>
      </trkpt>
      <trkpt lat="42.73413" lon="1.49011">
        <ele>1548</ele>
        <time>2024-07-08T11:53:03Z</time>
      </trkpt>
      <trkpt lat="42.73425" lon="1.49014">
        <ele>1548</ele>
        <time>2024-07-08T11:53:11Z</time>
      </trkpt>
      <trkpt lat="42.73437" lon="1.49017">
        <ele>1546.2</ele>
        <time>2024-07-08T11:53:20Z</time>
      </trkpt>
      <trkpt lat="42.73446" lon="1.49024">
        <ele>1545</ele>
        <time>2024-07-08T11:53:27Z</time>
      </trkpt>
      <trkpt lat="42.7345" lon="1.49027">
        <ele>1544.8</ele>
        <time>2024-07-08T11:53:33Z</time>
      </trkpt>
      <trkpt lat="42.7345" lon="1.49027">
        <ele>1543.2</ele>
        <time>2024-07-08T11:53:44Z</time>
      </trkpt>
      <trkpt lat="42.73446" lon="1.49024">
        <ele>1542.4</ele>
        <time>2024-07-08T11:53:51Z</time>
      </trkpt>
      <trkpt lat="42.73446" lon="1.49023">
        <ele>1542.8</ele>
        <time>2024-07-08T11:53:59Z</time>
      </trkpt>
      <trkpt lat="42.73445" lon="1.49022">
        <ele>1543.6</ele>
        <time>2024-07-08T11:54:12Z</time>
      </trkpt>
      <trkpt lat="42.73452" lon="1.49024">
        <ele>1544.6</ele>
        <time>2024-07-08T11:54:41Z</time>
      </trkpt>
      <trkpt lat="42.73465" lon="1.49029">
        <ele>1544.2</ele>
        <time>2024-07-08T11:54:52Z</time>
      </trkpt>
      <trkpt lat="42.73465" lon="1.49029">
        <ele>1545</ele>
        <time>2024-07-08T11:55:00Z</time>
      </trkpt>
      <trkpt lat="42.73471" lon="1.49033">
        <ele>1544.8</ele>
        <time>2024-07-08T11:55:06Z</time>
      </trkpt>
      <trkpt lat="42.73482" lon="1.49039">
        <ele>1544.4</ele>
        <time>2024-07-08T11:55:15Z</time>
      </trkpt>
      <trkpt lat="42.73497" lon="1.49045">
        <ele>1542</ele>
        <time>2024-07-08T11:55:25Z</time>
      </trkpt>
      <trkpt lat="42.73505" lon="1.49049">
        <ele>1540.4</ele>
        <time>2024-07-08T11:55:32Z</time>
      </trkpt>
      <trkpt lat="42.73507" lon="1.49049">
        <ele>1540.2</ele>
        <time>2024-07-08T11:55:36Z</time>
      </trkpt>
      <trkpt lat="42.73508" lon="1.49049">
        <ele>1540</ele>
        <time>2024-07-08T11:55:37Z</time>
      </trkpt>
      <trkpt lat="42.73514" lon="1.49054">
        <ele>1539.2</ele>
        <time>2024-07-08T11:55:43Z</time>
      </trkpt>
      <trkpt lat="42.73516" lon="1.49054">
        <ele>1538.2</ele>
        <time>2024-07-08T11:55:48Z</time>
      </trkpt>
      <trkpt lat="42.73522" lon="1.49053">
        <ele>1537.4</ele>
        <time>2024-07-08T11:55:56Z</time>
      </trkpt>
      <trkpt lat="42.73523" lon="1.49053">
        <ele>1536.4</ele>
        <time>2024-07-08T11:56:01Z</time>
      </trkpt>
      <trkpt lat="42.73525" lon="1.49053">
        <ele>1535.6</ele>
        <time>2024-07-08T11:56:08Z</time>
      </trkpt>
      <trkpt lat="42.73531" lon="1.49045">
        <ele>1534.2</ele>
        <time>2024-07-08T11:56:15Z</time>
      </trkpt>
      <trkpt lat="42.73538" lon="1.49038">
        <ele>1533.8</ele>
        <time>2024-07-08T11:56:22Z</time>
      </trkpt>
      <trkpt lat="42.73545" lon="1.49032">
        <ele>1532.6</ele>
        <time>2024-07-08T11:56:28Z</time>
      </trkpt>
      <trkpt lat="42.73561" lon="1.49028">
        <ele>1530.8</ele>
        <time>2024-07-08T11:56:39Z</time>
      </trkpt>
      <trkpt lat="42.73569" lon="1.49028">
        <ele>1528.2</ele>
        <time>2024-07-08T11:56:45Z</time>
      </trkpt>
      <trkpt lat="42.73579" lon="1.49023">
        <ele>1525.4</ele>
        <time>2024-07-08T11:56:53Z</time>
      </trkpt>
      <trkpt lat="42.73589" lon="1.49015">
        <ele>1525</ele>
        <time>2024-07-08T11:57:01Z</time>
      </trkpt>
      <trkpt lat="42.73599" lon="1.49007">
        <ele>1524</ele>
        <time>2024-07-08T11:57:09Z</time>
      </trkpt>
      <trkpt lat="42.73604" lon="1.49004">
        <ele>1523.6</ele>
        <time>2024-07-08T11:57:16Z</time>
      </trkpt>
      <trkpt lat="42.73604" lon="1.49004">
        <ele>1523.6</ele>
        <time>2024-07-08T11:57:31Z</time>
      </trkpt>
      <trkpt lat="42.7361" lon="1.49006">
        <ele>1523.6</ele>
        <time>2024-07-08T11:57:34Z</time>
      </trkpt>
      <trkpt lat="42.73618" lon="1.49012">
        <ele>1523.4</ele>
        <time>2024-07-08T11:57:39Z</time>
      </trkpt>
      <trkpt lat="42.73622" lon="1.49014">
        <ele>1523.4</ele>
        <time>2024-07-08T11:57:41Z</time>
      </trkpt>
      <trkpt lat="42.73631" lon="1.49019">
        <ele>1522.8</ele>
        <time>2024-07-08T11:57:48Z</time>
      </trkpt>
      <trkpt lat="42.73633" lon="1.4902">
        <ele>1522.6</ele>
        <time>2024-07-08T11:57:50Z</time>
      </trkpt>
      <trkpt lat="42.73637" lon="1.49019">
        <ele>1522.2</ele>
        <time>2024-07-08T11:57:53Z</time>
      </trkpt>
      <trkpt lat="42.73641" lon="1.49022">
        <ele>1521.2</ele>
        <time>2024-07-08T11:57:58Z</time>
      </trkpt>
      <trkpt lat="42.73642" lon="1.49022">
        <ele>1521</ele>
        <time>2024-07-08T11:57:59Z</time>
      </trkpt>
      <trkpt lat="42.73642" lon="1.49022">
        <ele>1521.2</ele>
        <time>2024-07-08T11:58:05Z</time>
      </trkpt>
      <trkpt lat="42.7364" lon="1.49021">
        <ele>1522</ele>
        <time>2024-07-08T11:58:12Z</time>
      </trkpt>
      <trkpt lat="42.7364" lon="1.49022">
        <ele>1523</ele>
        <time>2024-07-08T11:58:23Z</time>
      </trkpt>
      <trkpt lat="42.73641" lon="1.4902">
        <ele>1524.4</ele>
        <time>2024-07-08T11:58:31Z</time>
      </trkpt>
      <trkpt lat="42.73646" lon="1.49024">
        <ele>1529.4</ele>
        <time>2024-07-08T11:59:05Z</time>
      </trkpt>
      <trkpt lat="42.73652" lon="1.49029">
        <ele>1528</ele>
        <time>2024-07-08T11:59:09Z</time>
      </trkpt>
      <trkpt lat="42.73655" lon="1.4903">
        <ele>1526.6</ele>
        <time>2024-07-08T11:59:11Z</time>
      </trkpt>
      <trkpt lat="42.73665" lon="1.49031">
        <ele>1521.4</ele>
        <time>2024-07-08T11:59:17Z</time>
      </trkpt>
      <trkpt lat="42.73668" lon="1.49031">
        <ele>1520.4</ele>
        <time>2024-07-08T11:59:19Z</time>
      </trkpt>
      <trkpt lat="42.7368" lon="1.49034">
        <ele>1516.8</ele>
        <time>2024-07-08T11:59:27Z</time>
      </trkpt>
      <trkpt lat="42.73693" lon="1.49043">
        <ele>1516</ele>
        <time>2024-07-08T11:59:36Z</time>
      </trkpt>
      <trkpt lat="42.73695" lon="1.49045">
        <ele>1516</ele>
        <time>2024-07-08T11:59:38Z</time>
      </trkpt>
      <trkpt lat="42.73699" lon="1.49049">
        <ele>1515.8</ele>
        <time>2024-07-08T11:59:42Z</time>
      </trkpt>
      <trkpt lat="42.73699" lon="1.49049">
        <ele>1515.6</ele>
        <time>2024-07-08T11:59:43Z</time>
      </trkpt>
      <trkpt lat="42.73699" lon="1.49048">
        <ele>1515</ele>
        <time>2024-07-08T11:59:46Z</time>
      </trkpt>
      <trkpt lat="42.73697" lon="1.49045">
        <ele>1514</ele>
        <time>2024-07-08T11:59:52Z</time>
      </trkpt>
      <trkpt lat="42.73696" lon="1.49034">
        <ele>1515.6</ele>
        <time>2024-07-08T11:59:58Z</time>
      </trkpt>
      <trkpt lat="42.73697" lon="1.49033">
        <ele>1515.8</ele>
        <time>2024-07-08T11:59:59Z</time>
      </trkpt>
      <trkpt lat="42.73698" lon="1.49028">
        <ele>1515.6</ele>
        <time>2024-07-08T12:00:03Z</time>
      </trkpt>
      <trkpt lat="42.73696" lon="1.49022">
        <ele>1515.2</ele>
        <time>2024-07-08T12:00:07Z</time>
      </trkpt>
      <trkpt lat="42.73698" lon="1.49006">
        <ele>1517</ele>
        <time>2024-07-08T12:00:14Z</time>
      </trkpt>
      <trkpt lat="42.737" lon="1.49001">
        <ele>1517.4</ele>
        <time>2024-07-08T12:00:17Z</time>
      </trkpt>
      <trkpt lat="42.73703" lon="1.48996">
        <ele>1516.8</ele>
        <time>2024-07-08T12:00:20Z</time>
      </trkpt>
      <trkpt lat="42.73707" lon="1.48984">
        <ele>1513.8</ele>
        <time>2024-07-08T12:00:27Z</time>
      </trkpt>
      <trkpt lat="42.73716" lon="1.48974">
        <ele>1511.6</ele>
        <time>2024-07-08T12:00:36Z</time>
      </trkpt>
      <trkpt lat="42.73722" lon="1.48961">
        <ele>1510.4</ele>
        <time>2024-07-08T12:00:44Z</time>
      </trkpt>
      <trkpt lat="42.73725" lon="1.48947">
        <ele>1509</ele>
        <time>2024-07-08T12:00:52Z</time>
      </trkpt>
      <trkpt lat="42.73731" lon="1.48932">
        <ele>1508.2</ele>
        <time>2024-07-08T12:01:00Z</time>
      </trkpt>
      <trkpt lat="42.73736" lon="1.48917">
        <ele>1506.6</ele>
        <time>2024-07-08T12:01:08Z</time>
      </trkpt>
      <trkpt lat="42.73745" lon="1.48909">
        <ele>1506.4</ele>
        <time>2024-07-08T12:01:15Z</time>
      </trkpt>
      <trkpt lat="42.73759" lon="1.48904">
        <ele>1504</ele>
        <time>2024-07-08T12:01:25Z</time>
      </trkpt>
      <trkpt lat="42.73763" lon="1.4889">
        <ele>1501</ele>
        <time>2024-07-08T12:01:33Z</time>
      </trkpt>
      <trkpt lat="42.73767" lon="1.48878">
        <ele>1499.6</ele>
        <time>2024-07-08T12:01:41Z</time>
      </trkpt>
      <trkpt lat="42.7377" lon="1.48869">
        <ele>1498</ele>
        <time>2024-07-08T12:01:47Z</time>
      </trkpt>
      <trkpt lat="42.7377" lon="1.48862">
        <ele>1496.8</ele>
        <time>2024-07-08T12:01:51Z</time>
      </trkpt>
      <trkpt lat="42.73772" lon="1.48857">
        <ele>1496.2</ele>
        <time>2024-07-08T12:01:54Z</time>
      </trkpt>
      <trkpt lat="42.73773" lon="1.48845">
        <ele>1495.2</ele>
        <time>2024-07-08T12:02:01Z</time>
      </trkpt>
      <trkpt lat="42.73771" lon="1.48832">
        <ele>1494.8</ele>
        <time>2024-07-08T12:02:09Z</time>
      </trkpt>
      <trkpt lat="42.7377" lon="1.48831">
        <ele>1494.8</ele>
        <time>2024-07-08T12:02:10Z</time>
      </trkpt>
      <trkpt lat="42.73769" lon="1.48827">
        <ele>1494.6</ele>
        <time>2024-07-08T12:02:14Z</time>
      </trkpt>
      <trkpt lat="42.73768" lon="1.48822">
        <ele>1495</ele>
        <time>2024-07-08T12:02:21Z</time>
      </trkpt>
      <trkpt lat="42.7377" lon="1.48807">
        <ele>1494.8</ele>
        <time>2024-07-08T12:02:28Z</time>
      </trkpt>
      <trkpt lat="42.73771" lon="1.48795">
        <ele>1493.4</ele>
        <time>2024-07-08T12:02:35Z</time>
      </trkpt>
      <trkpt lat="42.73772" lon="1.48777">
        <ele>1491.8</ele>
        <time>2024-07-08T12:02:45Z</time>
      </trkpt>
      <trkpt lat="42.7377" lon="1.48761">
        <ele>1489.8</ele>
        <time>2024-07-08T12:02:53Z</time>
      </trkpt>
      <trkpt lat="42.7377" lon="1.4876">
        <ele>1489.6</ele>
        <time>2024-07-08T12:02:54Z</time>
      </trkpt>
      <trkpt lat="42.73774" lon="1.48757">
        <ele>1488.8</ele>
        <time>2024-07-08T12:02:57Z</time>
      </trkpt>
      <trkpt lat="42.73775" lon="1.48757">
        <ele>1488.6</ele>
        <time>2024-07-08T12:02:58Z</time>
      </trkpt>
      <trkpt lat="42.73785" lon="1.48757">
        <ele>1486.6</ele>
        <time>2024-07-08T12:03:05Z</time>
      </trkpt>
      <trkpt lat="42.73795" lon="1.4876">
        <ele>1484.6</ele>
        <time>2024-07-08T12:03:12Z</time>
      </trkpt>
      <trkpt lat="42.73802" lon="1.48757">
        <ele>1484</ele>
        <time>2024-07-08T12:03:18Z</time>
      </trkpt>
      <trkpt lat="42.73811" lon="1.48749">
        <ele>1484.2</ele>
        <time>2024-07-08T12:03:26Z</time>
      </trkpt>
      <trkpt lat="42.73822" lon="1.48746">
        <ele>1483.4</ele>
        <time>2024-07-08T12:03:34Z</time>
      </trkpt>
      <trkpt lat="42.73832" lon="1.48752">
        <ele>1483.2</ele>
        <time>2024-07-08T12:03:42Z</time>
      </trkpt>
      <trkpt lat="42.73843" lon="1.48757">
        <ele>1483</ele>
        <time>2024-07-08T12:03:50Z</time>
      </trkpt>
      <trkpt lat="42.73855" lon="1.48758">
        <ele>1483.4</ele>
        <time>2024-07-08T12:03:58Z</time>
      </trkpt>
      <trkpt lat="42.73864" lon="1.48757">
        <ele>1484.4</ele>
        <time>2024-07-08T12:04:05Z</time>
      </trkpt>
      <trkpt lat="42.73867" lon="1.48757">
        <ele>1484.4</ele>
        <time>2024-07-08T12:04:09Z</time>
      </trkpt>
      <trkpt lat="42.73868" lon="1.48756">
        <ele>1484.4</ele>
        <time>2024-07-08T12:04:10Z</time>
      </trkpt>
      <trkpt lat="42.73874" lon="1.48742">
        <ele>1483.2</ele>
        <time>2024-07-08T12:04:19Z</time>
      </trkpt>
      <trkpt lat="42.73875" lon="1.48735">
        <ele>1482.8</ele>
        <time>2024-07-08T12:04:23Z</time>
      </trkpt>
      <trkpt lat="42.73874" lon="1.4873">
        <ele>1482.8</ele>
        <time>2024-07-08T12:04:26Z</time>
      </trkpt>
      <trkpt lat="42.73879" lon="1.48719">
        <ele>1482.8</ele>
        <time>2024-07-08T12:04:34Z</time>
      </trkpt>
      <trkpt lat="42.73879" lon="1.48716">
        <ele>1482.2</ele>
        <time>2024-07-08T12:04:36Z</time>
      </trkpt>
      <trkpt lat="42.73882" lon="1.48708">
        <ele>1479.2</ele>
        <time>2024-07-08T12:04:41Z</time>
      </trkpt>
      <trkpt lat="42.73884" lon="1.48692">
        <ele>1477.4</ele>
        <time>2024-07-08T12:04:50Z</time>
      </trkpt>
      <trkpt lat="42.73884" lon="1.48681">
        <ele>1477.8</ele>
        <time>2024-07-08T12:04:56Z</time>
      </trkpt>
      <trkpt lat="42.73887" lon="1.48677">
        <ele>1477.8</ele>
        <time>2024-07-08T12:05:00Z</time>
      </trkpt>
      <trkpt lat="42.73891" lon="1.48673">
        <ele>1477.2</ele>
        <time>2024-07-08T12:05:04Z</time>
      </trkpt>
      <trkpt lat="42.73891" lon="1.48668">
        <ele>1476.6</ele>
        <time>2024-07-08T12:05:07Z</time>
      </trkpt>
      <trkpt lat="42.7389" lon="1.48654">
        <ele>1475.4</ele>
        <time>2024-07-08T12:05:15Z</time>
      </trkpt>
      <trkpt lat="42.73892" lon="1.48636">
        <ele>1475.4</ele>
        <time>2024-07-08T12:05:24Z</time>
      </trkpt>
      <trkpt lat="42.73902" lon="1.48621">
        <ele>1475.2</ele>
        <time>2024-07-08T12:05:35Z</time>
      </trkpt>
      <trkpt lat="42.73915" lon="1.48618">
        <ele>1475</ele>
        <time>2024-07-08T12:05:44Z</time>
      </trkpt>
      <trkpt lat="42.73925" lon="1.48623">
        <ele>1473.6</ele>
        <time>2024-07-08T12:05:52Z</time>
      </trkpt>
      <trkpt lat="42.7393" lon="1.48629">
        <ele>1473.4</ele>
        <time>2024-07-08T12:05:57Z</time>
      </trkpt>
      <trkpt lat="42.73931" lon="1.48631">
        <ele>1473.4</ele>
        <time>2024-07-08T12:05:59Z</time>
      </trkpt>
      <trkpt lat="42.73936" lon="1.48642">
        <ele>1473.8</ele>
        <time>2024-07-08T12:06:06Z</time>
      </trkpt>
      <trkpt lat="42.73941" lon="1.48648">
        <ele>1473.4</ele>
        <time>2024-07-08T12:06:11Z</time>
      </trkpt>
      <trkpt lat="42.73944" lon="1.48651">
        <ele>1473.2</ele>
        <time>2024-07-08T12:06:13Z</time>
      </trkpt>
      <trkpt lat="42.73953" lon="1.48659">
        <ele>1472</ele>
        <time>2024-07-08T12:06:20Z</time>
      </trkpt>
      <trkpt lat="42.73954" lon="1.4866">
        <ele>1471.6</ele>
        <time>2024-07-08T12:06:21Z</time>
      </trkpt>
      <trkpt lat="42.73962" lon="1.48671">
        <ele>1468.6</ele>
        <time>2024-07-08T12:06:28Z</time>
      </trkpt>
      <trkpt lat="42.73973" lon="1.48678">
        <ele>1468.4</ele>
        <time>2024-07-08T12:06:36Z</time>
      </trkpt>
      <trkpt lat="42.73975" lon="1.48681">
        <ele>1469</ele>
        <time>2024-07-08T12:06:38Z</time>
      </trkpt>
      <trkpt lat="42.73981" lon="1.48685">
        <ele>1470</ele>
        <time>2024-07-08T12:06:41Z</time>
      </trkpt>
      <trkpt lat="42.73984" lon="1.48693">
        <ele>1472</ele>
        <time>2024-07-08T12:06:46Z</time>
      </trkpt>
      <trkpt lat="42.73986" lon="1.48695">
        <ele>1472.6</ele>
        <time>2024-07-08T12:06:48Z</time>
      </trkpt>
      <trkpt lat="42.73994" lon="1.48703">
        <ele>1474.4</ele>
        <time>2024-07-08T12:06:55Z</time>
      </trkpt>
      <trkpt lat="42.73994" lon="1.48704">
        <ele>1474.4</ele>
        <time>2024-07-08T12:06:56Z</time>
      </trkpt>
      <trkpt lat="42.73998" lon="1.4871">
        <ele>1473</ele>
        <time>2024-07-08T12:07:01Z</time>
      </trkpt>
      <trkpt lat="42.74006" lon="1.48715">
        <ele>1471.6</ele>
        <time>2024-07-08T12:07:07Z</time>
      </trkpt>
      <trkpt lat="42.74006" lon="1.48717">
        <ele>1471.4</ele>
        <time>2024-07-08T12:07:08Z</time>
      </trkpt>
      <trkpt lat="42.74008" lon="1.4872">
        <ele>1471</ele>
        <time>2024-07-08T12:07:10Z</time>
      </trkpt>
      <trkpt lat="42.74012" lon="1.48725">
        <ele>1469</ele>
        <time>2024-07-08T12:07:14Z</time>
      </trkpt>
      <trkpt lat="42.74013" lon="1.48726">
        <ele>1468.4</ele>
        <time>2024-07-08T12:07:15Z</time>
      </trkpt>
      <trkpt lat="42.74019" lon="1.48738">
        <ele>1465.8</ele>
        <time>2024-07-08T12:07:21Z</time>
      </trkpt>
      <trkpt lat="42.74028" lon="1.48748">
        <ele>1462.8</ele>
        <time>2024-07-08T12:07:28Z</time>
      </trkpt>
      <trkpt lat="42.74033" lon="1.48745">
        <ele>1460.8</ele>
        <time>2024-07-08T12:07:34Z</time>
      </trkpt>
      <trkpt lat="42.74041" lon="1.48737">
        <ele>1459.8</ele>
        <time>2024-07-08T12:07:41Z</time>
      </trkpt>
      <trkpt lat="42.74047" lon="1.48736">
        <ele>1459</ele>
        <time>2024-07-08T12:07:47Z</time>
      </trkpt>
      <trkpt lat="42.7405" lon="1.4873">
        <ele>1457.6</ele>
        <time>2024-07-08T12:07:53Z</time>
      </trkpt>
      <trkpt lat="42.74056" lon="1.48721">
        <ele>1454.4</ele>
        <time>2024-07-08T12:08:00Z</time>
      </trkpt>
      <trkpt lat="42.74058" lon="1.4872">
        <ele>1454.2</ele>
        <time>2024-07-08T12:08:01Z</time>
      </trkpt>
      <trkpt lat="42.74062" lon="1.48712">
        <ele>1454.8</ele>
        <time>2024-07-08T12:08:06Z</time>
      </trkpt>
      <trkpt lat="42.74067" lon="1.48699">
        <ele>1455.2</ele>
        <time>2024-07-08T12:08:17Z</time>
      </trkpt>
      <trkpt lat="42.74077" lon="1.48691">
        <ele>1452.4</ele>
        <time>2024-07-08T12:08:25Z</time>
      </trkpt>
      <trkpt lat="42.7408" lon="1.4869">
        <ele>1452</ele>
        <time>2024-07-08T12:08:28Z</time>
      </trkpt>
      <trkpt lat="42.74083" lon="1.48683">
        <ele>1451.8</ele>
        <time>2024-07-08T12:08:31Z</time>
      </trkpt>
      <trkpt lat="42.74087" lon="1.48677">
        <ele>1451.4</ele>
        <time>2024-07-08T12:08:35Z</time>
      </trkpt>
      <trkpt lat="42.74089" lon="1.48678">
        <ele>1451.4</ele>
        <time>2024-07-08T12:08:37Z</time>
      </trkpt>
      <trkpt lat="42.7409" lon="1.4868">
        <ele>1451.4</ele>
        <time>2024-07-08T12:08:38Z</time>
      </trkpt>
      <trkpt lat="42.74092" lon="1.48683">
        <ele>1451.4</ele>
        <time>2024-07-08T12:08:41Z</time>
      </trkpt>
      <trkpt lat="42.74094" lon="1.48686">
        <ele>1451.8</ele>
        <time>2024-07-08T12:08:43Z</time>
      </trkpt>
      <trkpt lat="42.74098" lon="1.48692">
        <ele>1452.6</ele>
        <time>2024-07-08T12:08:47Z</time>
      </trkpt>
      <trkpt lat="42.74099" lon="1.48693">
        <ele>1453</ele>
        <time>2024-07-08T12:08:49Z</time>
      </trkpt>
      <trkpt lat="42.74102" lon="1.48694">
        <ele>1453.2</ele>
        <time>2024-07-08T12:08:51Z</time>
      </trkpt>
      <trkpt lat="42.74104" lon="1.48697">
        <ele>1453.4</ele>
        <time>2024-07-08T12:08:53Z</time>
      </trkpt>
      <trkpt lat="42.74105" lon="1.48698">
        <ele>1453.6</ele>
        <time>2024-07-08T12:08:54Z</time>
      </trkpt>
      <trkpt lat="42.74109" lon="1.48702">
        <ele>1455</ele>
        <time>2024-07-08T12:08:58Z</time>
      </trkpt>
      <trkpt lat="42.7411" lon="1.48703">
        <ele>1455.4</ele>
        <time>2024-07-08T12:08:59Z</time>
      </trkpt>
      <trkpt lat="42.74111" lon="1.48706">
        <ele>1455.6</ele>
        <time>2024-07-08T12:09:01Z</time>
      </trkpt>
      <trkpt lat="42.74112" lon="1.48707">
        <ele>1455.6</ele>
        <time>2024-07-08T12:09:02Z</time>
      </trkpt>
      <trkpt lat="42.74119" lon="1.48715">
        <ele>1455.8</ele>
        <time>2024-07-08T12:09:09Z</time>
      </trkpt>
      <trkpt lat="42.74119" lon="1.48716">
        <ele>1456</ele>
        <time>2024-07-08T12:09:10Z</time>
      </trkpt>
      <trkpt lat="42.74121" lon="1.48717">
        <ele>1456.2</ele>
        <time>2024-07-08T12:09:11Z</time>
      </trkpt>
      <trkpt lat="42.7412" lon="1.48719">
        <ele>1457.8</ele>
        <time>2024-07-08T12:09:14Z</time>
      </trkpt>
      <trkpt lat="42.74123" lon="1.48719">
        <ele>1459</ele>
        <time>2024-07-08T12:09:17Z</time>
      </trkpt>
      <trkpt lat="42.74127" lon="1.48719">
        <ele>1459.4</ele>
        <time>2024-07-08T12:09:19Z</time>
      </trkpt>
      <trkpt lat="42.74133" lon="1.4872">
        <ele>1459.6</ele>
        <time>2024-07-08T12:09:22Z</time>
      </trkpt>
      <trkpt lat="42.74132" lon="1.48719">
        <ele>1459.8</ele>
        <time>2024-07-08T12:09:24Z</time>
      </trkpt>
      <trkpt lat="42.7413" lon="1.48718">
        <ele>1459.8</ele>
        <time>2024-07-08T12:09:26Z</time>
      </trkpt>
      <trkpt lat="42.74129" lon="1.48715">
        <ele>1459.2</ele>
        <time>2024-07-08T12:09:28Z</time>
      </trkpt>
      <trkpt lat="42.74128" lon="1.48714">
        <ele>1459</ele>
        <time>2024-07-08T12:09:29Z</time>
      </trkpt>
      <trkpt lat="42.74126" lon="1.48704">
        <ele>1457.6</ele>
        <time>2024-07-08T12:09:35Z</time>
      </trkpt>
      <trkpt lat="42.74125" lon="1.4869">
        <ele>1454.4</ele>
        <time>2024-07-08T12:09:43Z</time>
      </trkpt>
      <trkpt lat="42.74129" lon="1.48675">
        <ele>1453.4</ele>
        <time>2024-07-08T12:09:50Z</time>
      </trkpt>
      <trkpt lat="42.74131" lon="1.48673">
        <ele>1453.2</ele>
        <time>2024-07-08T12:09:52Z</time>
      </trkpt>
      <trkpt lat="42.74135" lon="1.48667">
        <ele>1452.8</ele>
        <time>2024-07-08T12:09:55Z</time>
      </trkpt>
      <trkpt lat="42.74146" lon="1.48655">
        <ele>1448</ele>
        <time>2024-07-08T12:10:02Z</time>
      </trkpt>
      <trkpt lat="42.74154" lon="1.48647">
        <ele>1443.2</ele>
        <time>2024-07-08T12:10:09Z</time>
      </trkpt>
      <trkpt lat="42.74163" lon="1.48637">
        <ele>1438.6</ele>
        <time>2024-07-08T12:10:17Z</time>
      </trkpt>
      <trkpt lat="42.74171" lon="1.48622">
        <ele>1434.2</ele>
        <time>2024-07-08T12:10:28Z</time>
      </trkpt>
      <trkpt lat="42.74181" lon="1.4861">
        <ele>1432.6</ele>
        <time>2024-07-08T12:10:36Z</time>
      </trkpt>
      <trkpt lat="42.74186" lon="1.486">
        <ele>1430.2</ele>
        <time>2024-07-08T12:10:43Z</time>
      </trkpt>
      <trkpt lat="42.74187" lon="1.48598">
        <ele>1429.8</ele>
        <time>2024-07-08T12:10:44Z</time>
      </trkpt>
      <trkpt lat="42.74188" lon="1.48586">
        <ele>1427.4</ele>
        <time>2024-07-08T12:10:50Z</time>
      </trkpt>
      <trkpt lat="42.74192" lon="1.48567">
        <ele>1427.6</ele>
        <time>2024-07-08T12:11:00Z</time>
      </trkpt>
      <trkpt lat="42.74197" lon="1.48551">
        <ele>1428</ele>
        <time>2024-07-08T12:11:09Z</time>
      </trkpt>
      <trkpt lat="42.74199" lon="1.48538">
        <ele>1428</ele>
        <time>2024-07-08T12:11:17Z</time>
      </trkpt>
      <trkpt lat="42.74201" lon="1.48522">
        <ele>1427.8</ele>
        <time>2024-07-08T12:11:25Z</time>
      </trkpt>
      <trkpt lat="42.74202" lon="1.48505">
        <ele>1428.2</ele>
        <time>2024-07-08T12:11:35Z</time>
      </trkpt>
      <trkpt lat="42.74208" lon="1.48496">
        <ele>1428.8</ele>
        <time>2024-07-08T12:11:41Z</time>
      </trkpt>
      <trkpt lat="42.74212" lon="1.48489">
        <ele>1429.6</ele>
        <time>2024-07-08T12:11:47Z</time>
      </trkpt>
      <trkpt lat="42.74213" lon="1.48487">
        <ele>1429.6</ele>
        <time>2024-07-08T12:11:48Z</time>
      </trkpt>
      <trkpt lat="42.74218" lon="1.48478">
        <ele>1429.8</ele>
        <time>2024-07-08T12:11:57Z</time>
      </trkpt>
      <trkpt lat="42.74218" lon="1.48478">
        <ele>1430.2</ele>
        <time>2024-07-08T12:12:26Z</time>
      </trkpt>
      <trkpt lat="42.74224" lon="1.4847">
        <ele>1435</ele>
        <time>2024-07-08T12:14:15Z</time>
      </trkpt>
      <trkpt lat="42.74232" lon="1.48455">
        <ele>1433</ele>
        <time>2024-07-08T12:14:24Z</time>
      </trkpt>
      <trkpt lat="42.74237" lon="1.48436">
        <ele>1431.2</ele>
        <time>2024-07-08T12:14:35Z</time>
      </trkpt>
      <trkpt lat="42.74244" lon="1.48423">
        <ele>1428.8</ele>
        <time>2024-07-08T12:14:44Z</time>
      </trkpt>
      <trkpt lat="42.74245" lon="1.48422">
        <ele>1428.6</ele>
        <time>2024-07-08T12:14:45Z</time>
      </trkpt>
      <trkpt lat="42.74254" lon="1.4841">
        <ele>1428.4</ele>
        <time>2024-07-08T12:14:54Z</time>
      </trkpt>
      <trkpt lat="42.74266" lon="1.48406">
        <ele>1428.4</ele>
        <time>2024-07-08T12:15:02Z</time>
      </trkpt>
      <trkpt lat="42.74277" lon="1.48404">
        <ele>1428</ele>
        <time>2024-07-08T12:15:10Z</time>
      </trkpt>
      <trkpt lat="42.7429" lon="1.48406">
        <ele>1427.6</ele>
        <time>2024-07-08T12:15:20Z</time>
      </trkpt>
      <trkpt lat="42.74299" lon="1.48398">
        <ele>1428.2</ele>
        <time>2024-07-08T12:15:28Z</time>
      </trkpt>
      <trkpt lat="42.74306" lon="1.48387">
        <ele>1429.2</ele>
        <time>2024-07-08T12:15:37Z</time>
      </trkpt>
      <trkpt lat="42.7431" lon="1.48382">
        <ele>1429</ele>
        <time>2024-07-08T12:15:41Z</time>
      </trkpt>
      <trkpt lat="42.74316" lon="1.48383">
        <ele>1428.8</ele>
        <time>2024-07-08T12:15:45Z</time>
      </trkpt>
      <trkpt lat="42.74323" lon="1.48393">
        <ele>1427.8</ele>
        <time>2024-07-08T12:15:52Z</time>
      </trkpt>
      <trkpt lat="42.74328" lon="1.48401">
        <ele>1426.8</ele>
        <time>2024-07-08T12:15:58Z</time>
      </trkpt>
      <trkpt lat="42.74332" lon="1.48417">
        <ele>1427.4</ele>
        <time>2024-07-08T12:16:07Z</time>
      </trkpt>
      <trkpt lat="42.74335" lon="1.48433">
        <ele>1428.8</ele>
        <time>2024-07-08T12:16:14Z</time>
      </trkpt>
      <trkpt lat="42.74337" lon="1.48446">
        <ele>1427.4</ele>
        <time>2024-07-08T12:16:21Z</time>
      </trkpt>
      <trkpt lat="42.74337" lon="1.48457">
        <ele>1425.8</ele>
        <time>2024-07-08T12:16:27Z</time>
      </trkpt>
      <trkpt lat="42.74337" lon="1.48459">
        <ele>1425.4</ele>
        <time>2024-07-08T12:16:28Z</time>
      </trkpt>
      <trkpt lat="42.74337" lon="1.48461">
        <ele>1425.4</ele>
        <time>2024-07-08T12:16:29Z</time>
      </trkpt>
      <trkpt lat="42.74338" lon="1.48472">
        <ele>1424.4</ele>
        <time>2024-07-08T12:16:34Z</time>
      </trkpt>
      <trkpt lat="42.74341" lon="1.4847">
        <ele>1423.6</ele>
        <time>2024-07-08T12:16:39Z</time>
      </trkpt>
      <trkpt lat="42.74353" lon="1.48459">
        <ele>1423.6</ele>
        <time>2024-07-08T12:16:48Z</time>
      </trkpt>
      <trkpt lat="42.74367" lon="1.48453">
        <ele>1426.4</ele>
        <time>2024-07-08T12:16:58Z</time>
      </trkpt>
      <trkpt lat="42.74379" lon="1.48451">
        <ele>1427.2</ele>
        <time>2024-07-08T12:17:07Z</time>
      </trkpt>
      <trkpt lat="42.74387" lon="1.48454">
        <ele>1425.6</ele>
        <time>2024-07-08T12:17:14Z</time>
      </trkpt>
      <trkpt lat="42.74395" lon="1.48465">
        <ele>1425</ele>
        <time>2024-07-08T12:17:23Z</time>
      </trkpt>
      <trkpt lat="42.74397" lon="1.48467">
        <ele>1425</ele>
        <time>2024-07-08T12:17:25Z</time>
      </trkpt>
      <trkpt lat="42.74402" lon="1.4847">
        <ele>1425.2</ele>
        <time>2024-07-08T12:17:29Z</time>
      </trkpt>
      <trkpt lat="42.74411" lon="1.48477">
        <ele>1426.6</ele>
        <time>2024-07-08T12:17:38Z</time>
      </trkpt>
      <trkpt lat="42.74424" lon="1.48484">
        <ele>1425.8</ele>
        <time>2024-07-08T12:17:47Z</time>
      </trkpt>
      <trkpt lat="42.74426" lon="1.48484">
        <ele>1425.8</ele>
        <time>2024-07-08T12:17:48Z</time>
      </trkpt>
      <trkpt lat="42.7443" lon="1.48481">
        <ele>1425.8</ele>
        <time>2024-07-08T12:17:51Z</time>
      </trkpt>
      <trkpt lat="42.74439" lon="1.48473">
        <ele>1427.4</ele>
        <time>2024-07-08T12:18:00Z</time>
      </trkpt>
      <trkpt lat="42.7445" lon="1.48461">
        <ele>1426.2</ele>
        <time>2024-07-08T12:18:09Z</time>
      </trkpt>
      <trkpt lat="42.74463" lon="1.48448">
        <ele>1425.2</ele>
        <time>2024-07-08T12:18:21Z</time>
      </trkpt>
      <trkpt lat="42.74473" lon="1.4845">
        <ele>1425.8</ele>
        <time>2024-07-08T12:18:28Z</time>
      </trkpt>
      <trkpt lat="42.74483" lon="1.48451">
        <ele>1426</ele>
        <time>2024-07-08T12:18:36Z</time>
      </trkpt>
      <trkpt lat="42.74495" lon="1.48445">
        <ele>1427.2</ele>
        <time>2024-07-08T12:18:46Z</time>
      </trkpt>
      <trkpt lat="42.74497" lon="1.48445">
        <ele>1427.6</ele>
        <time>2024-07-08T12:18:48Z</time>
      </trkpt>
      <trkpt lat="42.74502" lon="1.48446">
        <ele>1428.2</ele>
        <time>2024-07-08T12:18:52Z</time>
      </trkpt>
      <trkpt lat="42.74512" lon="1.48438">
        <ele>1427.8</ele>
        <time>2024-07-08T12:19:00Z</time>
      </trkpt>
      <trkpt lat="42.74524" lon="1.48429">
        <ele>1427.2</ele>
        <time>2024-07-08T12:19:10Z</time>
      </trkpt>
      <trkpt lat="42.74535" lon="1.48429">
        <ele>1426.2</ele>
        <time>2024-07-08T12:19:18Z</time>
      </trkpt>
      <trkpt lat="42.74541" lon="1.48431">
        <ele>1425.8</ele>
        <time>2024-07-08T12:19:23Z</time>
      </trkpt>
      <trkpt lat="42.74544" lon="1.48432">
        <ele>1425.4</ele>
        <time>2024-07-08T12:19:25Z</time>
      </trkpt>
      <trkpt lat="42.7455" lon="1.4844">
        <ele>1424</ele>
        <time>2024-07-08T12:19:31Z</time>
      </trkpt>
      <trkpt lat="42.74551" lon="1.48441">
        <ele>1423.8</ele>
        <time>2024-07-08T12:19:32Z</time>
      </trkpt>
      <trkpt lat="42.74556" lon="1.4844">
        <ele>1423.6</ele>
        <time>2024-07-08T12:19:35Z</time>
      </trkpt>
      <trkpt lat="42.74558" lon="1.48444">
        <ele>1424.6</ele>
        <time>2024-07-08T12:19:38Z</time>
      </trkpt>
      <trkpt lat="42.74559" lon="1.48445">
        <ele>1425.4</ele>
        <time>2024-07-08T12:19:39Z</time>
      </trkpt>
      <trkpt lat="42.74574" lon="1.48449">
        <ele>1429.2</ele>
        <time>2024-07-08T12:19:48Z</time>
      </trkpt>
      <trkpt lat="42.74575" lon="1.4845">
        <ele>1429.4</ele>
        <time>2024-07-08T12:19:49Z</time>
      </trkpt>
      <trkpt lat="42.74577" lon="1.4845">
        <ele>1430.6</ele>
        <time>2024-07-08T12:19:52Z</time>
      </trkpt>
      <trkpt lat="42.7458" lon="1.4845">
        <ele>1431.4</ele>
        <time>2024-07-08T12:19:54Z</time>
      </trkpt>
      <trkpt lat="42.7459" lon="1.48459">
        <ele>1432</ele>
        <time>2024-07-08T12:20:01Z</time>
      </trkpt>
      <trkpt lat="42.74592" lon="1.48458">
        <ele>1431.8</ele>
        <time>2024-07-08T12:20:04Z</time>
      </trkpt>
      <trkpt lat="42.74597" lon="1.48456">
        <ele>1431.6</ele>
        <time>2024-07-08T12:20:08Z</time>
      </trkpt>
      <trkpt lat="42.74609" lon="1.4845">
        <ele>1429.6</ele>
        <time>2024-07-08T12:20:17Z</time>
      </trkpt>
      <trkpt lat="42.74614" lon="1.48444">
        <ele>1426.2</ele>
        <time>2024-07-08T12:20:23Z</time>
      </trkpt>
      <trkpt lat="42.74618" lon="1.48441">
        <ele>1425.2</ele>
        <time>2024-07-08T12:20:26Z</time>
      </trkpt>
      <trkpt lat="42.74622" lon="1.48436">
        <ele>1424</ele>
        <time>2024-07-08T12:20:30Z</time>
      </trkpt>
      <trkpt lat="42.74628" lon="1.4843">
        <ele>1423.8</ele>
        <time>2024-07-08T12:20:36Z</time>
      </trkpt>
      <trkpt lat="42.74631" lon="1.48425">
        <ele>1423</ele>
        <time>2024-07-08T12:20:40Z</time>
      </trkpt>
      <trkpt lat="42.74632" lon="1.48421">
        <ele>1421.8</ele>
        <time>2024-07-08T12:20:42Z</time>
      </trkpt>
      <trkpt lat="42.74633" lon="1.48412">
        <ele>1420.6</ele>
        <time>2024-07-08T12:20:46Z</time>
      </trkpt>
      <trkpt lat="42.74634" lon="1.4841">
        <ele>1420.6</ele>
        <time>2024-07-08T12:20:48Z</time>
      </trkpt>
      <trkpt lat="42.74634" lon="1.48408">
        <ele>1421</ele>
        <time>2024-07-08T12:20:49Z</time>
      </trkpt>
      <trkpt lat="42.74638" lon="1.48402">
        <ele>1423.4</ele>
        <time>2024-07-08T12:20:53Z</time>
      </trkpt>
      <trkpt lat="42.74645" lon="1.48397">
        <ele>1424.8</ele>
        <time>2024-07-08T12:20:59Z</time>
      </trkpt>
      <trkpt lat="42.74647" lon="1.48396">
        <ele>1424.8</ele>
        <time>2024-07-08T12:21:01Z</time>
      </trkpt>
      <trkpt lat="42.74648" lon="1.48397">
        <ele>1424.8</ele>
        <time>2024-07-08T12:21:02Z</time>
      </trkpt>
      <trkpt lat="42.74652" lon="1.48402">
        <ele>1425</ele>
        <time>2024-07-08T12:21:06Z</time>
      </trkpt>
      <trkpt lat="42.74657" lon="1.48401">
        <ele>1427.2</ele>
        <time>2024-07-08T12:21:13Z</time>
      </trkpt>
      <trkpt lat="42.74664" lon="1.48411">
        <ele>1434.4</ele>
        <time>2024-07-08T12:21:20Z</time>
      </trkpt>
      <trkpt lat="42.74666" lon="1.48412">
        <ele>1434.8</ele>
        <time>2024-07-08T12:21:21Z</time>
      </trkpt>
      <trkpt lat="42.74673" lon="1.48415">
        <ele>1435</ele>
        <time>2024-07-08T12:21:26Z</time>
      </trkpt>
      <trkpt lat="42.74673" lon="1.48414">
        <ele>1434.4</ele>
        <time>2024-07-08T12:21:27Z</time>
      </trkpt>
      <trkpt lat="42.74673" lon="1.484">
        <ele>1429.6</ele>
        <time>2024-07-08T12:21:36Z</time>
      </trkpt>
      <trkpt lat="42.74678" lon="1.48383">
        <ele>1427.8</ele>
        <time>2024-07-08T12:21:45Z</time>
      </trkpt>
      <trkpt lat="42.74681" lon="1.48371">
        <ele>1426.8</ele>
        <time>2024-07-08T12:21:53Z</time>
      </trkpt>
      <trkpt lat="42.74686" lon="1.4836">
        <ele>1425.6</ele>
        <time>2024-07-08T12:22:00Z</time>
      </trkpt>
      <trkpt lat="42.74692" lon="1.48345">
        <ele>1425</ele>
        <time>2024-07-08T12:22:09Z</time>
      </trkpt>
      <trkpt lat="42.74695" lon="1.48335">
        <ele>1425</ele>
        <time>2024-07-08T12:22:16Z</time>
      </trkpt>
      <trkpt lat="42.74704" lon="1.48326">
        <ele>1424.6</ele>
        <time>2024-07-08T12:22:25Z</time>
      </trkpt>
      <trkpt lat="42.74714" lon="1.48329">
        <ele>1423.6</ele>
        <time>2024-07-08T12:22:32Z</time>
      </trkpt>
      <trkpt lat="42.74723" lon="1.48331">
        <ele>1423.6</ele>
        <time>2024-07-08T12:22:39Z</time>
      </trkpt>
      <trkpt lat="42.74736" lon="1.48335">
        <ele>1424.2</ele>
        <time>2024-07-08T12:22:48Z</time>
      </trkpt>
      <trkpt lat="42.74745" lon="1.48337">
        <ele>1423.6</ele>
        <time>2024-07-08T12:22:55Z</time>
      </trkpt>
      <trkpt lat="42.74747" lon="1.48337">
        <ele>1423.4</ele>
        <time>2024-07-08T12:22:57Z</time>
      </trkpt>
      <trkpt lat="42.74753" lon="1.48336">
        <ele>1423</ele>
        <time>2024-07-08T12:23:01Z</time>
      </trkpt>
      <trkpt lat="42.74767" lon="1.4834">
        <ele>1422</ele>
        <time>2024-07-08T12:23:11Z</time>
      </trkpt>
      <trkpt lat="42.74773" lon="1.48348">
        <ele>1423</ele>
        <time>2024-07-08T12:23:18Z</time>
      </trkpt>
      <trkpt lat="42.74774" lon="1.48349">
        <ele>1423.4</ele>
        <time>2024-07-08T12:23:19Z</time>
      </trkpt>
      <trkpt lat="42.74778" lon="1.48351">
        <ele>1424</ele>
        <time>2024-07-08T12:23:22Z</time>
      </trkpt>
      <trkpt lat="42.74779" lon="1.48351">
        <ele>1424</ele>
        <time>2024-07-08T12:23:23Z</time>
      </trkpt>
      <trkpt lat="42.74783" lon="1.48351">
        <ele>1424.6</ele>
        <time>2024-07-08T12:23:26Z</time>
      </trkpt>
      <trkpt lat="42.74787" lon="1.48352">
        <ele>1424.8</ele>
        <time>2024-07-08T12:23:29Z</time>
      </trkpt>
      <trkpt lat="42.74791" lon="1.48351">
        <ele>1425.2</ele>
        <time>2024-07-08T12:23:32Z</time>
      </trkpt>
      <trkpt lat="42.74796" lon="1.48351">
        <ele>1425.2</ele>
        <time>2024-07-08T12:23:35Z</time>
      </trkpt>
      <trkpt lat="42.74808" lon="1.48349">
        <ele>1423</ele>
        <time>2024-07-08T12:23:43Z</time>
      </trkpt>
      <trkpt lat="42.74814" lon="1.48356">
        <ele>1421.8</ele>
        <time>2024-07-08T12:23:49Z</time>
      </trkpt>
      <trkpt lat="42.74817" lon="1.48361">
        <ele>1421.2</ele>
        <time>2024-07-08T12:23:53Z</time>
      </trkpt>
      <trkpt lat="42.74823" lon="1.48364">
        <ele>1420.8</ele>
        <time>2024-07-08T12:23:58Z</time>
      </trkpt>
      <trkpt lat="42.74831" lon="1.48371">
        <ele>1422.2</ele>
        <time>2024-07-08T12:24:04Z</time>
      </trkpt>
      <trkpt lat="42.74832" lon="1.48371">
        <ele>1422.6</ele>
        <time>2024-07-08T12:24:05Z</time>
      </trkpt>
      <trkpt lat="42.74835" lon="1.48372">
        <ele>1423.6</ele>
        <time>2024-07-08T12:24:08Z</time>
      </trkpt>
      <trkpt lat="42.74837" lon="1.48372">
        <ele>1424.6</ele>
        <time>2024-07-08T12:24:10Z</time>
      </trkpt>
      <trkpt lat="42.74847" lon="1.48381">
        <ele>1428.8</ele>
        <time>2024-07-08T12:24:17Z</time>
      </trkpt>
      <trkpt lat="42.74856" lon="1.48388">
        <ele>1432.2</ele>
        <time>2024-07-08T12:24:25Z</time>
      </trkpt>
      <trkpt lat="42.74866" lon="1.48396">
        <ele>1434</ele>
        <time>2024-07-08T12:24:33Z</time>
      </trkpt>
      <trkpt lat="42.74869" lon="1.48399">
        <ele>1434</ele>
        <time>2024-07-08T12:24:36Z</time>
      </trkpt>
      <trkpt lat="42.74872" lon="1.48399">
        <ele>1434.6</ele>
        <time>2024-07-08T12:24:39Z</time>
      </trkpt>
      <trkpt lat="42.74873" lon="1.484">
        <ele>1434.8</ele>
        <time>2024-07-08T12:24:40Z</time>
      </trkpt>
      <trkpt lat="42.74884" lon="1.4841">
        <ele>1435.8</ele>
        <time>2024-07-08T12:24:49Z</time>
      </trkpt>
      <trkpt lat="42.74886" lon="1.48413">
        <ele>1435.8</ele>
        <time>2024-07-08T12:24:51Z</time>
      </trkpt>
      <trkpt lat="42.74891" lon="1.48421">
        <ele>1436</ele>
        <time>2024-07-08T12:24:56Z</time>
      </trkpt>
      <trkpt lat="42.74892" lon="1.48421">
        <ele>1436</ele>
        <time>2024-07-08T12:24:57Z</time>
      </trkpt>
      <trkpt lat="42.74898" lon="1.48421">
        <ele>1434.2</ele>
        <time>2024-07-08T12:25:02Z</time>
      </trkpt>
      <trkpt lat="42.7491" lon="1.48424">
        <ele>1428.8</ele>
        <time>2024-07-08T12:25:12Z</time>
      </trkpt>
      <trkpt lat="42.74915" lon="1.48421">
        <ele>1426.8</ele>
        <time>2024-07-08T12:25:17Z</time>
      </trkpt>
      <trkpt lat="42.74917" lon="1.48421">
        <ele>1426.6</ele>
        <time>2024-07-08T12:25:18Z</time>
      </trkpt>
      <trkpt lat="42.74921" lon="1.48419">
        <ele>1426.2</ele>
        <time>2024-07-08T12:25:21Z</time>
      </trkpt>
      <trkpt lat="42.74926" lon="1.4842">
        <ele>1425.8</ele>
        <time>2024-07-08T12:25:24Z</time>
      </trkpt>
      <trkpt lat="42.74927" lon="1.4842">
        <ele>1425.8</ele>
        <time>2024-07-08T12:25:25Z</time>
      </trkpt>
      <trkpt lat="42.74941" lon="1.48419">
        <ele>1424.8</ele>
        <time>2024-07-08T12:25:35Z</time>
      </trkpt>
      <trkpt lat="42.74955" lon="1.48431">
        <ele>1425</ele>
        <time>2024-07-08T12:25:43Z</time>
      </trkpt>
      <trkpt lat="42.7497" lon="1.4843">
        <ele>1426</ele>
        <time>2024-07-08T12:25:52Z</time>
      </trkpt>
      <trkpt lat="42.74978" lon="1.48431">
        <ele>1429.2</ele>
        <time>2024-07-08T12:26:00Z</time>
      </trkpt>
      <trkpt lat="42.74989" lon="1.48429">
        <ele>1428.8</ele>
        <time>2024-07-08T12:26:07Z</time>
      </trkpt>
      <trkpt lat="42.74997" lon="1.48433">
        <ele>1431</ele>
        <time>2024-07-08T12:26:15Z</time>
      </trkpt>
      <trkpt lat="42.75003" lon="1.48439">
        <ele>1432.4</ele>
        <time>2024-07-08T12:26:21Z</time>
      </trkpt>
      <trkpt lat="42.75004" lon="1.48441">
        <ele>1432.6</ele>
        <time>2024-07-08T12:26:23Z</time>
      </trkpt>
      <trkpt lat="42.7501" lon="1.48449">
        <ele>1430.2</ele>
        <time>2024-07-08T12:26:32Z</time>
      </trkpt>
      <trkpt lat="42.75008" lon="1.48449">
        <ele>1429.2</ele>
        <time>2024-07-08T12:26:38Z</time>
      </trkpt>
      <trkpt lat="42.75008" lon="1.48449">
        <ele>1428</ele>
        <time>2024-07-08T12:26:43Z</time>
      </trkpt>
      <trkpt lat="42.75011" lon="1.48456">
        <ele>1427</ele>
        <time>2024-07-08T12:28:06Z</time>
      </trkpt>
      <trkpt lat="42.75014" lon="1.48458">
        <ele>1427</ele>
        <time>2024-07-08T12:28:08Z</time>
      </trkpt>
      <trkpt lat="42.75021" lon="1.48465">
        <ele>1427.4</ele>
        <time>2024-07-08T12:28:12Z</time>
      </trkpt>
      <trkpt lat="42.75031" lon="1.48474">
        <ele>1428.8</ele>
        <time>2024-07-08T12:28:19Z</time>
      </trkpt>
      <trkpt lat="42.75035" lon="1.4848">
        <ele>1431</ele>
        <time>2024-07-08T12:28:25Z</time>
      </trkpt>
      <trkpt lat="42.7504" lon="1.48486">
        <ele>1433.2</ele>
        <time>2024-07-08T12:28:31Z</time>
      </trkpt>
      <trkpt lat="42.75052" lon="1.48497">
        <ele>1435.6</ele>
        <time>2024-07-08T12:28:39Z</time>
      </trkpt>
      <trkpt lat="42.75058" lon="1.48504">
        <ele>1435.6</ele>
        <time>2024-07-08T12:28:45Z</time>
      </trkpt>
      <trkpt lat="42.75058" lon="1.48504">
        <ele>1435.6</ele>
        <time>2024-07-08T12:28:46Z</time>
      </trkpt>
      <trkpt lat="42.7506" lon="1.48507">
        <ele>1436.2</ele>
        <time>2024-07-08T12:28:49Z</time>
      </trkpt>
      <trkpt lat="42.75062" lon="1.48511">
        <ele>1436.2</ele>
        <time>2024-07-08T12:28:51Z</time>
      </trkpt>
      <trkpt lat="42.75068" lon="1.48521">
        <ele>1435</ele>
        <time>2024-07-08T12:28:57Z</time>
      </trkpt>
      <trkpt lat="42.75073" lon="1.48529">
        <ele>1431.8</ele>
        <time>2024-07-08T12:29:04Z</time>
      </trkpt>
      <trkpt lat="42.75075" lon="1.48531">
        <ele>1429.6</ele>
        <time>2024-07-08T12:29:10Z</time>
      </trkpt>
      <trkpt lat="42.75075" lon="1.48532">
        <ele>1433.4</ele>
        <time>2024-07-08T12:29:18Z</time>
      </trkpt>
      <trkpt lat="42.75074" lon="1.48532">
        <ele>1433.2</ele>
        <time>2024-07-08T12:29:27Z</time>
      </trkpt>
      <trkpt lat="42.75076" lon="1.48535">
        <ele>1435.2</ele>
        <time>2024-07-08T12:32:40Z</time>
      </trkpt>
      <trkpt lat="42.7508" lon="1.48541">
        <ele>1435</ele>
        <time>2024-07-08T12:32:45Z</time>
      </trkpt>
      <trkpt lat="42.75083" lon="1.48544">
        <ele>1434.6</ele>
        <time>2024-07-08T12:32:47Z</time>
      </trkpt>
      <trkpt lat="42.75088" lon="1.4855">
        <ele>1433.6</ele>
        <time>2024-07-08T12:32:53Z</time>
      </trkpt>
      <trkpt lat="42.7509" lon="1.48551">
        <ele>1433.4</ele>
        <time>2024-07-08T12:32:55Z</time>
      </trkpt>
      <trkpt lat="42.75094" lon="1.48556">
        <ele>1432.8</ele>
        <time>2024-07-08T12:32:59Z</time>
      </trkpt>
      <trkpt lat="42.75098" lon="1.48559">
        <ele>1431.6</ele>
        <time>2024-07-08T12:33:03Z</time>
      </trkpt>
      <trkpt lat="42.75103" lon="1.48563">
        <ele>1431.2</ele>
        <time>2024-07-08T12:33:07Z</time>
      </trkpt>
      <trkpt lat="42.75107" lon="1.48569">
        <ele>1431.6</ele>
        <time>2024-07-08T12:33:12Z</time>
      </trkpt>
      <trkpt lat="42.7511" lon="1.48573">
        <ele>1431.4</ele>
        <time>2024-07-08T12:33:14Z</time>
      </trkpt>
      <trkpt lat="42.75126" lon="1.48586">
        <ele>1429.8</ele>
        <time>2024-07-08T12:33:22Z</time>
      </trkpt>
      <trkpt lat="42.75128" lon="1.4859">
        <ele>1429.8</ele>
        <time>2024-07-08T12:33:23Z</time>
      </trkpt>
      <trkpt lat="42.75134" lon="1.48599">
        <ele>1431</ele>
        <time>2024-07-08T12:33:30Z</time>
      </trkpt>
      <trkpt lat="42.75135" lon="1.486">
        <ele>1430.8</ele>
        <time>2024-07-08T12:33:31Z</time>
      </trkpt>
      <trkpt lat="42.75144" lon="1.48603">
        <ele>1431</ele>
        <time>2024-07-08T12:33:38Z</time>
      </trkpt>
      <trkpt lat="42.75148" lon="1.48607">
        <ele>1432.6</ele>
        <time>2024-07-08T12:33:43Z</time>
      </trkpt>
      <trkpt lat="42.7515" lon="1.48608">
        <ele>1433.2</ele>
        <time>2024-07-08T12:33:45Z</time>
      </trkpt>
      <trkpt lat="42.75154" lon="1.48607">
        <ele>1434.4</ele>
        <time>2024-07-08T12:33:49Z</time>
      </trkpt>
      <trkpt lat="42.75157" lon="1.48608">
        <ele>1435</ele>
        <time>2024-07-08T12:33:52Z</time>
      </trkpt>
      <trkpt lat="42.75163" lon="1.48615">
        <ele>1436</ele>
        <time>2024-07-08T12:33:57Z</time>
      </trkpt>
      <trkpt lat="42.75167" lon="1.48631">
        <ele>1438</ele>
        <time>2024-07-08T12:34:02Z</time>
      </trkpt>
      <trkpt lat="42.75168" lon="1.48635">
        <ele>1436</ele>
        <time>2024-07-08T12:34:05Z</time>
      </trkpt>
      <trkpt lat="42.75171" lon="1.48639">
        <ele>1432.8</ele>
        <time>2024-07-08T12:34:08Z</time>
      </trkpt>
      <trkpt lat="42.75175" lon="1.48644">
        <ele>1429.6</ele>
        <time>2024-07-08T12:34:12Z</time>
      </trkpt>
      <trkpt lat="42.75177" lon="1.48647">
        <ele>1428.6</ele>
        <time>2024-07-08T12:34:15Z</time>
      </trkpt>
      <trkpt lat="42.7518" lon="1.48649">
        <ele>1428.2</ele>
        <time>2024-07-08T12:34:18Z</time>
      </trkpt>
      <trkpt lat="42.75184" lon="1.48652">
        <ele>1428.4</ele>
        <time>2024-07-08T12:34:22Z</time>
      </trkpt>
      <trkpt lat="42.75185" lon="1.48655">
        <ele>1428.6</ele>
        <time>2024-07-08T12:34:24Z</time>
      </trkpt>
      <trkpt lat="42.75186" lon="1.48659">
        <ele>1427.2</ele>
        <time>2024-07-08T12:34:28Z</time>
      </trkpt>
      <trkpt lat="42.75193" lon="1.48668">
        <ele>1424.8</ele>
        <time>2024-07-08T12:34:35Z</time>
      </trkpt>
      <trkpt lat="42.75199" lon="1.48675">
        <ele>1424.4</ele>
        <time>2024-07-08T12:34:40Z</time>
      </trkpt>
      <trkpt lat="42.75207" lon="1.48684">
        <ele>1424.2</ele>
        <time>2024-07-08T12:34:47Z</time>
      </trkpt>
      <trkpt lat="42.7521" lon="1.48692">
        <ele>1424.6</ele>
        <time>2024-07-08T12:34:51Z</time>
      </trkpt>
      <trkpt lat="42.75211" lon="1.48694">
        <ele>1425.4</ele>
        <time>2024-07-08T12:34:54Z</time>
      </trkpt>
      <trkpt lat="42.75213" lon="1.48697">
        <ele>1426.4</ele>
        <time>2024-07-08T12:34:57Z</time>
      </trkpt>
      <trkpt lat="42.75215" lon="1.48705">
        <ele>1428.6</ele>
        <time>2024-07-08T12:35:01Z</time>
      </trkpt>
      <trkpt lat="42.75219" lon="1.48714">
        <ele>1430.6</ele>
        <time>2024-07-08T12:35:07Z</time>
      </trkpt>
      <trkpt lat="42.75222" lon="1.48727">
        <ele>1430.6</ele>
        <time>2024-07-08T12:35:13Z</time>
      </trkpt>
      <trkpt lat="42.75222" lon="1.48729">
        <ele>1430.6</ele>
        <time>2024-07-08T12:35:14Z</time>
      </trkpt>
      <trkpt lat="42.75223" lon="1.48733">
        <ele>1430.4</ele>
        <time>2024-07-08T12:35:16Z</time>
      </trkpt>
      <trkpt lat="42.75223" lon="1.48741">
        <ele>1429.4</ele>
        <time>2024-07-08T12:35:20Z</time>
      </trkpt>
      <trkpt lat="42.75226" lon="1.48751">
        <ele>1427.4</ele>
        <time>2024-07-08T12:35:25Z</time>
      </trkpt>
      <trkpt lat="42.75224" lon="1.48755">
        <ele>1427</ele>
        <time>2024-07-08T12:35:27Z</time>
      </trkpt>
      <trkpt lat="42.7522" lon="1.48764">
        <ele>1426.6</ele>
        <time>2024-07-08T12:35:32Z</time>
      </trkpt>
      <trkpt lat="42.75218" lon="1.48769">
        <ele>1425.6</ele>
        <time>2024-07-08T12:35:35Z</time>
      </trkpt>
      <trkpt lat="42.75215" lon="1.48772">
        <ele>1424.8</ele>
        <time>2024-07-08T12:35:37Z</time>
      </trkpt>
      <trkpt lat="42.75214" lon="1.48774">
        <ele>1424.4</ele>
        <time>2024-07-08T12:35:38Z</time>
      </trkpt>
      <trkpt lat="42.75212" lon="1.4878">
        <ele>1423.2</ele>
        <time>2024-07-08T12:35:41Z</time>
      </trkpt>
      <trkpt lat="42.75213" lon="1.48786">
        <ele>1422.6</ele>
        <time>2024-07-08T12:35:43Z</time>
      </trkpt>
      <trkpt lat="42.7521" lon="1.48788">
        <ele>1422.6</ele>
        <time>2024-07-08T12:35:44Z</time>
      </trkpt>
      <trkpt lat="42.75209" lon="1.488">
        <ele>1422.2</ele>
        <time>2024-07-08T12:35:50Z</time>
      </trkpt>
      <trkpt lat="42.75208" lon="1.48802">
        <ele>1422.4</ele>
        <time>2024-07-08T12:35:52Z</time>
      </trkpt>
      <trkpt lat="42.75208" lon="1.48806">
        <ele>1422.8</ele>
        <time>2024-07-08T12:35:54Z</time>
      </trkpt>
      <trkpt lat="42.75206" lon="1.4881">
        <ele>1423.4</ele>
        <time>2024-07-08T12:35:56Z</time>
      </trkpt>
      <trkpt lat="42.75205" lon="1.48815">
        <ele>1423.8</ele>
        <time>2024-07-08T12:35:58Z</time>
      </trkpt>
      <trkpt lat="42.75204" lon="1.48819">
        <ele>1423</ele>
        <time>2024-07-08T12:36:00Z</time>
      </trkpt>
      <trkpt lat="42.75205" lon="1.48822">
        <ele>1422.4</ele>
        <time>2024-07-08T12:36:01Z</time>
      </trkpt>
      <trkpt lat="42.75205" lon="1.48829">
        <ele>1421.2</ele>
        <time>2024-07-08T12:36:05Z</time>
      </trkpt>
      <trkpt lat="42.75204" lon="1.4883">
        <ele>1421.6</ele>
        <time>2024-07-08T12:36:06Z</time>
      </trkpt>
      <trkpt lat="42.75198" lon="1.48843">
        <ele>1422.2</ele>
        <time>2024-07-08T12:36:14Z</time>
      </trkpt>
      <trkpt lat="42.75195" lon="1.48848">
        <ele>1421.4</ele>
        <time>2024-07-08T12:36:17Z</time>
      </trkpt>
      <trkpt lat="42.75193" lon="1.48857">
        <ele>1421.2</ele>
        <time>2024-07-08T12:36:21Z</time>
      </trkpt>
      <trkpt lat="42.75187" lon="1.48867">
        <ele>1422.6</ele>
        <time>2024-07-08T12:36:28Z</time>
      </trkpt>
      <trkpt lat="42.75186" lon="1.48868">
        <ele>1422.6</ele>
        <time>2024-07-08T12:36:29Z</time>
      </trkpt>
      <trkpt lat="42.75184" lon="1.4887">
        <ele>1422.8</ele>
        <time>2024-07-08T12:36:31Z</time>
      </trkpt>
      <trkpt lat="42.75184" lon="1.48877">
        <ele>1422.4</ele>
        <time>2024-07-08T12:36:35Z</time>
      </trkpt>
      <trkpt lat="42.75183" lon="1.48878">
        <ele>1422.2</ele>
        <time>2024-07-08T12:36:36Z</time>
      </trkpt>
      <trkpt lat="42.75181" lon="1.48881">
        <ele>1421.8</ele>
        <time>2024-07-08T12:36:38Z</time>
      </trkpt>
      <trkpt lat="42.75181" lon="1.48885">
        <ele>1421.4</ele>
        <time>2024-07-08T12:36:40Z</time>
      </trkpt>
      <trkpt lat="42.7518" lon="1.48893">
        <ele>1420.4</ele>
        <time>2024-07-08T12:36:45Z</time>
      </trkpt>
      <trkpt lat="42.75181" lon="1.48896">
        <ele>1420.2</ele>
        <time>2024-07-08T12:36:47Z</time>
      </trkpt>
      <trkpt lat="42.75187" lon="1.4891">
        <ele>1419.8</ele>
        <time>2024-07-08T12:36:55Z</time>
      </trkpt>
      <trkpt lat="42.75192" lon="1.48921">
        <ele>1421.6</ele>
        <time>2024-07-08T12:37:00Z</time>
      </trkpt>
      <trkpt lat="42.75194" lon="1.48925">
        <ele>1422</ele>
        <time>2024-07-08T12:37:02Z</time>
      </trkpt>
      <trkpt lat="42.75193" lon="1.4893">
        <ele>1422.2</ele>
        <time>2024-07-08T12:37:04Z</time>
      </trkpt>
      <trkpt lat="42.75193" lon="1.48933">
        <ele>1422</ele>
        <time>2024-07-08T12:37:06Z</time>
      </trkpt>
      <trkpt lat="42.75193" lon="1.48936">
        <ele>1422.2</ele>
        <time>2024-07-08T12:37:08Z</time>
      </trkpt>
      <trkpt lat="42.75193" lon="1.48939">
        <ele>1422.4</ele>
        <time>2024-07-08T12:37:10Z</time>
      </trkpt>
      <trkpt lat="42.75192" lon="1.4894">
        <ele>1422.6</ele>
        <time>2024-07-08T12:37:11Z</time>
      </trkpt>
      <trkpt lat="42.75192" lon="1.48942">
        <ele>1422.8</ele>
        <time>2024-07-08T12:37:12Z</time>
      </trkpt>
      <trkpt lat="42.75194" lon="1.48948">
        <ele>1423.6</ele>
        <time>2024-07-08T12:37:15Z</time>
      </trkpt>
      <trkpt lat="42.75195" lon="1.48954">
        <ele>1424</ele>
        <time>2024-07-08T12:37:17Z</time>
      </trkpt>
      <trkpt lat="42.75195" lon="1.48957">
        <ele>1424</ele>
        <time>2024-07-08T12:37:18Z</time>
      </trkpt>
      <trkpt lat="42.75197" lon="1.48966">
        <ele>1421.6</ele>
        <time>2024-07-08T12:37:22Z</time>
      </trkpt>
      <trkpt lat="42.75197" lon="1.48969">
        <ele>1421.2</ele>
        <time>2024-07-08T12:37:23Z</time>
      </trkpt>
      <trkpt lat="42.75201" lon="1.48978">
        <ele>1420.4</ele>
        <time>2024-07-08T12:37:26Z</time>
      </trkpt>
      <trkpt lat="42.75204" lon="1.48989">
        <ele>1422.4</ele>
        <time>2024-07-08T12:37:33Z</time>
      </trkpt>
      <trkpt lat="42.75205" lon="1.48992">
        <ele>1422.6</ele>
        <time>2024-07-08T12:37:34Z</time>
      </trkpt>
      <trkpt lat="42.75209" lon="1.49003">
        <ele>1421.2</ele>
        <time>2024-07-08T12:37:40Z</time>
      </trkpt>
      <trkpt lat="42.75209" lon="1.49009">
        <ele>1421.4</ele>
        <time>2024-07-08T12:37:43Z</time>
      </trkpt>
      <trkpt lat="42.7521" lon="1.49014">
        <ele>1422.8</ele>
        <time>2024-07-08T12:37:47Z</time>
      </trkpt>
      <trkpt lat="42.75214" lon="1.49023">
        <ele>1424.4</ele>
        <time>2024-07-08T12:37:51Z</time>
      </trkpt>
      <trkpt lat="42.75213" lon="1.49025">
        <ele>1424.8</ele>
        <time>2024-07-08T12:37:53Z</time>
      </trkpt>
      <trkpt lat="42.75213" lon="1.49026">
        <ele>1425</ele>
        <time>2024-07-08T12:37:54Z</time>
      </trkpt>
      <trkpt lat="42.75215" lon="1.49034">
        <ele>1424.6</ele>
        <time>2024-07-08T12:37:58Z</time>
      </trkpt>
      <trkpt lat="42.75214" lon="1.49035">
        <ele>1424.6</ele>
        <time>2024-07-08T12:37:59Z</time>
      </trkpt>
      <trkpt lat="42.75212" lon="1.49038">
        <ele>1424.2</ele>
        <time>2024-07-08T12:38:01Z</time>
      </trkpt>
      <trkpt lat="42.75212" lon="1.49041">
        <ele>1423.4</ele>
        <time>2024-07-08T12:38:03Z</time>
      </trkpt>
      <trkpt lat="42.75218" lon="1.49054">
        <ele>1419.8</ele>
        <time>2024-07-08T12:38:10Z</time>
      </trkpt>
      <trkpt lat="42.75221" lon="1.49061">
        <ele>1422.2</ele>
        <time>2024-07-08T12:38:14Z</time>
      </trkpt>
      <trkpt lat="42.75222" lon="1.49065">
        <ele>1426.8</ele>
        <time>2024-07-08T12:38:18Z</time>
      </trkpt>
      <trkpt lat="42.75221" lon="1.49065">
        <ele>1428.6</ele>
        <time>2024-07-08T12:38:26Z</time>
      </trkpt>
      <trkpt lat="42.75222" lon="1.49067">
        <ele>1429</ele>
        <time>2024-07-08T12:38:35Z</time>
      </trkpt>
      <trkpt lat="42.75222" lon="1.49067">
        <ele>1431.2</ele>
        <time>2024-07-08T12:38:45Z</time>
      </trkpt>
      <trkpt lat="42.75219" lon="1.49074">
        <ele>1429.2</ele>
        <time>2024-07-08T12:40:23Z</time>
      </trkpt>
      <trkpt lat="42.75219" lon="1.49078">
        <ele>1429.2</ele>
        <time>2024-07-08T12:40:25Z</time>
      </trkpt>
      <trkpt lat="42.7522" lon="1.49085">
        <ele>1429.2</ele>
        <time>2024-07-08T12:40:28Z</time>
      </trkpt>
      <trkpt lat="42.7522" lon="1.49087">
        <ele>1429.2</ele>
        <time>2024-07-08T12:40:29Z</time>
      </trkpt>
      <trkpt lat="42.75221" lon="1.49093">
        <ele>1429</ele>
        <time>2024-07-08T12:40:33Z</time>
      </trkpt>
      <trkpt lat="42.75221" lon="1.49097">
        <ele>1429</ele>
        <time>2024-07-08T12:40:35Z</time>
      </trkpt>
      <trkpt lat="42.75221" lon="1.49103">
        <ele>1428.8</ele>
        <time>2024-07-08T12:40:38Z</time>
      </trkpt>
      <trkpt lat="42.75221" lon="1.49105">
        <ele>1428.8</ele>
        <time>2024-07-08T12:40:39Z</time>
      </trkpt>
      <trkpt lat="42.75221" lon="1.49107">
        <ele>1428.6</ele>
        <time>2024-07-08T12:40:40Z</time>
      </trkpt>
      <trkpt lat="42.75219" lon="1.49114">
        <ele>1428.4</ele>
        <time>2024-07-08T12:40:44Z</time>
      </trkpt>
      <trkpt lat="42.75219" lon="1.4912">
        <ele>1427.4</ele>
        <time>2024-07-08T12:40:47Z</time>
      </trkpt>
      <trkpt lat="42.75219" lon="1.4913">
        <ele>1426.2</ele>
        <time>2024-07-08T12:40:51Z</time>
      </trkpt>
      <trkpt lat="42.75217" lon="1.49132">
        <ele>1426</ele>
        <time>2024-07-08T12:40:52Z</time>
      </trkpt>
      <trkpt lat="42.75214" lon="1.4914">
        <ele>1423.8</ele>
        <time>2024-07-08T12:40:57Z</time>
      </trkpt>
      <trkpt lat="42.75211" lon="1.49153">
        <ele>1421.4</ele>
        <time>2024-07-08T12:41:05Z</time>
      </trkpt>
      <trkpt lat="42.75203" lon="1.49161">
        <ele>1422.2</ele>
        <time>2024-07-08T12:41:12Z</time>
      </trkpt>
      <trkpt lat="42.75201" lon="1.49161">
        <ele>1422.4</ele>
        <time>2024-07-08T12:41:13Z</time>
      </trkpt>
      <trkpt lat="42.75188" lon="1.49166">
        <ele>1421.8</ele>
        <time>2024-07-08T12:41:22Z</time>
      </trkpt>
      <trkpt lat="42.75177" lon="1.49166">
        <ele>1420</ele>
        <time>2024-07-08T12:41:29Z</time>
      </trkpt>
      <trkpt lat="42.75168" lon="1.49171">
        <ele>1417.6</ele>
        <time>2024-07-08T12:41:37Z</time>
      </trkpt>
      <trkpt lat="42.75166" lon="1.49171">
        <ele>1417.6</ele>
        <time>2024-07-08T12:41:39Z</time>
      </trkpt>
      <trkpt lat="42.75158" lon="1.49176">
        <ele>1417.8</ele>
        <time>2024-07-08T12:41:44Z</time>
      </trkpt>
      <trkpt lat="42.75155" lon="1.49176">
        <ele>1418</ele>
        <time>2024-07-08T12:41:46Z</time>
      </trkpt>
      <trkpt lat="42.75149" lon="1.49177">
        <ele>1418.2</ele>
        <time>2024-07-08T12:41:50Z</time>
      </trkpt>
      <trkpt lat="42.75148" lon="1.49177">
        <ele>1418.2</ele>
        <time>2024-07-08T12:41:51Z</time>
      </trkpt>
      <trkpt lat="42.75143" lon="1.49182">
        <ele>1417.8</ele>
        <time>2024-07-08T12:41:56Z</time>
      </trkpt>
      <trkpt lat="42.75139" lon="1.49185">
        <ele>1417.8</ele>
        <time>2024-07-08T12:41:59Z</time>
      </trkpt>
      <trkpt lat="42.75132" lon="1.49192">
        <ele>1417.8</ele>
        <time>2024-07-08T12:42:06Z</time>
      </trkpt>
      <trkpt lat="42.7513" lon="1.49193">
        <ele>1417.8</ele>
        <time>2024-07-08T12:42:09Z</time>
      </trkpt>
      <trkpt lat="42.75128" lon="1.49195">
        <ele>1417.8</ele>
        <time>2024-07-08T12:42:11Z</time>
      </trkpt>
      <trkpt lat="42.75125" lon="1.49199">
        <ele>1418</ele>
        <time>2024-07-08T12:42:14Z</time>
      </trkpt>
      <trkpt lat="42.75121" lon="1.49205">
        <ele>1418.4</ele>
        <time>2024-07-08T12:42:18Z</time>
      </trkpt>
      <trkpt lat="42.7512" lon="1.49208">
        <ele>1419</ele>
        <time>2024-07-08T12:42:20Z</time>
      </trkpt>
      <trkpt lat="42.75113" lon="1.49213">
        <ele>1420.2</ele>
        <time>2024-07-08T12:42:25Z</time>
      </trkpt>
      <trkpt lat="42.7511" lon="1.49226">
        <ele>1420.6</ele>
        <time>2024-07-08T12:42:32Z</time>
      </trkpt>
      <trkpt lat="42.75111" lon="1.49236">
        <ele>1422.2</ele>
        <time>2024-07-08T12:42:37Z</time>
      </trkpt>
      <trkpt lat="42.75108" lon="1.49239">
        <ele>1422.4</ele>
        <time>2024-07-08T12:42:39Z</time>
      </trkpt>
      <trkpt lat="42.75102" lon="1.49251">
        <ele>1420.4</ele>
        <time>2024-07-08T12:42:46Z</time>
      </trkpt>
      <trkpt lat="42.75101" lon="1.49254">
        <ele>1419.4</ele>
        <time>2024-07-08T12:42:48Z</time>
      </trkpt>
      <trkpt lat="42.75101" lon="1.49261">
        <ele>1418</ele>
        <time>2024-07-08T12:42:52Z</time>
      </trkpt>
      <trkpt lat="42.75099" lon="1.49272">
        <ele>1418.2</ele>
        <time>2024-07-08T12:42:57Z</time>
      </trkpt>
      <trkpt lat="42.75098" lon="1.49276">
        <ele>1418.6</ele>
        <time>2024-07-08T12:42:59Z</time>
      </trkpt>
      <trkpt lat="42.75098" lon="1.49278">
        <ele>1418.8</ele>
        <time>2024-07-08T12:43:00Z</time>
      </trkpt>
      <trkpt lat="42.75096" lon="1.49283">
        <ele>1418.8</ele>
        <time>2024-07-08T12:43:03Z</time>
      </trkpt>
      <trkpt lat="42.75096" lon="1.49288">
        <ele>1418.6</ele>
        <time>2024-07-08T12:43:06Z</time>
      </trkpt>
      <trkpt lat="42.75099" lon="1.49298">
        <ele>1418.6</ele>
        <time>2024-07-08T12:43:10Z</time>
      </trkpt>
      <trkpt lat="42.75095" lon="1.49304">
        <ele>1420</ele>
        <time>2024-07-08T12:43:13Z</time>
      </trkpt>
      <trkpt lat="42.75093" lon="1.49319">
        <ele>1420.4</ele>
        <time>2024-07-08T12:43:20Z</time>
      </trkpt>
      <trkpt lat="42.75091" lon="1.49328">
        <ele>1420.8</ele>
        <time>2024-07-08T12:43:25Z</time>
      </trkpt>
      <trkpt lat="42.75089" lon="1.49331">
        <ele>1421</ele>
        <time>2024-07-08T12:43:27Z</time>
      </trkpt>
      <trkpt lat="42.75087" lon="1.49346">
        <ele>1417.6</ele>
        <time>2024-07-08T12:43:35Z</time>
      </trkpt>
      <trkpt lat="42.75086" lon="1.49349">
        <ele>1417.2</ele>
        <time>2024-07-08T12:43:37Z</time>
      </trkpt>
      <trkpt lat="42.75084" lon="1.49354">
        <ele>1416.8</ele>
        <time>2024-07-08T12:43:40Z</time>
      </trkpt>
      <trkpt lat="42.75084" lon="1.49356">
        <ele>1416.6</ele>
        <time>2024-07-08T12:43:41Z</time>
      </trkpt>
      <trkpt lat="42.75083" lon="1.49362">
        <ele>1417.2</ele>
        <time>2024-07-08T12:43:45Z</time>
      </trkpt>
      <trkpt lat="42.75081" lon="1.49376">
        <ele>1417.6</ele>
        <time>2024-07-08T12:43:53Z</time>
      </trkpt>
      <trkpt lat="42.75079" lon="1.49386">
        <ele>1418.4</ele>
        <time>2024-07-08T12:43:58Z</time>
      </trkpt>
      <trkpt lat="42.75078" lon="1.4939">
        <ele>1418.4</ele>
        <time>2024-07-08T12:44:00Z</time>
      </trkpt>
      <trkpt lat="42.75076" lon="1.49396">
        <ele>1417.8</ele>
        <time>2024-07-08T12:44:03Z</time>
      </trkpt>
      <trkpt lat="42.75076" lon="1.49402">
        <ele>1417.2</ele>
        <time>2024-07-08T12:44:06Z</time>
      </trkpt>
      <trkpt lat="42.75074" lon="1.49405">
        <ele>1417</ele>
        <time>2024-07-08T12:44:08Z</time>
      </trkpt>
      <trkpt lat="42.75076" lon="1.49415">
        <ele>1417</ele>
        <time>2024-07-08T12:44:12Z</time>
      </trkpt>
      <trkpt lat="42.75075" lon="1.49418">
        <ele>1417.6</ele>
        <time>2024-07-08T12:44:14Z</time>
      </trkpt>
      <trkpt lat="42.75071" lon="1.49423">
        <ele>1418.4</ele>
        <time>2024-07-08T12:44:17Z</time>
      </trkpt>
      <trkpt lat="42.7507" lon="1.49427">
        <ele>1418.6</ele>
        <time>2024-07-08T12:44:19Z</time>
      </trkpt>
      <trkpt lat="42.75068" lon="1.49433">
        <ele>1417.6</ele>
        <time>2024-07-08T12:44:22Z</time>
      </trkpt>
      <trkpt lat="42.75066" lon="1.49437">
        <ele>1417</ele>
        <time>2024-07-08T12:44:26Z</time>
      </trkpt>
      <trkpt lat="42.75066" lon="1.4944">
        <ele>1417</ele>
        <time>2024-07-08T12:44:28Z</time>
      </trkpt>
      <trkpt lat="42.75065" lon="1.49444">
        <ele>1417.2</ele>
        <time>2024-07-08T12:44:30Z</time>
      </trkpt>
      <trkpt lat="42.7506" lon="1.49454">
        <ele>1416.8</ele>
        <time>2024-07-08T12:44:36Z</time>
      </trkpt>
      <trkpt lat="42.7506" lon="1.49457">
        <ele>1416.2</ele>
        <time>2024-07-08T12:44:38Z</time>
      </trkpt>
      <trkpt lat="42.75058" lon="1.49461">
        <ele>1415.6</ele>
        <time>2024-07-08T12:44:41Z</time>
      </trkpt>
      <trkpt lat="42.75058" lon="1.49462">
        <ele>1415.4</ele>
        <time>2024-07-08T12:44:42Z</time>
      </trkpt>
      <trkpt lat="42.75055" lon="1.49471">
        <ele>1415</ele>
        <time>2024-07-08T12:44:47Z</time>
      </trkpt>
      <trkpt lat="42.75054" lon="1.49473">
        <ele>1415</ele>
        <time>2024-07-08T12:44:49Z</time>
      </trkpt>
      <trkpt lat="42.75048" lon="1.49481">
        <ele>1415.4</ele>
        <time>2024-07-08T12:44:55Z</time>
      </trkpt>
      <trkpt lat="42.75048" lon="1.49485">
        <ele>1415.6</ele>
        <time>2024-07-08T12:44:57Z</time>
      </trkpt>
      <trkpt lat="42.75041" lon="1.49489">
        <ele>1416.6</ele>
        <time>2024-07-08T12:45:01Z</time>
      </trkpt>
      <trkpt lat="42.75036" lon="1.49489">
        <ele>1418.2</ele>
        <time>2024-07-08T12:45:04Z</time>
      </trkpt>
      <trkpt lat="42.75024" lon="1.49494">
        <ele>1420.4</ele>
        <time>2024-07-08T12:45:12Z</time>
      </trkpt>
      <trkpt lat="42.75019" lon="1.49494">
        <ele>1420.6</ele>
        <time>2024-07-08T12:45:15Z</time>
      </trkpt>
      <trkpt lat="42.75012" lon="1.49492">
        <ele>1420.4</ele>
        <time>2024-07-08T12:45:20Z</time>
      </trkpt>
      <trkpt lat="42.75002" lon="1.4949">
        <ele>1419.4</ele>
        <time>2024-07-08T12:45:27Z</time>
      </trkpt>
      <trkpt lat="42.74993" lon="1.4949">
        <ele>1421.2</ele>
        <time>2024-07-08T12:45:33Z</time>
      </trkpt>
      <trkpt lat="42.74976" lon="1.49493">
        <ele>1425.8</ele>
        <time>2024-07-08T12:45:45Z</time>
      </trkpt>
      <trkpt lat="42.74967" lon="1.4949">
        <ele>1425</ele>
        <time>2024-07-08T12:45:51Z</time>
      </trkpt>
      <trkpt lat="42.74966" lon="1.4949">
        <ele>1424.8</ele>
        <time>2024-07-08T12:45:52Z</time>
      </trkpt>
      <trkpt lat="42.74955" lon="1.49486">
        <ele>1424.2</ele>
        <time>2024-07-08T12:45:59Z</time>
      </trkpt>
      <trkpt lat="42.74945" lon="1.49494">
        <ele>1424.8</ele>
        <time>2024-07-08T12:46:10Z</time>
      </trkpt>
      <trkpt lat="42.74941" lon="1.49495">
        <ele>1423.6</ele>
        <time>2024-07-08T12:46:17Z</time>
      </trkpt>
      <trkpt lat="42.74936" lon="1.49499">
        <ele>1422.4</ele>
        <time>2024-07-08T12:46:23Z</time>
      </trkpt>
      <trkpt lat="42.74933" lon="1.49502">
        <ele>1422</ele>
        <time>2024-07-08T12:46:25Z</time>
      </trkpt>
      <trkpt lat="42.74923" lon="1.49514">
        <ele>1420.8</ele>
        <time>2024-07-08T12:46:34Z</time>
      </trkpt>
      <trkpt lat="42.7492" lon="1.4952">
        <ele>1420.8</ele>
        <time>2024-07-08T12:46:38Z</time>
      </trkpt>
      <trkpt lat="42.74917" lon="1.49521">
        <ele>1420.8</ele>
        <time>2024-07-08T12:46:40Z</time>
      </trkpt>
      <trkpt lat="42.74908" lon="1.4953">
        <ele>1419.4</ele>
        <time>2024-07-08T12:46:48Z</time>
      </trkpt>
      <trkpt lat="42.74903" lon="1.49533">
        <ele>1417.6</ele>
        <time>2024-07-08T12:46:53Z</time>
      </trkpt>
      <trkpt lat="42.74901" lon="1.49537">
        <ele>1416.8</ele>
        <time>2024-07-08T12:46:56Z</time>
      </trkpt>
      <trkpt lat="42.74894" lon="1.49546">
        <ele>1416.4</ele>
        <time>2024-07-08T12:47:03Z</time>
      </trkpt>
      <trkpt lat="42.74893" lon="1.49547">
        <ele>1416.4</ele>
        <time>2024-07-08T12:47:04Z</time>
      </trkpt>
      <trkpt lat="42.7489" lon="1.4955">
        <ele>1416.8</ele>
        <time>2024-07-08T12:47:07Z</time>
      </trkpt>
      <trkpt lat="42.7488" lon="1.49557">
        <ele>1417.4</ele>
        <time>2024-07-08T12:47:14Z</time>
      </trkpt>
      <trkpt lat="42.74879" lon="1.49557">
        <ele>1417.6</ele>
        <time>2024-07-08T12:47:15Z</time>
      </trkpt>
      <trkpt lat="42.74874" lon="1.49562">
        <ele>1418.2</ele>
        <time>2024-07-08T12:47:19Z</time>
      </trkpt>
      <trkpt lat="42.7487" lon="1.49565">
        <ele>1418.4</ele>
        <time>2024-07-08T12:47:21Z</time>
      </trkpt>
      <trkpt lat="42.74868" lon="1.49567">
        <ele>1419.2</ele>
        <time>2024-07-08T12:47:26Z</time>
      </trkpt>
      <trkpt lat="42.74868" lon="1.49567">
        <ele>1419</ele>
        <time>2024-07-08T12:47:32Z</time>
      </trkpt>
      <trkpt lat="42.74868" lon="1.49567">
        <ele>1419.4</ele>
        <time>2024-07-08T12:47:39Z</time>
      </trkpt>
      <trkpt lat="42.74868" lon="1.49566">
        <ele>1420.2</ele>
        <time>2024-07-08T12:48:01Z</time>
      </trkpt>
      <trkpt lat="42.74863" lon="1.49569">
        <ele>1421</ele>
        <time>2024-07-08T12:48:06Z</time>
      </trkpt>
      <trkpt lat="42.7486" lon="1.4957">
        <ele>1421.6</ele>
        <time>2024-07-08T12:48:08Z</time>
      </trkpt>
      <trkpt lat="42.74854" lon="1.49576">
        <ele>1422.6</ele>
        <time>2024-07-08T12:48:12Z</time>
      </trkpt>
      <trkpt lat="42.74853" lon="1.49577">
        <ele>1422.8</ele>
        <time>2024-07-08T12:48:13Z</time>
      </trkpt>
      <trkpt lat="42.74847" lon="1.49584">
        <ele>1424.4</ele>
        <time>2024-07-08T12:48:19Z</time>
      </trkpt>
      <trkpt lat="42.74845" lon="1.49585">
        <ele>1424.6</ele>
        <time>2024-07-08T12:48:20Z</time>
      </trkpt>
      <trkpt lat="42.74841" lon="1.49586">
        <ele>1424.4</ele>
        <time>2024-07-08T12:48:23Z</time>
      </trkpt>
      <trkpt lat="42.74839" lon="1.49589">
        <ele>1424</ele>
        <time>2024-07-08T12:48:25Z</time>
      </trkpt>
      <trkpt lat="42.74838" lon="1.4959">
        <ele>1423.8</ele>
        <time>2024-07-08T12:48:26Z</time>
      </trkpt>
      <trkpt lat="42.74831" lon="1.49594">
        <ele>1423</ele>
        <time>2024-07-08T12:48:31Z</time>
      </trkpt>
      <trkpt lat="42.74828" lon="1.49598">
        <ele>1422.2</ele>
        <time>2024-07-08T12:48:35Z</time>
      </trkpt>
      <trkpt lat="42.74824" lon="1.49604">
        <ele>1422</ele>
        <time>2024-07-08T12:48:40Z</time>
      </trkpt>
      <trkpt lat="42.74824" lon="1.49606">
        <ele>1422</ele>
        <time>2024-07-08T12:48:41Z</time>
      </trkpt>
      <trkpt lat="42.74824" lon="1.49611">
        <ele>1422.4</ele>
        <time>2024-07-08T12:48:44Z</time>
      </trkpt>
      <trkpt lat="42.74823" lon="1.49614">
        <ele>1423</ele>
        <time>2024-07-08T12:48:47Z</time>
      </trkpt>
      <trkpt lat="42.74822" lon="1.49624">
        <ele>1422.4</ele>
        <time>2024-07-08T12:48:52Z</time>
      </trkpt>
      <trkpt lat="42.74819" lon="1.4963">
        <ele>1422.2</ele>
        <time>2024-07-08T12:48:54Z</time>
      </trkpt>
      <trkpt lat="42.74819" lon="1.49636">
        <ele>1422</ele>
        <time>2024-07-08T12:48:56Z</time>
      </trkpt>
      <trkpt lat="42.74819" lon="1.49643">
        <ele>1421.8</ele>
        <time>2024-07-08T12:48:59Z</time>
      </trkpt>
      <trkpt lat="42.74813" lon="1.49652">
        <ele>1422.4</ele>
        <time>2024-07-08T12:49:06Z</time>
      </trkpt>
      <trkpt lat="42.74809" lon="1.49664">
        <ele>1421.4</ele>
        <time>2024-07-08T12:49:12Z</time>
      </trkpt>
      <trkpt lat="42.74806" lon="1.49678">
        <ele>1424.2</ele>
        <time>2024-07-08T12:49:19Z</time>
      </trkpt>
      <trkpt lat="42.74803" lon="1.49685">
        <ele>1423.6</ele>
        <time>2024-07-08T12:49:24Z</time>
      </trkpt>
      <trkpt lat="42.74803" lon="1.49689">
        <ele>1422.8</ele>
        <time>2024-07-08T12:49:26Z</time>
      </trkpt>
      <trkpt lat="42.74802" lon="1.49695">
        <ele>1422.4</ele>
        <time>2024-07-08T12:49:28Z</time>
      </trkpt>
      <trkpt lat="42.74801" lon="1.49699">
        <ele>1424.4</ele>
        <time>2024-07-08T12:49:32Z</time>
      </trkpt>
      <trkpt lat="42.74797" lon="1.49711">
        <ele>1426.8</ele>
        <time>2024-07-08T12:49:38Z</time>
      </trkpt>
      <trkpt lat="42.74791" lon="1.49712">
        <ele>1427.2</ele>
        <time>2024-07-08T12:49:41Z</time>
      </trkpt>
      <trkpt lat="42.7479" lon="1.49713">
        <ele>1427.2</ele>
        <time>2024-07-08T12:49:43Z</time>
      </trkpt>
      <trkpt lat="42.74787" lon="1.49717">
        <ele>1425.2</ele>
        <time>2024-07-08T12:49:47Z</time>
      </trkpt>
      <trkpt lat="42.74787" lon="1.49718">
        <ele>1425</ele>
        <time>2024-07-08T12:49:48Z</time>
      </trkpt>
      <trkpt lat="42.74781" lon="1.49731">
        <ele>1423.4</ele>
        <time>2024-07-08T12:49:55Z</time>
      </trkpt>
      <trkpt lat="42.74777" lon="1.49735">
        <ele>1423.6</ele>
        <time>2024-07-08T12:49:57Z</time>
      </trkpt>
      <trkpt lat="42.74774" lon="1.49737">
        <ele>1424.2</ele>
        <time>2024-07-08T12:50:00Z</time>
      </trkpt>
      <trkpt lat="42.74767" lon="1.49745">
        <ele>1423.8</ele>
        <time>2024-07-08T12:50:06Z</time>
      </trkpt>
      <trkpt lat="42.74766" lon="1.49749">
        <ele>1422.6</ele>
        <time>2024-07-08T12:50:08Z</time>
      </trkpt>
      <trkpt lat="42.74766" lon="1.49755">
        <ele>1420</ele>
        <time>2024-07-08T12:50:11Z</time>
      </trkpt>
      <trkpt lat="42.74767" lon="1.49757">
        <ele>1419.6</ele>
        <time>2024-07-08T12:50:12Z</time>
      </trkpt>
      <trkpt lat="42.74766" lon="1.4976">
        <ele>1418.8</ele>
        <time>2024-07-08T12:50:14Z</time>
      </trkpt>
      <trkpt lat="42.74762" lon="1.49763">
        <ele>1418.2</ele>
        <time>2024-07-08T12:50:17Z</time>
      </trkpt>
      <trkpt lat="42.74756" lon="1.49772">
        <ele>1418.6</ele>
        <time>2024-07-08T12:50:24Z</time>
      </trkpt>
      <trkpt lat="42.74749" lon="1.49782">
        <ele>1419.8</ele>
        <time>2024-07-08T12:50:32Z</time>
      </trkpt>
      <trkpt lat="42.74744" lon="1.49783">
        <ele>1420</ele>
        <time>2024-07-08T12:50:35Z</time>
      </trkpt>
      <trkpt lat="42.74741" lon="1.49787">
        <ele>1420.6</ele>
        <time>2024-07-08T12:50:40Z</time>
      </trkpt>
      <trkpt lat="42.74739" lon="1.4979">
        <ele>1421.4</ele>
        <time>2024-07-08T12:50:42Z</time>
      </trkpt>
      <trkpt lat="42.74735" lon="1.49793">
        <ele>1422.2</ele>
        <time>2024-07-08T12:50:45Z</time>
      </trkpt>
      <trkpt lat="42.74734" lon="1.49794">
        <ele>1422.4</ele>
        <time>2024-07-08T12:50:46Z</time>
      </trkpt>
      <trkpt lat="42.74733" lon="1.49794">
        <ele>1422.4</ele>
        <time>2024-07-08T12:50:47Z</time>
      </trkpt>
      <trkpt lat="42.74728" lon="1.49796">
        <ele>1422</ele>
        <time>2024-07-08T12:50:51Z</time>
      </trkpt>
      <trkpt lat="42.74728" lon="1.49794">
        <ele>1422.2</ele>
        <time>2024-07-08T12:50:56Z</time>
      </trkpt>
      <trkpt lat="42.74728" lon="1.49795">
        <ele>1422.8</ele>
        <time>2024-07-08T12:51:01Z</time>
      </trkpt>
      <trkpt lat="42.74727" lon="1.49796">
        <ele>1424.2</ele>
        <time>2024-07-08T12:51:07Z</time>
      </trkpt>
      <trkpt lat="42.74728" lon="1.49796">
        <ele>1424.8</ele>
        <time>2024-07-08T12:51:19Z</time>
      </trkpt>
      <trkpt lat="42.74728" lon="1.49795">
        <ele>1424.2</ele>
        <time>2024-07-08T12:51:47Z</time>
      </trkpt>
      <trkpt lat="42.74705" lon="1.49821">
        <ele>1369.4</ele>
        <time>2024-07-08T13:56:37Z</time>
      </trkpt>
      <trkpt lat="42.747" lon="1.49826">
        <ele>1369.4</ele>
        <time>2024-07-08T13:56:45Z</time>
      </trkpt>
      <trkpt lat="42.74691" lon="1.49832">
        <ele>1369.6</ele>
        <time>2024-07-08T13:56:51Z</time>
      </trkpt>
      <trkpt lat="42.74679" lon="1.49833">
        <ele>1372</ele>
        <time>2024-07-08T13:57:00Z</time>
      </trkpt>
      <trkpt lat="42.7467" lon="1.4983">
        <ele>1373</ele>
        <time>2024-07-08T13:57:07Z</time>
      </trkpt>
      <trkpt lat="42.74662" lon="1.49822">
        <ele>1373.6</ele>
        <time>2024-07-08T13:57:14Z</time>
      </trkpt>
      <trkpt lat="42.74653" lon="1.49814">
        <ele>1373.8</ele>
        <time>2024-07-08T13:57:22Z</time>
      </trkpt>
      <trkpt lat="42.74642" lon="1.49803">
        <ele>1375.4</ele>
        <time>2024-07-08T13:57:33Z</time>
      </trkpt>
      <trkpt lat="42.7463" lon="1.49797">
        <ele>1377.4</ele>
        <time>2024-07-08T13:57:43Z</time>
      </trkpt>
      <trkpt lat="42.74619" lon="1.49792">
        <ele>1378.4</ele>
        <time>2024-07-08T13:57:53Z</time>
      </trkpt>
      <trkpt lat="42.74606" lon="1.49782">
        <ele>1380.4</ele>
        <time>2024-07-08T13:58:04Z</time>
      </trkpt>
      <trkpt lat="42.74598" lon="1.49782">
        <ele>1381</ele>
        <time>2024-07-08T13:58:10Z</time>
      </trkpt>
      <trkpt lat="42.74587" lon="1.49782">
        <ele>1384</ele>
        <time>2024-07-08T13:58:19Z</time>
      </trkpt>
      <trkpt lat="42.74578" lon="1.49779">
        <ele>1385</ele>
        <time>2024-07-08T13:58:26Z</time>
      </trkpt>
      <trkpt lat="42.74577" lon="1.4978">
        <ele>1385.2</ele>
        <time>2024-07-08T13:58:27Z</time>
      </trkpt>
      <trkpt lat="42.74571" lon="1.49779">
        <ele>1386.6</ele>
        <time>2024-07-08T13:58:31Z</time>
      </trkpt>
      <trkpt lat="42.74568" lon="1.49777">
        <ele>1388</ele>
        <time>2024-07-08T13:58:33Z</time>
      </trkpt>
      <trkpt lat="42.74559" lon="1.49777">
        <ele>1390.8</ele>
        <time>2024-07-08T13:58:40Z</time>
      </trkpt>
      <trkpt lat="42.74551" lon="1.49787">
        <ele>1392.4</ele>
        <time>2024-07-08T13:58:49Z</time>
      </trkpt>
      <trkpt lat="42.74549" lon="1.49789">
        <ele>1393.4</ele>
        <time>2024-07-08T13:58:52Z</time>
      </trkpt>
      <trkpt lat="42.74547" lon="1.49797">
        <ele>1395</ele>
        <time>2024-07-08T13:58:57Z</time>
      </trkpt>
      <trkpt lat="42.74544" lon="1.49806">
        <ele>1396.4</ele>
        <time>2024-07-08T13:59:04Z</time>
      </trkpt>
      <trkpt lat="42.74535" lon="1.49819">
        <ele>1397.2</ele>
        <time>2024-07-08T13:59:12Z</time>
      </trkpt>
      <trkpt lat="42.74534" lon="1.4982">
        <ele>1398</ele>
        <time>2024-07-08T13:59:16Z</time>
      </trkpt>
      <trkpt lat="42.7453" lon="1.49824">
        <ele>1398.2</ele>
        <time>2024-07-08T13:59:23Z</time>
      </trkpt>
      <trkpt lat="42.74524" lon="1.49828">
        <ele>1398.2</ele>
        <time>2024-07-08T13:59:30Z</time>
      </trkpt>
      <trkpt lat="42.74519" lon="1.49837">
        <ele>1398.4</ele>
        <time>2024-07-08T13:59:38Z</time>
      </trkpt>
      <trkpt lat="42.74514" lon="1.49849">
        <ele>1399.6</ele>
        <time>2024-07-08T13:59:46Z</time>
      </trkpt>
      <trkpt lat="42.7451" lon="1.49858">
        <ele>1400.2</ele>
        <time>2024-07-08T13:59:52Z</time>
      </trkpt>
      <trkpt lat="42.74511" lon="1.49859">
        <ele>1400.4</ele>
        <time>2024-07-08T13:59:53Z</time>
      </trkpt>
      <trkpt lat="42.74509" lon="1.49869">
        <ele>1401</ele>
        <time>2024-07-08T13:59:59Z</time>
      </trkpt>
      <trkpt lat="42.74508" lon="1.49873">
        <ele>1401.4</ele>
        <time>2024-07-08T14:00:01Z</time>
      </trkpt>
      <trkpt lat="42.74506" lon="1.49881">
        <ele>1401.6</ele>
        <time>2024-07-08T14:00:07Z</time>
      </trkpt>
      <trkpt lat="42.74505" lon="1.49883">
        <ele>1401.6</ele>
        <time>2024-07-08T14:00:08Z</time>
      </trkpt>
      <trkpt lat="42.74504" lon="1.49886">
        <ele>1401.6</ele>
        <time>2024-07-08T14:00:10Z</time>
      </trkpt>
      <trkpt lat="42.74502" lon="1.49894">
        <ele>1402</ele>
        <time>2024-07-08T14:00:13Z</time>
      </trkpt>
      <trkpt lat="42.74497" lon="1.49899">
        <ele>1402.4</ele>
        <time>2024-07-08T14:00:18Z</time>
      </trkpt>
      <trkpt lat="42.74495" lon="1.49906">
        <ele>1402.6</ele>
        <time>2024-07-08T14:00:22Z</time>
      </trkpt>
      <trkpt lat="42.74494" lon="1.49908">
        <ele>1402.6</ele>
        <time>2024-07-08T14:00:24Z</time>
      </trkpt>
      <trkpt lat="42.74493" lon="1.49916">
        <ele>1403.4</ele>
        <time>2024-07-08T14:00:28Z</time>
      </trkpt>
      <trkpt lat="42.74493" lon="1.49919">
        <ele>1403.6</ele>
        <time>2024-07-08T14:00:29Z</time>
      </trkpt>
      <trkpt lat="42.74489" lon="1.49931">
        <ele>1405.4</ele>
        <time>2024-07-08T14:00:35Z</time>
      </trkpt>
      <trkpt lat="42.74484" lon="1.49939">
        <ele>1406.4</ele>
        <time>2024-07-08T14:00:40Z</time>
      </trkpt>
      <trkpt lat="42.74482" lon="1.49941">
        <ele>1406.8</ele>
        <time>2024-07-08T14:00:41Z</time>
      </trkpt>
      <trkpt lat="42.7448" lon="1.49945">
        <ele>1407.6</ele>
        <time>2024-07-08T14:00:44Z</time>
      </trkpt>
      <trkpt lat="42.74482" lon="1.49947">
        <ele>1408</ele>
        <time>2024-07-08T14:00:47Z</time>
      </trkpt>
      <trkpt lat="42.74481" lon="1.49947">
        <ele>1409.8</ele>
        <time>2024-07-08T14:00:54Z</time>
      </trkpt>
      <trkpt lat="42.7448" lon="1.49947">
        <ele>1410.8</ele>
        <time>2024-07-08T14:00:59Z</time>
      </trkpt>
      <trkpt lat="42.74479" lon="1.49953">
        <ele>1411.4</ele>
        <time>2024-07-08T14:01:04Z</time>
      </trkpt>
      <trkpt lat="42.74473" lon="1.49964">
        <ele>1412.8</ele>
        <time>2024-07-08T14:01:12Z</time>
      </trkpt>
      <trkpt lat="42.74471" lon="1.49967">
        <ele>1414</ele>
        <time>2024-07-08T14:01:15Z</time>
      </trkpt>
      <trkpt lat="42.7447" lon="1.49973">
        <ele>1414.4</ele>
        <time>2024-07-08T14:01:18Z</time>
      </trkpt>
      <trkpt lat="42.74462" lon="1.49987">
        <ele>1415</ele>
        <time>2024-07-08T14:01:26Z</time>
      </trkpt>
      <trkpt lat="42.74462" lon="1.49989">
        <ele>1415</ele>
        <time>2024-07-08T14:01:27Z</time>
      </trkpt>
      <trkpt lat="42.74463" lon="1.49993">
        <ele>1415</ele>
        <time>2024-07-08T14:01:30Z</time>
      </trkpt>
      <trkpt lat="42.7446" lon="1.49995">
        <ele>1415.6</ele>
        <time>2024-07-08T14:01:32Z</time>
      </trkpt>
      <trkpt lat="42.74454" lon="1.50003">
        <ele>1416.4</ele>
        <time>2024-07-08T14:01:37Z</time>
      </trkpt>
      <trkpt lat="42.74454" lon="1.50004">
        <ele>1416.6</ele>
        <time>2024-07-08T14:01:38Z</time>
      </trkpt>
      <trkpt lat="42.74453" lon="1.50009">
        <ele>1416.4</ele>
        <time>2024-07-08T14:01:41Z</time>
      </trkpt>
      <trkpt lat="42.74452" lon="1.50013">
        <ele>1416</ele>
        <time>2024-07-08T14:01:43Z</time>
      </trkpt>
      <trkpt lat="42.74445" lon="1.50025">
        <ele>1416.2</ele>
        <time>2024-07-08T14:01:50Z</time>
      </trkpt>
      <trkpt lat="42.74436" lon="1.50039">
        <ele>1416.6</ele>
        <time>2024-07-08T14:01:58Z</time>
      </trkpt>
      <trkpt lat="42.74436" lon="1.50044">
        <ele>1416.4</ele>
        <time>2024-07-08T14:02:02Z</time>
      </trkpt>
      <trkpt lat="42.74435" lon="1.50046">
        <ele>1416.8</ele>
        <time>2024-07-08T14:02:04Z</time>
      </trkpt>
      <trkpt lat="42.74433" lon="1.5006">
        <ele>1416.4</ele>
        <time>2024-07-08T14:02:11Z</time>
      </trkpt>
      <trkpt lat="42.74428" lon="1.50071">
        <ele>1415.2</ele>
        <time>2024-07-08T14:02:18Z</time>
      </trkpt>
      <trkpt lat="42.74424" lon="1.50081">
        <ele>1415</ele>
        <time>2024-07-08T14:02:24Z</time>
      </trkpt>
      <trkpt lat="42.74424" lon="1.50085">
        <ele>1415</ele>
        <time>2024-07-08T14:02:26Z</time>
      </trkpt>
      <trkpt lat="42.74418" lon="1.50097">
        <ele>1416.6</ele>
        <time>2024-07-08T14:02:34Z</time>
      </trkpt>
      <trkpt lat="42.74413" lon="1.50102">
        <ele>1417.6</ele>
        <time>2024-07-08T14:02:37Z</time>
      </trkpt>
      <trkpt lat="42.74405" lon="1.50106">
        <ele>1417.8</ele>
        <time>2024-07-08T14:02:41Z</time>
      </trkpt>
      <trkpt lat="42.74395" lon="1.50118">
        <ele>1416.6</ele>
        <time>2024-07-08T14:02:50Z</time>
      </trkpt>
      <trkpt lat="42.74393" lon="1.5012">
        <ele>1416.2</ele>
        <time>2024-07-08T14:02:52Z</time>
      </trkpt>
      <trkpt lat="42.7439" lon="1.50123">
        <ele>1415.8</ele>
        <time>2024-07-08T14:02:55Z</time>
      </trkpt>
      <trkpt lat="42.74379" lon="1.50132">
        <ele>1415.6</ele>
        <time>2024-07-08T14:03:04Z</time>
      </trkpt>
      <trkpt lat="42.74374" lon="1.50137">
        <ele>1415.6</ele>
        <time>2024-07-08T14:03:09Z</time>
      </trkpt>
      <trkpt lat="42.74371" lon="1.50137">
        <ele>1415.6</ele>
        <time>2024-07-08T14:03:11Z</time>
      </trkpt>
      <trkpt lat="42.74369" lon="1.50137">
        <ele>1415.6</ele>
        <time>2024-07-08T14:03:13Z</time>
      </trkpt>
      <trkpt lat="42.74365" lon="1.50142">
        <ele>1415.6</ele>
        <time>2024-07-08T14:03:16Z</time>
      </trkpt>
      <trkpt lat="42.74364" lon="1.50143">
        <ele>1415.6</ele>
        <time>2024-07-08T14:03:18Z</time>
      </trkpt>
      <trkpt lat="42.74356" lon="1.50154">
        <ele>1417.2</ele>
        <time>2024-07-08T14:03:25Z</time>
      </trkpt>
      <trkpt lat="42.7435" lon="1.50157">
        <ele>1418</ele>
        <time>2024-07-08T14:03:29Z</time>
      </trkpt>
      <trkpt lat="42.74346" lon="1.50158">
        <ele>1418.6</ele>
        <time>2024-07-08T14:03:31Z</time>
      </trkpt>
      <trkpt lat="42.74335" lon="1.50162">
        <ele>1419.8</ele>
        <time>2024-07-08T14:03:38Z</time>
      </trkpt>
      <trkpt lat="42.74329" lon="1.50161">
        <ele>1420.2</ele>
        <time>2024-07-08T14:03:43Z</time>
      </trkpt>
      <trkpt lat="42.74326" lon="1.50161">
        <ele>1420.6</ele>
        <time>2024-07-08T14:03:45Z</time>
      </trkpt>
      <trkpt lat="42.74325" lon="1.50161">
        <ele>1420.6</ele>
        <time>2024-07-08T14:03:46Z</time>
      </trkpt>
      <trkpt lat="42.74317" lon="1.50164">
        <ele>1421.2</ele>
        <time>2024-07-08T14:03:51Z</time>
      </trkpt>
      <trkpt lat="42.74314" lon="1.50164">
        <ele>1421.2</ele>
        <time>2024-07-08T14:03:54Z</time>
      </trkpt>
      <trkpt lat="42.74308" lon="1.50167">
        <ele>1421</ele>
        <time>2024-07-08T14:03:58Z</time>
      </trkpt>
      <trkpt lat="42.74303" lon="1.5017">
        <ele>1420.8</ele>
        <time>2024-07-08T14:04:01Z</time>
      </trkpt>
      <trkpt lat="42.74296" lon="1.50169">
        <ele>1420.8</ele>
        <time>2024-07-08T14:04:06Z</time>
      </trkpt>
      <trkpt lat="42.74288" lon="1.50162">
        <ele>1420.2</ele>
        <time>2024-07-08T14:04:13Z</time>
      </trkpt>
      <trkpt lat="42.74277" lon="1.50155">
        <ele>1416.8</ele>
        <time>2024-07-08T14:04:23Z</time>
      </trkpt>
      <trkpt lat="42.74275" lon="1.50154">
        <ele>1416.2</ele>
        <time>2024-07-08T14:04:25Z</time>
      </trkpt>
      <trkpt lat="42.74271" lon="1.50152">
        <ele>1415.6</ele>
        <time>2024-07-08T14:04:28Z</time>
      </trkpt>
      <trkpt lat="42.74268" lon="1.5015">
        <ele>1415.4</ele>
        <time>2024-07-08T14:04:31Z</time>
      </trkpt>
      <trkpt lat="42.74261" lon="1.50151">
        <ele>1414.4</ele>
        <time>2024-07-08T14:04:37Z</time>
      </trkpt>
      <trkpt lat="42.74255" lon="1.50152">
        <ele>1415.6</ele>
        <time>2024-07-08T14:04:43Z</time>
      </trkpt>
      <trkpt lat="42.74247" lon="1.50155">
        <ele>1416.4</ele>
        <time>2024-07-08T14:04:48Z</time>
      </trkpt>
      <trkpt lat="42.74246" lon="1.50157">
        <ele>1416.8</ele>
        <time>2024-07-08T14:04:49Z</time>
      </trkpt>
      <trkpt lat="42.74241" lon="1.50161">
        <ele>1418.8</ele>
        <time>2024-07-08T14:04:56Z</time>
      </trkpt>
      <trkpt lat="42.74231" lon="1.50169">
        <ele>1414</ele>
        <time>2024-07-08T14:05:07Z</time>
      </trkpt>
      <trkpt lat="42.74226" lon="1.50173">
        <ele>1412.4</ele>
        <time>2024-07-08T14:05:15Z</time>
      </trkpt>
      <trkpt lat="42.74219" lon="1.50168">
        <ele>1413</ele>
        <time>2024-07-08T14:05:22Z</time>
      </trkpt>
      <trkpt lat="42.74211" lon="1.50159">
        <ele>1413.6</ele>
        <time>2024-07-08T14:05:30Z</time>
      </trkpt>
      <trkpt lat="42.74201" lon="1.50153">
        <ele>1413.8</ele>
        <time>2024-07-08T14:05:39Z</time>
      </trkpt>
      <trkpt lat="42.7419" lon="1.50149">
        <ele>1414.2</ele>
        <time>2024-07-08T14:05:48Z</time>
      </trkpt>
      <trkpt lat="42.74182" lon="1.50152">
        <ele>1414.2</ele>
        <time>2024-07-08T14:05:56Z</time>
      </trkpt>
      <trkpt lat="42.74178" lon="1.50154">
        <ele>1415</ele>
        <time>2024-07-08T14:05:59Z</time>
      </trkpt>
      <trkpt lat="42.74177" lon="1.50158">
        <ele>1415.4</ele>
        <time>2024-07-08T14:06:02Z</time>
      </trkpt>
      <trkpt lat="42.74172" lon="1.50166">
        <ele>1415.8</ele>
        <time>2024-07-08T14:06:08Z</time>
      </trkpt>
      <trkpt lat="42.74172" lon="1.50168">
        <ele>1415.8</ele>
        <time>2024-07-08T14:06:09Z</time>
      </trkpt>
      <trkpt lat="42.74166" lon="1.50174">
        <ele>1416.4</ele>
        <time>2024-07-08T14:06:17Z</time>
      </trkpt>
      <trkpt lat="42.74168" lon="1.50178">
        <ele>1417.2</ele>
        <time>2024-07-08T14:06:22Z</time>
      </trkpt>
      <trkpt lat="42.74168" lon="1.5018">
        <ele>1417.8</ele>
        <time>2024-07-08T14:06:23Z</time>
      </trkpt>
      <trkpt lat="42.74164" lon="1.50191">
        <ele>1419.2</ele>
        <time>2024-07-08T14:06:28Z</time>
      </trkpt>
      <trkpt lat="42.74163" lon="1.50193">
        <ele>1419.4</ele>
        <time>2024-07-08T14:06:29Z</time>
      </trkpt>
      <trkpt lat="42.74158" lon="1.50197">
        <ele>1419</ele>
        <time>2024-07-08T14:06:33Z</time>
      </trkpt>
      <trkpt lat="42.74153" lon="1.502">
        <ele>1418.4</ele>
        <time>2024-07-08T14:06:36Z</time>
      </trkpt>
      <trkpt lat="42.74144" lon="1.50207">
        <ele>1418.2</ele>
        <time>2024-07-08T14:06:43Z</time>
      </trkpt>
      <trkpt lat="42.74138" lon="1.5021">
        <ele>1419</ele>
        <time>2024-07-08T14:06:50Z</time>
      </trkpt>
      <trkpt lat="42.7414" lon="1.5021">
        <ele>1419.4</ele>
        <time>2024-07-08T14:06:53Z</time>
      </trkpt>
      <trkpt lat="42.74145" lon="1.50216">
        <ele>1420</ele>
        <time>2024-07-08T14:06:58Z</time>
      </trkpt>
      <trkpt lat="42.74146" lon="1.50218">
        <ele>1420.2</ele>
        <time>2024-07-08T14:06:59Z</time>
      </trkpt>
      <trkpt lat="42.74148" lon="1.50225">
        <ele>1421</ele>
        <time>2024-07-08T14:07:03Z</time>
      </trkpt>
      <trkpt lat="42.74148" lon="1.50228">
        <ele>1421.2</ele>
        <time>2024-07-08T14:07:05Z</time>
      </trkpt>
      <trkpt lat="42.74148" lon="1.50232">
        <ele>1421.2</ele>
        <time>2024-07-08T14:07:07Z</time>
      </trkpt>
      <trkpt lat="42.74148" lon="1.50239">
        <ele>1420.8</ele>
        <time>2024-07-08T14:07:11Z</time>
      </trkpt>
      <trkpt lat="42.74147" lon="1.50241">
        <ele>1420.4</ele>
        <time>2024-07-08T14:07:12Z</time>
      </trkpt>
      <trkpt lat="42.74144" lon="1.50247">
        <ele>1419.8</ele>
        <time>2024-07-08T14:07:15Z</time>
      </trkpt>
      <trkpt lat="42.74144" lon="1.50249">
        <ele>1419.4</ele>
        <time>2024-07-08T14:07:16Z</time>
      </trkpt>
      <trkpt lat="42.74142" lon="1.50256">
        <ele>1416.8</ele>
        <time>2024-07-08T14:07:22Z</time>
      </trkpt>
      <trkpt lat="42.74138" lon="1.5027">
        <ele>1415.4</ele>
        <time>2024-07-08T14:07:28Z</time>
      </trkpt>
      <trkpt lat="42.74135" lon="1.50273">
        <ele>1415</ele>
        <time>2024-07-08T14:07:30Z</time>
      </trkpt>
      <trkpt lat="42.74131" lon="1.5028">
        <ele>1414</ele>
        <time>2024-07-08T14:07:34Z</time>
      </trkpt>
      <trkpt lat="42.74129" lon="1.50285">
        <ele>1413.4</ele>
        <time>2024-07-08T14:07:37Z</time>
      </trkpt>
      <trkpt lat="42.74129" lon="1.5029">
        <ele>1413</ele>
        <time>2024-07-08T14:07:40Z</time>
      </trkpt>
      <trkpt lat="42.74124" lon="1.50302">
        <ele>1412.2</ele>
        <time>2024-07-08T14:07:48Z</time>
      </trkpt>
      <trkpt lat="42.74114" lon="1.50319">
        <ele>1411.2</ele>
        <time>2024-07-08T14:07:58Z</time>
      </trkpt>
      <trkpt lat="42.74102" lon="1.50327">
        <ele>1411.6</ele>
        <time>2024-07-08T14:08:07Z</time>
      </trkpt>
      <trkpt lat="42.74093" lon="1.5033">
        <ele>1412.4</ele>
        <time>2024-07-08T14:08:14Z</time>
      </trkpt>
      <trkpt lat="42.74082" lon="1.50338">
        <ele>1412.4</ele>
        <time>2024-07-08T14:08:23Z</time>
      </trkpt>
      <trkpt lat="42.74081" lon="1.50338">
        <ele>1412.6</ele>
        <time>2024-07-08T14:08:24Z</time>
      </trkpt>
      <trkpt lat="42.74073" lon="1.50344">
        <ele>1414.2</ele>
        <time>2024-07-08T14:08:31Z</time>
      </trkpt>
      <trkpt lat="42.7407" lon="1.50346">
        <ele>1414.6</ele>
        <time>2024-07-08T14:08:33Z</time>
      </trkpt>
      <trkpt lat="42.74064" lon="1.50353">
        <ele>1415</ele>
        <time>2024-07-08T14:08:36Z</time>
      </trkpt>
      <trkpt lat="42.74059" lon="1.50357">
        <ele>1415.8</ele>
        <time>2024-07-08T14:08:40Z</time>
      </trkpt>
      <trkpt lat="42.7405" lon="1.50367">
        <ele>1416.2</ele>
        <time>2024-07-08T14:08:49Z</time>
      </trkpt>
      <trkpt lat="42.74042" lon="1.50376">
        <ele>1415</ele>
        <time>2024-07-08T14:08:57Z</time>
      </trkpt>
      <trkpt lat="42.74033" lon="1.50383">
        <ele>1415.6</ele>
        <time>2024-07-08T14:09:05Z</time>
      </trkpt>
      <trkpt lat="42.74018" lon="1.50388">
        <ele>1416.4</ele>
        <time>2024-07-08T14:09:15Z</time>
      </trkpt>
      <trkpt lat="42.74007" lon="1.5039">
        <ele>1417.8</ele>
        <time>2024-07-08T14:09:22Z</time>
      </trkpt>
      <trkpt lat="42.73995" lon="1.50391">
        <ele>1418.8</ele>
        <time>2024-07-08T14:09:31Z</time>
      </trkpt>
      <trkpt lat="42.73991" lon="1.50392">
        <ele>1418.8</ele>
        <time>2024-07-08T14:09:34Z</time>
      </trkpt>
      <trkpt lat="42.73987" lon="1.50394">
        <ele>1418.8</ele>
        <time>2024-07-08T14:09:37Z</time>
      </trkpt>
      <trkpt lat="42.73979" lon="1.50397">
        <ele>1420.4</ele>
        <time>2024-07-08T14:09:43Z</time>
      </trkpt>
      <trkpt lat="42.73971" lon="1.50402">
        <ele>1421.2</ele>
        <time>2024-07-08T14:09:50Z</time>
      </trkpt>
      <trkpt lat="42.73969" lon="1.50403">
        <ele>1421.2</ele>
        <time>2024-07-08T14:09:51Z</time>
      </trkpt>
      <trkpt lat="42.73963" lon="1.50407">
        <ele>1420.4</ele>
        <time>2024-07-08T14:09:57Z</time>
      </trkpt>
      <trkpt lat="42.73956" lon="1.50412">
        <ele>1418.6</ele>
        <time>2024-07-08T14:10:05Z</time>
      </trkpt>
      <trkpt lat="42.73955" lon="1.50412">
        <ele>1418.4</ele>
        <time>2024-07-08T14:10:06Z</time>
      </trkpt>
      <trkpt lat="42.73952" lon="1.50413">
        <ele>1416.8</ele>
        <time>2024-07-08T14:10:10Z</time>
      </trkpt>
      <trkpt lat="42.73951" lon="1.50414">
        <ele>1416.6</ele>
        <time>2024-07-08T14:10:11Z</time>
      </trkpt>
      <trkpt lat="42.7395" lon="1.50421">
        <ele>1415.8</ele>
        <time>2024-07-08T14:10:16Z</time>
      </trkpt>
      <trkpt lat="42.73949" lon="1.50423">
        <ele>1415.8</ele>
        <time>2024-07-08T14:10:18Z</time>
      </trkpt>
      <trkpt lat="42.73945" lon="1.50429">
        <ele>1417</ele>
        <time>2024-07-08T14:10:22Z</time>
      </trkpt>
      <trkpt lat="42.73941" lon="1.50435">
        <ele>1418</ele>
        <time>2024-07-08T14:10:28Z</time>
      </trkpt>
      <trkpt lat="42.73935" lon="1.5044">
        <ele>1417.2</ele>
        <time>2024-07-08T14:10:36Z</time>
      </trkpt>
      <trkpt lat="42.73935" lon="1.50441">
        <ele>1417</ele>
        <time>2024-07-08T14:10:37Z</time>
      </trkpt>
      <trkpt lat="42.73934" lon="1.50447">
        <ele>1416.4</ele>
        <time>2024-07-08T14:10:41Z</time>
      </trkpt>
      <trkpt lat="42.73925" lon="1.50453">
        <ele>1415.6</ele>
        <time>2024-07-08T14:10:47Z</time>
      </trkpt>
      <trkpt lat="42.73924" lon="1.50454">
        <ele>1415.4</ele>
        <time>2024-07-08T14:10:48Z</time>
      </trkpt>
      <trkpt lat="42.73922" lon="1.50455">
        <ele>1414.8</ele>
        <time>2024-07-08T14:10:50Z</time>
      </trkpt>
      <trkpt lat="42.73919" lon="1.50459">
        <ele>1413.8</ele>
        <time>2024-07-08T14:10:53Z</time>
      </trkpt>
      <trkpt lat="42.73918" lon="1.50459">
        <ele>1413.4</ele>
        <time>2024-07-08T14:10:54Z</time>
      </trkpt>
      <trkpt lat="42.73918" lon="1.5046">
        <ele>1413.2</ele>
        <time>2024-07-08T14:10:55Z</time>
      </trkpt>
      <trkpt lat="42.73916" lon="1.50464">
        <ele>1412.8</ele>
        <time>2024-07-08T14:10:58Z</time>
      </trkpt>
      <trkpt lat="42.73914" lon="1.50466">
        <ele>1412.6</ele>
        <time>2024-07-08T14:11:00Z</time>
      </trkpt>
      <trkpt lat="42.73907" lon="1.50475">
        <ele>1413.2</ele>
        <time>2024-07-08T14:11:07Z</time>
      </trkpt>
      <trkpt lat="42.73906" lon="1.50477">
        <ele>1413.6</ele>
        <time>2024-07-08T14:11:08Z</time>
      </trkpt>
      <trkpt lat="42.73897" lon="1.50489">
        <ele>1414.4</ele>
        <time>2024-07-08T14:11:15Z</time>
      </trkpt>
      <trkpt lat="42.73893" lon="1.50498">
        <ele>1413.6</ele>
        <time>2024-07-08T14:11:21Z</time>
      </trkpt>
      <trkpt lat="42.73886" lon="1.50511">
        <ele>1414</ele>
        <time>2024-07-08T14:11:28Z</time>
      </trkpt>
      <trkpt lat="42.73884" lon="1.50513">
        <ele>1414.4</ele>
        <time>2024-07-08T14:11:30Z</time>
      </trkpt>
      <trkpt lat="42.7388" lon="1.50517">
        <ele>1414.4</ele>
        <time>2024-07-08T14:11:34Z</time>
      </trkpt>
      <trkpt lat="42.73871" lon="1.50529">
        <ele>1414.6</ele>
        <time>2024-07-08T14:11:43Z</time>
      </trkpt>
      <trkpt lat="42.73868" lon="1.50533">
        <ele>1414.8</ele>
        <time>2024-07-08T14:11:46Z</time>
      </trkpt>
      <trkpt lat="42.73864" lon="1.50536">
        <ele>1414.6</ele>
        <time>2024-07-08T14:11:49Z</time>
      </trkpt>
      <trkpt lat="42.73857" lon="1.50542">
        <ele>1414.8</ele>
        <time>2024-07-08T14:11:55Z</time>
      </trkpt>
      <trkpt lat="42.73856" lon="1.50544">
        <ele>1415</ele>
        <time>2024-07-08T14:11:57Z</time>
      </trkpt>
      <trkpt lat="42.73856" lon="1.50546">
        <ele>1415.8</ele>
        <time>2024-07-08T14:11:59Z</time>
      </trkpt>
      <trkpt lat="42.73856" lon="1.50547">
        <ele>1416.2</ele>
        <time>2024-07-08T14:12:01Z</time>
      </trkpt>
      <trkpt lat="42.73849" lon="1.50555">
        <ele>1417.4</ele>
        <time>2024-07-08T14:12:07Z</time>
      </trkpt>
      <trkpt lat="42.73848" lon="1.50555">
        <ele>1417.4</ele>
        <time>2024-07-08T14:12:08Z</time>
      </trkpt>
      <trkpt lat="42.73841" lon="1.50558">
        <ele>1417.2</ele>
        <time>2024-07-08T14:12:13Z</time>
      </trkpt>
      <trkpt lat="42.73831" lon="1.5057">
        <ele>1414</ele>
        <time>2024-07-08T14:12:20Z</time>
      </trkpt>
      <trkpt lat="42.73824" lon="1.50577">
        <ele>1412.4</ele>
        <time>2024-07-08T14:12:25Z</time>
      </trkpt>
      <trkpt lat="42.73823" lon="1.50581">
        <ele>1412</ele>
        <time>2024-07-08T14:12:27Z</time>
      </trkpt>
      <trkpt lat="42.73817" lon="1.50592">
        <ele>1412</ele>
        <time>2024-07-08T14:12:34Z</time>
      </trkpt>
      <trkpt lat="42.73814" lon="1.50599">
        <ele>1414.4</ele>
        <time>2024-07-08T14:12:40Z</time>
      </trkpt>
      <trkpt lat="42.73813" lon="1.506">
        <ele>1414.8</ele>
        <time>2024-07-08T14:12:41Z</time>
      </trkpt>
      <trkpt lat="42.73812" lon="1.506">
        <ele>1415</ele>
        <time>2024-07-08T14:12:42Z</time>
      </trkpt>
      <trkpt lat="42.7381" lon="1.50601">
        <ele>1415.4</ele>
        <time>2024-07-08T14:12:44Z</time>
      </trkpt>
      <trkpt lat="42.73809" lon="1.50601">
        <ele>1415.6</ele>
        <time>2024-07-08T14:12:46Z</time>
      </trkpt>
      <trkpt lat="42.73802" lon="1.50607">
        <ele>1415.8</ele>
        <time>2024-07-08T14:12:55Z</time>
      </trkpt>
      <trkpt lat="42.73798" lon="1.50614">
        <ele>1415</ele>
        <time>2024-07-08T14:13:02Z</time>
      </trkpt>
      <trkpt lat="42.73797" lon="1.50615">
        <ele>1414.8</ele>
        <time>2024-07-08T14:13:03Z</time>
      </trkpt>
      <trkpt lat="42.73796" lon="1.50618">
        <ele>1414.8</ele>
        <time>2024-07-08T14:13:06Z</time>
      </trkpt>
      <trkpt lat="42.73795" lon="1.5062">
        <ele>1414.8</ele>
        <time>2024-07-08T14:13:07Z</time>
      </trkpt>
      <trkpt lat="42.73792" lon="1.50627">
        <ele>1415.6</ele>
        <time>2024-07-08T14:13:11Z</time>
      </trkpt>
      <trkpt lat="42.73789" lon="1.50629">
        <ele>1416.2</ele>
        <time>2024-07-08T14:13:13Z</time>
      </trkpt>
      <trkpt lat="42.73788" lon="1.50631">
        <ele>1416.4</ele>
        <time>2024-07-08T14:13:14Z</time>
      </trkpt>
      <trkpt lat="42.73783" lon="1.50635">
        <ele>1419.2</ele>
        <time>2024-07-08T14:13:21Z</time>
      </trkpt>
      <trkpt lat="42.73779" lon="1.50639">
        <ele>1418</ele>
        <time>2024-07-08T14:13:27Z</time>
      </trkpt>
      <trkpt lat="42.73771" lon="1.50645">
        <ele>1415.8</ele>
        <time>2024-07-08T14:13:34Z</time>
      </trkpt>
      <trkpt lat="42.73764" lon="1.50652">
        <ele>1414.4</ele>
        <time>2024-07-08T14:13:40Z</time>
      </trkpt>
      <trkpt lat="42.73763" lon="1.50659">
        <ele>1413.8</ele>
        <time>2024-07-08T14:13:44Z</time>
      </trkpt>
      <trkpt lat="42.7376" lon="1.50665">
        <ele>1413.6</ele>
        <time>2024-07-08T14:13:47Z</time>
      </trkpt>
      <trkpt lat="42.73759" lon="1.5067">
        <ele>1413.6</ele>
        <time>2024-07-08T14:13:50Z</time>
      </trkpt>
      <trkpt lat="42.73756" lon="1.50677">
        <ele>1414.2</ele>
        <time>2024-07-08T14:13:54Z</time>
      </trkpt>
      <trkpt lat="42.73749" lon="1.50683">
        <ele>1415</ele>
        <time>2024-07-08T14:14:01Z</time>
      </trkpt>
      <trkpt lat="42.73747" lon="1.50685">
        <ele>1415</ele>
        <time>2024-07-08T14:14:04Z</time>
      </trkpt>
      <trkpt lat="42.73742" lon="1.50689">
        <ele>1415.4</ele>
        <time>2024-07-08T14:14:08Z</time>
      </trkpt>
      <trkpt lat="42.73741" lon="1.50692">
        <ele>1415.6</ele>
        <time>2024-07-08T14:14:10Z</time>
      </trkpt>
      <trkpt lat="42.73737" lon="1.50698">
        <ele>1415.8</ele>
        <time>2024-07-08T14:14:15Z</time>
      </trkpt>
      <trkpt lat="42.73728" lon="1.50706">
        <ele>1415.4</ele>
        <time>2024-07-08T14:14:22Z</time>
      </trkpt>
      <trkpt lat="42.73725" lon="1.50707">
        <ele>1414.8</ele>
        <time>2024-07-08T14:14:24Z</time>
      </trkpt>
      <trkpt lat="42.73722" lon="1.50708">
        <ele>1414.2</ele>
        <time>2024-07-08T14:14:26Z</time>
      </trkpt>
      <trkpt lat="42.73721" lon="1.50708">
        <ele>1413.8</ele>
        <time>2024-07-08T14:14:27Z</time>
      </trkpt>
      <trkpt lat="42.73719" lon="1.50708">
        <ele>1413.6</ele>
        <time>2024-07-08T14:14:28Z</time>
      </trkpt>
      <trkpt lat="42.73717" lon="1.50711">
        <ele>1413.2</ele>
        <time>2024-07-08T14:14:30Z</time>
      </trkpt>
      <trkpt lat="42.73715" lon="1.50713">
        <ele>1413</ele>
        <time>2024-07-08T14:14:32Z</time>
      </trkpt>
      <trkpt lat="42.73711" lon="1.50717">
        <ele>1413</ele>
        <time>2024-07-08T14:14:39Z</time>
      </trkpt>
      <trkpt lat="42.73709" lon="1.50723">
        <ele>1416</ele>
        <time>2024-07-08T14:14:47Z</time>
      </trkpt>
      <trkpt lat="42.73705" lon="1.50726">
        <ele>1416.8</ele>
        <time>2024-07-08T14:14:50Z</time>
      </trkpt>
      <trkpt lat="42.73703" lon="1.50729">
        <ele>1417.6</ele>
        <time>2024-07-08T14:14:53Z</time>
      </trkpt>
      <trkpt lat="42.73699" lon="1.50736">
        <ele>1419</ele>
        <time>2024-07-08T14:14:58Z</time>
      </trkpt>
      <trkpt lat="42.73695" lon="1.50741">
        <ele>1421.2</ele>
        <time>2024-07-08T14:15:02Z</time>
      </trkpt>
      <trkpt lat="42.73691" lon="1.50743">
        <ele>1422.2</ele>
        <time>2024-07-08T14:15:04Z</time>
      </trkpt>
      <trkpt lat="42.73682" lon="1.50751">
        <ele>1424</ele>
        <time>2024-07-08T14:15:11Z</time>
      </trkpt>
      <trkpt lat="42.73677" lon="1.50754">
        <ele>1424.2</ele>
        <time>2024-07-08T14:15:14Z</time>
      </trkpt>
      <trkpt lat="42.73676" lon="1.50756">
        <ele>1424</ele>
        <time>2024-07-08T14:15:16Z</time>
      </trkpt>
      <trkpt lat="42.73676" lon="1.50758">
        <ele>1423.6</ele>
        <time>2024-07-08T14:15:17Z</time>
      </trkpt>
      <trkpt lat="42.73674" lon="1.50765">
        <ele>1421.4</ele>
        <time>2024-07-08T14:15:21Z</time>
      </trkpt>
      <trkpt lat="42.73673" lon="1.50768">
        <ele>1420.4</ele>
        <time>2024-07-08T14:15:23Z</time>
      </trkpt>
      <trkpt lat="42.73672" lon="1.50771">
        <ele>1419.8</ele>
        <time>2024-07-08T14:15:25Z</time>
      </trkpt>
      <trkpt lat="42.7367" lon="1.50775">
        <ele>1417.8</ele>
        <time>2024-07-08T14:15:28Z</time>
      </trkpt>
      <trkpt lat="42.7367" lon="1.50778">
        <ele>1416.2</ele>
        <time>2024-07-08T14:15:30Z</time>
      </trkpt>
      <trkpt lat="42.73665" lon="1.50789">
        <ele>1411.6</ele>
        <time>2024-07-08T14:15:37Z</time>
      </trkpt>
      <trkpt lat="42.73664" lon="1.50791">
        <ele>1411</ele>
        <time>2024-07-08T14:15:38Z</time>
      </trkpt>
      <trkpt lat="42.73662" lon="1.50792">
        <ele>1410.4</ele>
        <time>2024-07-08T14:15:39Z</time>
      </trkpt>
      <trkpt lat="42.73654" lon="1.50796">
        <ele>1407.4</ele>
        <time>2024-07-08T14:15:44Z</time>
      </trkpt>
      <trkpt lat="42.73647" lon="1.50811">
        <ele>1404.2</ele>
        <time>2024-07-08T14:15:54Z</time>
      </trkpt>
      <trkpt lat="42.73642" lon="1.50822">
        <ele>1406.4</ele>
        <time>2024-07-08T14:16:02Z</time>
      </trkpt>
      <trkpt lat="42.73639" lon="1.50832">
        <ele>1409.8</ele>
        <time>2024-07-08T14:16:08Z</time>
      </trkpt>
      <trkpt lat="42.73639" lon="1.50843">
        <ele>1412.2</ele>
        <time>2024-07-08T14:16:15Z</time>
      </trkpt>
      <trkpt lat="42.7364" lon="1.5086">
        <ele>1414.8</ele>
        <time>2024-07-08T14:16:24Z</time>
      </trkpt>
      <trkpt lat="42.7364" lon="1.50875">
        <ele>1418.2</ele>
        <time>2024-07-08T14:16:32Z</time>
      </trkpt>
      <trkpt lat="42.73637" lon="1.50879">
        <ele>1418.4</ele>
        <time>2024-07-08T14:16:35Z</time>
      </trkpt>
      <trkpt lat="42.73633" lon="1.50882">
        <ele>1418</ele>
        <time>2024-07-08T14:16:38Z</time>
      </trkpt>
      <trkpt lat="42.73629" lon="1.50886">
        <ele>1417.4</ele>
        <time>2024-07-08T14:16:45Z</time>
      </trkpt>
      <trkpt lat="42.73627" lon="1.50887">
        <ele>1416.6</ele>
        <time>2024-07-08T14:16:52Z</time>
      </trkpt>
      <trkpt lat="42.73626" lon="1.50887">
        <ele>1416</ele>
        <time>2024-07-08T14:16:59Z</time>
      </trkpt>
      <trkpt lat="42.73627" lon="1.50888">
        <ele>1417</ele>
        <time>2024-07-08T14:17:05Z</time>
      </trkpt>
      <trkpt lat="42.7363" lon="1.50895">
        <ele>1416.4</ele>
        <time>2024-07-08T14:19:24Z</time>
      </trkpt>
      <trkpt lat="42.73639" lon="1.509">
        <ele>1415.6</ele>
        <time>2024-07-08T14:19:32Z</time>
      </trkpt>
      <trkpt lat="42.73647" lon="1.50904">
        <ele>1413</ele>
        <time>2024-07-08T14:19:40Z</time>
      </trkpt>
      <trkpt lat="42.73656" lon="1.50901">
        <ele>1412</ele>
        <time>2024-07-08T14:19:48Z</time>
      </trkpt>
      <trkpt lat="42.73663" lon="1.50901">
        <ele>1413.6</ele>
        <time>2024-07-08T14:19:53Z</time>
      </trkpt>
      <trkpt lat="42.73665" lon="1.509">
        <ele>1414.6</ele>
        <time>2024-07-08T14:19:55Z</time>
      </trkpt>
      <trkpt lat="42.73666" lon="1.50899">
        <ele>1415</ele>
        <time>2024-07-08T14:19:56Z</time>
      </trkpt>
      <trkpt lat="42.73669" lon="1.50899">
        <ele>1416.6</ele>
        <time>2024-07-08T14:20:01Z</time>
      </trkpt>
      <trkpt lat="42.73671" lon="1.50897">
        <ele>1417</ele>
        <time>2024-07-08T14:20:05Z</time>
      </trkpt>
      <trkpt lat="42.73673" lon="1.50896">
        <ele>1417.2</ele>
        <time>2024-07-08T14:20:07Z</time>
      </trkpt>
      <trkpt lat="42.73677" lon="1.50893">
        <ele>1417.6</ele>
        <time>2024-07-08T14:20:13Z</time>
      </trkpt>
      <trkpt lat="42.73684" lon="1.50884">
        <ele>1420</ele>
        <time>2024-07-08T14:20:19Z</time>
      </trkpt>
      <trkpt lat="42.73696" lon="1.50882">
        <ele>1425</ele>
        <time>2024-07-08T14:20:27Z</time>
      </trkpt>
      <trkpt lat="42.73701" lon="1.50879">
        <ele>1425.4</ele>
        <time>2024-07-08T14:20:30Z</time>
      </trkpt>
      <trkpt lat="42.73705" lon="1.50877">
        <ele>1423.2</ele>
        <time>2024-07-08T14:20:34Z</time>
      </trkpt>
      <trkpt lat="42.73713" lon="1.5088">
        <ele>1422.4</ele>
        <time>2024-07-08T14:20:41Z</time>
      </trkpt>
      <trkpt lat="42.73714" lon="1.5088">
        <ele>1422.4</ele>
        <time>2024-07-08T14:20:42Z</time>
      </trkpt>
      <trkpt lat="42.73723" lon="1.50882">
        <ele>1421</ele>
        <time>2024-07-08T14:20:47Z</time>
      </trkpt>
      <trkpt lat="42.73725" lon="1.50882">
        <ele>1420.2</ele>
        <time>2024-07-08T14:20:49Z</time>
      </trkpt>
      <trkpt lat="42.73731" lon="1.50882">
        <ele>1419</ele>
        <time>2024-07-08T14:20:55Z</time>
      </trkpt>
      <trkpt lat="42.73741" lon="1.50874">
        <ele>1420</ele>
        <time>2024-07-08T14:21:03Z</time>
      </trkpt>
      <trkpt lat="42.73745" lon="1.50874">
        <ele>1421.8</ele>
        <time>2024-07-08T14:21:06Z</time>
      </trkpt>
      <trkpt lat="42.73747" lon="1.50873">
        <ele>1423.8</ele>
        <time>2024-07-08T14:21:08Z</time>
      </trkpt>
      <trkpt lat="42.73749" lon="1.50873">
        <ele>1424.8</ele>
        <time>2024-07-08T14:21:09Z</time>
      </trkpt>
      <trkpt lat="42.73756" lon="1.50868">
        <ele>1429.2</ele>
        <time>2024-07-08T14:21:15Z</time>
      </trkpt>
      <trkpt lat="42.73758" lon="1.50864">
        <ele>1430.4</ele>
        <time>2024-07-08T14:21:17Z</time>
      </trkpt>
      <trkpt lat="42.73766" lon="1.5086">
        <ele>1433.6</ele>
        <time>2024-07-08T14:21:23Z</time>
      </trkpt>
      <trkpt lat="42.73777" lon="1.50853">
        <ele>1436.2</ele>
        <time>2024-07-08T14:21:32Z</time>
      </trkpt>
      <trkpt lat="42.73784" lon="1.50855">
        <ele>1437.4</ele>
        <time>2024-07-08T14:21:36Z</time>
      </trkpt>
      <trkpt lat="42.73787" lon="1.50855">
        <ele>1437.6</ele>
        <time>2024-07-08T14:21:38Z</time>
      </trkpt>
      <trkpt lat="42.738" lon="1.50847">
        <ele>1436.4</ele>
        <time>2024-07-08T14:21:46Z</time>
      </trkpt>
      <trkpt lat="42.73801" lon="1.50844">
        <ele>1436</ele>
        <time>2024-07-08T14:21:48Z</time>
      </trkpt>
      <trkpt lat="42.73805" lon="1.5084">
        <ele>1434.4</ele>
        <time>2024-07-08T14:21:51Z</time>
      </trkpt>
      <trkpt lat="42.73812" lon="1.50837">
        <ele>1430.8</ele>
        <time>2024-07-08T14:21:58Z</time>
      </trkpt>
      <trkpt lat="42.73818" lon="1.50837">
        <ele>1430.2</ele>
        <time>2024-07-08T14:22:02Z</time>
      </trkpt>
      <trkpt lat="42.73819" lon="1.50837">
        <ele>1429.8</ele>
        <time>2024-07-08T14:22:04Z</time>
      </trkpt>
      <trkpt lat="42.7382" lon="1.50838">
        <ele>1429.2</ele>
        <time>2024-07-08T14:22:05Z</time>
      </trkpt>
      <trkpt lat="42.7383" lon="1.50832">
        <ele>1424.2</ele>
        <time>2024-07-08T14:22:13Z</time>
      </trkpt>
      <trkpt lat="42.73834" lon="1.50831">
        <ele>1423</ele>
        <time>2024-07-08T14:22:17Z</time>
      </trkpt>
      <trkpt lat="42.73838" lon="1.50829">
        <ele>1423.4</ele>
        <time>2024-07-08T14:22:20Z</time>
      </trkpt>
      <trkpt lat="42.73847" lon="1.5083">
        <ele>1424.4</ele>
        <time>2024-07-08T14:22:27Z</time>
      </trkpt>
      <trkpt lat="42.73856" lon="1.50835">
        <ele>1422.8</ele>
        <time>2024-07-08T14:22:35Z</time>
      </trkpt>
      <trkpt lat="42.73858" lon="1.50836">
        <ele>1422.6</ele>
        <time>2024-07-08T14:22:37Z</time>
      </trkpt>
      <trkpt lat="42.73861" lon="1.50839">
        <ele>1422.8</ele>
        <time>2024-07-08T14:22:40Z</time>
      </trkpt>
      <trkpt lat="42.73861" lon="1.5084">
        <ele>1423</ele>
        <time>2024-07-08T14:22:41Z</time>
      </trkpt>
      <trkpt lat="42.73867" lon="1.50843">
        <ele>1423.6</ele>
        <time>2024-07-08T14:22:47Z</time>
      </trkpt>
      <trkpt lat="42.73869" lon="1.50845">
        <ele>1424.4</ele>
        <time>2024-07-08T14:22:49Z</time>
      </trkpt>
      <trkpt lat="42.73872" lon="1.50846">
        <ele>1425.2</ele>
        <time>2024-07-08T14:22:52Z</time>
      </trkpt>
      <trkpt lat="42.73876" lon="1.50846">
        <ele>1425.8</ele>
        <time>2024-07-08T14:22:55Z</time>
      </trkpt>
      <trkpt lat="42.73877" lon="1.50846">
        <ele>1426</ele>
        <time>2024-07-08T14:22:56Z</time>
      </trkpt>
      <trkpt lat="42.73879" lon="1.50847">
        <ele>1426.4</ele>
        <time>2024-07-08T14:22:58Z</time>
      </trkpt>
      <trkpt lat="42.73881" lon="1.50847">
        <ele>1426.6</ele>
        <time>2024-07-08T14:22:59Z</time>
      </trkpt>
      <trkpt lat="42.73887" lon="1.50845">
        <ele>1427.2</ele>
        <time>2024-07-08T14:23:05Z</time>
      </trkpt>
      <trkpt lat="42.73903" lon="1.50846">
        <ele>1430</ele>
        <time>2024-07-08T14:23:16Z</time>
      </trkpt>
      <trkpt lat="42.73912" lon="1.50844">
        <ele>1433.6</ele>
        <time>2024-07-08T14:23:23Z</time>
      </trkpt>
      <trkpt lat="42.7392" lon="1.50844">
        <ele>1435.8</ele>
        <time>2024-07-08T14:23:28Z</time>
      </trkpt>
      <trkpt lat="42.73921" lon="1.50845">
        <ele>1436.2</ele>
        <time>2024-07-08T14:23:29Z</time>
      </trkpt>
      <trkpt lat="42.73928" lon="1.50844">
        <ele>1435</ele>
        <time>2024-07-08T14:23:34Z</time>
      </trkpt>
      <trkpt lat="42.7393" lon="1.50845">
        <ele>1433.8</ele>
        <time>2024-07-08T14:23:36Z</time>
      </trkpt>
      <trkpt lat="42.73933" lon="1.50847">
        <ele>1433.2</ele>
        <time>2024-07-08T14:23:38Z</time>
      </trkpt>
      <trkpt lat="42.73938" lon="1.50848">
        <ele>1433</ele>
        <time>2024-07-08T14:23:42Z</time>
      </trkpt>
      <trkpt lat="42.7394" lon="1.50849">
        <ele>1433</ele>
        <time>2024-07-08T14:23:44Z</time>
      </trkpt>
      <trkpt lat="42.73945" lon="1.50851">
        <ele>1433</ele>
        <time>2024-07-08T14:23:48Z</time>
      </trkpt>
      <trkpt lat="42.73949" lon="1.50852">
        <ele>1433</ele>
        <time>2024-07-08T14:23:51Z</time>
      </trkpt>
      <trkpt lat="42.73955" lon="1.50852">
        <ele>1432.6</ele>
        <time>2024-07-08T14:23:55Z</time>
      </trkpt>
      <trkpt lat="42.73964" lon="1.50853">
        <ele>1430.6</ele>
        <time>2024-07-08T14:24:01Z</time>
      </trkpt>
      <trkpt lat="42.73966" lon="1.50853">
        <ele>1430.2</ele>
        <time>2024-07-08T14:24:02Z</time>
      </trkpt>
      <trkpt lat="42.73967" lon="1.50852">
        <ele>1430.2</ele>
        <time>2024-07-08T14:24:03Z</time>
      </trkpt>
      <trkpt lat="42.73971" lon="1.50852">
        <ele>1430.2</ele>
        <time>2024-07-08T14:24:06Z</time>
      </trkpt>
      <trkpt lat="42.73982" lon="1.5085">
        <ele>1429.8</ele>
        <time>2024-07-08T14:24:14Z</time>
      </trkpt>
      <trkpt lat="42.73985" lon="1.50849">
        <ele>1427.8</ele>
        <time>2024-07-08T14:24:16Z</time>
      </trkpt>
      <trkpt lat="42.73989" lon="1.5085">
        <ele>1425.8</ele>
        <time>2024-07-08T14:24:20Z</time>
      </trkpt>
      <trkpt lat="42.73993" lon="1.50849">
        <ele>1425.6</ele>
        <time>2024-07-08T14:24:22Z</time>
      </trkpt>
      <trkpt lat="42.73995" lon="1.50849">
        <ele>1425.6</ele>
        <time>2024-07-08T14:24:24Z</time>
      </trkpt>
      <trkpt lat="42.73996" lon="1.5085">
        <ele>1425.6</ele>
        <time>2024-07-08T14:24:25Z</time>
      </trkpt>
      <trkpt lat="42.73999" lon="1.50849">
        <ele>1425.4</ele>
        <time>2024-07-08T14:24:27Z</time>
      </trkpt>
      <trkpt lat="42.74003" lon="1.50848">
        <ele>1425</ele>
        <time>2024-07-08T14:24:29Z</time>
      </trkpt>
      <trkpt lat="42.74005" lon="1.50847">
        <ele>1424.8</ele>
        <time>2024-07-08T14:24:31Z</time>
      </trkpt>
      <trkpt lat="42.74006" lon="1.50847">
        <ele>1424.6</ele>
        <time>2024-07-08T14:24:33Z</time>
      </trkpt>
      <trkpt lat="42.7401" lon="1.50844">
        <ele>1424.8</ele>
        <time>2024-07-08T14:24:36Z</time>
      </trkpt>
      <trkpt lat="42.74013" lon="1.50843">
        <ele>1425.2</ele>
        <time>2024-07-08T14:24:39Z</time>
      </trkpt>
      <trkpt lat="42.74017" lon="1.50845">
        <ele>1425.8</ele>
        <time>2024-07-08T14:24:41Z</time>
      </trkpt>
      <trkpt lat="42.74027" lon="1.50846">
        <ele>1425.8</ele>
        <time>2024-07-08T14:24:48Z</time>
      </trkpt>
      <trkpt lat="42.74028" lon="1.50846">
        <ele>1425.6</ele>
        <time>2024-07-08T14:24:49Z</time>
      </trkpt>
      <trkpt lat="42.74036" lon="1.50844">
        <ele>1422.8</ele>
        <time>2024-07-08T14:24:56Z</time>
      </trkpt>
      <trkpt lat="42.74037" lon="1.50844">
        <ele>1422.4</ele>
        <time>2024-07-08T14:24:57Z</time>
      </trkpt>
      <trkpt lat="42.74047" lon="1.50843">
        <ele>1421.4</ele>
        <time>2024-07-08T14:25:04Z</time>
      </trkpt>
      <trkpt lat="42.74056" lon="1.50844">
        <ele>1422.4</ele>
        <time>2024-07-08T14:25:11Z</time>
      </trkpt>
      <trkpt lat="42.74058" lon="1.50844">
        <ele>1422.4</ele>
        <time>2024-07-08T14:25:13Z</time>
      </trkpt>
      <trkpt lat="42.74063" lon="1.50843">
        <ele>1422.8</ele>
        <time>2024-07-08T14:25:17Z</time>
      </trkpt>
      <trkpt lat="42.74066" lon="1.50844">
        <ele>1423.8</ele>
        <time>2024-07-08T14:25:19Z</time>
      </trkpt>
      <trkpt lat="42.74071" lon="1.50843">
        <ele>1425.4</ele>
        <time>2024-07-08T14:25:23Z</time>
      </trkpt>
      <trkpt lat="42.7408" lon="1.50845">
        <ele>1425.6</ele>
        <time>2024-07-08T14:25:30Z</time>
      </trkpt>
      <trkpt lat="42.74093" lon="1.50847">
        <ele>1425</ele>
        <time>2024-07-08T14:25:39Z</time>
      </trkpt>
      <trkpt lat="42.74102" lon="1.50849">
        <ele>1423</ele>
        <time>2024-07-08T14:25:46Z</time>
      </trkpt>
      <trkpt lat="42.74109" lon="1.50849">
        <ele>1421</ele>
        <time>2024-07-08T14:25:51Z</time>
      </trkpt>
      <trkpt lat="42.74112" lon="1.50849">
        <ele>1420.4</ele>
        <time>2024-07-08T14:25:53Z</time>
      </trkpt>
      <trkpt lat="42.74119" lon="1.50849">
        <ele>1419.2</ele>
        <time>2024-07-08T14:25:58Z</time>
      </trkpt>
      <trkpt lat="42.74122" lon="1.5085">
        <ele>1418.8</ele>
        <time>2024-07-08T14:26:00Z</time>
      </trkpt>
      <trkpt lat="42.74134" lon="1.50856">
        <ele>1416.8</ele>
        <time>2024-07-08T14:26:09Z</time>
      </trkpt>
      <trkpt lat="42.7414" lon="1.50865">
        <ele>1416.8</ele>
        <time>2024-07-08T14:26:16Z</time>
      </trkpt>
      <trkpt lat="42.74141" lon="1.50867">
        <ele>1416.4</ele>
        <time>2024-07-08T14:26:17Z</time>
      </trkpt>
      <trkpt lat="42.74142" lon="1.5087">
        <ele>1415.8</ele>
        <time>2024-07-08T14:26:19Z</time>
      </trkpt>
      <trkpt lat="42.74143" lon="1.50877">
        <ele>1415</ele>
        <time>2024-07-08T14:26:24Z</time>
      </trkpt>
      <trkpt lat="42.74144" lon="1.50879">
        <ele>1415.8</ele>
        <time>2024-07-08T14:26:32Z</time>
      </trkpt>
      <trkpt lat="42.74144" lon="1.50877">
        <ele>1420.6</ele>
        <time>2024-07-08T14:26:44Z</time>
      </trkpt>
      <trkpt lat="42.74144" lon="1.50878">
        <ele>1427.6</ele>
        <time>2024-07-08T14:27:13Z</time>
      </trkpt>
      <trkpt lat="42.74143" lon="1.50898">
        <ele>1428.4</ele>
        <time>2024-07-08T14:27:21Z</time>
      </trkpt>
      <trkpt lat="42.74143" lon="1.509">
        <ele>1428.4</ele>
        <time>2024-07-08T14:27:22Z</time>
      </trkpt>
      <trkpt lat="42.7414" lon="1.50908">
        <ele>1425.8</ele>
        <time>2024-07-08T14:27:27Z</time>
      </trkpt>
      <trkpt lat="42.7414" lon="1.5091">
        <ele>1425.4</ele>
        <time>2024-07-08T14:27:28Z</time>
      </trkpt>
      <trkpt lat="42.7414" lon="1.50914">
        <ele>1424.2</ele>
        <time>2024-07-08T14:27:30Z</time>
      </trkpt>
      <trkpt lat="42.74138" lon="1.50919">
        <ele>1423.6</ele>
        <time>2024-07-08T14:27:32Z</time>
      </trkpt>
      <trkpt lat="42.74136" lon="1.50923">
        <ele>1423</ele>
        <time>2024-07-08T14:27:34Z</time>
      </trkpt>
      <trkpt lat="42.74132" lon="1.50929">
        <ele>1422.8</ele>
        <time>2024-07-08T14:27:38Z</time>
      </trkpt>
      <trkpt lat="42.74127" lon="1.50941">
        <ele>1422.4</ele>
        <time>2024-07-08T14:27:45Z</time>
      </trkpt>
      <trkpt lat="42.74126" lon="1.50951">
        <ele>1422.4</ele>
        <time>2024-07-08T14:27:51Z</time>
      </trkpt>
      <trkpt lat="42.74125" lon="1.50958">
        <ele>1423.6</ele>
        <time>2024-07-08T14:27:57Z</time>
      </trkpt>
      <trkpt lat="42.74119" lon="1.50965">
        <ele>1423.6</ele>
        <time>2024-07-08T14:28:05Z</time>
      </trkpt>
      <trkpt lat="42.74115" lon="1.50973">
        <ele>1422.8</ele>
        <time>2024-07-08T14:28:11Z</time>
      </trkpt>
      <trkpt lat="42.7411" lon="1.50981">
        <ele>1421</ele>
        <time>2024-07-08T14:28:17Z</time>
      </trkpt>
      <trkpt lat="42.7411" lon="1.50983">
        <ele>1419.8</ele>
        <time>2024-07-08T14:28:19Z</time>
      </trkpt>
      <trkpt lat="42.7411" lon="1.50987">
        <ele>1417.8</ele>
        <time>2024-07-08T14:28:22Z</time>
      </trkpt>
      <trkpt lat="42.7411" lon="1.50989">
        <ele>1417.4</ele>
        <time>2024-07-08T14:28:23Z</time>
      </trkpt>
      <trkpt lat="42.74107" lon="1.50999">
        <ele>1416.6</ele>
        <time>2024-07-08T14:28:28Z</time>
      </trkpt>
      <trkpt lat="42.74105" lon="1.51003">
        <ele>1417.6</ele>
        <time>2024-07-08T14:28:31Z</time>
      </trkpt>
      <trkpt lat="42.74104" lon="1.51006">
        <ele>1418</ele>
        <time>2024-07-08T14:28:33Z</time>
      </trkpt>
      <trkpt lat="42.74104" lon="1.51008">
        <ele>1418.2</ele>
        <time>2024-07-08T14:28:34Z</time>
      </trkpt>
      <trkpt lat="42.74101" lon="1.51019">
        <ele>1420.8</ele>
        <time>2024-07-08T14:28:41Z</time>
      </trkpt>
      <trkpt lat="42.74097" lon="1.51026">
        <ele>1423</ele>
        <time>2024-07-08T14:28:46Z</time>
      </trkpt>
      <trkpt lat="42.74093" lon="1.51034">
        <ele>1424.2</ele>
        <time>2024-07-08T14:28:51Z</time>
      </trkpt>
      <trkpt lat="42.74093" lon="1.51036">
        <ele>1424.6</ele>
        <time>2024-07-08T14:28:52Z</time>
      </trkpt>
      <trkpt lat="42.74093" lon="1.51038">
        <ele>1425</ele>
        <time>2024-07-08T14:28:53Z</time>
      </trkpt>
      <trkpt lat="42.74091" lon="1.51045">
        <ele>1426.8</ele>
        <time>2024-07-08T14:28:57Z</time>
      </trkpt>
      <trkpt lat="42.7409" lon="1.51049">
        <ele>1428.2</ele>
        <time>2024-07-08T14:29:00Z</time>
      </trkpt>
      <trkpt lat="42.74089" lon="1.51057">
        <ele>1429</ele>
        <time>2024-07-08T14:29:04Z</time>
      </trkpt>
      <trkpt lat="42.74088" lon="1.51075">
        <ele>1428.2</ele>
        <time>2024-07-08T14:29:12Z</time>
      </trkpt>
      <trkpt lat="42.74088" lon="1.51088">
        <ele>1427.4</ele>
        <time>2024-07-08T14:29:18Z</time>
      </trkpt>
      <trkpt lat="42.74087" lon="1.51094">
        <ele>1429</ele>
        <time>2024-07-08T14:29:21Z</time>
      </trkpt>
      <trkpt lat="42.74085" lon="1.51099">
        <ele>1431</ele>
        <time>2024-07-08T14:29:24Z</time>
      </trkpt>
      <trkpt lat="42.74083" lon="1.51101">
        <ele>1432.2</ele>
        <time>2024-07-08T14:29:26Z</time>
      </trkpt>
      <trkpt lat="42.74082" lon="1.51104">
        <ele>1433.2</ele>
        <time>2024-07-08T14:29:29Z</time>
      </trkpt>
      <trkpt lat="42.74079" lon="1.51108">
        <ele>1433.4</ele>
        <time>2024-07-08T14:29:32Z</time>
      </trkpt>
      <trkpt lat="42.74079" lon="1.51112">
        <ele>1433.2</ele>
        <time>2024-07-08T14:29:35Z</time>
      </trkpt>
      <trkpt lat="42.74076" lon="1.51118">
        <ele>1433.4</ele>
        <time>2024-07-08T14:29:39Z</time>
      </trkpt>
      <trkpt lat="42.74074" lon="1.51119">
        <ele>1433.6</ele>
        <time>2024-07-08T14:29:41Z</time>
      </trkpt>
      <trkpt lat="42.74069" lon="1.51126">
        <ele>1433.4</ele>
        <time>2024-07-08T14:29:48Z</time>
      </trkpt>
      <trkpt lat="42.74069" lon="1.51128">
        <ele>1433.4</ele>
        <time>2024-07-08T14:29:49Z</time>
      </trkpt>
      <trkpt lat="42.74069" lon="1.51135">
        <ele>1433.6</ele>
        <time>2024-07-08T14:29:54Z</time>
      </trkpt>
      <trkpt lat="42.74069" lon="1.51136">
        <ele>1433.6</ele>
        <time>2024-07-08T14:29:55Z</time>
      </trkpt>
      <trkpt lat="42.74069" lon="1.51137">
        <ele>1433.8</ele>
        <time>2024-07-08T14:29:56Z</time>
      </trkpt>
      <trkpt lat="42.74065" lon="1.51142">
        <ele>1433.6</ele>
        <time>2024-07-08T14:30:00Z</time>
      </trkpt>
      <trkpt lat="42.74064" lon="1.51143">
        <ele>1433.4</ele>
        <time>2024-07-08T14:30:01Z</time>
      </trkpt>
      <trkpt lat="42.7406" lon="1.51148">
        <ele>1433</ele>
        <time>2024-07-08T14:30:06Z</time>
      </trkpt>
      <trkpt lat="42.74056" lon="1.51153">
        <ele>1434.4</ele>
        <time>2024-07-08T14:30:12Z</time>
      </trkpt>
      <trkpt lat="42.74056" lon="1.51154">
        <ele>1434.6</ele>
        <time>2024-07-08T14:30:13Z</time>
      </trkpt>
      <trkpt lat="42.74055" lon="1.51159">
        <ele>1435.8</ele>
        <time>2024-07-08T14:30:19Z</time>
      </trkpt>
      <trkpt lat="42.74053" lon="1.51162">
        <ele>1437</ele>
        <time>2024-07-08T14:30:22Z</time>
      </trkpt>
      <trkpt lat="42.74052" lon="1.51162">
        <ele>1437.2</ele>
        <time>2024-07-08T14:30:23Z</time>
      </trkpt>
      <trkpt lat="42.74052" lon="1.51164">
        <ele>1438</ele>
        <time>2024-07-08T14:30:26Z</time>
      </trkpt>
      <trkpt lat="42.74051" lon="1.51168">
        <ele>1441</ele>
        <time>2024-07-08T14:30:31Z</time>
      </trkpt>
      <trkpt lat="42.7405" lon="1.51169">
        <ele>1442.2</ele>
        <time>2024-07-08T14:30:36Z</time>
      </trkpt>
      <trkpt lat="42.74049" lon="1.51168">
        <ele>1443</ele>
        <time>2024-07-08T14:30:41Z</time>
      </trkpt>
      <trkpt lat="42.74049" lon="1.51169">
        <ele>1444</ele>
        <time>2024-07-08T14:30:48Z</time>
      </trkpt>
      <trkpt lat="42.74047" lon="1.5117">
        <ele>1444.6</ele>
        <time>2024-07-08T14:31:25Z</time>
      </trkpt>
      <trkpt lat="42.74045" lon="1.51171">
        <ele>1446.6</ele>
        <time>2024-07-08T14:31:35Z</time>
      </trkpt>
      <trkpt lat="42.74043" lon="1.51176">
        <ele>1448</ele>
        <time>2024-07-08T14:31:55Z</time>
      </trkpt>
      <trkpt lat="42.74042" lon="1.51181">
        <ele>1447.4</ele>
        <time>2024-07-08T14:31:58Z</time>
      </trkpt>
      <trkpt lat="42.74041" lon="1.51186">
        <ele>1446.4</ele>
        <time>2024-07-08T14:32:00Z</time>
      </trkpt>
      <trkpt lat="42.74041" lon="1.51188">
        <ele>1446</ele>
        <time>2024-07-08T14:32:01Z</time>
      </trkpt>
      <trkpt lat="42.74042" lon="1.51189">
        <ele>1445.6</ele>
        <time>2024-07-08T14:32:02Z</time>
      </trkpt>
      <trkpt lat="42.74042" lon="1.51192">
        <ele>1444.4</ele>
        <time>2024-07-08T14:32:06Z</time>
      </trkpt>
      <trkpt lat="42.74043" lon="1.51194">
        <ele>1444</ele>
        <time>2024-07-08T14:32:08Z</time>
      </trkpt>
      <trkpt lat="42.74043" lon="1.51196">
        <ele>1443.8</ele>
        <time>2024-07-08T14:32:11Z</time>
      </trkpt>
      <trkpt lat="42.74043" lon="1.51198">
        <ele>1443.6</ele>
        <time>2024-07-08T14:32:16Z</time>
      </trkpt>
      <trkpt lat="42.74042" lon="1.51199">
        <ele>1443.4</ele>
        <time>2024-07-08T14:32:21Z</time>
      </trkpt>
      <trkpt lat="42.74042" lon="1.512">
        <ele>1441.2</ele>
        <time>2024-07-08T14:32:29Z</time>
      </trkpt>
      <trkpt lat="42.7404" lon="1.512">
        <ele>1438.4</ele>
        <time>2024-07-08T14:32:54Z</time>
      </trkpt>
      <trkpt lat="42.7404" lon="1.51201">
        <ele>1432</ele>
        <time>2024-07-08T14:33:04Z</time>
      </trkpt>
      <trkpt lat="42.7404" lon="1.51201">
        <ele>1427.6</ele>
        <time>2024-07-08T14:33:18Z</time>
      </trkpt>
      <trkpt lat="42.74048" lon="1.51199">
        <ele>1425.2</ele>
        <time>2024-07-08T14:34:49Z</time>
      </trkpt>
      <trkpt lat="42.74046" lon="1.51203">
        <ele>1421.8</ele>
        <time>2024-07-08T14:35:08Z</time>
      </trkpt>
      <trkpt lat="42.74046" lon="1.51203">
        <ele>1422</ele>
        <time>2024-07-08T14:35:17Z</time>
      </trkpt>
      <trkpt lat="42.74048" lon="1.51208">
        <ele>1431</ele>
        <time>2024-07-08T14:35:54Z</time>
      </trkpt>
      <trkpt lat="42.74047" lon="1.51212">
        <ele>1433.4</ele>
        <time>2024-07-08T14:35:57Z</time>
      </trkpt>
      <trkpt lat="42.74046" lon="1.51217">
        <ele>1436</ele>
        <time>2024-07-08T14:36:00Z</time>
      </trkpt>
      <trkpt lat="42.74046" lon="1.51218">
        <ele>1437.2</ele>
        <time>2024-07-08T14:36:01Z</time>
      </trkpt>
      <trkpt lat="42.74046" lon="1.51219">
        <ele>1438.4</ele>
        <time>2024-07-08T14:36:02Z</time>
      </trkpt>
      <trkpt lat="42.74046" lon="1.51222">
        <ele>1442.4</ele>
        <time>2024-07-08T14:36:05Z</time>
      </trkpt>
      <trkpt lat="42.74045" lon="1.51223">
        <ele>1443.4</ele>
        <time>2024-07-08T14:36:06Z</time>
      </trkpt>
      <trkpt lat="42.74044" lon="1.51229">
        <ele>1445.2</ele>
        <time>2024-07-08T14:36:11Z</time>
      </trkpt>
      <trkpt lat="42.74042" lon="1.5123">
        <ele>1445.4</ele>
        <time>2024-07-08T14:36:13Z</time>
      </trkpt>
      <trkpt lat="42.74041" lon="1.51235">
        <ele>1444.4</ele>
        <time>2024-07-08T14:36:19Z</time>
      </trkpt>
      <trkpt lat="42.74042" lon="1.51235">
        <ele>1442.8</ele>
        <time>2024-07-08T14:36:28Z</time>
      </trkpt>
      <trkpt lat="42.7404" lon="1.51242">
        <ele>1442.4</ele>
        <time>2024-07-08T14:36:37Z</time>
      </trkpt>
      <trkpt lat="42.74039" lon="1.51255">
        <ele>1436.2</ele>
        <time>2024-07-08T14:36:45Z</time>
      </trkpt>
      <trkpt lat="42.74038" lon="1.51257">
        <ele>1435</ele>
        <time>2024-07-08T14:36:47Z</time>
      </trkpt>
      <trkpt lat="42.7404" lon="1.51265">
        <ele>1434</ele>
        <time>2024-07-08T14:36:52Z</time>
      </trkpt>
      <trkpt lat="42.74041" lon="1.51267">
        <ele>1433.8</ele>
        <time>2024-07-08T14:36:53Z</time>
      </trkpt>
      <trkpt lat="42.74041" lon="1.51281">
        <ele>1435.2</ele>
        <time>2024-07-08T14:37:02Z</time>
      </trkpt>
      <trkpt lat="42.74045" lon="1.51289">
        <ele>1435.4</ele>
        <time>2024-07-08T14:37:09Z</time>
      </trkpt>
      <trkpt lat="42.74055" lon="1.51293">
        <ele>1435.2</ele>
        <time>2024-07-08T14:37:18Z</time>
      </trkpt>
      <trkpt lat="42.74057" lon="1.51295">
        <ele>1435.2</ele>
        <time>2024-07-08T14:37:20Z</time>
      </trkpt>
      <trkpt lat="42.74057" lon="1.51297">
        <ele>1435.4</ele>
        <time>2024-07-08T14:37:22Z</time>
      </trkpt>
      <trkpt lat="42.74059" lon="1.51298">
        <ele>1435.6</ele>
        <time>2024-07-08T14:37:24Z</time>
      </trkpt>
      <trkpt lat="42.74064" lon="1.51302">
        <ele>1435.6</ele>
        <time>2024-07-08T14:37:30Z</time>
      </trkpt>
      <trkpt lat="42.74067" lon="1.51303">
        <ele>1435.8</ele>
        <time>2024-07-08T14:37:33Z</time>
      </trkpt>
      <trkpt lat="42.74073" lon="1.51314">
        <ele>1433.8</ele>
        <time>2024-07-08T14:37:41Z</time>
      </trkpt>
      <trkpt lat="42.74079" lon="1.51321">
        <ele>1433.4</ele>
        <time>2024-07-08T14:37:49Z</time>
      </trkpt>
      <trkpt lat="42.7408" lon="1.51323">
        <ele>1433.4</ele>
        <time>2024-07-08T14:37:51Z</time>
      </trkpt>
      <trkpt lat="42.74082" lon="1.51324">
        <ele>1433.4</ele>
        <time>2024-07-08T14:37:55Z</time>
      </trkpt>
      <trkpt lat="42.74083" lon="1.51326">
        <ele>1433.2</ele>
        <time>2024-07-08T14:37:56Z</time>
      </trkpt>
      <trkpt lat="42.74085" lon="1.51331">
        <ele>1433.8</ele>
        <time>2024-07-08T14:38:00Z</time>
      </trkpt>
      <trkpt lat="42.74084" lon="1.51335">
        <ele>1434</ele>
        <time>2024-07-08T14:38:02Z</time>
      </trkpt>
      <trkpt lat="42.74087" lon="1.51345">
        <ele>1434.4</ele>
        <time>2024-07-08T14:38:11Z</time>
      </trkpt>
      <trkpt lat="42.74087" lon="1.5135">
        <ele>1434.6</ele>
        <time>2024-07-08T14:38:16Z</time>
      </trkpt>
      <trkpt lat="42.74087" lon="1.51351">
        <ele>1435</ele>
        <time>2024-07-08T14:38:18Z</time>
      </trkpt>
      <trkpt lat="42.74088" lon="1.5136">
        <ele>1436.2</ele>
        <time>2024-07-08T14:38:26Z</time>
      </trkpt>
      <trkpt lat="42.74087" lon="1.51371">
        <ele>1437.8</ele>
        <time>2024-07-08T14:38:35Z</time>
      </trkpt>
      <trkpt lat="42.7409" lon="1.51376">
        <ele>1439.8</ele>
        <time>2024-07-08T14:38:42Z</time>
      </trkpt>
      <trkpt lat="42.74091" lon="1.51378">
        <ele>1440.4</ele>
        <time>2024-07-08T14:38:44Z</time>
      </trkpt>
      <trkpt lat="42.74091" lon="1.51381">
        <ele>1441.2</ele>
        <time>2024-07-08T14:38:48Z</time>
      </trkpt>
      <trkpt lat="42.74093" lon="1.51387">
        <ele>1441.8</ele>
        <time>2024-07-08T14:38:56Z</time>
      </trkpt>
      <trkpt lat="42.74094" lon="1.51394">
        <ele>1442.8</ele>
        <time>2024-07-08T14:39:03Z</time>
      </trkpt>
      <trkpt lat="42.74095" lon="1.51401">
        <ele>1445.8</ele>
        <time>2024-07-08T14:39:10Z</time>
      </trkpt>
      <trkpt lat="42.74098" lon="1.51411">
        <ele>1448.8</ele>
        <time>2024-07-08T14:39:19Z</time>
      </trkpt>
      <trkpt lat="42.741" lon="1.51419">
        <ele>1450.2</ele>
        <time>2024-07-08T14:39:27Z</time>
      </trkpt>
      <trkpt lat="42.741" lon="1.5142">
        <ele>1450.6</ele>
        <time>2024-07-08T14:39:28Z</time>
      </trkpt>
      <trkpt lat="42.74101" lon="1.51422">
        <ele>1451.2</ele>
        <time>2024-07-08T14:39:30Z</time>
      </trkpt>
      <trkpt lat="42.74102" lon="1.51425">
        <ele>1452.2</ele>
        <time>2024-07-08T14:39:33Z</time>
      </trkpt>
      <trkpt lat="42.74102" lon="1.51429">
        <ele>1453.6</ele>
        <time>2024-07-08T14:39:39Z</time>
      </trkpt>
      <trkpt lat="42.74102" lon="1.51436">
        <ele>1455</ele>
        <time>2024-07-08T14:39:47Z</time>
      </trkpt>
      <trkpt lat="42.74103" lon="1.51446">
        <ele>1455.8</ele>
        <time>2024-07-08T14:39:56Z</time>
      </trkpt>
      <trkpt lat="42.74102" lon="1.51453">
        <ele>1457.2</ele>
        <time>2024-07-08T14:40:04Z</time>
      </trkpt>
      <trkpt lat="42.74101" lon="1.5146">
        <ele>1456.4</ele>
        <time>2024-07-08T14:40:11Z</time>
      </trkpt>
      <trkpt lat="42.74103" lon="1.51466">
        <ele>1456.4</ele>
        <time>2024-07-08T14:40:18Z</time>
      </trkpt>
      <trkpt lat="42.74104" lon="1.51473">
        <ele>1459.8</ele>
        <time>2024-07-08T14:40:28Z</time>
      </trkpt>
      <trkpt lat="42.74106" lon="1.51478">
        <ele>1462.2</ele>
        <time>2024-07-08T14:40:35Z</time>
      </trkpt>
      <trkpt lat="42.74106" lon="1.51481">
        <ele>1463.2</ele>
        <time>2024-07-08T14:40:40Z</time>
      </trkpt>
      <trkpt lat="42.74104" lon="1.51485">
        <ele>1463.4</ele>
        <time>2024-07-08T14:40:48Z</time>
      </trkpt>
      <trkpt lat="42.74104" lon="1.51486">
        <ele>1462.8</ele>
        <time>2024-07-08T14:40:56Z</time>
      </trkpt>
      <trkpt lat="42.74104" lon="1.51486">
        <ele>1461</ele>
        <time>2024-07-08T14:41:02Z</time>
      </trkpt>
      <trkpt lat="42.74104" lon="1.51486">
        <ele>1460.4</ele>
        <time>2024-07-08T14:41:11Z</time>
      </trkpt>
      <trkpt lat="42.74108" lon="1.51491">
        <ele>1460.6</ele>
        <time>2024-07-08T14:41:24Z</time>
      </trkpt>
      <trkpt lat="42.74115" lon="1.51495">
        <ele>1462.2</ele>
        <time>2024-07-08T14:41:30Z</time>
      </trkpt>
      <trkpt lat="42.74122" lon="1.51496">
        <ele>1465</ele>
        <time>2024-07-08T14:41:38Z</time>
      </trkpt>
      <trkpt lat="42.74127" lon="1.51495">
        <ele>1465.8</ele>
        <time>2024-07-08T14:41:44Z</time>
      </trkpt>
      <trkpt lat="42.74138" lon="1.51493">
        <ele>1468.6</ele>
        <time>2024-07-08T14:41:54Z</time>
      </trkpt>
      <trkpt lat="42.74143" lon="1.51488">
        <ele>1468.8</ele>
        <time>2024-07-08T14:42:00Z</time>
      </trkpt>
      <trkpt lat="42.74145" lon="1.51487">
        <ele>1468.8</ele>
        <time>2024-07-08T14:42:02Z</time>
      </trkpt>
      <trkpt lat="42.74156" lon="1.51478">
        <ele>1469.4</ele>
        <time>2024-07-08T14:42:12Z</time>
      </trkpt>
      <trkpt lat="42.74168" lon="1.51468">
        <ele>1468.6</ele>
        <time>2024-07-08T14:42:23Z</time>
      </trkpt>
      <trkpt lat="42.74179" lon="1.51458">
        <ele>1466.6</ele>
        <time>2024-07-08T14:42:32Z</time>
      </trkpt>
      <trkpt lat="42.74188" lon="1.51451">
        <ele>1467.6</ele>
        <time>2024-07-08T14:42:40Z</time>
      </trkpt>
      <trkpt lat="42.742" lon="1.51441">
        <ele>1465.4</ele>
        <time>2024-07-08T14:42:50Z</time>
      </trkpt>
      <trkpt lat="42.74212" lon="1.51432">
        <ele>1462.2</ele>
        <time>2024-07-08T14:42:59Z</time>
      </trkpt>
      <trkpt lat="42.74226" lon="1.51419">
        <ele>1460.6</ele>
        <time>2024-07-08T14:43:10Z</time>
      </trkpt>
      <trkpt lat="42.74239" lon="1.51405">
        <ele>1460.6</ele>
        <time>2024-07-08T14:43:22Z</time>
      </trkpt>
      <trkpt lat="42.74241" lon="1.51402">
        <ele>1460.4</ele>
        <time>2024-07-08T14:43:29Z</time>
      </trkpt>
      <trkpt lat="42.7425" lon="1.51396">
        <ele>1460.2</ele>
        <time>2024-07-08T14:43:36Z</time>
      </trkpt>
      <trkpt lat="42.74262" lon="1.51389">
        <ele>1459</ele>
        <time>2024-07-08T14:43:45Z</time>
      </trkpt>
      <trkpt lat="42.74279" lon="1.5138">
        <ele>1456.2</ele>
        <time>2024-07-08T14:43:57Z</time>
      </trkpt>
      <trkpt lat="42.74291" lon="1.51374">
        <ele>1454.6</ele>
        <time>2024-07-08T14:44:06Z</time>
      </trkpt>
      <trkpt lat="42.74309" lon="1.51369">
        <ele>1452</ele>
        <time>2024-07-08T14:44:19Z</time>
      </trkpt>
      <trkpt lat="42.74327" lon="1.51363">
        <ele>1449.8</ele>
        <time>2024-07-08T14:44:32Z</time>
      </trkpt>
      <trkpt lat="42.74331" lon="1.51362">
        <ele>1449.4</ele>
        <time>2024-07-08T14:44:35Z</time>
      </trkpt>
      <trkpt lat="42.74348" lon="1.51356">
        <ele>1446.6</ele>
        <time>2024-07-08T14:44:47Z</time>
      </trkpt>
      <trkpt lat="42.74363" lon="1.5135">
        <ele>1446.4</ele>
        <time>2024-07-08T14:44:58Z</time>
      </trkpt>
      <trkpt lat="42.7438" lon="1.51341">
        <ele>1445.8</ele>
        <time>2024-07-08T14:45:11Z</time>
      </trkpt>
      <trkpt lat="42.74382" lon="1.5134">
        <ele>1445.8</ele>
        <time>2024-07-08T14:45:12Z</time>
      </trkpt>
      <trkpt lat="42.74396" lon="1.51327">
        <ele>1444.8</ele>
        <time>2024-07-08T14:45:23Z</time>
      </trkpt>
      <trkpt lat="42.74404" lon="1.51317">
        <ele>1445</ele>
        <time>2024-07-08T14:45:31Z</time>
      </trkpt>
      <trkpt lat="42.74415" lon="1.51301">
        <ele>1444.2</ele>
        <time>2024-07-08T14:45:42Z</time>
      </trkpt>
      <trkpt lat="42.74427" lon="1.51281">
        <ele>1441</ele>
        <time>2024-07-08T14:45:55Z</time>
      </trkpt>
      <trkpt lat="42.74428" lon="1.51279">
        <ele>1440.6</ele>
        <time>2024-07-08T14:45:57Z</time>
      </trkpt>
      <trkpt lat="42.74439" lon="1.51263">
        <ele>1438.6</ele>
        <time>2024-07-08T14:46:08Z</time>
      </trkpt>
      <trkpt lat="42.74453" lon="1.51255">
        <ele>1437.4</ele>
        <time>2024-07-08T14:46:18Z</time>
      </trkpt>
      <trkpt lat="42.74465" lon="1.51256">
        <ele>1435.2</ele>
        <time>2024-07-08T14:46:26Z</time>
      </trkpt>
      <trkpt lat="42.74476" lon="1.51257">
        <ele>1433.4</ele>
        <time>2024-07-08T14:46:34Z</time>
      </trkpt>
      <trkpt lat="42.74489" lon="1.51258">
        <ele>1433</ele>
        <time>2024-07-08T14:46:43Z</time>
      </trkpt>
      <trkpt lat="42.74498" lon="1.51257">
        <ele>1432.2</ele>
        <time>2024-07-08T14:46:50Z</time>
      </trkpt>
      <trkpt lat="42.74509" lon="1.51257">
        <ele>1432</ele>
        <time>2024-07-08T14:46:57Z</time>
      </trkpt>
      <trkpt lat="42.74526" lon="1.51258">
        <ele>1430.4</ele>
        <time>2024-07-08T14:47:09Z</time>
      </trkpt>
      <trkpt lat="42.74538" lon="1.51262">
        <ele>1427.6</ele>
        <time>2024-07-08T14:47:18Z</time>
      </trkpt>
      <trkpt lat="42.74549" lon="1.51268">
        <ele>1426.6</ele>
        <time>2024-07-08T14:47:26Z</time>
      </trkpt>
      <trkpt lat="42.74562" lon="1.51276">
        <ele>1426.6</ele>
        <time>2024-07-08T14:47:36Z</time>
      </trkpt>
      <trkpt lat="42.74571" lon="1.5128">
        <ele>1426.2</ele>
        <time>2024-07-08T14:47:43Z</time>
      </trkpt>
      <trkpt lat="42.74583" lon="1.51287">
        <ele>1426.2</ele>
        <time>2024-07-08T14:47:52Z</time>
      </trkpt>
      <trkpt lat="42.74599" lon="1.51299">
        <ele>1425.2</ele>
        <time>2024-07-08T14:48:05Z</time>
      </trkpt>
      <trkpt lat="42.74608" lon="1.51307">
        <ele>1423</ele>
        <time>2024-07-08T14:48:13Z</time>
      </trkpt>
      <trkpt lat="42.74618" lon="1.51316">
        <ele>1420.4</ele>
        <time>2024-07-08T14:48:21Z</time>
      </trkpt>
      <trkpt lat="42.74632" lon="1.51323">
        <ele>1418.8</ele>
        <time>2024-07-08T14:48:32Z</time>
      </trkpt>
      <trkpt lat="42.74634" lon="1.51323">
        <ele>1418.6</ele>
        <time>2024-07-08T14:48:34Z</time>
      </trkpt>
      <trkpt lat="42.7464" lon="1.51325">
        <ele>1418.4</ele>
        <time>2024-07-08T14:48:39Z</time>
      </trkpt>
      <trkpt lat="42.74652" lon="1.51327">
        <ele>1418.8</ele>
        <time>2024-07-08T14:48:47Z</time>
      </trkpt>
      <trkpt lat="42.7466" lon="1.5133">
        <ele>1420</ele>
        <time>2024-07-08T14:48:54Z</time>
      </trkpt>
      <trkpt lat="42.74671" lon="1.51335">
        <ele>1419.8</ele>
        <time>2024-07-08T14:49:03Z</time>
      </trkpt>
      <trkpt lat="42.74682" lon="1.51332">
        <ele>1421.8</ele>
        <time>2024-07-08T14:49:11Z</time>
      </trkpt>
      <trkpt lat="42.7469" lon="1.51327">
        <ele>1424.6</ele>
        <time>2024-07-08T14:49:17Z</time>
      </trkpt>
      <trkpt lat="42.74692" lon="1.51326">
        <ele>1425.2</ele>
        <time>2024-07-08T14:49:19Z</time>
      </trkpt>
      <trkpt lat="42.74695" lon="1.51325">
        <ele>1425.6</ele>
        <time>2024-07-08T14:49:21Z</time>
      </trkpt>
      <trkpt lat="42.74703" lon="1.51323">
        <ele>1427.2</ele>
        <time>2024-07-08T14:49:28Z</time>
      </trkpt>
      <trkpt lat="42.74714" lon="1.51321">
        <ele>1428.4</ele>
        <time>2024-07-08T14:49:36Z</time>
      </trkpt>
      <trkpt lat="42.74718" lon="1.5132">
        <ele>1428</ele>
        <time>2024-07-08T14:49:40Z</time>
      </trkpt>
      <trkpt lat="42.74721" lon="1.5132">
        <ele>1427.6</ele>
        <time>2024-07-08T14:49:42Z</time>
      </trkpt>
      <trkpt lat="42.74731" lon="1.51316">
        <ele>1427.6</ele>
        <time>2024-07-08T14:49:49Z</time>
      </trkpt>
      <trkpt lat="42.74735" lon="1.51315">
        <ele>1427.8</ele>
        <time>2024-07-08T14:49:51Z</time>
      </trkpt>
      <trkpt lat="42.74747" lon="1.51308">
        <ele>1428.6</ele>
        <time>2024-07-08T14:49:59Z</time>
      </trkpt>
      <trkpt lat="42.74758" lon="1.51305">
        <ele>1429</ele>
        <time>2024-07-08T14:50:07Z</time>
      </trkpt>
      <trkpt lat="42.74759" lon="1.51304">
        <ele>1428.8</ele>
        <time>2024-07-08T14:50:08Z</time>
      </trkpt>
      <trkpt lat="42.74775" lon="1.51298">
        <ele>1429.2</ele>
        <time>2024-07-08T14:50:19Z</time>
      </trkpt>
      <trkpt lat="42.74786" lon="1.51289">
        <ele>1428.4</ele>
        <time>2024-07-08T14:50:28Z</time>
      </trkpt>
      <trkpt lat="42.74796" lon="1.51281">
        <ele>1425.2</ele>
        <time>2024-07-08T14:50:36Z</time>
      </trkpt>
      <trkpt lat="42.74803" lon="1.51275">
        <ele>1423.6</ele>
        <time>2024-07-08T14:50:42Z</time>
      </trkpt>
      <trkpt lat="42.74812" lon="1.51265">
        <ele>1422.6</ele>
        <time>2024-07-08T14:50:50Z</time>
      </trkpt>
      <trkpt lat="42.74822" lon="1.51257">
        <ele>1424</ele>
        <time>2024-07-08T14:50:58Z</time>
      </trkpt>
      <trkpt lat="42.74832" lon="1.51249">
        <ele>1427.2</ele>
        <time>2024-07-08T14:51:06Z</time>
      </trkpt>
      <trkpt lat="42.74833" lon="1.51247">
        <ele>1427.8</ele>
        <time>2024-07-08T14:51:07Z</time>
      </trkpt>
      <trkpt lat="42.74837" lon="1.51246">
        <ele>1428.8</ele>
        <time>2024-07-08T14:51:10Z</time>
      </trkpt>
      <trkpt lat="42.74839" lon="1.51245">
        <ele>1429</ele>
        <time>2024-07-08T14:51:11Z</time>
      </trkpt>
      <trkpt lat="42.74852" lon="1.51243">
        <ele>1428.6</ele>
        <time>2024-07-08T14:51:20Z</time>
      </trkpt>
      <trkpt lat="42.74859" lon="1.5124">
        <ele>1428.6</ele>
        <time>2024-07-08T14:51:25Z</time>
      </trkpt>
      <trkpt lat="42.74867" lon="1.51236">
        <ele>1429</ele>
        <time>2024-07-08T14:51:31Z</time>
      </trkpt>
      <trkpt lat="42.74868" lon="1.51235">
        <ele>1429</ele>
        <time>2024-07-08T14:51:32Z</time>
      </trkpt>
      <trkpt lat="42.74878" lon="1.5123">
        <ele>1429.4</ele>
        <time>2024-07-08T14:51:39Z</time>
      </trkpt>
      <trkpt lat="42.74886" lon="1.51224">
        <ele>1429</ele>
        <time>2024-07-08T14:51:46Z</time>
      </trkpt>
      <trkpt lat="42.74895" lon="1.51218">
        <ele>1428.2</ele>
        <time>2024-07-08T14:51:53Z</time>
      </trkpt>
      <trkpt lat="42.74904" lon="1.51211">
        <ele>1427.4</ele>
        <time>2024-07-08T14:52:00Z</time>
      </trkpt>
      <trkpt lat="42.74913" lon="1.51205">
        <ele>1427.2</ele>
        <time>2024-07-08T14:52:08Z</time>
      </trkpt>
      <trkpt lat="42.74921" lon="1.51195">
        <ele>1427.4</ele>
        <time>2024-07-08T14:52:16Z</time>
      </trkpt>
      <trkpt lat="42.74924" lon="1.51192">
        <ele>1428.4</ele>
        <time>2024-07-08T14:52:18Z</time>
      </trkpt>
      <trkpt lat="42.74926" lon="1.5119">
        <ele>1429.4</ele>
        <time>2024-07-08T14:52:20Z</time>
      </trkpt>
      <trkpt lat="42.74929" lon="1.51189">
        <ele>1429.8</ele>
        <time>2024-07-08T14:52:22Z</time>
      </trkpt>
      <trkpt lat="42.74937" lon="1.51182">
        <ele>1428.4</ele>
        <time>2024-07-08T14:52:30Z</time>
      </trkpt>
      <trkpt lat="42.7494" lon="1.51178">
        <ele>1428.6</ele>
        <time>2024-07-08T14:52:33Z</time>
      </trkpt>
      <trkpt lat="42.74943" lon="1.51175">
        <ele>1429.2</ele>
        <time>2024-07-08T14:52:36Z</time>
      </trkpt>
      <trkpt lat="42.74944" lon="1.51173">
        <ele>1429.4</ele>
        <time>2024-07-08T14:52:37Z</time>
      </trkpt>
      <trkpt lat="42.74954" lon="1.51164">
        <ele>1431.2</ele>
        <time>2024-07-08T14:52:45Z</time>
      </trkpt>
      <trkpt lat="42.74965" lon="1.51155">
        <ele>1433</ele>
        <time>2024-07-08T14:52:53Z</time>
      </trkpt>
      <trkpt lat="42.74973" lon="1.51149">
        <ele>1432.6</ele>
        <time>2024-07-08T14:53:00Z</time>
      </trkpt>
      <trkpt lat="42.74984" lon="1.5114">
        <ele>1429</ele>
        <time>2024-07-08T14:53:08Z</time>
      </trkpt>
      <trkpt lat="42.7499" lon="1.51133">
        <ele>1428</ele>
        <time>2024-07-08T14:53:13Z</time>
      </trkpt>
      <trkpt lat="42.74996" lon="1.51132">
        <ele>1427</ele>
        <time>2024-07-08T14:53:19Z</time>
      </trkpt>
      <trkpt lat="42.74999" lon="1.5113">
        <ele>1426.4</ele>
        <time>2024-07-08T14:53:22Z</time>
      </trkpt>
      <trkpt lat="42.75002" lon="1.51128">
        <ele>1425.6</ele>
        <time>2024-07-08T14:53:25Z</time>
      </trkpt>
      <trkpt lat="42.75006" lon="1.51124">
        <ele>1424.6</ele>
        <time>2024-07-08T14:53:28Z</time>
      </trkpt>
      <trkpt lat="42.75008" lon="1.51122">
        <ele>1424.2</ele>
        <time>2024-07-08T14:53:30Z</time>
      </trkpt>
      <trkpt lat="42.75009" lon="1.51122">
        <ele>1424.2</ele>
        <time>2024-07-08T14:53:31Z</time>
      </trkpt>
      <trkpt lat="42.75018" lon="1.51115">
        <ele>1424.2</ele>
        <time>2024-07-08T14:53:38Z</time>
      </trkpt>
      <trkpt lat="42.75028" lon="1.5111">
        <ele>1423</ele>
        <time>2024-07-08T14:53:46Z</time>
      </trkpt>
      <trkpt lat="42.75037" lon="1.51101">
        <ele>1423</ele>
        <time>2024-07-08T14:53:53Z</time>
      </trkpt>
      <trkpt lat="42.75049" lon="1.51091">
        <ele>1427</ele>
        <time>2024-07-08T14:54:02Z</time>
      </trkpt>
      <trkpt lat="42.7506" lon="1.51083">
        <ele>1432.6</ele>
        <time>2024-07-08T14:54:10Z</time>
      </trkpt>
      <trkpt lat="42.75064" lon="1.51082">
        <ele>1433.8</ele>
        <time>2024-07-08T14:54:13Z</time>
      </trkpt>
      <trkpt lat="42.7507" lon="1.51081">
        <ele>1434.2</ele>
        <time>2024-07-08T14:54:17Z</time>
      </trkpt>
      <trkpt lat="42.75086" lon="1.51077">
        <ele>1433.6</ele>
        <time>2024-07-08T14:54:27Z</time>
      </trkpt>
      <trkpt lat="42.75097" lon="1.51072">
        <ele>1431</ele>
        <time>2024-07-08T14:54:36Z</time>
      </trkpt>
      <trkpt lat="42.75109" lon="1.51076">
        <ele>1432.8</ele>
        <time>2024-07-08T14:54:44Z</time>
      </trkpt>
      <trkpt lat="42.75117" lon="1.51082">
        <ele>1431</ele>
        <time>2024-07-08T14:54:53Z</time>
      </trkpt>
      <trkpt lat="42.75117" lon="1.51086">
        <ele>1430.2</ele>
        <time>2024-07-08T14:54:55Z</time>
      </trkpt>
      <trkpt lat="42.75118" lon="1.51089">
        <ele>1429.6</ele>
        <time>2024-07-08T14:54:57Z</time>
      </trkpt>
      <trkpt lat="42.7512" lon="1.5109">
        <ele>1429.4</ele>
        <time>2024-07-08T14:54:58Z</time>
      </trkpt>
      <trkpt lat="42.75125" lon="1.51094">
        <ele>1427.8</ele>
        <time>2024-07-08T14:55:04Z</time>
      </trkpt>
      <trkpt lat="42.75126" lon="1.51094">
        <ele>1427.6</ele>
        <time>2024-07-08T14:55:05Z</time>
      </trkpt>
      <trkpt lat="42.75135" lon="1.51094">
        <ele>1426.6</ele>
        <time>2024-07-08T14:55:11Z</time>
      </trkpt>
      <trkpt lat="42.7514" lon="1.51099">
        <ele>1424.8</ele>
        <time>2024-07-08T14:55:18Z</time>
      </trkpt>
      <trkpt lat="42.75147" lon="1.51108">
        <ele>1424.2</ele>
        <time>2024-07-08T14:55:24Z</time>
      </trkpt>
      <trkpt lat="42.75158" lon="1.51123">
        <ele>1423.8</ele>
        <time>2024-07-08T14:55:34Z</time>
      </trkpt>
      <trkpt lat="42.75161" lon="1.51126">
        <ele>1423.6</ele>
        <time>2024-07-08T14:55:37Z</time>
      </trkpt>
      <trkpt lat="42.75163" lon="1.51133">
        <ele>1422.4</ele>
        <time>2024-07-08T14:55:41Z</time>
      </trkpt>
      <trkpt lat="42.75164" lon="1.51135">
        <ele>1422</ele>
        <time>2024-07-08T14:55:42Z</time>
      </trkpt>
      <trkpt lat="42.75167" lon="1.51145">
        <ele>1420.8</ele>
        <time>2024-07-08T14:55:47Z</time>
      </trkpt>
      <trkpt lat="42.75171" lon="1.51162">
        <ele>1421.2</ele>
        <time>2024-07-08T14:55:55Z</time>
      </trkpt>
      <trkpt lat="42.75174" lon="1.51171">
        <ele>1421.8</ele>
        <time>2024-07-08T14:56:01Z</time>
      </trkpt>
      <trkpt lat="42.75175" lon="1.51175">
        <ele>1421.6</ele>
        <time>2024-07-08T14:56:03Z</time>
      </trkpt>
      <trkpt lat="42.7518" lon="1.51187">
        <ele>1419.2</ele>
        <time>2024-07-08T14:56:11Z</time>
      </trkpt>
      <trkpt lat="42.75186" lon="1.51195">
        <ele>1417.4</ele>
        <time>2024-07-08T14:56:18Z</time>
      </trkpt>
      <trkpt lat="42.75186" lon="1.51198">
        <ele>1418.6</ele>
        <time>2024-07-08T14:56:20Z</time>
      </trkpt>
      <trkpt lat="42.75187" lon="1.51202">
        <ele>1420</ele>
        <time>2024-07-08T14:56:23Z</time>
      </trkpt>
      <trkpt lat="42.75187" lon="1.51204">
        <ele>1420.2</ele>
        <time>2024-07-08T14:56:24Z</time>
      </trkpt>
      <trkpt lat="42.75188" lon="1.51208">
        <ele>1420.4</ele>
        <time>2024-07-08T14:56:26Z</time>
      </trkpt>
      <trkpt lat="42.75192" lon="1.51213">
        <ele>1420.6</ele>
        <time>2024-07-08T14:56:29Z</time>
      </trkpt>
      <trkpt lat="42.75193" lon="1.51221">
        <ele>1420</ele>
        <time>2024-07-08T14:56:33Z</time>
      </trkpt>
      <trkpt lat="42.75194" lon="1.51226">
        <ele>1419.8</ele>
        <time>2024-07-08T14:56:35Z</time>
      </trkpt>
      <trkpt lat="42.75196" lon="1.51227">
        <ele>1419.8</ele>
        <time>2024-07-08T14:56:36Z</time>
      </trkpt>
      <trkpt lat="42.75196" lon="1.5123">
        <ele>1419.6</ele>
        <time>2024-07-08T14:56:37Z</time>
      </trkpt>
      <trkpt lat="42.75199" lon="1.51238">
        <ele>1419.6</ele>
        <time>2024-07-08T14:56:42Z</time>
      </trkpt>
      <trkpt lat="42.75202" lon="1.51245">
        <ele>1419.2</ele>
        <time>2024-07-08T14:56:46Z</time>
      </trkpt>
      <trkpt lat="42.75203" lon="1.51252">
        <ele>1417.2</ele>
        <time>2024-07-08T14:56:50Z</time>
      </trkpt>
      <trkpt lat="42.75206" lon="1.5126">
        <ele>1415</ele>
        <time>2024-07-08T14:56:55Z</time>
      </trkpt>
      <trkpt lat="42.75207" lon="1.51266">
        <ele>1414.8</ele>
        <time>2024-07-08T14:56:58Z</time>
      </trkpt>
      <trkpt lat="42.75208" lon="1.51275">
        <ele>1415.2</ele>
        <time>2024-07-08T14:57:03Z</time>
      </trkpt>
      <trkpt lat="42.75209" lon="1.5128">
        <ele>1415.8</ele>
        <time>2024-07-08T14:57:05Z</time>
      </trkpt>
      <trkpt lat="42.75211" lon="1.51281">
        <ele>1416</ele>
        <time>2024-07-08T14:57:06Z</time>
      </trkpt>
      <trkpt lat="42.75214" lon="1.51288">
        <ele>1417.2</ele>
        <time>2024-07-08T14:57:10Z</time>
      </trkpt>
      <trkpt lat="42.75218" lon="1.51298">
        <ele>1418.2</ele>
        <time>2024-07-08T14:57:18Z</time>
      </trkpt>
      <trkpt lat="42.75224" lon="1.51312">
        <ele>1419.2</ele>
        <time>2024-07-08T14:57:26Z</time>
      </trkpt>
      <trkpt lat="42.75228" lon="1.5132">
        <ele>1419.4</ele>
        <time>2024-07-08T14:57:32Z</time>
      </trkpt>
      <trkpt lat="42.75228" lon="1.51324">
        <ele>1419.4</ele>
        <time>2024-07-08T14:57:34Z</time>
      </trkpt>
      <trkpt lat="42.75231" lon="1.5133">
        <ele>1420.4</ele>
        <time>2024-07-08T14:57:40Z</time>
      </trkpt>
      <trkpt lat="42.75232" lon="1.51334">
        <ele>1421.2</ele>
        <time>2024-07-08T14:57:44Z</time>
      </trkpt>
      <trkpt lat="42.75232" lon="1.51334">
        <ele>1423</ele>
        <time>2024-07-08T14:57:52Z</time>
      </trkpt>
      <trkpt lat="42.75235" lon="1.51334">
        <ele>1422.6</ele>
        <time>2024-07-08T14:58:02Z</time>
      </trkpt>
      <trkpt lat="42.75236" lon="1.51334">
        <ele>1423.8</ele>
        <time>2024-07-08T14:58:12Z</time>
      </trkpt>
      <trkpt lat="42.75237" lon="1.51343">
        <ele>1423</ele>
        <time>2024-07-08T14:58:44Z</time>
      </trkpt>
      <trkpt lat="42.75243" lon="1.51356">
        <ele>1421.4</ele>
        <time>2024-07-08T14:58:50Z</time>
      </trkpt>
      <trkpt lat="42.75248" lon="1.5136">
        <ele>1420.6</ele>
        <time>2024-07-08T14:58:54Z</time>
      </trkpt>
      <trkpt lat="42.7525" lon="1.51363">
        <ele>1420.6</ele>
        <time>2024-07-08T14:58:56Z</time>
      </trkpt>
      <trkpt lat="42.75258" lon="1.51377">
        <ele>1424</ele>
        <time>2024-07-08T14:59:04Z</time>
      </trkpt>
      <trkpt lat="42.75263" lon="1.51385">
        <ele>1423.8</ele>
        <time>2024-07-08T14:59:10Z</time>
      </trkpt>
      <trkpt lat="42.75267" lon="1.51397">
        <ele>1422.4</ele>
        <time>2024-07-08T14:59:18Z</time>
      </trkpt>
      <trkpt lat="42.75269" lon="1.51405">
        <ele>1422.6</ele>
        <time>2024-07-08T14:59:23Z</time>
      </trkpt>
      <trkpt lat="42.7527" lon="1.51406">
        <ele>1422.4</ele>
        <time>2024-07-08T14:59:24Z</time>
      </trkpt>
      <trkpt lat="42.75272" lon="1.51411">
        <ele>1422.2</ele>
        <time>2024-07-08T14:59:26Z</time>
      </trkpt>
      <trkpt lat="42.75274" lon="1.51419">
        <ele>1422</ele>
        <time>2024-07-08T14:59:30Z</time>
      </trkpt>
      <trkpt lat="42.75275" lon="1.51423">
        <ele>1422</ele>
        <time>2024-07-08T14:59:32Z</time>
      </trkpt>
      <trkpt lat="42.75277" lon="1.51426">
        <ele>1422</ele>
        <time>2024-07-08T14:59:34Z</time>
      </trkpt>
      <trkpt lat="42.7528" lon="1.5143">
        <ele>1422.4</ele>
        <time>2024-07-08T14:59:37Z</time>
      </trkpt>
      <trkpt lat="42.75282" lon="1.51433">
        <ele>1422.6</ele>
        <time>2024-07-08T14:59:39Z</time>
      </trkpt>
      <trkpt lat="42.75283" lon="1.51434">
        <ele>1422.8</ele>
        <time>2024-07-08T14:59:40Z</time>
      </trkpt>
      <trkpt lat="42.75288" lon="1.51446">
        <ele>1423.4</ele>
        <time>2024-07-08T14:59:49Z</time>
      </trkpt>
      <trkpt lat="42.75293" lon="1.51456">
        <ele>1423.4</ele>
        <time>2024-07-08T14:59:55Z</time>
      </trkpt>
      <trkpt lat="42.75293" lon="1.51457">
        <ele>1423.2</ele>
        <time>2024-07-08T14:59:56Z</time>
      </trkpt>
      <trkpt lat="42.75296" lon="1.51457">
        <ele>1422.2</ele>
        <time>2024-07-08T14:59:59Z</time>
      </trkpt>
      <trkpt lat="42.75299" lon="1.5146">
        <ele>1422</ele>
        <time>2024-07-08T15:00:02Z</time>
      </trkpt>
      <trkpt lat="42.75303" lon="1.51462">
        <ele>1422.8</ele>
        <time>2024-07-08T15:00:05Z</time>
      </trkpt>
      <trkpt lat="42.75307" lon="1.51468">
        <ele>1423.8</ele>
        <time>2024-07-08T15:00:09Z</time>
      </trkpt>
      <trkpt lat="42.75315" lon="1.51472">
        <ele>1424.4</ele>
        <time>2024-07-08T15:00:15Z</time>
      </trkpt>
      <trkpt lat="42.75316" lon="1.51474">
        <ele>1424.4</ele>
        <time>2024-07-08T15:00:16Z</time>
      </trkpt>
      <trkpt lat="42.75325" lon="1.51483">
        <ele>1424.4</ele>
        <time>2024-07-08T15:00:23Z</time>
      </trkpt>
      <trkpt lat="42.75327" lon="1.51491">
        <ele>1423.8</ele>
        <time>2024-07-08T15:00:28Z</time>
      </trkpt>
      <trkpt lat="42.75328" lon="1.51493">
        <ele>1423.6</ele>
        <time>2024-07-08T15:00:29Z</time>
      </trkpt>
      <trkpt lat="42.75332" lon="1.51497">
        <ele>1422.6</ele>
        <time>2024-07-08T15:00:33Z</time>
      </trkpt>
      <trkpt lat="42.75337" lon="1.515">
        <ele>1421.6</ele>
        <time>2024-07-08T15:00:37Z</time>
      </trkpt>
      <trkpt lat="42.75345" lon="1.51501">
        <ele>1422.2</ele>
        <time>2024-07-08T15:00:45Z</time>
      </trkpt>
      <trkpt lat="42.75347" lon="1.51501">
        <ele>1422.8</ele>
        <time>2024-07-08T15:00:51Z</time>
      </trkpt>
      <trkpt lat="42.75347" lon="1.515">
        <ele>1423.8</ele>
        <time>2024-07-08T15:00:59Z</time>
      </trkpt>
      <trkpt lat="42.75345" lon="1.515">
        <ele>1425.4</ele>
        <time>2024-07-08T15:01:27Z</time>
      </trkpt>
      <trkpt lat="42.75329" lon="1.51493">
        <ele>1424.2</ele>
        <time>2024-07-08T15:01:35Z</time>
      </trkpt>
      <trkpt lat="42.75321" lon="1.51489">
        <ele>1421.8</ele>
        <time>2024-07-08T15:01:41Z</time>
      </trkpt>
      <trkpt lat="42.75318" lon="1.51486">
        <ele>1421.6</ele>
        <time>2024-07-08T15:01:44Z</time>
      </trkpt>
      <trkpt lat="42.75316" lon="1.51483">
        <ele>1421.8</ele>
        <time>2024-07-08T15:01:47Z</time>
      </trkpt>
      <trkpt lat="42.75305" lon="1.51476">
        <ele>1424.4</ele>
        <time>2024-07-08T15:01:55Z</time>
      </trkpt>
      <trkpt lat="42.75303" lon="1.51473">
        <ele>1426.2</ele>
        <time>2024-07-08T15:01:58Z</time>
      </trkpt>
      <trkpt lat="42.75301" lon="1.5147">
        <ele>1426.8</ele>
        <time>2024-07-08T15:02:01Z</time>
      </trkpt>
      <trkpt lat="42.75297" lon="1.5147">
        <ele>1426.6</ele>
        <time>2024-07-08T15:02:02Z</time>
      </trkpt>
      <trkpt lat="42.7529" lon="1.51464">
        <ele>1426.4</ele>
        <time>2024-07-08T15:02:07Z</time>
      </trkpt>
      <trkpt lat="42.75285" lon="1.51455">
        <ele>1428.2</ele>
        <time>2024-07-08T15:02:15Z</time>
      </trkpt>
      <trkpt lat="42.75283" lon="1.51449">
        <ele>1429.2</ele>
        <time>2024-07-08T15:02:21Z</time>
      </trkpt>
      <trkpt lat="42.75282" lon="1.51447">
        <ele>1429.2</ele>
        <time>2024-07-08T15:02:22Z</time>
      </trkpt>
      <trkpt lat="42.75283" lon="1.51446">
        <ele>1429.4</ele>
        <time>2024-07-08T15:02:23Z</time>
      </trkpt>
      <trkpt lat="42.75279" lon="1.51439">
        <ele>1427</ele>
        <time>2024-07-08T15:02:27Z</time>
      </trkpt>
      <trkpt lat="42.75278" lon="1.51429">
        <ele>1424.8</ele>
        <time>2024-07-08T15:02:33Z</time>
      </trkpt>
      <trkpt lat="42.75277" lon="1.51425">
        <ele>1425.6</ele>
        <time>2024-07-08T15:02:35Z</time>
      </trkpt>
      <trkpt lat="42.75277" lon="1.51422">
        <ele>1426.2</ele>
        <time>2024-07-08T15:02:37Z</time>
      </trkpt>
      <trkpt lat="42.75276" lon="1.51419">
        <ele>1426.8</ele>
        <time>2024-07-08T15:02:39Z</time>
      </trkpt>
      <trkpt lat="42.75275" lon="1.51413">
        <ele>1428</ele>
        <time>2024-07-08T15:02:43Z</time>
      </trkpt>
      <trkpt lat="42.75269" lon="1.51406">
        <ele>1428.4</ele>
        <time>2024-07-08T15:02:46Z</time>
      </trkpt>
      <trkpt lat="42.75267" lon="1.51404">
        <ele>1428.4</ele>
        <time>2024-07-08T15:02:48Z</time>
      </trkpt>
      <trkpt lat="42.75267" lon="1.51401">
        <ele>1428</ele>
        <time>2024-07-08T15:02:50Z</time>
      </trkpt>
      <trkpt lat="42.75264" lon="1.51395">
        <ele>1426.2</ele>
        <time>2024-07-08T15:02:53Z</time>
      </trkpt>
      <trkpt lat="42.75264" lon="1.51394">
        <ele>1424.6</ele>
        <time>2024-07-08T15:03:00Z</time>
      </trkpt>
      <trkpt lat="42.75265" lon="1.51396">
        <ele>1424</ele>
        <time>2024-07-08T15:03:07Z</time>
      </trkpt>
      <trkpt lat="42.75269" lon="1.51402">
        <ele>1424.4</ele>
        <time>2024-07-08T15:03:13Z</time>
      </trkpt>
      <trkpt lat="42.7527" lon="1.51403">
        <ele>1424.4</ele>
        <time>2024-07-08T15:03:14Z</time>
      </trkpt>
      <trkpt lat="42.75274" lon="1.51408">
        <ele>1424.4</ele>
        <time>2024-07-08T15:03:18Z</time>
      </trkpt>
      <trkpt lat="42.75274" lon="1.51409">
        <ele>1424.6</ele>
        <time>2024-07-08T15:03:19Z</time>
      </trkpt>
      <trkpt lat="42.7528" lon="1.5142">
        <ele>1425</ele>
        <time>2024-07-08T15:03:26Z</time>
      </trkpt>
      <trkpt lat="42.75284" lon="1.51434">
        <ele>1424.6</ele>
        <time>2024-07-08T15:03:34Z</time>
      </trkpt>
      <trkpt lat="42.75286" lon="1.51434">
        <ele>1424.6</ele>
        <time>2024-07-08T15:03:35Z</time>
      </trkpt>
      <trkpt lat="42.75295" lon="1.51439">
        <ele>1424</ele>
        <time>2024-07-08T15:03:41Z</time>
      </trkpt>
      <trkpt lat="42.75297" lon="1.51441">
        <ele>1425</ele>
        <time>2024-07-08T15:03:43Z</time>
      </trkpt>
      <trkpt lat="42.75295" lon="1.51444">
        <ele>1427</ele>
        <time>2024-07-08T15:03:47Z</time>
      </trkpt>
      <trkpt lat="42.75294" lon="1.51448">
        <ele>1427.8</ele>
        <time>2024-07-08T15:03:53Z</time>
      </trkpt>
      <trkpt lat="42.75296" lon="1.51449">
        <ele>1427.8</ele>
        <time>2024-07-08T15:03:54Z</time>
      </trkpt>
      <trkpt lat="42.75299" lon="1.51452">
        <ele>1427</ele>
        <time>2024-07-08T15:03:59Z</time>
      </trkpt>
      <trkpt lat="42.75302" lon="1.51453">
        <ele>1427.2</ele>
        <time>2024-07-08T15:04:05Z</time>
      </trkpt>
      <trkpt lat="42.753" lon="1.51452">
        <ele>1429.2</ele>
        <time>2024-07-08T15:04:12Z</time>
      </trkpt>
      <trkpt lat="42.75293" lon="1.51449">
        <ele>1429.6</ele>
        <time>2024-07-08T15:04:18Z</time>
      </trkpt>
      <trkpt lat="42.75289" lon="1.51446">
        <ele>1429.2</ele>
        <time>2024-07-08T15:04:25Z</time>
      </trkpt>
      <trkpt lat="42.75286" lon="1.5144">
        <ele>1428.4</ele>
        <time>2024-07-08T15:04:31Z</time>
      </trkpt>
      <trkpt lat="42.75278" lon="1.51428">
        <ele>1426.6</ele>
        <time>2024-07-08T15:04:39Z</time>
      </trkpt>
      <trkpt lat="42.75278" lon="1.51423">
        <ele>1426.6</ele>
        <time>2024-07-08T15:04:41Z</time>
      </trkpt>
      <trkpt lat="42.75277" lon="1.51418">
        <ele>1427</ele>
        <time>2024-07-08T15:04:44Z</time>
      </trkpt>
      <trkpt lat="42.75275" lon="1.51415">
        <ele>1427.8</ele>
        <time>2024-07-08T15:04:46Z</time>
      </trkpt>
      <trkpt lat="42.75274" lon="1.51413">
        <ele>1428.4</ele>
        <time>2024-07-08T15:04:48Z</time>
      </trkpt>
      <trkpt lat="42.75274" lon="1.51412">
        <ele>1428.6</ele>
        <time>2024-07-08T15:04:49Z</time>
      </trkpt>
      <trkpt lat="42.75272" lon="1.5141">
        <ele>1429</ele>
        <time>2024-07-08T15:04:51Z</time>
      </trkpt>
      <trkpt lat="42.75267" lon="1.514">
        <ele>1429.2</ele>
        <time>2024-07-08T15:04:56Z</time>
      </trkpt>
      <trkpt lat="42.75262" lon="1.5139">
        <ele>1427.2</ele>
        <time>2024-07-08T15:05:03Z</time>
      </trkpt>
      <trkpt lat="42.75261" lon="1.51387">
        <ele>1427</ele>
        <time>2024-07-08T15:05:05Z</time>
      </trkpt>
      <trkpt lat="42.75252" lon="1.51381">
        <ele>1426.6</ele>
        <time>2024-07-08T15:05:11Z</time>
      </trkpt>
      <trkpt lat="42.75248" lon="1.51371">
        <ele>1427</ele>
        <time>2024-07-08T15:05:18Z</time>
      </trkpt>
      <trkpt lat="42.75243" lon="1.51365">
        <ele>1427.4</ele>
        <time>2024-07-08T15:05:23Z</time>
      </trkpt>
      <trkpt lat="42.75241" lon="1.51362">
        <ele>1427.4</ele>
        <time>2024-07-08T15:05:25Z</time>
      </trkpt>
      <trkpt lat="42.75241" lon="1.51361">
        <ele>1427.6</ele>
        <time>2024-07-08T15:05:26Z</time>
      </trkpt>
      <trkpt lat="42.75239" lon="1.51358">
        <ele>1428.4</ele>
        <time>2024-07-08T15:05:31Z</time>
      </trkpt>
      <trkpt lat="42.75238" lon="1.5136">
        <ele>1429.4</ele>
        <time>2024-07-08T15:05:39Z</time>
      </trkpt>
      <trkpt lat="42.75242" lon="1.51364">
        <ele>1430</ele>
        <time>2024-07-08T15:05:46Z</time>
      </trkpt>
      <trkpt lat="42.75246" lon="1.51364">
        <ele>1430.2</ele>
        <time>2024-07-08T15:05:50Z</time>
      </trkpt>
      <trkpt lat="42.75249" lon="1.51366">
        <ele>1430.8</ele>
        <time>2024-07-08T15:05:53Z</time>
      </trkpt>
      <trkpt lat="42.75251" lon="1.51374">
        <ele>1431</ele>
        <time>2024-07-08T15:06:00Z</time>
      </trkpt>
      <trkpt lat="42.7525" lon="1.51387">
        <ele>1428</ele>
        <time>2024-07-08T15:06:08Z</time>
      </trkpt>
      <trkpt lat="42.75253" lon="1.51395">
        <ele>1426.8</ele>
        <time>2024-07-08T15:06:15Z</time>
      </trkpt>
      <trkpt lat="42.75255" lon="1.51403">
        <ele>1427.4</ele>
        <time>2024-07-08T15:06:21Z</time>
      </trkpt>
      <trkpt lat="42.75254" lon="1.51409">
        <ele>1429</ele>
        <time>2024-07-08T15:06:26Z</time>
      </trkpt>
      <trkpt lat="42.75255" lon="1.51412">
        <ele>1430</ele>
        <time>2024-07-08T15:06:28Z</time>
      </trkpt>
      <trkpt lat="42.75256" lon="1.51412">
        <ele>1430.2</ele>
        <time>2024-07-08T15:06:29Z</time>
      </trkpt>
      <trkpt lat="42.75257" lon="1.51414">
        <ele>1430.8</ele>
        <time>2024-07-08T15:06:31Z</time>
      </trkpt>
      <trkpt lat="42.75258" lon="1.51417">
        <ele>1432</ele>
        <time>2024-07-08T15:06:34Z</time>
      </trkpt>
      <trkpt lat="42.75258" lon="1.51423">
        <ele>1433.2</ele>
        <time>2024-07-08T15:06:39Z</time>
      </trkpt>
      <trkpt lat="42.7526" lon="1.51426">
        <ele>1434.4</ele>
        <time>2024-07-08T15:06:43Z</time>
      </trkpt>
      <trkpt lat="42.75261" lon="1.5143">
        <ele>1435.2</ele>
        <time>2024-07-08T15:06:46Z</time>
      </trkpt>
      <trkpt lat="42.75261" lon="1.51432">
        <ele>1437.8</ele>
        <time>2024-07-08T15:06:52Z</time>
      </trkpt>
      <trkpt lat="42.75261" lon="1.51433">
        <ele>1441.4</ele>
        <time>2024-07-08T15:07:02Z</time>
      </trkpt>
      <trkpt lat="42.75261" lon="1.51432">
        <ele>1442.8</ele>
        <time>2024-07-08T15:07:15Z</time>
      </trkpt>
      <trkpt lat="42.75261" lon="1.51438">
        <ele>1442.8</ele>
        <time>2024-07-08T15:07:21Z</time>
      </trkpt>
      <trkpt lat="42.75262" lon="1.51448">
        <ele>1444.4</ele>
        <time>2024-07-08T15:07:27Z</time>
      </trkpt>
      <trkpt lat="42.75264" lon="1.51459">
        <ele>1445.4</ele>
        <time>2024-07-08T15:07:36Z</time>
      </trkpt>
      <trkpt lat="42.75266" lon="1.51469">
        <ele>1445.2</ele>
        <time>2024-07-08T15:07:44Z</time>
      </trkpt>
      <trkpt lat="42.75266" lon="1.51477">
        <ele>1444.6</ele>
        <time>2024-07-08T15:07:50Z</time>
      </trkpt>
      <trkpt lat="42.75272" lon="1.51483">
        <ele>1443.6</ele>
        <time>2024-07-08T15:07:56Z</time>
      </trkpt>
      <trkpt lat="42.75273" lon="1.51488">
        <ele>1442.8</ele>
        <time>2024-07-08T15:08:02Z</time>
      </trkpt>
      <trkpt lat="42.75273" lon="1.51495">
        <ele>1442.8</ele>
        <time>2024-07-08T15:08:08Z</time>
      </trkpt>
      <trkpt lat="42.75272" lon="1.51496">
        <ele>1442.8</ele>
        <time>2024-07-08T15:08:09Z</time>
      </trkpt>
      <trkpt lat="42.75273" lon="1.51501">
        <ele>1443</ele>
        <time>2024-07-08T15:08:12Z</time>
      </trkpt>
      <trkpt lat="42.75275" lon="1.51504">
        <ele>1445.2</ele>
        <time>2024-07-08T15:08:16Z</time>
      </trkpt>
      <trkpt lat="42.75275" lon="1.51512">
        <ele>1449.6</ele>
        <time>2024-07-08T15:08:22Z</time>
      </trkpt>
      <trkpt lat="42.75278" lon="1.51518">
        <ele>1450.2</ele>
        <time>2024-07-08T15:08:28Z</time>
      </trkpt>
      <trkpt lat="42.75281" lon="1.51525">
        <ele>1449.8</ele>
        <time>2024-07-08T15:08:33Z</time>
      </trkpt>
      <trkpt lat="42.75283" lon="1.51528">
        <ele>1449.6</ele>
        <time>2024-07-08T15:08:36Z</time>
      </trkpt>
      <trkpt lat="42.75284" lon="1.51536">
        <ele>1449.8</ele>
        <time>2024-07-08T15:08:42Z</time>
      </trkpt>
      <trkpt lat="42.75284" lon="1.51537">
        <ele>1450</ele>
        <time>2024-07-08T15:08:43Z</time>
      </trkpt>
      <trkpt lat="42.75286" lon="1.51537">
        <ele>1451</ele>
        <time>2024-07-08T15:08:47Z</time>
      </trkpt>
      <trkpt lat="42.75285" lon="1.51543">
        <ele>1453.6</ele>
        <time>2024-07-08T15:08:54Z</time>
      </trkpt>
      <trkpt lat="42.75286" lon="1.51548">
        <ele>1455.6</ele>
        <time>2024-07-08T15:09:00Z</time>
      </trkpt>
      <trkpt lat="42.7529" lon="1.51557">
        <ele>1457.6</ele>
        <time>2024-07-08T15:09:08Z</time>
      </trkpt>
      <trkpt lat="42.75291" lon="1.51563">
        <ele>1458.2</ele>
        <time>2024-07-08T15:09:14Z</time>
      </trkpt>
      <trkpt lat="42.75294" lon="1.51566">
        <ele>1458.8</ele>
        <time>2024-07-08T15:09:19Z</time>
      </trkpt>
      <trkpt lat="42.75297" lon="1.5157">
        <ele>1461.4</ele>
        <time>2024-07-08T15:09:24Z</time>
      </trkpt>
      <trkpt lat="42.75302" lon="1.51577">
        <ele>1462.8</ele>
        <time>2024-07-08T15:09:30Z</time>
      </trkpt>
      <trkpt lat="42.75306" lon="1.51584">
        <ele>1463</ele>
        <time>2024-07-08T15:09:36Z</time>
      </trkpt>
      <trkpt lat="42.7531" lon="1.51591">
        <ele>1463.6</ele>
        <time>2024-07-08T15:09:43Z</time>
      </trkpt>
      <trkpt lat="42.75313" lon="1.51597">
        <ele>1463.6</ele>
        <time>2024-07-08T15:09:49Z</time>
      </trkpt>
      <trkpt lat="42.75314" lon="1.51597">
        <ele>1463.6</ele>
        <time>2024-07-08T15:09:50Z</time>
      </trkpt>
      <trkpt lat="42.75318" lon="1.51606">
        <ele>1462.8</ele>
        <time>2024-07-08T15:09:57Z</time>
      </trkpt>
      <trkpt lat="42.7532" lon="1.51607">
        <ele>1463</ele>
        <time>2024-07-08T15:10:00Z</time>
      </trkpt>
      <trkpt lat="42.75327" lon="1.51614">
        <ele>1465.2</ele>
        <time>2024-07-08T15:10:08Z</time>
      </trkpt>
      <trkpt lat="42.75328" lon="1.51615">
        <ele>1465.6</ele>
        <time>2024-07-08T15:10:09Z</time>
      </trkpt>
      <trkpt lat="42.75331" lon="1.5162">
        <ele>1466.6</ele>
        <time>2024-07-08T15:10:14Z</time>
      </trkpt>
      <trkpt lat="42.75332" lon="1.51624">
        <ele>1466.8</ele>
        <time>2024-07-08T15:10:17Z</time>
      </trkpt>
      <trkpt lat="42.75333" lon="1.51625">
        <ele>1467</ele>
        <time>2024-07-08T15:10:18Z</time>
      </trkpt>
      <trkpt lat="42.75334" lon="1.51626">
        <ele>1467</ele>
        <time>2024-07-08T15:10:20Z</time>
      </trkpt>
      <trkpt lat="42.75337" lon="1.51629">
        <ele>1467.4</ele>
        <time>2024-07-08T15:10:24Z</time>
      </trkpt>
      <trkpt lat="42.75342" lon="1.51635">
        <ele>1468</ele>
        <time>2024-07-08T15:10:31Z</time>
      </trkpt>
      <trkpt lat="42.75348" lon="1.5164">
        <ele>1469.2</ele>
        <time>2024-07-08T15:10:38Z</time>
      </trkpt>
      <trkpt lat="42.75353" lon="1.51646">
        <ele>1470.8</ele>
        <time>2024-07-08T15:10:45Z</time>
      </trkpt>
      <trkpt lat="42.75357" lon="1.51655">
        <ele>1472.2</ele>
        <time>2024-07-08T15:10:53Z</time>
      </trkpt>
      <trkpt lat="42.75361" lon="1.51665">
        <ele>1471.8</ele>
        <time>2024-07-08T15:11:00Z</time>
      </trkpt>
      <trkpt lat="42.75361" lon="1.51668">
        <ele>1471.6</ele>
        <time>2024-07-08T15:11:02Z</time>
      </trkpt>
      <trkpt lat="42.75363" lon="1.51671">
        <ele>1471.6</ele>
        <time>2024-07-08T15:11:05Z</time>
      </trkpt>
      <trkpt lat="42.75369" lon="1.51679">
        <ele>1471.4</ele>
        <time>2024-07-08T15:11:14Z</time>
      </trkpt>
      <trkpt lat="42.75372" lon="1.51683">
        <ele>1471.2</ele>
        <time>2024-07-08T15:11:18Z</time>
      </trkpt>
      <trkpt lat="42.75372" lon="1.51684">
        <ele>1471.4</ele>
        <time>2024-07-08T15:11:20Z</time>
      </trkpt>
      <trkpt lat="42.75376" lon="1.51691">
        <ele>1472</ele>
        <time>2024-07-08T15:11:25Z</time>
      </trkpt>
      <trkpt lat="42.7538" lon="1.51696">
        <ele>1472</ele>
        <time>2024-07-08T15:11:28Z</time>
      </trkpt>
      <trkpt lat="42.75383" lon="1.51704">
        <ele>1472.6</ele>
        <time>2024-07-08T15:11:34Z</time>
      </trkpt>
      <trkpt lat="42.75383" lon="1.5171">
        <ele>1473.6</ele>
        <time>2024-07-08T15:11:38Z</time>
      </trkpt>
      <trkpt lat="42.75382" lon="1.51716">
        <ele>1474.6</ele>
        <time>2024-07-08T15:11:41Z</time>
      </trkpt>
      <trkpt lat="42.75379" lon="1.51724">
        <ele>1475.6</ele>
        <time>2024-07-08T15:11:46Z</time>
      </trkpt>
      <trkpt lat="42.75378" lon="1.51727">
        <ele>1475.6</ele>
        <time>2024-07-08T15:11:48Z</time>
      </trkpt>
      <trkpt lat="42.75377" lon="1.51729">
        <ele>1475.6</ele>
        <time>2024-07-08T15:11:49Z</time>
      </trkpt>
      <trkpt lat="42.75377" lon="1.51731">
        <ele>1475.6</ele>
        <time>2024-07-08T15:11:50Z</time>
      </trkpt>
      <trkpt lat="42.75376" lon="1.51734">
        <ele>1475.6</ele>
        <time>2024-07-08T15:11:52Z</time>
      </trkpt>
      <trkpt lat="42.75375" lon="1.51738">
        <ele>1475.6</ele>
        <time>2024-07-08T15:11:54Z</time>
      </trkpt>
      <trkpt lat="42.75374" lon="1.5174">
        <ele>1475.6</ele>
        <time>2024-07-08T15:11:55Z</time>
      </trkpt>
      <trkpt lat="42.75372" lon="1.51746">
        <ele>1477.6</ele>
        <time>2024-07-08T15:12:00Z</time>
      </trkpt>
      <trkpt lat="42.75369" lon="1.51756">
        <ele>1479.4</ele>
        <time>2024-07-08T15:12:07Z</time>
      </trkpt>
      <trkpt lat="42.75366" lon="1.51765">
        <ele>1481</ele>
        <time>2024-07-08T15:12:14Z</time>
      </trkpt>
      <trkpt lat="42.75367" lon="1.51766">
        <ele>1481.2</ele>
        <time>2024-07-08T15:12:15Z</time>
      </trkpt>
      <trkpt lat="42.75366" lon="1.51768">
        <ele>1481.2</ele>
        <time>2024-07-08T15:12:16Z</time>
      </trkpt>
      <trkpt lat="42.75364" lon="1.51773">
        <ele>1481.4</ele>
        <time>2024-07-08T15:12:19Z</time>
      </trkpt>
      <trkpt lat="42.75363" lon="1.51775">
        <ele>1481.2</ele>
        <time>2024-07-08T15:12:20Z</time>
      </trkpt>
      <trkpt lat="42.75361" lon="1.51777">
        <ele>1480.8</ele>
        <time>2024-07-08T15:12:22Z</time>
      </trkpt>
      <trkpt lat="42.75357" lon="1.51779">
        <ele>1480.4</ele>
        <time>2024-07-08T15:12:25Z</time>
      </trkpt>
      <trkpt lat="42.75344" lon="1.51779">
        <ele>1480.4</ele>
        <time>2024-07-08T15:12:34Z</time>
      </trkpt>
      <trkpt lat="42.75334" lon="1.51781">
        <ele>1480.4</ele>
        <time>2024-07-08T15:12:44Z</time>
      </trkpt>
      <trkpt lat="42.75326" lon="1.51783">
        <ele>1480.6</ele>
        <time>2024-07-08T15:12:49Z</time>
      </trkpt>
      <trkpt lat="42.75314" lon="1.51786">
        <ele>1480</ele>
        <time>2024-07-08T15:12:57Z</time>
      </trkpt>
      <trkpt lat="42.75307" lon="1.51794">
        <ele>1479.6</ele>
        <time>2024-07-08T15:13:03Z</time>
      </trkpt>
      <trkpt lat="42.75296" lon="1.518">
        <ele>1479.2</ele>
        <time>2024-07-08T15:13:12Z</time>
      </trkpt>
      <trkpt lat="42.75286" lon="1.5181">
        <ele>1478.4</ele>
        <time>2024-07-08T15:13:20Z</time>
      </trkpt>
      <trkpt lat="42.75279" lon="1.51812">
        <ele>1475.2</ele>
        <time>2024-07-08T15:13:26Z</time>
      </trkpt>
      <trkpt lat="42.75277" lon="1.51813">
        <ele>1473.8</ele>
        <time>2024-07-08T15:13:28Z</time>
      </trkpt>
      <trkpt lat="42.75274" lon="1.51815">
        <ele>1472.4</ele>
        <time>2024-07-08T15:13:31Z</time>
      </trkpt>
      <trkpt lat="42.75269" lon="1.51815">
        <ele>1471</ele>
        <time>2024-07-08T15:13:35Z</time>
      </trkpt>
      <trkpt lat="42.75262" lon="1.51819">
        <ele>1470</ele>
        <time>2024-07-08T15:13:41Z</time>
      </trkpt>
      <trkpt lat="42.7525" lon="1.51825">
        <ele>1468.8</ele>
        <time>2024-07-08T15:13:50Z</time>
      </trkpt>
      <trkpt lat="42.75249" lon="1.51826">
        <ele>1468.6</ele>
        <time>2024-07-08T15:13:51Z</time>
      </trkpt>
      <trkpt lat="42.75248" lon="1.51827">
        <ele>1468.4</ele>
        <time>2024-07-08T15:13:55Z</time>
      </trkpt>
      <trkpt lat="42.75248" lon="1.51828">
        <ele>1469</ele>
        <time>2024-07-08T15:14:02Z</time>
      </trkpt>
      <trkpt lat="42.75241" lon="1.51831">
        <ele>1469.4</ele>
        <time>2024-07-08T15:14:10Z</time>
      </trkpt>
      <trkpt lat="42.75236" lon="1.51832">
        <ele>1469.8</ele>
        <time>2024-07-08T15:14:14Z</time>
      </trkpt>
      <trkpt lat="42.75231" lon="1.51833">
        <ele>1470</ele>
        <time>2024-07-08T15:14:17Z</time>
      </trkpt>
      <trkpt lat="42.75226" lon="1.51835">
        <ele>1469.6</ele>
        <time>2024-07-08T15:14:21Z</time>
      </trkpt>
      <trkpt lat="42.75223" lon="1.51836">
        <ele>1469.4</ele>
        <time>2024-07-08T15:14:23Z</time>
      </trkpt>
      <trkpt lat="42.75222" lon="1.51836">
        <ele>1469.4</ele>
        <time>2024-07-08T15:14:24Z</time>
      </trkpt>
      <trkpt lat="42.7522" lon="1.51835">
        <ele>1469.6</ele>
        <time>2024-07-08T15:14:26Z</time>
      </trkpt>
      <trkpt lat="42.75213" lon="1.51837">
        <ele>1470</ele>
        <time>2024-07-08T15:14:30Z</time>
      </trkpt>
      <trkpt lat="42.75207" lon="1.51839">
        <ele>1470.4</ele>
        <time>2024-07-08T15:14:36Z</time>
      </trkpt>
      <trkpt lat="42.75198" lon="1.51841">
        <ele>1471.2</ele>
        <time>2024-07-08T15:14:42Z</time>
      </trkpt>
      <trkpt lat="42.75187" lon="1.51849">
        <ele>1470.4</ele>
        <time>2024-07-08T15:14:51Z</time>
      </trkpt>
      <trkpt lat="42.75175" lon="1.51862">
        <ele>1470.8</ele>
        <time>2024-07-08T15:15:00Z</time>
      </trkpt>
      <trkpt lat="42.75169" lon="1.51872">
        <ele>1471.6</ele>
        <time>2024-07-08T15:15:08Z</time>
      </trkpt>
      <trkpt lat="42.75162" lon="1.51883">
        <ele>1469.2</ele>
        <time>2024-07-08T15:15:16Z</time>
      </trkpt>
      <trkpt lat="42.75157" lon="1.51895">
        <ele>1468.8</ele>
        <time>2024-07-08T15:15:24Z</time>
      </trkpt>
      <trkpt lat="42.75152" lon="1.51909">
        <ele>1467.8</ele>
        <time>2024-07-08T15:15:32Z</time>
      </trkpt>
      <trkpt lat="42.75147" lon="1.51922">
        <ele>1467</ele>
        <time>2024-07-08T15:15:40Z</time>
      </trkpt>
      <trkpt lat="42.75144" lon="1.51929">
        <ele>1466.2</ele>
        <time>2024-07-08T15:15:46Z</time>
      </trkpt>
      <trkpt lat="42.75139" lon="1.51942">
        <ele>1466</ele>
        <time>2024-07-08T15:15:54Z</time>
      </trkpt>
      <trkpt lat="42.75136" lon="1.51951">
        <ele>1467.4</ele>
        <time>2024-07-08T15:15:58Z</time>
      </trkpt>
      <trkpt lat="42.75134" lon="1.51955">
        <ele>1467.8</ele>
        <time>2024-07-08T15:16:01Z</time>
      </trkpt>
      <trkpt lat="42.7513" lon="1.51965">
        <ele>1469.2</ele>
        <time>2024-07-08T15:16:08Z</time>
      </trkpt>
      <trkpt lat="42.7513" lon="1.51967">
        <ele>1469.2</ele>
        <time>2024-07-08T15:16:09Z</time>
      </trkpt>
      <trkpt lat="42.75127" lon="1.5197">
        <ele>1469.4</ele>
        <time>2024-07-08T15:16:12Z</time>
      </trkpt>
      <trkpt lat="42.75126" lon="1.51971">
        <ele>1469.6</ele>
        <time>2024-07-08T15:16:13Z</time>
      </trkpt>
      <trkpt lat="42.75119" lon="1.51983">
        <ele>1469.2</ele>
        <time>2024-07-08T15:16:21Z</time>
      </trkpt>
      <trkpt lat="42.75114" lon="1.51987">
        <ele>1469</ele>
        <time>2024-07-08T15:16:24Z</time>
      </trkpt>
      <trkpt lat="42.75111" lon="1.51991">
        <ele>1467.8</ele>
        <time>2024-07-08T15:16:27Z</time>
      </trkpt>
      <trkpt lat="42.7511" lon="1.51992">
        <ele>1467.6</ele>
        <time>2024-07-08T15:16:28Z</time>
      </trkpt>
      <trkpt lat="42.75102" lon="1.52003">
        <ele>1465.2</ele>
        <time>2024-07-08T15:16:36Z</time>
      </trkpt>
      <trkpt lat="42.75097" lon="1.52007">
        <ele>1464.6</ele>
        <time>2024-07-08T15:16:40Z</time>
      </trkpt>
      <trkpt lat="42.75091" lon="1.5201">
        <ele>1464.6</ele>
        <time>2024-07-08T15:16:42Z</time>
      </trkpt>
      <trkpt lat="42.75082" lon="1.52016">
        <ele>1466.4</ele>
        <time>2024-07-08T15:16:49Z</time>
      </trkpt>
      <trkpt lat="42.75079" lon="1.52021">
        <ele>1468</ele>
        <time>2024-07-08T15:16:54Z</time>
      </trkpt>
      <trkpt lat="42.75073" lon="1.52028">
        <ele>1470</ele>
        <time>2024-07-08T15:17:00Z</time>
      </trkpt>
      <trkpt lat="42.75066" lon="1.5204">
        <ele>1472.4</ele>
        <time>2024-07-08T15:17:07Z</time>
      </trkpt>
      <trkpt lat="42.75063" lon="1.52043">
        <ele>1473.4</ele>
        <time>2024-07-08T15:17:10Z</time>
      </trkpt>
      <trkpt lat="42.75059" lon="1.52047">
        <ele>1474</ele>
        <time>2024-07-08T15:17:14Z</time>
      </trkpt>
      <trkpt lat="42.75053" lon="1.52058">
        <ele>1474</ele>
        <time>2024-07-08T15:17:22Z</time>
      </trkpt>
      <trkpt lat="42.75049" lon="1.52066">
        <ele>1473.6</ele>
        <time>2024-07-08T15:17:27Z</time>
      </trkpt>
      <trkpt lat="42.75047" lon="1.5207">
        <ele>1473.4</ele>
        <time>2024-07-08T15:17:29Z</time>
      </trkpt>
      <trkpt lat="42.75042" lon="1.52081">
        <ele>1471.6</ele>
        <time>2024-07-08T15:17:37Z</time>
      </trkpt>
      <trkpt lat="42.75038" lon="1.52093">
        <ele>1472.4</ele>
        <time>2024-07-08T15:17:44Z</time>
      </trkpt>
      <trkpt lat="42.7503" lon="1.52113">
        <ele>1471.6</ele>
        <time>2024-07-08T15:17:57Z</time>
      </trkpt>
      <trkpt lat="42.7502" lon="1.52118">
        <ele>1471.6</ele>
        <time>2024-07-08T15:18:04Z</time>
      </trkpt>
      <trkpt lat="42.75015" lon="1.52121">
        <ele>1471.6</ele>
        <time>2024-07-08T15:18:09Z</time>
      </trkpt>
      <trkpt lat="42.75012" lon="1.52122">
        <ele>1471.6</ele>
        <time>2024-07-08T15:18:11Z</time>
      </trkpt>
      <trkpt lat="42.7501" lon="1.52124">
        <ele>1471.8</ele>
        <time>2024-07-08T15:18:13Z</time>
      </trkpt>
      <trkpt lat="42.75009" lon="1.52128">
        <ele>1472</ele>
        <time>2024-07-08T15:18:16Z</time>
      </trkpt>
      <trkpt lat="42.75006" lon="1.5213">
        <ele>1472.2</ele>
        <time>2024-07-08T15:18:18Z</time>
      </trkpt>
      <trkpt lat="42.75003" lon="1.52133">
        <ele>1472.8</ele>
        <time>2024-07-08T15:18:20Z</time>
      </trkpt>
      <trkpt lat="42.75003" lon="1.52134">
        <ele>1473</ele>
        <time>2024-07-08T15:18:21Z</time>
      </trkpt>
      <trkpt lat="42.74999" lon="1.52137">
        <ele>1474.4</ele>
        <time>2024-07-08T15:18:26Z</time>
      </trkpt>
      <trkpt lat="42.74995" lon="1.52135">
        <ele>1475.2</ele>
        <time>2024-07-08T15:18:30Z</time>
      </trkpt>
      <trkpt lat="42.74992" lon="1.52133">
        <ele>1474.8</ele>
        <time>2024-07-08T15:18:32Z</time>
      </trkpt>
      <trkpt lat="42.7499" lon="1.52133">
        <ele>1474.4</ele>
        <time>2024-07-08T15:18:34Z</time>
      </trkpt>
      <trkpt lat="42.74984" lon="1.5213">
        <ele>1474.2</ele>
        <time>2024-07-08T15:18:37Z</time>
      </trkpt>
      <trkpt lat="42.74982" lon="1.52129">
        <ele>1474.2</ele>
        <time>2024-07-08T15:18:38Z</time>
      </trkpt>
      <trkpt lat="42.74974" lon="1.5213">
        <ele>1475.2</ele>
        <time>2024-07-08T15:18:42Z</time>
      </trkpt>
      <trkpt lat="42.74971" lon="1.52127">
        <ele>1476.2</ele>
        <time>2024-07-08T15:18:44Z</time>
      </trkpt>
      <trkpt lat="42.74966" lon="1.52124">
        <ele>1477.4</ele>
        <time>2024-07-08T15:18:48Z</time>
      </trkpt>
      <trkpt lat="42.74961" lon="1.52123">
        <ele>1477.4</ele>
        <time>2024-07-08T15:18:51Z</time>
      </trkpt>
      <trkpt lat="42.7495" lon="1.52126">
        <ele>1474.4</ele>
        <time>2024-07-08T15:18:58Z</time>
      </trkpt>
      <trkpt lat="42.74949" lon="1.52127">
        <ele>1474.2</ele>
        <time>2024-07-08T15:19:01Z</time>
      </trkpt>
      <trkpt lat="42.74947" lon="1.52127">
        <ele>1474.4</ele>
        <time>2024-07-08T15:19:05Z</time>
      </trkpt>
      <trkpt lat="42.74938" lon="1.52132">
        <ele>1474.6</ele>
        <time>2024-07-08T15:19:13Z</time>
      </trkpt>
      <trkpt lat="42.74929" lon="1.52135">
        <ele>1473</ele>
        <time>2024-07-08T15:19:21Z</time>
      </trkpt>
      <trkpt lat="42.74917" lon="1.52139">
        <ele>1470.8</ele>
        <time>2024-07-08T15:19:29Z</time>
      </trkpt>
      <trkpt lat="42.74904" lon="1.52138">
        <ele>1470.4</ele>
        <time>2024-07-08T15:19:37Z</time>
      </trkpt>
      <trkpt lat="42.74893" lon="1.5214">
        <ele>1470</ele>
        <time>2024-07-08T15:19:45Z</time>
      </trkpt>
      <trkpt lat="42.74887" lon="1.52143">
        <ele>1470</ele>
        <time>2024-07-08T15:19:48Z</time>
      </trkpt>
      <trkpt lat="42.74885" lon="1.52144">
        <ele>1470.4</ele>
        <time>2024-07-08T15:19:50Z</time>
      </trkpt>
      <trkpt lat="42.74884" lon="1.52144">
        <ele>1470.8</ele>
        <time>2024-07-08T15:19:51Z</time>
      </trkpt>
      <trkpt lat="42.74877" lon="1.52147">
        <ele>1472.4</ele>
        <time>2024-07-08T15:19:57Z</time>
      </trkpt>
      <trkpt lat="42.74874" lon="1.52148">
        <ele>1472.6</ele>
        <time>2024-07-08T15:19:59Z</time>
      </trkpt>
      <trkpt lat="42.74873" lon="1.52148">
        <ele>1472.8</ele>
        <time>2024-07-08T15:20:00Z</time>
      </trkpt>
      <trkpt lat="42.74871" lon="1.52151">
        <ele>1473</ele>
        <time>2024-07-08T15:20:03Z</time>
      </trkpt>
      <trkpt lat="42.74859" lon="1.52161">
        <ele>1472.8</ele>
        <time>2024-07-08T15:20:12Z</time>
      </trkpt>
      <trkpt lat="42.74851" lon="1.5217">
        <ele>1473.6</ele>
        <time>2024-07-08T15:20:19Z</time>
      </trkpt>
      <trkpt lat="42.74838" lon="1.52175">
        <ele>1474.6</ele>
        <time>2024-07-08T15:20:27Z</time>
      </trkpt>
      <trkpt lat="42.74834" lon="1.5218">
        <ele>1474.8</ele>
        <time>2024-07-08T15:20:31Z</time>
      </trkpt>
      <trkpt lat="42.74832" lon="1.52182">
        <ele>1474.8</ele>
        <time>2024-07-08T15:20:34Z</time>
      </trkpt>
      <trkpt lat="42.74824" lon="1.52192">
        <ele>1475.4</ele>
        <time>2024-07-08T15:20:42Z</time>
      </trkpt>
      <trkpt lat="42.74816" lon="1.52202">
        <ele>1473</ele>
        <time>2024-07-08T15:20:51Z</time>
      </trkpt>
      <trkpt lat="42.74807" lon="1.5221">
        <ele>1473</ele>
        <time>2024-07-08T15:21:00Z</time>
      </trkpt>
      <trkpt lat="42.74802" lon="1.52217">
        <ele>1473</ele>
        <time>2024-07-08T15:21:07Z</time>
      </trkpt>
      <trkpt lat="42.74792" lon="1.52226">
        <ele>1472.2</ele>
        <time>2024-07-08T15:21:16Z</time>
      </trkpt>
      <trkpt lat="42.74791" lon="1.52228">
        <ele>1471.8</ele>
        <time>2024-07-08T15:21:17Z</time>
      </trkpt>
      <trkpt lat="42.74787" lon="1.52234">
        <ele>1471</ele>
        <time>2024-07-08T15:21:22Z</time>
      </trkpt>
      <trkpt lat="42.74778" lon="1.52245">
        <ele>1472</ele>
        <time>2024-07-08T15:21:30Z</time>
      </trkpt>
      <trkpt lat="42.74766" lon="1.5226">
        <ele>1472.6</ele>
        <time>2024-07-08T15:21:39Z</time>
      </trkpt>
      <trkpt lat="42.74755" lon="1.52269">
        <ele>1472.8</ele>
        <time>2024-07-08T15:21:48Z</time>
      </trkpt>
      <trkpt lat="42.74748" lon="1.52276">
        <ele>1468.2</ele>
        <time>2024-07-08T15:21:57Z</time>
      </trkpt>
      <trkpt lat="42.74737" lon="1.52289">
        <ele>1470.2</ele>
        <time>2024-07-08T15:22:06Z</time>
      </trkpt>
      <trkpt lat="42.7473" lon="1.52298">
        <ele>1470.4</ele>
        <time>2024-07-08T15:22:13Z</time>
      </trkpt>
      <trkpt lat="42.7473" lon="1.52299">
        <ele>1470.6</ele>
        <time>2024-07-08T15:22:15Z</time>
      </trkpt>
      <trkpt lat="42.74731" lon="1.52299">
        <ele>1471.2</ele>
        <time>2024-07-08T15:22:18Z</time>
      </trkpt>
      <trkpt lat="42.74734" lon="1.523">
        <ele>1471.6</ele>
        <time>2024-07-08T15:22:19Z</time>
      </trkpt>
      <trkpt lat="42.74741" lon="1.52303">
        <ele>1475.4</ele>
        <time>2024-07-08T15:22:23Z</time>
      </trkpt>
      <trkpt lat="42.74743" lon="1.52306">
        <ele>1479.8</ele>
        <time>2024-07-08T15:22:27Z</time>
      </trkpt>
      <trkpt lat="42.74748" lon="1.52308">
        <ele>1481.6</ele>
        <time>2024-07-08T15:22:30Z</time>
      </trkpt>
      <trkpt lat="42.74753" lon="1.52308">
        <ele>1484.2</ele>
        <time>2024-07-08T15:22:34Z</time>
      </trkpt>
      <trkpt lat="42.74755" lon="1.5231">
        <ele>1485.6</ele>
        <time>2024-07-08T15:22:37Z</time>
      </trkpt>
      <trkpt lat="42.74755" lon="1.52311">
        <ele>1485.8</ele>
        <time>2024-07-08T15:22:38Z</time>
      </trkpt>
      <trkpt lat="42.74758" lon="1.52313">
        <ele>1486.2</ele>
        <time>2024-07-08T15:22:41Z</time>
      </trkpt>
      <trkpt lat="42.7476" lon="1.52315">
        <ele>1486.4</ele>
        <time>2024-07-08T15:22:42Z</time>
      </trkpt>
      <trkpt lat="42.74764" lon="1.52321">
        <ele>1486.8</ele>
        <time>2024-07-08T15:22:46Z</time>
      </trkpt>
      <trkpt lat="42.74766" lon="1.52323">
        <ele>1487</ele>
        <time>2024-07-08T15:22:47Z</time>
      </trkpt>
      <trkpt lat="42.74769" lon="1.52331">
        <ele>1488</ele>
        <time>2024-07-08T15:22:51Z</time>
      </trkpt>
      <trkpt lat="42.74769" lon="1.52334">
        <ele>1488</ele>
        <time>2024-07-08T15:22:53Z</time>
      </trkpt>
      <trkpt lat="42.74771" lon="1.52342">
        <ele>1488.2</ele>
        <time>2024-07-08T15:22:57Z</time>
      </trkpt>
      <trkpt lat="42.74772" lon="1.52345">
        <ele>1488.2</ele>
        <time>2024-07-08T15:22:59Z</time>
      </trkpt>
      <trkpt lat="42.74774" lon="1.52346">
        <ele>1488</ele>
        <time>2024-07-08T15:23:00Z</time>
      </trkpt>
      <trkpt lat="42.74775" lon="1.52349">
        <ele>1488</ele>
        <time>2024-07-08T15:23:01Z</time>
      </trkpt>
      <trkpt lat="42.74778" lon="1.52354">
        <ele>1487</ele>
        <time>2024-07-08T15:23:04Z</time>
      </trkpt>
      <trkpt lat="42.74784" lon="1.52372">
        <ele>1485.8</ele>
        <time>2024-07-08T15:23:12Z</time>
      </trkpt>
      <trkpt lat="42.74786" lon="1.52375">
        <ele>1485.8</ele>
        <time>2024-07-08T15:23:15Z</time>
      </trkpt>
      <trkpt lat="42.74787" lon="1.52378">
        <ele>1486</ele>
        <time>2024-07-08T15:23:17Z</time>
      </trkpt>
      <trkpt lat="42.7479" lon="1.52381">
        <ele>1486.2</ele>
        <time>2024-07-08T15:23:19Z</time>
      </trkpt>
      <trkpt lat="42.7479" lon="1.52385">
        <ele>1487</ele>
        <time>2024-07-08T15:23:22Z</time>
      </trkpt>
      <trkpt lat="42.74796" lon="1.52395">
        <ele>1487.2</ele>
        <time>2024-07-08T15:23:29Z</time>
      </trkpt>
      <trkpt lat="42.74802" lon="1.52407">
        <ele>1486.8</ele>
        <time>2024-07-08T15:23:36Z</time>
      </trkpt>
      <trkpt lat="42.74804" lon="1.52411">
        <ele>1486.8</ele>
        <time>2024-07-08T15:23:39Z</time>
      </trkpt>
      <trkpt lat="42.74806" lon="1.52412">
        <ele>1487</ele>
        <time>2024-07-08T15:23:41Z</time>
      </trkpt>
      <trkpt lat="42.74806" lon="1.52413">
        <ele>1487</ele>
        <time>2024-07-08T15:23:42Z</time>
      </trkpt>
      <trkpt lat="42.74807" lon="1.52416">
        <ele>1487.6</ele>
        <time>2024-07-08T15:23:44Z</time>
      </trkpt>
      <trkpt lat="42.74809" lon="1.5242">
        <ele>1488</ele>
        <time>2024-07-08T15:23:46Z</time>
      </trkpt>
      <trkpt lat="42.74818" lon="1.52435">
        <ele>1488.6</ele>
        <time>2024-07-08T15:23:55Z</time>
      </trkpt>
      <trkpt lat="42.74823" lon="1.52448">
        <ele>1489.8</ele>
        <time>2024-07-08T15:24:02Z</time>
      </trkpt>
      <trkpt lat="42.74823" lon="1.5245">
        <ele>1489.8</ele>
        <time>2024-07-08T15:24:03Z</time>
      </trkpt>
      <trkpt lat="42.74826" lon="1.52457">
        <ele>1489.4</ele>
        <time>2024-07-08T15:24:07Z</time>
      </trkpt>
      <trkpt lat="42.7483" lon="1.5247">
        <ele>1488</ele>
        <time>2024-07-08T15:24:14Z</time>
      </trkpt>
      <trkpt lat="42.74835" lon="1.52488">
        <ele>1482.8</ele>
        <time>2024-07-08T15:24:23Z</time>
      </trkpt>
      <trkpt lat="42.74838" lon="1.52498">
        <ele>1480.6</ele>
        <time>2024-07-08T15:24:29Z</time>
      </trkpt>
      <trkpt lat="42.74839" lon="1.52499">
        <ele>1480.2</ele>
        <time>2024-07-08T15:24:30Z</time>
      </trkpt>
      <trkpt lat="42.74838" lon="1.52507">
        <ele>1478.4</ele>
        <time>2024-07-08T15:24:34Z</time>
      </trkpt>
      <trkpt lat="42.74836" lon="1.52513">
        <ele>1477.2</ele>
        <time>2024-07-08T15:24:37Z</time>
      </trkpt>
      <trkpt lat="42.74835" lon="1.52521">
        <ele>1476.2</ele>
        <time>2024-07-08T15:24:41Z</time>
      </trkpt>
      <trkpt lat="42.74832" lon="1.52536">
        <ele>1474.4</ele>
        <time>2024-07-08T15:24:49Z</time>
      </trkpt>
      <trkpt lat="42.74832" lon="1.52538">
        <ele>1474.4</ele>
        <time>2024-07-08T15:24:50Z</time>
      </trkpt>
      <trkpt lat="42.74834" lon="1.5254">
        <ele>1474.6</ele>
        <time>2024-07-08T15:24:52Z</time>
      </trkpt>
      <trkpt lat="42.74831" lon="1.52543">
        <ele>1474.6</ele>
        <time>2024-07-08T15:24:54Z</time>
      </trkpt>
      <trkpt lat="42.74824" lon="1.52553">
        <ele>1474.6</ele>
        <time>2024-07-08T15:25:00Z</time>
      </trkpt>
      <trkpt lat="42.74823" lon="1.52555">
        <ele>1474.4</ele>
        <time>2024-07-08T15:25:01Z</time>
      </trkpt>
      <trkpt lat="42.7482" lon="1.5256">
        <ele>1473.8</ele>
        <time>2024-07-08T15:25:04Z</time>
      </trkpt>
      <trkpt lat="42.74816" lon="1.52573">
        <ele>1472.6</ele>
        <time>2024-07-08T15:25:12Z</time>
      </trkpt>
      <trkpt lat="42.74812" lon="1.52581">
        <ele>1473.2</ele>
        <time>2024-07-08T15:25:17Z</time>
      </trkpt>
      <trkpt lat="42.74811" lon="1.52585">
        <ele>1473.4</ele>
        <time>2024-07-08T15:25:19Z</time>
      </trkpt>
      <trkpt lat="42.74807" lon="1.52597">
        <ele>1473.6</ele>
        <time>2024-07-08T15:25:27Z</time>
      </trkpt>
      <trkpt lat="42.74806" lon="1.526">
        <ele>1473.6</ele>
        <time>2024-07-08T15:25:29Z</time>
      </trkpt>
      <trkpt lat="42.74804" lon="1.52605">
        <ele>1474</ele>
        <time>2024-07-08T15:25:32Z</time>
      </trkpt>
      <trkpt lat="42.74802" lon="1.52613">
        <ele>1474.8</ele>
        <time>2024-07-08T15:25:37Z</time>
      </trkpt>
      <trkpt lat="42.74802" lon="1.52616">
        <ele>1475</ele>
        <time>2024-07-08T15:25:39Z</time>
      </trkpt>
      <trkpt lat="42.74801" lon="1.52624">
        <ele>1475.4</ele>
        <time>2024-07-08T15:25:43Z</time>
      </trkpt>
      <trkpt lat="42.74801" lon="1.52627">
        <ele>1476.2</ele>
        <time>2024-07-08T15:25:45Z</time>
      </trkpt>
      <trkpt lat="42.74802" lon="1.52629">
        <ele>1477.4</ele>
        <time>2024-07-08T15:25:47Z</time>
      </trkpt>
      <trkpt lat="42.74802" lon="1.52632">
        <ele>1478.4</ele>
        <time>2024-07-08T15:25:49Z</time>
      </trkpt>
      <trkpt lat="42.74801" lon="1.52635">
        <ele>1478.8</ele>
        <time>2024-07-08T15:25:50Z</time>
      </trkpt>
      <trkpt lat="42.74799" lon="1.52644">
        <ele>1479.4</ele>
        <time>2024-07-08T15:25:55Z</time>
      </trkpt>
      <trkpt lat="42.74796" lon="1.52647">
        <ele>1479</ele>
        <time>2024-07-08T15:25:57Z</time>
      </trkpt>
      <trkpt lat="42.74797" lon="1.52657">
        <ele>1478.8</ele>
        <time>2024-07-08T15:26:03Z</time>
      </trkpt>
      <trkpt lat="42.74795" lon="1.52661">
        <ele>1479</ele>
        <time>2024-07-08T15:26:05Z</time>
      </trkpt>
      <trkpt lat="42.74792" lon="1.52668">
        <ele>1480</ele>
        <time>2024-07-08T15:26:09Z</time>
      </trkpt>
      <trkpt lat="42.74791" lon="1.52673">
        <ele>1480.2</ele>
        <time>2024-07-08T15:26:12Z</time>
      </trkpt>
      <trkpt lat="42.74788" lon="1.52679">
        <ele>1480.4</ele>
        <time>2024-07-08T15:26:15Z</time>
      </trkpt>
      <trkpt lat="42.74786" lon="1.52685">
        <ele>1480.6</ele>
        <time>2024-07-08T15:26:19Z</time>
      </trkpt>
      <trkpt lat="42.74786" lon="1.52688">
        <ele>1480.6</ele>
        <time>2024-07-08T15:26:21Z</time>
      </trkpt>
      <trkpt lat="42.74785" lon="1.52689">
        <ele>1480.8</ele>
        <time>2024-07-08T15:26:22Z</time>
      </trkpt>
      <trkpt lat="42.74784" lon="1.52695">
        <ele>1480.8</ele>
        <time>2024-07-08T15:26:25Z</time>
      </trkpt>
      <trkpt lat="42.74782" lon="1.52698">
        <ele>1480.8</ele>
        <time>2024-07-08T15:26:26Z</time>
      </trkpt>
      <trkpt lat="42.74779" lon="1.52705">
        <ele>1480.6</ele>
        <time>2024-07-08T15:26:30Z</time>
      </trkpt>
      <trkpt lat="42.74779" lon="1.52708">
        <ele>1480.2</ele>
        <time>2024-07-08T15:26:32Z</time>
      </trkpt>
      <trkpt lat="42.74776" lon="1.52712">
        <ele>1479.8</ele>
        <time>2024-07-08T15:26:34Z</time>
      </trkpt>
      <trkpt lat="42.74773" lon="1.52716">
        <ele>1479.4</ele>
        <time>2024-07-08T15:26:36Z</time>
      </trkpt>
      <trkpt lat="42.74769" lon="1.52723">
        <ele>1478.8</ele>
        <time>2024-07-08T15:26:40Z</time>
      </trkpt>
      <trkpt lat="42.74767" lon="1.52731">
        <ele>1478.6</ele>
        <time>2024-07-08T15:26:45Z</time>
      </trkpt>
      <trkpt lat="42.74767" lon="1.52734">
        <ele>1478.6</ele>
        <time>2024-07-08T15:26:47Z</time>
      </trkpt>
      <trkpt lat="42.74766" lon="1.52735">
        <ele>1478.8</ele>
        <time>2024-07-08T15:26:49Z</time>
      </trkpt>
      <trkpt lat="42.74763" lon="1.52739">
        <ele>1479</ele>
        <time>2024-07-08T15:26:52Z</time>
      </trkpt>
      <trkpt lat="42.74763" lon="1.5274">
        <ele>1479</ele>
        <time>2024-07-08T15:26:53Z</time>
      </trkpt>
      <trkpt lat="42.74761" lon="1.52745">
        <ele>1479.2</ele>
        <time>2024-07-08T15:26:56Z</time>
      </trkpt>
      <trkpt lat="42.74758" lon="1.52748">
        <ele>1479.4</ele>
        <time>2024-07-08T15:26:58Z</time>
      </trkpt>
      <trkpt lat="42.74755" lon="1.52756">
        <ele>1479.4</ele>
        <time>2024-07-08T15:27:04Z</time>
      </trkpt>
      <trkpt lat="42.74754" lon="1.52758">
        <ele>1479.4</ele>
        <time>2024-07-08T15:27:05Z</time>
      </trkpt>
      <trkpt lat="42.74751" lon="1.52762">
        <ele>1479.2</ele>
        <time>2024-07-08T15:27:08Z</time>
      </trkpt>
      <trkpt lat="42.74747" lon="1.52766">
        <ele>1478.8</ele>
        <time>2024-07-08T15:27:11Z</time>
      </trkpt>
      <trkpt lat="42.74745" lon="1.52768">
        <ele>1478.4</ele>
        <time>2024-07-08T15:27:12Z</time>
      </trkpt>
      <trkpt lat="42.74745" lon="1.52771">
        <ele>1477</ele>
        <time>2024-07-08T15:27:14Z</time>
      </trkpt>
      <trkpt lat="42.74745" lon="1.52774">
        <ele>1476</ele>
        <time>2024-07-08T15:27:16Z</time>
      </trkpt>
      <trkpt lat="42.74745" lon="1.52776">
        <ele>1475.8</ele>
        <time>2024-07-08T15:27:17Z</time>
      </trkpt>
      <trkpt lat="42.74741" lon="1.52781">
        <ele>1475</ele>
        <time>2024-07-08T15:27:20Z</time>
      </trkpt>
      <trkpt lat="42.74741" lon="1.52782">
        <ele>1475</ele>
        <time>2024-07-08T15:27:21Z</time>
      </trkpt>
      <trkpt lat="42.74743" lon="1.52789">
        <ele>1475.4</ele>
        <time>2024-07-08T15:27:25Z</time>
      </trkpt>
      <trkpt lat="42.74744" lon="1.52796">
        <ele>1477.2</ele>
        <time>2024-07-08T15:27:29Z</time>
      </trkpt>
      <trkpt lat="42.74746" lon="1.52798">
        <ele>1479.8</ele>
        <time>2024-07-08T15:27:31Z</time>
      </trkpt>
      <trkpt lat="42.74747" lon="1.52799">
        <ele>1481.4</ele>
        <time>2024-07-08T15:27:32Z</time>
      </trkpt>
      <trkpt lat="42.7475" lon="1.52801">
        <ele>1485.2</ele>
        <time>2024-07-08T15:27:35Z</time>
      </trkpt>
      <trkpt lat="42.74752" lon="1.52802">
        <ele>1486.2</ele>
        <time>2024-07-08T15:27:36Z</time>
      </trkpt>
      <trkpt lat="42.74756" lon="1.528">
        <ele>1488.8</ele>
        <time>2024-07-08T15:27:42Z</time>
      </trkpt>
      <trkpt lat="42.74759" lon="1.528">
        <ele>1488.8</ele>
        <time>2024-07-08T15:27:44Z</time>
      </trkpt>
      <trkpt lat="42.74765" lon="1.52801">
        <ele>1488.8</ele>
        <time>2024-07-08T15:27:47Z</time>
      </trkpt>
      <trkpt lat="42.74768" lon="1.52802">
        <ele>1488.8</ele>
        <time>2024-07-08T15:27:51Z</time>
      </trkpt>
      <trkpt lat="42.74774" lon="1.52805">
        <ele>1489</ele>
        <time>2024-07-08T15:27:54Z</time>
      </trkpt>
      <trkpt lat="42.74777" lon="1.52809">
        <ele>1489.4</ele>
        <time>2024-07-08T15:27:57Z</time>
      </trkpt>
      <trkpt lat="42.74779" lon="1.52813">
        <ele>1490</ele>
        <time>2024-07-08T15:27:59Z</time>
      </trkpt>
      <trkpt lat="42.74786" lon="1.52816">
        <ele>1491.4</ele>
        <time>2024-07-08T15:28:03Z</time>
      </trkpt>
      <trkpt lat="42.74786" lon="1.52819">
        <ele>1491.6</ele>
        <time>2024-07-08T15:28:04Z</time>
      </trkpt>
      <trkpt lat="42.74791" lon="1.52823">
        <ele>1491.6</ele>
        <time>2024-07-08T15:28:08Z</time>
      </trkpt>
      <trkpt lat="42.74794" lon="1.52825">
        <ele>1490.6</ele>
        <time>2024-07-08T15:28:11Z</time>
      </trkpt>
      <trkpt lat="42.74798" lon="1.52825">
        <ele>1490</ele>
        <time>2024-07-08T15:28:13Z</time>
      </trkpt>
      <trkpt lat="42.74802" lon="1.52828">
        <ele>1489.2</ele>
        <time>2024-07-08T15:28:18Z</time>
      </trkpt>
      <trkpt lat="42.74805" lon="1.52827">
        <ele>1489.2</ele>
        <time>2024-07-08T15:28:19Z</time>
      </trkpt>
      <trkpt lat="42.74814" lon="1.52828">
        <ele>1488.4</ele>
        <time>2024-07-08T15:28:25Z</time>
      </trkpt>
      <trkpt lat="42.74817" lon="1.52828">
        <ele>1487</ele>
        <time>2024-07-08T15:28:28Z</time>
      </trkpt>
      <trkpt lat="42.74825" lon="1.52828">
        <ele>1486</ele>
        <time>2024-07-08T15:28:32Z</time>
      </trkpt>
      <trkpt lat="42.74827" lon="1.5283">
        <ele>1485.8</ele>
        <time>2024-07-08T15:28:35Z</time>
      </trkpt>
      <trkpt lat="42.74828" lon="1.52828">
        <ele>1485.4</ele>
        <time>2024-07-08T15:28:37Z</time>
      </trkpt>
      <trkpt lat="42.7483" lon="1.52828">
        <ele>1485</ele>
        <time>2024-07-08T15:28:39Z</time>
      </trkpt>
      <trkpt lat="42.74833" lon="1.52831">
        <ele>1484.4</ele>
        <time>2024-07-08T15:28:42Z</time>
      </trkpt>
      <trkpt lat="42.74844" lon="1.52835">
        <ele>1483</ele>
        <time>2024-07-08T15:28:50Z</time>
      </trkpt>
      <trkpt lat="42.74848" lon="1.52836">
        <ele>1482.8</ele>
        <time>2024-07-08T15:28:53Z</time>
      </trkpt>
      <trkpt lat="42.74852" lon="1.52837">
        <ele>1482.6</ele>
        <time>2024-07-08T15:28:56Z</time>
      </trkpt>
      <trkpt lat="42.74852" lon="1.52837">
        <ele>1482.6</ele>
        <time>2024-07-08T15:28:57Z</time>
      </trkpt>
      <trkpt lat="42.74861" lon="1.5284">
        <ele>1483</ele>
        <time>2024-07-08T15:29:02Z</time>
      </trkpt>
      <trkpt lat="42.74873" lon="1.52839">
        <ele>1483.4</ele>
        <time>2024-07-08T15:29:09Z</time>
      </trkpt>
      <trkpt lat="42.74883" lon="1.52842">
        <ele>1484.2</ele>
        <time>2024-07-08T15:29:18Z</time>
      </trkpt>
      <trkpt lat="42.74896" lon="1.5284">
        <ele>1483.8</ele>
        <time>2024-07-08T15:29:27Z</time>
      </trkpt>
      <trkpt lat="42.74899" lon="1.5284">
        <ele>1484</ele>
        <time>2024-07-08T15:29:31Z</time>
      </trkpt>
      <trkpt lat="42.74902" lon="1.52839">
        <ele>1484.2</ele>
        <time>2024-07-08T15:29:33Z</time>
      </trkpt>
      <trkpt lat="42.74912" lon="1.52838">
        <ele>1484.4</ele>
        <time>2024-07-08T15:29:41Z</time>
      </trkpt>
      <trkpt lat="42.74913" lon="1.52839">
        <ele>1484.2</ele>
        <time>2024-07-08T15:29:42Z</time>
      </trkpt>
      <trkpt lat="42.74922" lon="1.52837">
        <ele>1483.8</ele>
        <time>2024-07-08T15:29:48Z</time>
      </trkpt>
      <trkpt lat="42.74934" lon="1.52836">
        <ele>1483.4</ele>
        <time>2024-07-08T15:29:55Z</time>
      </trkpt>
      <trkpt lat="42.74941" lon="1.52836">
        <ele>1483.2</ele>
        <time>2024-07-08T15:30:00Z</time>
      </trkpt>
      <trkpt lat="42.74949" lon="1.52839">
        <ele>1483</ele>
        <time>2024-07-08T15:30:06Z</time>
      </trkpt>
      <trkpt lat="42.7495" lon="1.52839">
        <ele>1483</ele>
        <time>2024-07-08T15:30:07Z</time>
      </trkpt>
      <trkpt lat="42.74958" lon="1.5284">
        <ele>1482</ele>
        <time>2024-07-08T15:30:13Z</time>
      </trkpt>
      <trkpt lat="42.74961" lon="1.5284">
        <ele>1481.8</ele>
        <time>2024-07-08T15:30:15Z</time>
      </trkpt>
      <trkpt lat="42.74966" lon="1.52838">
        <ele>1481.8</ele>
        <time>2024-07-08T15:30:18Z</time>
      </trkpt>
      <trkpt lat="42.74976" lon="1.52836">
        <ele>1483</ele>
        <time>2024-07-08T15:30:25Z</time>
      </trkpt>
      <trkpt lat="42.74979" lon="1.52836">
        <ele>1483.6</ele>
        <time>2024-07-08T15:30:27Z</time>
      </trkpt>
      <trkpt lat="42.7499" lon="1.52834">
        <ele>1486.4</ele>
        <time>2024-07-08T15:30:34Z</time>
      </trkpt>
      <trkpt lat="42.75" lon="1.52837">
        <ele>1487.4</ele>
        <time>2024-07-08T15:30:41Z</time>
      </trkpt>
      <trkpt lat="42.75003" lon="1.52837">
        <ele>1487.2</ele>
        <time>2024-07-08T15:30:43Z</time>
      </trkpt>
      <trkpt lat="42.75005" lon="1.52838">
        <ele>1487</ele>
        <time>2024-07-08T15:30:46Z</time>
      </trkpt>
      <trkpt lat="42.75007" lon="1.52837">
        <ele>1487</ele>
        <time>2024-07-08T15:30:47Z</time>
      </trkpt>
      <trkpt lat="42.75012" lon="1.52835">
        <ele>1487</ele>
        <time>2024-07-08T15:30:50Z</time>
      </trkpt>
      <trkpt lat="42.75013" lon="1.52835">
        <ele>1487.2</ele>
        <time>2024-07-08T15:30:51Z</time>
      </trkpt>
      <trkpt lat="42.75014" lon="1.52834">
        <ele>1487.4</ele>
        <time>2024-07-08T15:30:52Z</time>
      </trkpt>
      <trkpt lat="42.75018" lon="1.52836">
        <ele>1488.2</ele>
        <time>2024-07-08T15:30:55Z</time>
      </trkpt>
      <trkpt lat="42.75021" lon="1.52835">
        <ele>1488.6</ele>
        <time>2024-07-08T15:30:57Z</time>
      </trkpt>
      <trkpt lat="42.75025" lon="1.52839">
        <ele>1488.8</ele>
        <time>2024-07-08T15:31:00Z</time>
      </trkpt>
      <trkpt lat="42.7503" lon="1.52839">
        <ele>1488.4</ele>
        <time>2024-07-08T15:31:04Z</time>
      </trkpt>
      <trkpt lat="42.75033" lon="1.52838">
        <ele>1487.8</ele>
        <time>2024-07-08T15:31:06Z</time>
      </trkpt>
      <trkpt lat="42.75036" lon="1.52838">
        <ele>1487.2</ele>
        <time>2024-07-08T15:31:09Z</time>
      </trkpt>
      <trkpt lat="42.75039" lon="1.52839">
        <ele>1487</ele>
        <time>2024-07-08T15:31:11Z</time>
      </trkpt>
      <trkpt lat="42.7504" lon="1.52839">
        <ele>1486.8</ele>
        <time>2024-07-08T15:31:12Z</time>
      </trkpt>
      <trkpt lat="42.75042" lon="1.5284">
        <ele>1486.4</ele>
        <time>2024-07-08T15:31:14Z</time>
      </trkpt>
      <trkpt lat="42.75044" lon="1.52841">
        <ele>1486.2</ele>
        <time>2024-07-08T15:31:16Z</time>
      </trkpt>
      <trkpt lat="42.75046" lon="1.52842">
        <ele>1486</ele>
        <time>2024-07-08T15:31:17Z</time>
      </trkpt>
      <trkpt lat="42.75055" lon="1.52848">
        <ele>1485</ele>
        <time>2024-07-08T15:31:23Z</time>
      </trkpt>
      <trkpt lat="42.75064" lon="1.52854">
        <ele>1481.4</ele>
        <time>2024-07-08T15:31:30Z</time>
      </trkpt>
      <trkpt lat="42.75074" lon="1.52864">
        <ele>1480.6</ele>
        <time>2024-07-08T15:31:39Z</time>
      </trkpt>
      <trkpt lat="42.75083" lon="1.52872">
        <ele>1481.4</ele>
        <time>2024-07-08T15:31:46Z</time>
      </trkpt>
      <trkpt lat="42.75089" lon="1.52875">
        <ele>1481.6</ele>
        <time>2024-07-08T15:31:51Z</time>
      </trkpt>
      <trkpt lat="42.75091" lon="1.5288">
        <ele>1481.8</ele>
        <time>2024-07-08T15:31:54Z</time>
      </trkpt>
      <trkpt lat="42.75094" lon="1.52882">
        <ele>1482.2</ele>
        <time>2024-07-08T15:31:56Z</time>
      </trkpt>
      <trkpt lat="42.751" lon="1.52884">
        <ele>1482.8</ele>
        <time>2024-07-08T15:32:00Z</time>
      </trkpt>
      <trkpt lat="42.75102" lon="1.52888">
        <ele>1483</ele>
        <time>2024-07-08T15:32:02Z</time>
      </trkpt>
      <trkpt lat="42.75106" lon="1.52893">
        <ele>1483</ele>
        <time>2024-07-08T15:32:06Z</time>
      </trkpt>
      <trkpt lat="42.75116" lon="1.52901">
        <ele>1482.2</ele>
        <time>2024-07-08T15:32:14Z</time>
      </trkpt>
      <trkpt lat="42.75125" lon="1.52907">
        <ele>1482</ele>
        <time>2024-07-08T15:32:21Z</time>
      </trkpt>
      <trkpt lat="42.75132" lon="1.52916">
        <ele>1482.6</ele>
        <time>2024-07-08T15:32:28Z</time>
      </trkpt>
      <trkpt lat="42.75136" lon="1.5292">
        <ele>1482.6</ele>
        <time>2024-07-08T15:32:31Z</time>
      </trkpt>
      <trkpt lat="42.7514" lon="1.52924">
        <ele>1482.4</ele>
        <time>2024-07-08T15:32:35Z</time>
      </trkpt>
      <trkpt lat="42.75147" lon="1.52936">
        <ele>1480.8</ele>
        <time>2024-07-08T15:32:43Z</time>
      </trkpt>
      <trkpt lat="42.75155" lon="1.52947">
        <ele>1481.4</ele>
        <time>2024-07-08T15:32:51Z</time>
      </trkpt>
      <trkpt lat="42.75162" lon="1.52955">
        <ele>1480.8</ele>
        <time>2024-07-08T15:32:58Z</time>
      </trkpt>
      <trkpt lat="42.75168" lon="1.52965">
        <ele>1482.6</ele>
        <time>2024-07-08T15:33:05Z</time>
      </trkpt>
      <trkpt lat="42.7517" lon="1.52966">
        <ele>1482.8</ele>
        <time>2024-07-08T15:33:06Z</time>
      </trkpt>
      <trkpt lat="42.75178" lon="1.52978">
        <ele>1484</ele>
        <time>2024-07-08T15:33:15Z</time>
      </trkpt>
      <trkpt lat="42.75181" lon="1.52982">
        <ele>1484.6</ele>
        <time>2024-07-08T15:33:18Z</time>
      </trkpt>
      <trkpt lat="42.75182" lon="1.52987">
        <ele>1485.2</ele>
        <time>2024-07-08T15:33:21Z</time>
      </trkpt>
      <trkpt lat="42.75188" lon="1.53">
        <ele>1486.2</ele>
        <time>2024-07-08T15:33:28Z</time>
      </trkpt>
      <trkpt lat="42.75195" lon="1.53014">
        <ele>1485.2</ele>
        <time>2024-07-08T15:33:37Z</time>
      </trkpt>
      <trkpt lat="42.75203" lon="1.53026">
        <ele>1485.8</ele>
        <time>2024-07-08T15:33:46Z</time>
      </trkpt>
      <trkpt lat="42.75203" lon="1.53028">
        <ele>1486</ele>
        <time>2024-07-08T15:33:47Z</time>
      </trkpt>
      <trkpt lat="42.75204" lon="1.53032">
        <ele>1486.2</ele>
        <time>2024-07-08T15:33:49Z</time>
      </trkpt>
      <trkpt lat="42.75204" lon="1.53035">
        <ele>1486.2</ele>
        <time>2024-07-08T15:33:50Z</time>
      </trkpt>
      <trkpt lat="42.75207" lon="1.53037">
        <ele>1486.2</ele>
        <time>2024-07-08T15:33:52Z</time>
      </trkpt>
      <trkpt lat="42.75212" lon="1.53041">
        <ele>1485.8</ele>
        <time>2024-07-08T15:33:56Z</time>
      </trkpt>
      <trkpt lat="42.75219" lon="1.53049">
        <ele>1485.4</ele>
        <time>2024-07-08T15:34:03Z</time>
      </trkpt>
      <trkpt lat="42.75221" lon="1.53052">
        <ele>1485.4</ele>
        <time>2024-07-08T15:34:05Z</time>
      </trkpt>
      <trkpt lat="42.75225" lon="1.53058">
        <ele>1484.8</ele>
        <time>2024-07-08T15:34:10Z</time>
      </trkpt>
      <trkpt lat="42.75226" lon="1.53059">
        <ele>1484.8</ele>
        <time>2024-07-08T15:34:11Z</time>
      </trkpt>
      <trkpt lat="42.75229" lon="1.5306">
        <ele>1484.4</ele>
        <time>2024-07-08T15:34:14Z</time>
      </trkpt>
      <trkpt lat="42.75237" lon="1.53067">
        <ele>1484.4</ele>
        <time>2024-07-08T15:34:20Z</time>
      </trkpt>
      <trkpt lat="42.75246" lon="1.53074">
        <ele>1487.4</ele>
        <time>2024-07-08T15:34:28Z</time>
      </trkpt>
      <trkpt lat="42.75247" lon="1.53074">
        <ele>1487.6</ele>
        <time>2024-07-08T15:34:29Z</time>
      </trkpt>
      <trkpt lat="42.75252" lon="1.5308">
        <ele>1488.8</ele>
        <time>2024-07-08T15:34:33Z</time>
      </trkpt>
      <trkpt lat="42.75256" lon="1.53087">
        <ele>1490.8</ele>
        <time>2024-07-08T15:34:38Z</time>
      </trkpt>
      <trkpt lat="42.75257" lon="1.53089">
        <ele>1491.2</ele>
        <time>2024-07-08T15:34:40Z</time>
      </trkpt>
      <trkpt lat="42.7526" lon="1.5309">
        <ele>1491.4</ele>
        <time>2024-07-08T15:34:42Z</time>
      </trkpt>
      <trkpt lat="42.75266" lon="1.53094">
        <ele>1491.2</ele>
        <time>2024-07-08T15:34:47Z</time>
      </trkpt>
      <trkpt lat="42.75276" lon="1.53104">
        <ele>1489.8</ele>
        <time>2024-07-08T15:34:57Z</time>
      </trkpt>
      <trkpt lat="42.75284" lon="1.53115">
        <ele>1490.8</ele>
        <time>2024-07-08T15:35:06Z</time>
      </trkpt>
      <trkpt lat="42.75289" lon="1.5312">
        <ele>1491</ele>
        <time>2024-07-08T15:35:11Z</time>
      </trkpt>
      <trkpt lat="42.75293" lon="1.53123">
        <ele>1491.4</ele>
        <time>2024-07-08T15:35:14Z</time>
      </trkpt>
      <trkpt lat="42.75301" lon="1.53132">
        <ele>1493.2</ele>
        <time>2024-07-08T15:35:22Z</time>
      </trkpt>
      <trkpt lat="42.75307" lon="1.53139">
        <ele>1494.4</ele>
        <time>2024-07-08T15:35:28Z</time>
      </trkpt>
      <trkpt lat="42.75308" lon="1.5314">
        <ele>1494.6</ele>
        <time>2024-07-08T15:35:29Z</time>
      </trkpt>
      <trkpt lat="42.75308" lon="1.53141">
        <ele>1494.6</ele>
        <time>2024-07-08T15:35:30Z</time>
      </trkpt>
      <trkpt lat="42.75313" lon="1.53147">
        <ele>1494.6</ele>
        <time>2024-07-08T15:35:34Z</time>
      </trkpt>
      <trkpt lat="42.75321" lon="1.53157">
        <ele>1494.6</ele>
        <time>2024-07-08T15:35:42Z</time>
      </trkpt>
      <trkpt lat="42.75331" lon="1.53175">
        <ele>1493</ele>
        <time>2024-07-08T15:35:55Z</time>
      </trkpt>
      <trkpt lat="42.75334" lon="1.53191">
        <ele>1491.4</ele>
        <time>2024-07-08T15:36:04Z</time>
      </trkpt>
      <trkpt lat="42.75336" lon="1.53202">
        <ele>1490.8</ele>
        <time>2024-07-08T15:36:11Z</time>
      </trkpt>
      <trkpt lat="42.75339" lon="1.53205">
        <ele>1490.4</ele>
        <time>2024-07-08T15:36:16Z</time>
      </trkpt>
      <trkpt lat="42.75339" lon="1.53204">
        <ele>1490.2</ele>
        <time>2024-07-08T15:36:17Z</time>
      </trkpt>
      <trkpt lat="42.75341" lon="1.53201">
        <ele>1489.8</ele>
        <time>2024-07-08T15:36:23Z</time>
      </trkpt>
      <trkpt lat="42.75342" lon="1.53201">
        <ele>1489.4</ele>
        <time>2024-07-08T15:36:29Z</time>
      </trkpt>
      <trkpt lat="42.75343" lon="1.53201">
        <ele>1490</ele>
        <time>2024-07-08T15:36:54Z</time>
      </trkpt>
      <trkpt lat="42.75347" lon="1.53212">
        <ele>1487.4</ele>
        <time>2024-07-08T15:40:36Z</time>
      </trkpt>
      <trkpt lat="42.75351" lon="1.53218">
        <ele>1488.4</ele>
        <time>2024-07-08T15:40:43Z</time>
      </trkpt>
      <trkpt lat="42.75354" lon="1.53222">
        <ele>1489.6</ele>
        <time>2024-07-08T15:40:54Z</time>
      </trkpt>
      <trkpt lat="42.75357" lon="1.53223">
        <ele>1490</ele>
        <time>2024-07-08T15:41:02Z</time>
      </trkpt>
      <trkpt lat="42.75357" lon="1.53223">
        <ele>1490.4</ele>
        <time>2024-07-08T15:41:10Z</time>
      </trkpt>
      <trkpt lat="42.75362" lon="1.53215">
        <ele>1490.8</ele>
        <time>2024-07-08T15:41:51Z</time>
      </trkpt>
      <trkpt lat="42.75367" lon="1.532">
        <ele>1493</ele>
        <time>2024-07-08T15:41:59Z</time>
      </trkpt>
      <trkpt lat="42.75367" lon="1.53198">
        <ele>1493.4</ele>
        <time>2024-07-08T15:42:01Z</time>
      </trkpt>
      <trkpt lat="42.75368" lon="1.53192">
        <ele>1495</ele>
        <time>2024-07-08T15:42:05Z</time>
      </trkpt>
      <trkpt lat="42.75368" lon="1.5319">
        <ele>1495.6</ele>
        <time>2024-07-08T15:42:06Z</time>
      </trkpt>
      <trkpt lat="42.75372" lon="1.53182">
        <ele>1497.8</ele>
        <time>2024-07-08T15:42:13Z</time>
      </trkpt>
      <trkpt lat="42.75375" lon="1.53173">
        <ele>1499.4</ele>
        <time>2024-07-08T15:42:21Z</time>
      </trkpt>
      <trkpt lat="42.75378" lon="1.53166">
        <ele>1500</ele>
        <time>2024-07-08T15:42:26Z</time>
      </trkpt>
      <trkpt lat="42.75379" lon="1.53166">
        <ele>1500</ele>
        <time>2024-07-08T15:42:27Z</time>
      </trkpt>
      <trkpt lat="42.75381" lon="1.53157">
        <ele>1499.8</ele>
        <time>2024-07-08T15:42:33Z</time>
      </trkpt>
      <trkpt lat="42.75384" lon="1.53144">
        <ele>1499.6</ele>
        <time>2024-07-08T15:42:42Z</time>
      </trkpt>
      <trkpt lat="42.7539" lon="1.5313">
        <ele>1499</ele>
        <time>2024-07-08T15:42:52Z</time>
      </trkpt>
      <trkpt lat="42.75394" lon="1.5312">
        <ele>1498.4</ele>
        <time>2024-07-08T15:43:00Z</time>
      </trkpt>
      <trkpt lat="42.75395" lon="1.53118">
        <ele>1499</ele>
        <time>2024-07-08T15:43:02Z</time>
      </trkpt>
      <trkpt lat="42.75397" lon="1.5311">
        <ele>1501.4</ele>
        <time>2024-07-08T15:43:07Z</time>
      </trkpt>
      <trkpt lat="42.754" lon="1.53101">
        <ele>1504.6</ele>
        <time>2024-07-08T15:43:14Z</time>
      </trkpt>
      <trkpt lat="42.75403" lon="1.53085">
        <ele>1507.8</ele>
        <time>2024-07-08T15:43:22Z</time>
      </trkpt>
      <trkpt lat="42.75411" lon="1.53073">
        <ele>1506.6</ele>
        <time>2024-07-08T15:43:31Z</time>
      </trkpt>
      <trkpt lat="42.75417" lon="1.5306">
        <ele>1504</ele>
        <time>2024-07-08T15:43:40Z</time>
      </trkpt>
      <trkpt lat="42.75422" lon="1.53051">
        <ele>1504</ele>
        <time>2024-07-08T15:43:47Z</time>
      </trkpt>
      <trkpt lat="42.75423" lon="1.53047">
        <ele>1504.6</ele>
        <time>2024-07-08T15:43:49Z</time>
      </trkpt>
      <trkpt lat="42.75431" lon="1.53035">
        <ele>1509.2</ele>
        <time>2024-07-08T15:43:58Z</time>
      </trkpt>
      <trkpt lat="42.75437" lon="1.5303">
        <ele>1510.2</ele>
        <time>2024-07-08T15:44:04Z</time>
      </trkpt>
      <trkpt lat="42.75438" lon="1.53029">
        <ele>1510.2</ele>
        <time>2024-07-08T15:44:05Z</time>
      </trkpt>
      <trkpt lat="42.75447" lon="1.53021">
        <ele>1510.8</ele>
        <time>2024-07-08T15:44:14Z</time>
      </trkpt>
      <trkpt lat="42.75448" lon="1.53021">
        <ele>1511</ele>
        <time>2024-07-08T15:44:15Z</time>
      </trkpt>
      <trkpt lat="42.75456" lon="1.53015">
        <ele>1512.4</ele>
        <time>2024-07-08T15:44:20Z</time>
      </trkpt>
      <trkpt lat="42.75459" lon="1.53014">
        <ele>1513.6</ele>
        <time>2024-07-08T15:44:23Z</time>
      </trkpt>
      <trkpt lat="42.75468" lon="1.53013">
        <ele>1513.6</ele>
        <time>2024-07-08T15:44:31Z</time>
      </trkpt>
      <trkpt lat="42.75473" lon="1.53009">
        <ele>1512.4</ele>
        <time>2024-07-08T15:44:36Z</time>
      </trkpt>
      <trkpt lat="42.75484" lon="1.53004">
        <ele>1513</ele>
        <time>2024-07-08T15:44:45Z</time>
      </trkpt>
      <trkpt lat="42.7549" lon="1.52997">
        <ele>1512.8</ele>
        <time>2024-07-08T15:44:51Z</time>
      </trkpt>
      <trkpt lat="42.75492" lon="1.52995">
        <ele>1513.2</ele>
        <time>2024-07-08T15:44:54Z</time>
      </trkpt>
      <trkpt lat="42.75495" lon="1.52994">
        <ele>1514.2</ele>
        <time>2024-07-08T15:44:56Z</time>
      </trkpt>
      <trkpt lat="42.755" lon="1.52993">
        <ele>1515.6</ele>
        <time>2024-07-08T15:45:00Z</time>
      </trkpt>
      <trkpt lat="42.75506" lon="1.5299">
        <ele>1516.6</ele>
        <time>2024-07-08T15:45:06Z</time>
      </trkpt>
      <trkpt lat="42.75509" lon="1.52989">
        <ele>1517.2</ele>
        <time>2024-07-08T15:45:09Z</time>
      </trkpt>
      <trkpt lat="42.75511" lon="1.52988">
        <ele>1517.4</ele>
        <time>2024-07-08T15:45:11Z</time>
      </trkpt>
      <trkpt lat="42.75518" lon="1.52982">
        <ele>1516.4</ele>
        <time>2024-07-08T15:45:17Z</time>
      </trkpt>
      <trkpt lat="42.7552" lon="1.52982">
        <ele>1516.2</ele>
        <time>2024-07-08T15:45:18Z</time>
      </trkpt>
      <trkpt lat="42.75525" lon="1.5298">
        <ele>1515.2</ele>
        <time>2024-07-08T15:45:22Z</time>
      </trkpt>
      <trkpt lat="42.75528" lon="1.52981">
        <ele>1514.8</ele>
        <time>2024-07-08T15:45:24Z</time>
      </trkpt>
      <trkpt lat="42.75537" lon="1.52979">
        <ele>1513.4</ele>
        <time>2024-07-08T15:45:30Z</time>
      </trkpt>
      <trkpt lat="42.75547" lon="1.52977">
        <ele>1516</ele>
        <time>2024-07-08T15:45:38Z</time>
      </trkpt>
      <trkpt lat="42.75549" lon="1.52979">
        <ele>1516.2</ele>
        <time>2024-07-08T15:45:40Z</time>
      </trkpt>
      <trkpt lat="42.75556" lon="1.5298">
        <ele>1515.2</ele>
        <time>2024-07-08T15:45:45Z</time>
      </trkpt>
      <trkpt lat="42.75557" lon="1.5298">
        <ele>1515</ele>
        <time>2024-07-08T15:45:46Z</time>
      </trkpt>
      <trkpt lat="42.75565" lon="1.52979">
        <ele>1515</ele>
        <time>2024-07-08T15:45:53Z</time>
      </trkpt>
      <trkpt lat="42.75568" lon="1.52977">
        <ele>1515.6</ele>
        <time>2024-07-08T15:45:55Z</time>
      </trkpt>
      <trkpt lat="42.75572" lon="1.52977">
        <ele>1516.2</ele>
        <time>2024-07-08T15:45:58Z</time>
      </trkpt>
      <trkpt lat="42.75586" lon="1.52983">
        <ele>1520</ele>
        <time>2024-07-08T15:46:07Z</time>
      </trkpt>
      <trkpt lat="42.75594" lon="1.52986">
        <ele>1520.8</ele>
        <time>2024-07-08T15:46:14Z</time>
      </trkpt>
      <trkpt lat="42.75603" lon="1.5299">
        <ele>1520.2</ele>
        <time>2024-07-08T15:46:21Z</time>
      </trkpt>
      <trkpt lat="42.75615" lon="1.52992">
        <ele>1520.4</ele>
        <time>2024-07-08T15:46:28Z</time>
      </trkpt>
      <trkpt lat="42.75625" lon="1.52997">
        <ele>1523.8</ele>
        <time>2024-07-08T15:46:36Z</time>
      </trkpt>
      <trkpt lat="42.75626" lon="1.53">
        <ele>1524</ele>
        <time>2024-07-08T15:46:38Z</time>
      </trkpt>
      <trkpt lat="42.75628" lon="1.53002">
        <ele>1524.2</ele>
        <time>2024-07-08T15:46:40Z</time>
      </trkpt>
      <trkpt lat="42.75637" lon="1.53006">
        <ele>1524</ele>
        <time>2024-07-08T15:46:47Z</time>
      </trkpt>
      <trkpt lat="42.75646" lon="1.53008">
        <ele>1523.4</ele>
        <time>2024-07-08T15:46:54Z</time>
      </trkpt>
      <trkpt lat="42.75655" lon="1.53003">
        <ele>1524</ele>
        <time>2024-07-08T15:47:02Z</time>
      </trkpt>
      <trkpt lat="42.75656" lon="1.53002">
        <ele>1524.2</ele>
        <time>2024-07-08T15:47:03Z</time>
      </trkpt>
      <trkpt lat="42.75658" lon="1.53001">
        <ele>1523.6</ele>
        <time>2024-07-08T15:47:08Z</time>
      </trkpt>
      <trkpt lat="42.75655" lon="1.53003">
        <ele>1523</ele>
        <time>2024-07-08T15:47:14Z</time>
      </trkpt>
      <trkpt lat="42.75654" lon="1.53009">
        <ele>1522.4</ele>
        <time>2024-07-08T15:47:19Z</time>
      </trkpt>
      <trkpt lat="42.75662" lon="1.53015">
        <ele>1522</ele>
        <time>2024-07-08T15:47:27Z</time>
      </trkpt>
      <trkpt lat="42.7567" lon="1.53024">
        <ele>1520.6</ele>
        <time>2024-07-08T15:47:35Z</time>
      </trkpt>
      <trkpt lat="42.7567" lon="1.53024">
        <ele>1520</ele>
        <time>2024-07-08T15:47:41Z</time>
      </trkpt>
      <trkpt lat="42.75669" lon="1.53025">
        <ele>1519.6</ele>
        <time>2024-07-08T15:47:48Z</time>
      </trkpt>
      <trkpt lat="42.75674" lon="1.5303">
        <ele>1519.8</ele>
        <time>2024-07-08T15:48:11Z</time>
      </trkpt>
      <trkpt lat="42.75681" lon="1.53034">
        <ele>1522.6</ele>
        <time>2024-07-08T15:48:17Z</time>
      </trkpt>
      <trkpt lat="42.75685" lon="1.53035">
        <ele>1524</ele>
        <time>2024-07-08T15:48:20Z</time>
      </trkpt>
      <trkpt lat="42.75687" lon="1.53035">
        <ele>1524.6</ele>
        <time>2024-07-08T15:48:22Z</time>
      </trkpt>
      <trkpt lat="42.75688" lon="1.53036">
        <ele>1524.8</ele>
        <time>2024-07-08T15:48:23Z</time>
      </trkpt>
      <trkpt lat="42.75692" lon="1.5304">
        <ele>1525.2</ele>
        <time>2024-07-08T15:48:28Z</time>
      </trkpt>
      <trkpt lat="42.75694" lon="1.53041">
        <ele>1525.2</ele>
        <time>2024-07-08T15:48:30Z</time>
      </trkpt>
      <trkpt lat="42.757" lon="1.53044">
        <ele>1525.8</ele>
        <time>2024-07-08T15:48:35Z</time>
      </trkpt>
      <trkpt lat="42.75701" lon="1.53043">
        <ele>1525.8</ele>
        <time>2024-07-08T15:48:36Z</time>
      </trkpt>
      <trkpt lat="42.75703" lon="1.53042">
        <ele>1526</ele>
        <time>2024-07-08T15:48:38Z</time>
      </trkpt>
      <trkpt lat="42.75708" lon="1.53041">
        <ele>1527.2</ele>
        <time>2024-07-08T15:48:42Z</time>
      </trkpt>
      <trkpt lat="42.75709" lon="1.53042">
        <ele>1527.6</ele>
        <time>2024-07-08T15:48:43Z</time>
      </trkpt>
      <trkpt lat="42.75717" lon="1.53046">
        <ele>1530.2</ele>
        <time>2024-07-08T15:48:49Z</time>
      </trkpt>
      <trkpt lat="42.75718" lon="1.53048">
        <ele>1530.6</ele>
        <time>2024-07-08T15:48:50Z</time>
      </trkpt>
      <trkpt lat="42.75722" lon="1.53051">
        <ele>1530.8</ele>
        <time>2024-07-08T15:48:53Z</time>
      </trkpt>
      <trkpt lat="42.75727" lon="1.53054">
        <ele>1530.8</ele>
        <time>2024-07-08T15:48:56Z</time>
      </trkpt>
      <trkpt lat="42.75732" lon="1.53057">
        <ele>1531</ele>
        <time>2024-07-08T15:49:01Z</time>
      </trkpt>
      <trkpt lat="42.75733" lon="1.53058">
        <ele>1531</ele>
        <time>2024-07-08T15:49:02Z</time>
      </trkpt>
      <trkpt lat="42.75735" lon="1.53057">
        <ele>1531.2</ele>
        <time>2024-07-08T15:49:04Z</time>
      </trkpt>
      <trkpt lat="42.75739" lon="1.53056">
        <ele>1531.4</ele>
        <time>2024-07-08T15:49:07Z</time>
      </trkpt>
      <trkpt lat="42.75741" lon="1.53056">
        <ele>1531.6</ele>
        <time>2024-07-08T15:49:08Z</time>
      </trkpt>
      <trkpt lat="42.75743" lon="1.53056">
        <ele>1531.8</ele>
        <time>2024-07-08T15:49:09Z</time>
      </trkpt>
      <trkpt lat="42.75749" lon="1.53056">
        <ele>1533</ele>
        <time>2024-07-08T15:49:13Z</time>
      </trkpt>
      <trkpt lat="42.7575" lon="1.53058">
        <ele>1533.2</ele>
        <time>2024-07-08T15:49:14Z</time>
      </trkpt>
      <trkpt lat="42.75756" lon="1.53063">
        <ele>1533.6</ele>
        <time>2024-07-08T15:49:19Z</time>
      </trkpt>
      <trkpt lat="42.75759" lon="1.53066">
        <ele>1532.6</ele>
        <time>2024-07-08T15:49:22Z</time>
      </trkpt>
      <trkpt lat="42.75766" lon="1.5307">
        <ele>1530.2</ele>
        <time>2024-07-08T15:49:29Z</time>
      </trkpt>
      <trkpt lat="42.75768" lon="1.5307">
        <ele>1530.2</ele>
        <time>2024-07-08T15:49:30Z</time>
      </trkpt>
      <trkpt lat="42.75771" lon="1.53072">
        <ele>1529.8</ele>
        <time>2024-07-08T15:49:33Z</time>
      </trkpt>
      <trkpt lat="42.75773" lon="1.53075">
        <ele>1529.8</ele>
        <time>2024-07-08T15:49:36Z</time>
      </trkpt>
      <trkpt lat="42.75774" lon="1.53077">
        <ele>1528.8</ele>
        <time>2024-07-08T15:49:41Z</time>
      </trkpt>
      <trkpt lat="42.7578" lon="1.5308">
        <ele>1528.6</ele>
        <time>2024-07-08T15:49:46Z</time>
      </trkpt>
      <trkpt lat="42.75787" lon="1.53081">
        <ele>1531.2</ele>
        <time>2024-07-08T15:49:52Z</time>
      </trkpt>
      <trkpt lat="42.75791" lon="1.53081">
        <ele>1531.4</ele>
        <time>2024-07-08T15:49:55Z</time>
      </trkpt>
      <trkpt lat="42.75795" lon="1.53079">
        <ele>1531.6</ele>
        <time>2024-07-08T15:49:58Z</time>
      </trkpt>
      <trkpt lat="42.75801" lon="1.53077">
        <ele>1533.8</ele>
        <time>2024-07-08T15:50:03Z</time>
      </trkpt>
      <trkpt lat="42.75804" lon="1.53077">
        <ele>1534.2</ele>
        <time>2024-07-08T15:50:05Z</time>
      </trkpt>
      <trkpt lat="42.75809" lon="1.53076">
        <ele>1534.6</ele>
        <time>2024-07-08T15:50:09Z</time>
      </trkpt>
      <trkpt lat="42.75812" lon="1.53075">
        <ele>1534.4</ele>
        <time>2024-07-08T15:50:12Z</time>
      </trkpt>
      <trkpt lat="42.75814" lon="1.53075">
        <ele>1534.4</ele>
        <time>2024-07-08T15:50:14Z</time>
      </trkpt>
      <trkpt lat="42.75821" lon="1.53077">
        <ele>1533.8</ele>
        <time>2024-07-08T15:50:18Z</time>
      </trkpt>
      <trkpt lat="42.75824" lon="1.53077">
        <ele>1533.4</ele>
        <time>2024-07-08T15:50:20Z</time>
      </trkpt>
      <trkpt lat="42.75827" lon="1.53075">
        <ele>1532.8</ele>
        <time>2024-07-08T15:50:23Z</time>
      </trkpt>
      <trkpt lat="42.75828" lon="1.53075">
        <ele>1532.6</ele>
        <time>2024-07-08T15:50:24Z</time>
      </trkpt>
      <trkpt lat="42.7583" lon="1.53074">
        <ele>1532.4</ele>
        <time>2024-07-08T15:50:25Z</time>
      </trkpt>
      <trkpt lat="42.75837" lon="1.53074">
        <ele>1532</ele>
        <time>2024-07-08T15:50:30Z</time>
      </trkpt>
      <trkpt lat="42.75845" lon="1.5307">
        <ele>1531</ele>
        <time>2024-07-08T15:50:38Z</time>
      </trkpt>
      <trkpt lat="42.75849" lon="1.53069">
        <ele>1530.2</ele>
        <time>2024-07-08T15:50:47Z</time>
      </trkpt>
      <trkpt lat="42.75861" lon="1.53062">
        <ele>1530.6</ele>
        <time>2024-07-08T15:50:56Z</time>
      </trkpt>
      <trkpt lat="42.75867" lon="1.53056">
        <ele>1530.8</ele>
        <time>2024-07-08T15:51:02Z</time>
      </trkpt>
      <trkpt lat="42.75871" lon="1.53054">
        <ele>1530.8</ele>
        <time>2024-07-08T15:51:05Z</time>
      </trkpt>
      <trkpt lat="42.75878" lon="1.53049">
        <ele>1530.8</ele>
        <time>2024-07-08T15:51:12Z</time>
      </trkpt>
      <trkpt lat="42.75879" lon="1.53047">
        <ele>1531</ele>
        <time>2024-07-08T15:51:14Z</time>
      </trkpt>
      <trkpt lat="42.75881" lon="1.53044">
        <ele>1531.4</ele>
        <time>2024-07-08T15:51:16Z</time>
      </trkpt>
      <trkpt lat="42.75883" lon="1.53043">
        <ele>1531.8</ele>
        <time>2024-07-08T15:51:18Z</time>
      </trkpt>
      <trkpt lat="42.75889" lon="1.53043">
        <ele>1533.4</ele>
        <time>2024-07-08T15:51:23Z</time>
      </trkpt>
      <trkpt lat="42.75891" lon="1.53042">
        <ele>1533.8</ele>
        <time>2024-07-08T15:51:25Z</time>
      </trkpt>
      <trkpt lat="42.75893" lon="1.53041">
        <ele>1534</ele>
        <time>2024-07-08T15:51:27Z</time>
      </trkpt>
      <trkpt lat="42.75899" lon="1.5304">
        <ele>1534.8</ele>
        <time>2024-07-08T15:51:31Z</time>
      </trkpt>
      <trkpt lat="42.75904" lon="1.53038">
        <ele>1535.6</ele>
        <time>2024-07-08T15:51:36Z</time>
      </trkpt>
      <trkpt lat="42.75907" lon="1.53035">
        <ele>1535.6</ele>
        <time>2024-07-08T15:51:38Z</time>
      </trkpt>
      <trkpt lat="42.75911" lon="1.53035">
        <ele>1535.8</ele>
        <time>2024-07-08T15:51:40Z</time>
      </trkpt>
      <trkpt lat="42.75916" lon="1.53038">
        <ele>1535.8</ele>
        <time>2024-07-08T15:51:43Z</time>
      </trkpt>
      <trkpt lat="42.75919" lon="1.53041">
        <ele>1536</ele>
        <time>2024-07-08T15:51:45Z</time>
      </trkpt>
      <trkpt lat="42.75923" lon="1.53046">
        <ele>1536.4</ele>
        <time>2024-07-08T15:51:49Z</time>
      </trkpt>
      <trkpt lat="42.75929" lon="1.53054">
        <ele>1539</ele>
        <time>2024-07-08T15:51:56Z</time>
      </trkpt>
      <trkpt lat="42.7593" lon="1.53055">
        <ele>1539.4</ele>
        <time>2024-07-08T15:51:57Z</time>
      </trkpt>
      <trkpt lat="42.75931" lon="1.53056">
        <ele>1540</ele>
        <time>2024-07-08T15:51:58Z</time>
      </trkpt>
      <trkpt lat="42.75932" lon="1.53057">
        <ele>1541.2</ele>
        <time>2024-07-08T15:52:00Z</time>
      </trkpt>
      <trkpt lat="42.75933" lon="1.53058">
        <ele>1542.2</ele>
        <time>2024-07-08T15:52:02Z</time>
      </trkpt>
      <trkpt lat="42.75934" lon="1.5306">
        <ele>1543</ele>
        <time>2024-07-08T15:52:04Z</time>
      </trkpt>
      <trkpt lat="42.75937" lon="1.53062">
        <ele>1544.6</ele>
        <time>2024-07-08T15:52:08Z</time>
      </trkpt>
      <trkpt lat="42.75945" lon="1.53068">
        <ele>1547.8</ele>
        <time>2024-07-08T15:52:14Z</time>
      </trkpt>
      <trkpt lat="42.75951" lon="1.53071">
        <ele>1549.2</ele>
        <time>2024-07-08T15:52:17Z</time>
      </trkpt>
      <trkpt lat="42.75959" lon="1.53075">
        <ele>1549.6</ele>
        <time>2024-07-08T15:52:21Z</time>
      </trkpt>
      <trkpt lat="42.75968" lon="1.53084">
        <ele>1547.4</ele>
        <time>2024-07-08T15:52:29Z</time>
      </trkpt>
      <trkpt lat="42.75972" lon="1.5309">
        <ele>1546.8</ele>
        <time>2024-07-08T15:52:33Z</time>
      </trkpt>
      <trkpt lat="42.75975" lon="1.53096">
        <ele>1545.4</ele>
        <time>2024-07-08T15:52:37Z</time>
      </trkpt>
      <trkpt lat="42.75984" lon="1.53105">
        <ele>1546</ele>
        <time>2024-07-08T15:52:47Z</time>
      </trkpt>
      <trkpt lat="42.75992" lon="1.53111">
        <ele>1546.2</ele>
        <time>2024-07-08T15:52:53Z</time>
      </trkpt>
      <trkpt lat="42.75998" lon="1.53117">
        <ele>1547</ele>
        <time>2024-07-08T15:52:59Z</time>
      </trkpt>
      <trkpt lat="42.76002" lon="1.5313">
        <ele>1547.8</ele>
        <time>2024-07-08T15:53:06Z</time>
      </trkpt>
      <trkpt lat="42.76005" lon="1.53135">
        <ele>1547.4</ele>
        <time>2024-07-08T15:53:09Z</time>
      </trkpt>
      <trkpt lat="42.76006" lon="1.5314">
        <ele>1546</ele>
        <time>2024-07-08T15:53:12Z</time>
      </trkpt>
      <trkpt lat="42.76009" lon="1.53145">
        <ele>1544.2</ele>
        <time>2024-07-08T15:53:16Z</time>
      </trkpt>
      <trkpt lat="42.76012" lon="1.53149">
        <ele>1544</ele>
        <time>2024-07-08T15:53:19Z</time>
      </trkpt>
      <trkpt lat="42.76015" lon="1.53151">
        <ele>1544</ele>
        <time>2024-07-08T15:53:21Z</time>
      </trkpt>
      <trkpt lat="42.76019" lon="1.53154">
        <ele>1544.4</ele>
        <time>2024-07-08T15:53:25Z</time>
      </trkpt>
      <trkpt lat="42.76029" lon="1.53162">
        <ele>1548.8</ele>
        <time>2024-07-08T15:53:34Z</time>
      </trkpt>
      <trkpt lat="42.7603" lon="1.53162">
        <ele>1549.4</ele>
        <time>2024-07-08T15:53:35Z</time>
      </trkpt>
      <trkpt lat="42.76033" lon="1.53165">
        <ele>1551.6</ele>
        <time>2024-07-08T15:53:38Z</time>
      </trkpt>
      <trkpt lat="42.76034" lon="1.53167">
        <ele>1552</ele>
        <time>2024-07-08T15:53:39Z</time>
      </trkpt>
      <trkpt lat="42.76036" lon="1.53172">
        <ele>1552.8</ele>
        <time>2024-07-08T15:53:42Z</time>
      </trkpt>
      <trkpt lat="42.76038" lon="1.53174">
        <ele>1553</ele>
        <time>2024-07-08T15:53:44Z</time>
      </trkpt>
      <trkpt lat="42.76039" lon="1.53176">
        <ele>1553.2</ele>
        <time>2024-07-08T15:53:45Z</time>
      </trkpt>
      <trkpt lat="42.7604" lon="1.53178">
        <ele>1553.2</ele>
        <time>2024-07-08T15:53:46Z</time>
      </trkpt>
      <trkpt lat="42.76044" lon="1.5318">
        <ele>1554</ele>
        <time>2024-07-08T15:53:50Z</time>
      </trkpt>
      <trkpt lat="42.76055" lon="1.53192">
        <ele>1555.4</ele>
        <time>2024-07-08T15:53:59Z</time>
      </trkpt>
      <trkpt lat="42.76059" lon="1.53198">
        <ele>1555</ele>
        <time>2024-07-08T15:54:03Z</time>
      </trkpt>
      <trkpt lat="42.76064" lon="1.53201">
        <ele>1554.2</ele>
        <time>2024-07-08T15:54:07Z</time>
      </trkpt>
      <trkpt lat="42.7607" lon="1.53209">
        <ele>1554.8</ele>
        <time>2024-07-08T15:54:13Z</time>
      </trkpt>
      <trkpt lat="42.76076" lon="1.53218">
        <ele>1557.4</ele>
        <time>2024-07-08T15:54:21Z</time>
      </trkpt>
      <trkpt lat="42.76084" lon="1.53223">
        <ele>1557.2</ele>
        <time>2024-07-08T15:54:27Z</time>
      </trkpt>
      <trkpt lat="42.76085" lon="1.53224">
        <ele>1557.2</ele>
        <time>2024-07-08T15:54:28Z</time>
      </trkpt>
      <trkpt lat="42.76087" lon="1.53227">
        <ele>1556.6</ele>
        <time>2024-07-08T15:54:30Z</time>
      </trkpt>
      <trkpt lat="42.76088" lon="1.5323">
        <ele>1556.4</ele>
        <time>2024-07-08T15:54:32Z</time>
      </trkpt>
      <trkpt lat="42.76089" lon="1.5323">
        <ele>1556.2</ele>
        <time>2024-07-08T15:54:33Z</time>
      </trkpt>
      <trkpt lat="42.76093" lon="1.53233">
        <ele>1556.4</ele>
        <time>2024-07-08T15:54:37Z</time>
      </trkpt>
      <trkpt lat="42.76094" lon="1.53237">
        <ele>1556.6</ele>
        <time>2024-07-08T15:54:39Z</time>
      </trkpt>
      <trkpt lat="42.76103" lon="1.53245">
        <ele>1556.8</ele>
        <time>2024-07-08T15:54:45Z</time>
      </trkpt>
      <trkpt lat="42.76109" lon="1.53254">
        <ele>1557.2</ele>
        <time>2024-07-08T15:54:53Z</time>
      </trkpt>
      <trkpt lat="42.76112" lon="1.53255">
        <ele>1557.2</ele>
        <time>2024-07-08T15:54:54Z</time>
      </trkpt>
      <trkpt lat="42.76116" lon="1.53257">
        <ele>1558</ele>
        <time>2024-07-08T15:54:58Z</time>
      </trkpt>
      <trkpt lat="42.76116" lon="1.53258">
        <ele>1558</ele>
        <time>2024-07-08T15:54:59Z</time>
      </trkpt>
      <trkpt lat="42.76117" lon="1.5326">
        <ele>1558.2</ele>
        <time>2024-07-08T15:55:00Z</time>
      </trkpt>
      <trkpt lat="42.76121" lon="1.53265">
        <ele>1559.4</ele>
        <time>2024-07-08T15:55:04Z</time>
      </trkpt>
      <trkpt lat="42.76124" lon="1.53269">
        <ele>1561.2</ele>
        <time>2024-07-08T15:55:09Z</time>
      </trkpt>
      <trkpt lat="42.76126" lon="1.53271">
        <ele>1562.2</ele>
        <time>2024-07-08T15:55:11Z</time>
      </trkpt>
      <trkpt lat="42.76132" lon="1.53277">
        <ele>1563.4</ele>
        <time>2024-07-08T15:55:16Z</time>
      </trkpt>
      <trkpt lat="42.76143" lon="1.53286">
        <ele>1561.4</ele>
        <time>2024-07-08T15:55:27Z</time>
      </trkpt>
      <trkpt lat="42.76147" lon="1.53287">
        <ele>1561</ele>
        <time>2024-07-08T15:55:30Z</time>
      </trkpt>
      <trkpt lat="42.76148" lon="1.53288">
        <ele>1560.8</ele>
        <time>2024-07-08T15:55:32Z</time>
      </trkpt>
      <trkpt lat="42.76155" lon="1.53289">
        <ele>1561.8</ele>
        <time>2024-07-08T15:55:38Z</time>
      </trkpt>
      <trkpt lat="42.76158" lon="1.53289">
        <ele>1562.2</ele>
        <time>2024-07-08T15:55:40Z</time>
      </trkpt>
      <trkpt lat="42.76159" lon="1.5329">
        <ele>1562.2</ele>
        <time>2024-07-08T15:55:41Z</time>
      </trkpt>
      <trkpt lat="42.76166" lon="1.5329">
        <ele>1561.4</ele>
        <time>2024-07-08T15:55:48Z</time>
      </trkpt>
      <trkpt lat="42.76177" lon="1.53299">
        <ele>1559.4</ele>
        <time>2024-07-08T15:55:55Z</time>
      </trkpt>
      <trkpt lat="42.76186" lon="1.53307">
        <ele>1560</ele>
        <time>2024-07-08T15:56:03Z</time>
      </trkpt>
      <trkpt lat="42.76192" lon="1.53317">
        <ele>1560.4</ele>
        <time>2024-07-08T15:56:09Z</time>
      </trkpt>
      <trkpt lat="42.76202" lon="1.53324">
        <ele>1560.8</ele>
        <time>2024-07-08T15:56:17Z</time>
      </trkpt>
      <trkpt lat="42.76202" lon="1.53323">
        <ele>1561</ele>
        <time>2024-07-08T15:56:18Z</time>
      </trkpt>
      <trkpt lat="42.76207" lon="1.53316">
        <ele>1564.4</ele>
        <time>2024-07-08T15:56:23Z</time>
      </trkpt>
      <trkpt lat="42.76214" lon="1.53303">
        <ele>1566</ele>
        <time>2024-07-08T15:56:32Z</time>
      </trkpt>
      <trkpt lat="42.76217" lon="1.53298">
        <ele>1565.2</ele>
        <time>2024-07-08T15:56:36Z</time>
      </trkpt>
      <trkpt lat="42.76219" lon="1.53297">
        <ele>1564.8</ele>
        <time>2024-07-08T15:56:38Z</time>
      </trkpt>
      <trkpt lat="42.76222" lon="1.53297">
        <ele>1564.4</ele>
        <time>2024-07-08T15:56:40Z</time>
      </trkpt>
      <trkpt lat="42.76228" lon="1.53294">
        <ele>1563.4</ele>
        <time>2024-07-08T15:56:43Z</time>
      </trkpt>
      <trkpt lat="42.76238" lon="1.53291">
        <ele>1562.2</ele>
        <time>2024-07-08T15:56:49Z</time>
      </trkpt>
      <trkpt lat="42.76247" lon="1.53287">
        <ele>1563.8</ele>
        <time>2024-07-08T15:56:57Z</time>
      </trkpt>
      <trkpt lat="42.76251" lon="1.53287">
        <ele>1563.8</ele>
        <time>2024-07-08T15:57:02Z</time>
      </trkpt>
      <trkpt lat="42.76252" lon="1.53287">
        <ele>1563.8</ele>
        <time>2024-07-08T15:57:03Z</time>
      </trkpt>
      <trkpt lat="42.76256" lon="1.53287">
        <ele>1563.8</ele>
        <time>2024-07-08T15:57:06Z</time>
      </trkpt>
      <trkpt lat="42.7626" lon="1.53285">
        <ele>1564</ele>
        <time>2024-07-08T15:57:09Z</time>
      </trkpt>
      <trkpt lat="42.7627" lon="1.53286">
        <ele>1562.8</ele>
        <time>2024-07-08T15:57:16Z</time>
      </trkpt>
      <trkpt lat="42.76276" lon="1.53287">
        <ele>1561.8</ele>
        <time>2024-07-08T15:57:20Z</time>
      </trkpt>
      <trkpt lat="42.7628" lon="1.53288">
        <ele>1561.4</ele>
        <time>2024-07-08T15:57:23Z</time>
      </trkpt>
      <trkpt lat="42.76294" lon="1.53298">
        <ele>1561</ele>
        <time>2024-07-08T15:57:32Z</time>
      </trkpt>
      <trkpt lat="42.76304" lon="1.53308">
        <ele>1561.4</ele>
        <time>2024-07-08T15:57:39Z</time>
      </trkpt>
      <trkpt lat="42.76311" lon="1.53321">
        <ele>1559.6</ele>
        <time>2024-07-08T15:57:46Z</time>
      </trkpt>
      <trkpt lat="42.76312" lon="1.53323">
        <ele>1559</ele>
        <time>2024-07-08T15:57:47Z</time>
      </trkpt>
      <trkpt lat="42.76319" lon="1.5333">
        <ele>1557.4</ele>
        <time>2024-07-08T15:57:54Z</time>
      </trkpt>
      <trkpt lat="42.7633" lon="1.53339">
        <ele>1557.8</ele>
        <time>2024-07-08T15:58:03Z</time>
      </trkpt>
      <trkpt lat="42.76329" lon="1.53343">
        <ele>1558</ele>
        <time>2024-07-08T15:58:08Z</time>
      </trkpt>
      <trkpt lat="42.76328" lon="1.53343">
        <ele>1559.2</ele>
        <time>2024-07-08T15:58:14Z</time>
      </trkpt>
      <trkpt lat="42.76328" lon="1.53343">
        <ele>1559</ele>
        <time>2024-07-08T15:58:20Z</time>
      </trkpt>
      <trkpt lat="42.76328" lon="1.53342">
        <ele>1560.6</ele>
        <time>2024-07-08T15:58:36Z</time>
      </trkpt>
      <trkpt lat="42.76333" lon="1.53347">
        <ele>1566.4</ele>
        <time>2024-07-08T15:59:25Z</time>
      </trkpt>
      <trkpt lat="42.76339" lon="1.5335">
        <ele>1566.4</ele>
        <time>2024-07-08T15:59:28Z</time>
      </trkpt>
      <trkpt lat="42.76342" lon="1.53352">
        <ele>1566.4</ele>
        <time>2024-07-08T15:59:29Z</time>
      </trkpt>
      <trkpt lat="42.76346" lon="1.53353">
        <ele>1565</ele>
        <time>2024-07-08T15:59:31Z</time>
      </trkpt>
      <trkpt lat="42.76349" lon="1.53355">
        <ele>1563.6</ele>
        <time>2024-07-08T15:59:34Z</time>
      </trkpt>
      <trkpt lat="42.76352" lon="1.53359">
        <ele>1561.6</ele>
        <time>2024-07-08T15:59:38Z</time>
      </trkpt>
      <trkpt lat="42.76356" lon="1.53362">
        <ele>1561</ele>
        <time>2024-07-08T15:59:40Z</time>
      </trkpt>
      <trkpt lat="42.76366" lon="1.53371">
        <ele>1557.4</ele>
        <time>2024-07-08T15:59:47Z</time>
      </trkpt>
      <trkpt lat="42.76373" lon="1.5338">
        <ele>1553.2</ele>
        <time>2024-07-08T15:59:53Z</time>
      </trkpt>
      <trkpt lat="42.76383" lon="1.5339">
        <ele>1551.8</ele>
        <time>2024-07-08T15:59:59Z</time>
      </trkpt>
      <trkpt lat="42.76384" lon="1.53393">
        <ele>1550.2</ele>
        <time>2024-07-08T16:00:03Z</time>
      </trkpt>
      <trkpt lat="42.76385" lon="1.53393">
        <ele>1549.6</ele>
        <time>2024-07-08T16:00:04Z</time>
      </trkpt>
      <trkpt lat="42.76386" lon="1.53394">
        <ele>1546</ele>
        <time>2024-07-08T16:00:09Z</time>
      </trkpt>
      <trkpt lat="42.76386" lon="1.53394">
        <ele>1544</ele>
        <time>2024-07-08T16:00:21Z</time>
      </trkpt>
      <trkpt lat="42.76389" lon="1.53401">
        <ele>1544</ele>
        <time>2024-07-08T16:00:27Z</time>
      </trkpt>
      <trkpt lat="42.76392" lon="1.53408">
        <ele>1541.8</ele>
        <time>2024-07-08T16:00:32Z</time>
      </trkpt>
      <trkpt lat="42.76393" lon="1.5341">
        <ele>1541</ele>
        <time>2024-07-08T16:00:33Z</time>
      </trkpt>
      <trkpt lat="42.76394" lon="1.53412">
        <ele>1539.2</ele>
        <time>2024-07-08T16:00:35Z</time>
      </trkpt>
      <trkpt lat="42.76395" lon="1.53416">
        <ele>1537.6</ele>
        <time>2024-07-08T16:00:37Z</time>
      </trkpt>
      <trkpt lat="42.76399" lon="1.53421">
        <ele>1536.2</ele>
        <time>2024-07-08T16:00:41Z</time>
      </trkpt>
      <trkpt lat="42.76401" lon="1.53422">
        <ele>1536.2</ele>
        <time>2024-07-08T16:00:42Z</time>
      </trkpt>
      <trkpt lat="42.76408" lon="1.53433">
        <ele>1537</ele>
        <time>2024-07-08T16:00:50Z</time>
      </trkpt>
      <trkpt lat="42.76413" lon="1.5344">
        <ele>1534.8</ele>
        <time>2024-07-08T16:00:57Z</time>
      </trkpt>
      <trkpt lat="42.76413" lon="1.53441">
        <ele>1534.4</ele>
        <time>2024-07-08T16:00:58Z</time>
      </trkpt>
      <trkpt lat="42.76416" lon="1.5345">
        <ele>1533.4</ele>
        <time>2024-07-08T16:01:04Z</time>
      </trkpt>
      <trkpt lat="42.76425" lon="1.53463">
        <ele>1533.6</ele>
        <time>2024-07-08T16:01:11Z</time>
      </trkpt>
      <trkpt lat="42.76432" lon="1.5348">
        <ele>1534.8</ele>
        <time>2024-07-08T16:01:18Z</time>
      </trkpt>
      <trkpt lat="42.76439" lon="1.53493">
        <ele>1532.2</ele>
        <time>2024-07-08T16:01:26Z</time>
      </trkpt>
      <trkpt lat="42.76441" lon="1.53498">
        <ele>1532</ele>
        <time>2024-07-08T16:01:28Z</time>
      </trkpt>
      <trkpt lat="42.76443" lon="1.53507">
        <ele>1532.8</ele>
        <time>2024-07-08T16:01:32Z</time>
      </trkpt>
      <trkpt lat="42.76448" lon="1.53514">
        <ele>1533.8</ele>
        <time>2024-07-08T16:01:38Z</time>
      </trkpt>
      <trkpt lat="42.76452" lon="1.53525">
        <ele>1530</ele>
        <time>2024-07-08T16:01:44Z</time>
      </trkpt>
      <trkpt lat="42.7646" lon="1.53536">
        <ele>1525.8</ele>
        <time>2024-07-08T16:01:51Z</time>
      </trkpt>
      <trkpt lat="42.76463" lon="1.53543">
        <ele>1522.2</ele>
        <time>2024-07-08T16:01:55Z</time>
      </trkpt>
      <trkpt lat="42.76465" lon="1.53544">
        <ele>1521.8</ele>
        <time>2024-07-08T16:01:56Z</time>
      </trkpt>
      <trkpt lat="42.76467" lon="1.53547">
        <ele>1521</ele>
        <time>2024-07-08T16:01:59Z</time>
      </trkpt>
      <trkpt lat="42.76469" lon="1.53547">
        <ele>1521</ele>
        <time>2024-07-08T16:02:01Z</time>
      </trkpt>
      <trkpt lat="42.76476" lon="1.53554">
        <ele>1519.2</ele>
        <time>2024-07-08T16:02:08Z</time>
      </trkpt>
      <trkpt lat="42.76478" lon="1.53559">
        <ele>1517.4</ele>
        <time>2024-07-08T16:02:11Z</time>
      </trkpt>
      <trkpt lat="42.7648" lon="1.53567">
        <ele>1516.2</ele>
        <time>2024-07-08T16:02:14Z</time>
      </trkpt>
      <trkpt lat="42.7648" lon="1.53568">
        <ele>1515.8</ele>
        <time>2024-07-08T16:02:15Z</time>
      </trkpt>
      <trkpt lat="42.76487" lon="1.53578">
        <ele>1512.6</ele>
        <time>2024-07-08T16:02:22Z</time>
      </trkpt>
      <trkpt lat="42.76492" lon="1.53589">
        <ele>1503.8</ele>
        <time>2024-07-08T16:02:31Z</time>
      </trkpt>
      <trkpt lat="42.76492" lon="1.53589">
        <ele>1503.2</ele>
        <time>2024-07-08T16:02:39Z</time>
      </trkpt>
      <trkpt lat="42.76495" lon="1.53596">
        <ele>1502.4</ele>
        <time>2024-07-08T16:03:27Z</time>
      </trkpt>
      <trkpt lat="42.76504" lon="1.53614">
        <ele>1500.6</ele>
        <time>2024-07-08T16:03:36Z</time>
      </trkpt>
      <trkpt lat="42.76511" lon="1.53622">
        <ele>1498.2</ele>
        <time>2024-07-08T16:03:43Z</time>
      </trkpt>
      <trkpt lat="42.76516" lon="1.53626">
        <ele>1496.4</ele>
        <time>2024-07-08T16:03:46Z</time>
      </trkpt>
      <trkpt lat="42.76518" lon="1.5363">
        <ele>1493.6</ele>
        <time>2024-07-08T16:03:49Z</time>
      </trkpt>
      <trkpt lat="42.76523" lon="1.53635">
        <ele>1491.2</ele>
        <time>2024-07-08T16:03:53Z</time>
      </trkpt>
      <trkpt lat="42.76524" lon="1.53638">
        <ele>1490.6</ele>
        <time>2024-07-08T16:03:55Z</time>
      </trkpt>
      <trkpt lat="42.76533" lon="1.5365">
        <ele>1489.2</ele>
        <time>2024-07-08T16:04:04Z</time>
      </trkpt>
      <trkpt lat="42.7654" lon="1.53663">
        <ele>1486.4</ele>
        <time>2024-07-08T16:04:11Z</time>
      </trkpt>
      <trkpt lat="42.76545" lon="1.53668">
        <ele>1486</ele>
        <time>2024-07-08T16:04:15Z</time>
      </trkpt>
      <trkpt lat="42.76546" lon="1.53672">
        <ele>1486</ele>
        <time>2024-07-08T16:04:17Z</time>
      </trkpt>
      <trkpt lat="42.7655" lon="1.53681">
        <ele>1485.2</ele>
        <time>2024-07-08T16:04:22Z</time>
      </trkpt>
      <trkpt lat="42.76553" lon="1.53682">
        <ele>1484.8</ele>
        <time>2024-07-08T16:04:24Z</time>
      </trkpt>
      <trkpt lat="42.76567" lon="1.53695">
        <ele>1479.6</ele>
        <time>2024-07-08T16:04:32Z</time>
      </trkpt>
      <trkpt lat="42.76574" lon="1.53705">
        <ele>1476.4</ele>
        <time>2024-07-08T16:04:38Z</time>
      </trkpt>
      <trkpt lat="42.76577" lon="1.53709">
        <ele>1476</ele>
        <time>2024-07-08T16:04:40Z</time>
      </trkpt>
      <trkpt lat="42.76578" lon="1.5371">
        <ele>1475.8</ele>
        <time>2024-07-08T16:04:41Z</time>
      </trkpt>
      <trkpt lat="42.76585" lon="1.53719">
        <ele>1475.2</ele>
        <time>2024-07-08T16:04:47Z</time>
      </trkpt>
      <trkpt lat="42.7659" lon="1.53729">
        <ele>1472.8</ele>
        <time>2024-07-08T16:04:53Z</time>
      </trkpt>
      <trkpt lat="42.76597" lon="1.53734">
        <ele>1469.6</ele>
        <time>2024-07-08T16:04:58Z</time>
      </trkpt>
      <trkpt lat="42.76598" lon="1.53738">
        <ele>1468.2</ele>
        <time>2024-07-08T16:05:00Z</time>
      </trkpt>
      <trkpt lat="42.76599" lon="1.53742">
        <ele>1466.6</ele>
        <time>2024-07-08T16:05:03Z</time>
      </trkpt>
      <trkpt lat="42.76599" lon="1.53743">
        <ele>1466</ele>
        <time>2024-07-08T16:05:04Z</time>
      </trkpt>
      <trkpt lat="42.76601" lon="1.53746">
        <ele>1464.8</ele>
        <time>2024-07-08T16:05:06Z</time>
      </trkpt>
      <trkpt lat="42.76605" lon="1.53751">
        <ele>1461.6</ele>
        <time>2024-07-08T16:05:10Z</time>
      </trkpt>
      <trkpt lat="42.76606" lon="1.53753">
        <ele>1459.6</ele>
        <time>2024-07-08T16:05:12Z</time>
      </trkpt>
      <trkpt lat="42.76608" lon="1.53756">
        <ele>1457</ele>
        <time>2024-07-08T16:05:15Z</time>
      </trkpt>
      <trkpt lat="42.76609" lon="1.53757">
        <ele>1456</ele>
        <time>2024-07-08T16:05:16Z</time>
      </trkpt>
      <trkpt lat="42.7661" lon="1.53759">
        <ele>1455.2</ele>
        <time>2024-07-08T16:05:17Z</time>
      </trkpt>
      <trkpt lat="42.7661" lon="1.53767">
        <ele>1451.6</ele>
        <time>2024-07-08T16:05:21Z</time>
      </trkpt>
      <trkpt lat="42.76616" lon="1.53785">
        <ele>1444.2</ele>
        <time>2024-07-08T16:05:30Z</time>
      </trkpt>
      <trkpt lat="42.76619" lon="1.53804">
        <ele>1444.6</ele>
        <time>2024-07-08T16:05:38Z</time>
      </trkpt>
      <trkpt lat="42.76623" lon="1.53815">
        <ele>1448.2</ele>
        <time>2024-07-08T16:05:45Z</time>
      </trkpt>
      <trkpt lat="42.76623" lon="1.53817">
        <ele>1448.4</ele>
        <time>2024-07-08T16:05:46Z</time>
      </trkpt>
      <trkpt lat="42.76623" lon="1.53823">
        <ele>1447.8</ele>
        <time>2024-07-08T16:05:49Z</time>
      </trkpt>
      <trkpt lat="42.76622" lon="1.53823">
        <ele>1447.4</ele>
        <time>2024-07-08T16:05:50Z</time>
      </trkpt>
      <trkpt lat="42.76621" lon="1.53822">
        <ele>1447</ele>
        <time>2024-07-08T16:05:51Z</time>
      </trkpt>
      <trkpt lat="42.76619" lon="1.53819">
        <ele>1445.8</ele>
        <time>2024-07-08T16:05:53Z</time>
      </trkpt>
      <trkpt lat="42.76618" lon="1.53818">
        <ele>1444.8</ele>
        <time>2024-07-08T16:05:54Z</time>
      </trkpt>
      <trkpt lat="42.76615" lon="1.53817">
        <ele>1442</ele>
        <time>2024-07-08T16:05:58Z</time>
      </trkpt>
      <trkpt lat="42.76615" lon="1.53818">
        <ele>1441.4</ele>
        <time>2024-07-08T16:05:59Z</time>
      </trkpt>
      <trkpt lat="42.76617" lon="1.53831">
        <ele>1438.4</ele>
        <time>2024-07-08T16:06:06Z</time>
      </trkpt>
      <trkpt lat="42.76621" lon="1.53842">
        <ele>1436.6</ele>
        <time>2024-07-08T16:06:13Z</time>
      </trkpt>
      <trkpt lat="42.76626" lon="1.53854">
        <ele>1434.2</ele>
        <time>2024-07-08T16:06:19Z</time>
      </trkpt>
      <trkpt lat="42.76631" lon="1.53865">
        <ele>1429.2</ele>
        <time>2024-07-08T16:06:26Z</time>
      </trkpt>
      <trkpt lat="42.76635" lon="1.53873">
        <ele>1426.6</ele>
        <time>2024-07-08T16:06:31Z</time>
      </trkpt>
      <trkpt lat="42.76636" lon="1.53874">
        <ele>1426</ele>
        <time>2024-07-08T16:06:32Z</time>
      </trkpt>
      <trkpt lat="42.76639" lon="1.53879">
        <ele>1423.8</ele>
        <time>2024-07-08T16:06:36Z</time>
      </trkpt>
      <trkpt lat="42.76641" lon="1.53883">
        <ele>1422.8</ele>
        <time>2024-07-08T16:06:38Z</time>
      </trkpt>
      <trkpt lat="42.76643" lon="1.53897">
        <ele>1420</ele>
        <time>2024-07-08T16:06:44Z</time>
      </trkpt>
      <trkpt lat="42.76645" lon="1.539">
        <ele>1419.6</ele>
        <time>2024-07-08T16:06:45Z</time>
      </trkpt>
      <trkpt lat="42.76649" lon="1.53906">
        <ele>1418.4</ele>
        <time>2024-07-08T16:06:49Z</time>
      </trkpt>
      <trkpt lat="42.76653" lon="1.53913">
        <ele>1417.2</ele>
        <time>2024-07-08T16:06:53Z</time>
      </trkpt>
      <trkpt lat="42.76664" lon="1.53927">
        <ele>1414.8</ele>
        <time>2024-07-08T16:07:02Z</time>
      </trkpt>
      <trkpt lat="42.76671" lon="1.53936">
        <ele>1410.6</ele>
        <time>2024-07-08T16:07:09Z</time>
      </trkpt>
      <trkpt lat="42.76674" lon="1.53939">
        <ele>1409</ele>
        <time>2024-07-08T16:07:13Z</time>
      </trkpt>
      <trkpt lat="42.76676" lon="1.53942">
        <ele>1408.6</ele>
        <time>2024-07-08T16:07:15Z</time>
      </trkpt>
      <trkpt lat="42.76686" lon="1.53952">
        <ele>1409.6</ele>
        <time>2024-07-08T16:07:21Z</time>
      </trkpt>
      <trkpt lat="42.76694" lon="1.53952">
        <ele>1409</ele>
        <time>2024-07-08T16:07:28Z</time>
      </trkpt>
      <trkpt lat="42.7671" lon="1.53955">
        <ele>1407.8</ele>
        <time>2024-07-08T16:07:36Z</time>
      </trkpt>
      <trkpt lat="42.76726" lon="1.5395">
        <ele>1402.8</ele>
        <time>2024-07-08T16:07:47Z</time>
      </trkpt>
      <trkpt lat="42.7674" lon="1.53947">
        <ele>1399.8</ele>
        <time>2024-07-08T16:07:55Z</time>
      </trkpt>
      <trkpt lat="42.76756" lon="1.53947">
        <ele>1397.6</ele>
        <time>2024-07-08T16:08:04Z</time>
      </trkpt>
      <trkpt lat="42.76765" lon="1.53949">
        <ele>1394</ele>
        <time>2024-07-08T16:08:10Z</time>
      </trkpt>
      <trkpt lat="42.76767" lon="1.5395">
        <ele>1393.2</ele>
        <time>2024-07-08T16:08:13Z</time>
      </trkpt>
      <trkpt lat="42.76775" lon="1.53956">
        <ele>1393</ele>
        <time>2024-07-08T16:08:19Z</time>
      </trkpt>
      <trkpt lat="42.7679" lon="1.53966">
        <ele>1387.2</ele>
        <time>2024-07-08T16:08:28Z</time>
      </trkpt>
      <trkpt lat="42.76804" lon="1.5397">
        <ele>1382.2</ele>
        <time>2024-07-08T16:08:36Z</time>
      </trkpt>
      <trkpt lat="42.76823" lon="1.53977">
        <ele>1378.6</ele>
        <time>2024-07-08T16:08:46Z</time>
      </trkpt>
      <trkpt lat="42.76837" lon="1.53992">
        <ele>1374.8</ele>
        <time>2024-07-08T16:08:56Z</time>
      </trkpt>
      <trkpt lat="42.76848" lon="1.54">
        <ele>1370.8</ele>
        <time>2024-07-08T16:09:04Z</time>
      </trkpt>
      <trkpt lat="42.76857" lon="1.54002">
        <ele>1370.4</ele>
        <time>2024-07-08T16:09:10Z</time>
      </trkpt>
      <trkpt lat="42.76871" lon="1.54004">
        <ele>1369</ele>
        <time>2024-07-08T16:09:19Z</time>
      </trkpt>
      <trkpt lat="42.76879" lon="1.53998">
        <ele>1367.8</ele>
        <time>2024-07-08T16:09:25Z</time>
      </trkpt>
      <trkpt lat="42.76888" lon="1.53992">
        <ele>1363.8</ele>
        <time>2024-07-08T16:09:32Z</time>
      </trkpt>
      <trkpt lat="42.76889" lon="1.53992">
        <ele>1363.6</ele>
        <time>2024-07-08T16:09:33Z</time>
      </trkpt>
      <trkpt lat="42.76901" lon="1.53991">
        <ele>1361.4</ele>
        <time>2024-07-08T16:09:42Z</time>
      </trkpt>
      <trkpt lat="42.76909" lon="1.53987">
        <ele>1358.6</ele>
        <time>2024-07-08T16:09:48Z</time>
      </trkpt>
      <trkpt lat="42.76913" lon="1.53985">
        <ele>1358</ele>
        <time>2024-07-08T16:09:50Z</time>
      </trkpt>
      <trkpt lat="42.7693" lon="1.53974">
        <ele>1347.8</ele>
        <time>2024-07-08T16:10:00Z</time>
      </trkpt>
      <trkpt lat="42.76931" lon="1.53972">
        <ele>1345.6</ele>
        <time>2024-07-08T16:10:02Z</time>
      </trkpt>
      <trkpt lat="42.76933" lon="1.53972">
        <ele>1343</ele>
        <time>2024-07-08T16:10:06Z</time>
      </trkpt>
      <trkpt lat="42.76941" lon="1.53978">
        <ele>1341.4</ele>
        <time>2024-07-08T16:10:11Z</time>
      </trkpt>
      <trkpt lat="42.76941" lon="1.5398">
        <ele>1341.2</ele>
        <time>2024-07-08T16:10:12Z</time>
      </trkpt>
      <trkpt lat="42.76949" lon="1.53982">
        <ele>1337.6</ele>
        <time>2024-07-08T16:10:22Z</time>
      </trkpt>
      <trkpt lat="42.76958" lon="1.53984">
        <ele>1335</ele>
        <time>2024-07-08T16:10:27Z</time>
      </trkpt>
      <trkpt lat="42.76962" lon="1.53984">
        <ele>1332.4</ele>
        <time>2024-07-08T16:10:33Z</time>
      </trkpt>
      <trkpt lat="42.76967" lon="1.53987">
        <ele>1331.6</ele>
        <time>2024-07-08T16:10:37Z</time>
      </trkpt>
      <trkpt lat="42.76977" lon="1.54003">
        <ele>1329</ele>
        <time>2024-07-08T16:10:45Z</time>
      </trkpt>
      <trkpt lat="42.76987" lon="1.54012">
        <ele>1330.2</ele>
        <time>2024-07-08T16:10:52Z</time>
      </trkpt>
      <trkpt lat="42.76989" lon="1.54011">
        <ele>1330.4</ele>
        <time>2024-07-08T16:10:53Z</time>
      </trkpt>
      <trkpt lat="42.76996" lon="1.54002">
        <ele>1330.2</ele>
        <time>2024-07-08T16:10:58Z</time>
      </trkpt>
      <trkpt lat="42.77011" lon="1.53993">
        <ele>1327.2</ele>
        <time>2024-07-08T16:11:07Z</time>
      </trkpt>
      <trkpt lat="42.77018" lon="1.53986">
        <ele>1325.2</ele>
        <time>2024-07-08T16:11:15Z</time>
      </trkpt>
      <trkpt lat="42.77032" lon="1.53983">
        <ele>1320.8</ele>
        <time>2024-07-08T16:11:23Z</time>
      </trkpt>
      <trkpt lat="42.77045" lon="1.53972">
        <ele>1318.2</ele>
        <time>2024-07-08T16:11:32Z</time>
      </trkpt>
      <trkpt lat="42.77054" lon="1.53975">
        <ele>1319</ele>
        <time>2024-07-08T16:11:40Z</time>
      </trkpt>
      <trkpt lat="42.77061" lon="1.53977">
        <ele>1318</ele>
        <time>2024-07-08T16:11:47Z</time>
      </trkpt>
      <trkpt lat="42.77065" lon="1.53977">
        <ele>1318.8</ele>
        <time>2024-07-08T16:11:51Z</time>
      </trkpt>
      <trkpt lat="42.77069" lon="1.53979">
        <ele>1319.8</ele>
        <time>2024-07-08T16:11:53Z</time>
      </trkpt>
      <trkpt lat="42.77082" lon="1.5398">
        <ele>1322.8</ele>
        <time>2024-07-08T16:12:00Z</time>
      </trkpt>
      <trkpt lat="42.77084" lon="1.53978">
        <ele>1322.8</ele>
        <time>2024-07-08T16:12:01Z</time>
      </trkpt>
      <trkpt lat="42.77093" lon="1.53972">
        <ele>1321</ele>
        <time>2024-07-08T16:12:08Z</time>
      </trkpt>
      <trkpt lat="42.77106" lon="1.53964">
        <ele>1318</ele>
        <time>2024-07-08T16:12:16Z</time>
      </trkpt>
      <trkpt lat="42.77107" lon="1.53963">
        <ele>1317.2</ele>
        <time>2024-07-08T16:12:20Z</time>
      </trkpt>
      <trkpt lat="42.77108" lon="1.53962">
        <ele>1317</ele>
        <time>2024-07-08T16:12:21Z</time>
      </trkpt>
      <trkpt lat="42.77112" lon="1.53959">
        <ele>1317</ele>
        <time>2024-07-08T16:12:24Z</time>
      </trkpt>
      <trkpt lat="42.77117" lon="1.53958">
        <ele>1317</ele>
        <time>2024-07-08T16:12:27Z</time>
      </trkpt>
      <trkpt lat="42.7712" lon="1.53957">
        <ele>1316.8</ele>
        <time>2024-07-08T16:12:29Z</time>
      </trkpt>
      <trkpt lat="42.77126" lon="1.53955">
        <ele>1316.2</ele>
        <time>2024-07-08T16:12:34Z</time>
      </trkpt>
      <trkpt lat="42.7714" lon="1.53953">
        <ele>1315.6</ele>
        <time>2024-07-08T16:12:43Z</time>
      </trkpt>
      <trkpt lat="42.77152" lon="1.53947">
        <ele>1317.4</ele>
        <time>2024-07-08T16:12:52Z</time>
      </trkpt>
      <trkpt lat="42.77157" lon="1.53949">
        <ele>1318.4</ele>
        <time>2024-07-08T16:12:55Z</time>
      </trkpt>
      <trkpt lat="42.7716" lon="1.53952">
        <ele>1318.8</ele>
        <time>2024-07-08T16:12:58Z</time>
      </trkpt>
      <trkpt lat="42.77167" lon="1.53969">
        <ele>1319.6</ele>
        <time>2024-07-08T16:13:08Z</time>
      </trkpt>
      <trkpt lat="42.77174" lon="1.53985">
        <ele>1317.6</ele>
        <time>2024-07-08T16:13:16Z</time>
      </trkpt>
      <trkpt lat="42.7718" lon="1.53999">
        <ele>1312.4</ele>
        <time>2024-07-08T16:13:24Z</time>
      </trkpt>
      <trkpt lat="42.77178" lon="1.54018">
        <ele>1307.8</ele>
        <time>2024-07-08T16:13:35Z</time>
      </trkpt>
      <trkpt lat="42.77183" lon="1.54037">
        <ele>1306</ele>
        <time>2024-07-08T16:13:44Z</time>
      </trkpt>
      <trkpt lat="42.77184" lon="1.54051">
        <ele>1305.6</ele>
        <time>2024-07-08T16:13:50Z</time>
      </trkpt>
      <trkpt lat="42.77185" lon="1.54057">
        <ele>1305.6</ele>
        <time>2024-07-08T16:13:53Z</time>
      </trkpt>
      <trkpt lat="42.77191" lon="1.54064">
        <ele>1306</ele>
        <time>2024-07-08T16:13:57Z</time>
      </trkpt>
      <trkpt lat="42.77197" lon="1.54075">
        <ele>1306</ele>
        <time>2024-07-08T16:14:05Z</time>
      </trkpt>
      <trkpt lat="42.77211" lon="1.54087">
        <ele>1303</ele>
        <time>2024-07-08T16:14:17Z</time>
      </trkpt>
      <trkpt lat="42.77215" lon="1.5409">
        <ele>1302</ele>
        <time>2024-07-08T16:14:20Z</time>
      </trkpt>
      <trkpt lat="42.7722" lon="1.54094">
        <ele>1301</ele>
        <time>2024-07-08T16:14:24Z</time>
      </trkpt>
      <trkpt lat="42.77229" lon="1.54098">
        <ele>1297.8</ele>
        <time>2024-07-08T16:14:31Z</time>
      </trkpt>
      <trkpt lat="42.77238" lon="1.54102">
        <ele>1293.6</ele>
        <time>2024-07-08T16:14:38Z</time>
      </trkpt>
      <trkpt lat="42.7725" lon="1.54107">
        <ele>1294</ele>
        <time>2024-07-08T16:14:47Z</time>
      </trkpt>
      <trkpt lat="42.77251" lon="1.54109">
        <ele>1294.2</ele>
        <time>2024-07-08T16:14:48Z</time>
      </trkpt>
      <trkpt lat="42.77258" lon="1.54111">
        <ele>1294.8</ele>
        <time>2024-07-08T16:14:52Z</time>
      </trkpt>
      <trkpt lat="42.77273" lon="1.5412">
        <ele>1294</ele>
        <time>2024-07-08T16:15:01Z</time>
      </trkpt>
      <trkpt lat="42.77289" lon="1.54132">
        <ele>1293.2</ele>
        <time>2024-07-08T16:15:12Z</time>
      </trkpt>
      <trkpt lat="42.77298" lon="1.54145">
        <ele>1291.6</ele>
        <time>2024-07-08T16:15:20Z</time>
      </trkpt>
      <trkpt lat="42.77297" lon="1.54147">
        <ele>1291.2</ele>
        <time>2024-07-08T16:15:21Z</time>
      </trkpt>
      <trkpt lat="42.77292" lon="1.54162">
        <ele>1288</ele>
        <time>2024-07-08T16:15:29Z</time>
      </trkpt>
      <trkpt lat="42.77291" lon="1.54164">
        <ele>1287.4</ele>
        <time>2024-07-08T16:15:30Z</time>
      </trkpt>
      <trkpt lat="42.77282" lon="1.54176">
        <ele>1283.2</ele>
        <time>2024-07-08T16:15:38Z</time>
      </trkpt>
      <trkpt lat="42.77269" lon="1.54177">
        <ele>1281.2</ele>
        <time>2024-07-08T16:15:45Z</time>
      </trkpt>
      <trkpt lat="42.77258" lon="1.54184">
        <ele>1281</ele>
        <time>2024-07-08T16:15:53Z</time>
      </trkpt>
      <trkpt lat="42.77257" lon="1.54184">
        <ele>1281</ele>
        <time>2024-07-08T16:15:54Z</time>
      </trkpt>
      <trkpt lat="42.77252" lon="1.54184">
        <ele>1280.6</ele>
        <time>2024-07-08T16:15:59Z</time>
      </trkpt>
      <trkpt lat="42.77243" lon="1.54181">
        <ele>1277.8</ele>
        <time>2024-07-08T16:16:06Z</time>
      </trkpt>
      <trkpt lat="42.77239" lon="1.54178">
        <ele>1276</ele>
        <time>2024-07-08T16:16:09Z</time>
      </trkpt>
      <trkpt lat="42.77231" lon="1.54177">
        <ele>1273.6</ele>
        <time>2024-07-08T16:16:13Z</time>
      </trkpt>
      <trkpt lat="42.77218" lon="1.54175">
        <ele>1269.6</ele>
        <time>2024-07-08T16:16:21Z</time>
      </trkpt>
      <trkpt lat="42.77201" lon="1.54175">
        <ele>1265.6</ele>
        <time>2024-07-08T16:16:31Z</time>
      </trkpt>
      <trkpt lat="42.77189" lon="1.54174">
        <ele>1267.4</ele>
        <time>2024-07-08T16:16:39Z</time>
      </trkpt>
      <trkpt lat="42.77179" lon="1.54176">
        <ele>1267.8</ele>
        <time>2024-07-08T16:16:46Z</time>
      </trkpt>
      <trkpt lat="42.77172" lon="1.54175">
        <ele>1266.8</ele>
        <time>2024-07-08T16:16:52Z</time>
      </trkpt>
      <trkpt lat="42.77171" lon="1.54174">
        <ele>1264</ele>
        <time>2024-07-08T16:16:57Z</time>
      </trkpt>
      <trkpt lat="42.77171" lon="1.54174">
        <ele>1262.2</ele>
        <time>2024-07-08T16:17:04Z</time>
      </trkpt>
      <trkpt lat="42.77171" lon="1.54173">
        <ele>1260.6</ele>
        <time>2024-07-08T16:17:15Z</time>
      </trkpt>
      <trkpt lat="42.77173" lon="1.5418">
        <ele>1268.6</ele>
        <time>2024-07-08T16:19:20Z</time>
      </trkpt>
      <trkpt lat="42.77173" lon="1.54179">
        <ele>1268</ele>
        <time>2024-07-08T16:19:29Z</time>
      </trkpt>
      <trkpt lat="42.77166" lon="1.54181">
        <ele>1266.2</ele>
        <time>2024-07-08T16:20:49Z</time>
      </trkpt>
      <trkpt lat="42.77155" lon="1.54187">
        <ele>1264</ele>
        <time>2024-07-08T16:20:55Z</time>
      </trkpt>
      <trkpt lat="42.77139" lon="1.54192">
        <ele>1259.2</ele>
        <time>2024-07-08T16:21:03Z</time>
      </trkpt>
      <trkpt lat="42.77135" lon="1.54194">
        <ele>1258.2</ele>
        <time>2024-07-08T16:21:07Z</time>
      </trkpt>
      <trkpt lat="42.7713" lon="1.54197">
        <ele>1256.8</ele>
        <time>2024-07-08T16:21:10Z</time>
      </trkpt>
      <trkpt lat="42.77119" lon="1.54193">
        <ele>1254.4</ele>
        <time>2024-07-08T16:21:16Z</time>
      </trkpt>
      <trkpt lat="42.77105" lon="1.5419">
        <ele>1249</ele>
        <time>2024-07-08T16:21:25Z</time>
      </trkpt>
      <trkpt lat="42.77092" lon="1.54188">
        <ele>1245.4</ele>
        <time>2024-07-08T16:21:33Z</time>
      </trkpt>
      <trkpt lat="42.77087" lon="1.54189">
        <ele>1244.6</ele>
        <time>2024-07-08T16:21:35Z</time>
      </trkpt>
      <trkpt lat="42.77083" lon="1.54196">
        <ele>1242.2</ele>
        <time>2024-07-08T16:21:40Z</time>
      </trkpt>
      <trkpt lat="42.7708" lon="1.54201">
        <ele>1241</ele>
        <time>2024-07-08T16:21:44Z</time>
      </trkpt>
      <trkpt lat="42.77078" lon="1.54203">
        <ele>1240.8</ele>
        <time>2024-07-08T16:21:46Z</time>
      </trkpt>
      <trkpt lat="42.77075" lon="1.54204">
        <ele>1240.6</ele>
        <time>2024-07-08T16:21:47Z</time>
      </trkpt>
      <trkpt lat="42.77059" lon="1.54218">
        <ele>1239.2</ele>
        <time>2024-07-08T16:21:54Z</time>
      </trkpt>
      <trkpt lat="42.77042" lon="1.5423">
        <ele>1235.6</ele>
        <time>2024-07-08T16:22:03Z</time>
      </trkpt>
      <trkpt lat="42.77028" lon="1.54237">
        <ele>1234.6</ele>
        <time>2024-07-08T16:22:11Z</time>
      </trkpt>
      <trkpt lat="42.77016" lon="1.54252">
        <ele>1231.6</ele>
        <time>2024-07-08T16:22:19Z</time>
      </trkpt>
      <trkpt lat="42.77014" lon="1.54258">
        <ele>1229.2</ele>
        <time>2024-07-08T16:22:24Z</time>
      </trkpt>
      <trkpt lat="42.77014" lon="1.54261">
        <ele>1228.6</ele>
        <time>2024-07-08T16:22:25Z</time>
      </trkpt>
      <trkpt lat="42.77007" lon="1.54276">
        <ele>1222.4</ele>
        <time>2024-07-08T16:22:33Z</time>
      </trkpt>
      <trkpt lat="42.76998" lon="1.54293">
        <ele>1217.8</ele>
        <time>2024-07-08T16:22:40Z</time>
      </trkpt>
      <trkpt lat="42.76998" lon="1.54294">
        <ele>1217.4</ele>
        <time>2024-07-08T16:22:41Z</time>
      </trkpt>
      <trkpt lat="42.76998" lon="1.54296">
        <ele>1217</ele>
        <time>2024-07-08T16:22:43Z</time>
      </trkpt>
      <trkpt lat="42.76995" lon="1.54299">
        <ele>1214.8</ele>
        <time>2024-07-08T16:22:48Z</time>
      </trkpt>
      <trkpt lat="42.77001" lon="1.54307">
        <ele>1213</ele>
        <time>2024-07-08T16:22:55Z</time>
      </trkpt>
      <trkpt lat="42.77007" lon="1.54319">
        <ele>1210.4</ele>
        <time>2024-07-08T16:23:03Z</time>
      </trkpt>
      <trkpt lat="42.77017" lon="1.54323">
        <ele>1208.8</ele>
        <time>2024-07-08T16:23:10Z</time>
      </trkpt>
      <trkpt lat="42.77018" lon="1.54324">
        <ele>1208.6</ele>
        <time>2024-07-08T16:23:11Z</time>
      </trkpt>
      <trkpt lat="42.7702" lon="1.54327">
        <ele>1208.6</ele>
        <time>2024-07-08T16:23:13Z</time>
      </trkpt>
      <trkpt lat="42.77025" lon="1.54329">
        <ele>1208.6</ele>
        <time>2024-07-08T16:23:17Z</time>
      </trkpt>
      <trkpt lat="42.77027" lon="1.54328">
        <ele>1208.6</ele>
        <time>2024-07-08T16:23:18Z</time>
      </trkpt>
      <trkpt lat="42.77035" lon="1.54328">
        <ele>1207.8</ele>
        <time>2024-07-08T16:23:24Z</time>
      </trkpt>
      <trkpt lat="42.77047" lon="1.54332">
        <ele>1205</ele>
        <time>2024-07-08T16:23:33Z</time>
      </trkpt>
      <trkpt lat="42.77058" lon="1.54328">
        <ele>1203.4</ele>
        <time>2024-07-08T16:23:38Z</time>
      </trkpt>
      <trkpt lat="42.77069" lon="1.54331">
        <ele>1199.8</ele>
        <time>2024-07-08T16:23:46Z</time>
      </trkpt>
      <trkpt lat="42.77076" lon="1.54342">
        <ele>1199.4</ele>
        <time>2024-07-08T16:23:52Z</time>
      </trkpt>
      <trkpt lat="42.77083" lon="1.54362">
        <ele>1196.4</ele>
        <time>2024-07-08T16:23:59Z</time>
      </trkpt>
      <trkpt lat="42.77091" lon="1.54382">
        <ele>1190.8</ele>
        <time>2024-07-08T16:24:08Z</time>
      </trkpt>
      <trkpt lat="42.77095" lon="1.54393">
        <ele>1188.4</ele>
        <time>2024-07-08T16:24:15Z</time>
      </trkpt>
      <trkpt lat="42.77101" lon="1.54408">
        <ele>1184.2</ele>
        <time>2024-07-08T16:24:22Z</time>
      </trkpt>
      <trkpt lat="42.77106" lon="1.54427">
        <ele>1183</ele>
        <time>2024-07-08T16:24:31Z</time>
      </trkpt>
      <trkpt lat="42.77101" lon="1.54439">
        <ele>1180.4</ele>
        <time>2024-07-08T16:24:37Z</time>
      </trkpt>
      <trkpt lat="42.77098" lon="1.54448">
        <ele>1176.2</ele>
        <time>2024-07-08T16:24:42Z</time>
      </trkpt>
      <trkpt lat="42.77096" lon="1.54452">
        <ele>1174.4</ele>
        <time>2024-07-08T16:24:44Z</time>
      </trkpt>
      <trkpt lat="42.77086" lon="1.54472">
        <ele>1165.4</ele>
        <time>2024-07-08T16:24:55Z</time>
      </trkpt>
      <trkpt lat="42.77086" lon="1.54489">
        <ele>1161.6</ele>
        <time>2024-07-08T16:25:02Z</time>
      </trkpt>
      <trkpt lat="42.77085" lon="1.54502">
        <ele>1160</ele>
        <time>2024-07-08T16:25:07Z</time>
      </trkpt>
      <trkpt lat="42.77083" lon="1.54503">
        <ele>1160</ele>
        <time>2024-07-08T16:25:08Z</time>
      </trkpt>
      <trkpt lat="42.77082" lon="1.54503">
        <ele>1159.8</ele>
        <time>2024-07-08T16:25:09Z</time>
      </trkpt>
      <trkpt lat="42.77078" lon="1.54499">
        <ele>1159.6</ele>
        <time>2024-07-08T16:25:12Z</time>
      </trkpt>
      <trkpt lat="42.7707" lon="1.54493">
        <ele>1159</ele>
        <time>2024-07-08T16:25:17Z</time>
      </trkpt>
      <trkpt lat="42.7706" lon="1.54488">
        <ele>1157.2</ele>
        <time>2024-07-08T16:25:23Z</time>
      </trkpt>
      <trkpt lat="42.7705" lon="1.54484">
        <ele>1156.4</ele>
        <time>2024-07-08T16:25:30Z</time>
      </trkpt>
      <trkpt lat="42.77038" lon="1.54486">
        <ele>1154</ele>
        <time>2024-07-08T16:25:39Z</time>
      </trkpt>
      <trkpt lat="42.77038" lon="1.54488">
        <ele>1153</ele>
        <time>2024-07-08T16:25:41Z</time>
      </trkpt>
      <trkpt lat="42.77039" lon="1.54493">
        <ele>1151</ele>
        <time>2024-07-08T16:25:44Z</time>
      </trkpt>
      <trkpt lat="42.7704" lon="1.54499">
        <ele>1149.6</ele>
        <time>2024-07-08T16:25:48Z</time>
      </trkpt>
      <trkpt lat="42.77039" lon="1.54502">
        <ele>1149.2</ele>
        <time>2024-07-08T16:25:50Z</time>
      </trkpt>
      <trkpt lat="42.77038" lon="1.54502">
        <ele>1149</ele>
        <time>2024-07-08T16:25:51Z</time>
      </trkpt>
      <trkpt lat="42.77026" lon="1.54496">
        <ele>1147.8</ele>
        <time>2024-07-08T16:25:59Z</time>
      </trkpt>
      <trkpt lat="42.77018" lon="1.54486">
        <ele>1146.8</ele>
        <time>2024-07-08T16:26:07Z</time>
      </trkpt>
      <trkpt lat="42.77007" lon="1.54481">
        <ele>1145.2</ele>
        <time>2024-07-08T16:26:15Z</time>
      </trkpt>
      <trkpt lat="42.76997" lon="1.54478">
        <ele>1142.4</ele>
        <time>2024-07-08T16:26:25Z</time>
      </trkpt>
      <trkpt lat="42.76997" lon="1.54476">
        <ele>1140.8</ele>
        <time>2024-07-08T16:26:30Z</time>
      </trkpt>
      <trkpt lat="42.76997" lon="1.54475">
        <ele>1138.6</ele>
        <time>2024-07-08T16:26:36Z</time>
      </trkpt>
      <trkpt lat="42.76998" lon="1.54476">
        <ele>1138</ele>
        <time>2024-07-08T16:26:42Z</time>
      </trkpt>
      <trkpt lat="42.76998" lon="1.54477">
        <ele>1139</ele>
        <time>2024-07-08T16:26:48Z</time>
      </trkpt>
      <trkpt lat="42.76998" lon="1.54477">
        <ele>1139.4</ele>
        <time>2024-07-08T16:26:50Z</time>
      </trkpt>
      <trkpt lat="42.76993" lon="1.54485">
        <ele>1139.8</ele>
        <time>2024-07-08T16:26:54Z</time>
      </trkpt>
      <trkpt lat="42.7698" lon="1.54495">
        <ele>1139.6</ele>
        <time>2024-07-08T16:27:03Z</time>
      </trkpt>
      <trkpt lat="42.76965" lon="1.54504">
        <ele>1138</ele>
        <time>2024-07-08T16:27:14Z</time>
      </trkpt>
      <trkpt lat="42.76961" lon="1.54513">
        <ele>1137.6</ele>
        <time>2024-07-08T16:27:21Z</time>
      </trkpt>
      <trkpt lat="42.76954" lon="1.5453">
        <ele>1135.2</ele>
        <time>2024-07-08T16:27:31Z</time>
      </trkpt>
      <trkpt lat="42.76943" lon="1.54543">
        <ele>1131.2</ele>
        <time>2024-07-08T16:27:41Z</time>
      </trkpt>
      <trkpt lat="42.76943" lon="1.54555">
        <ele>1133</ele>
        <time>2024-07-08T16:27:48Z</time>
      </trkpt>
      <trkpt lat="42.76946" lon="1.54557">
        <ele>1133.6</ele>
        <time>2024-07-08T16:27:51Z</time>
      </trkpt>
      <trkpt lat="42.76948" lon="1.54556">
        <ele>1134</ele>
        <time>2024-07-08T16:27:53Z</time>
      </trkpt>
      <trkpt lat="42.7696" lon="1.54558">
        <ele>1134</ele>
        <time>2024-07-08T16:28:02Z</time>
      </trkpt>
      <trkpt lat="42.76962" lon="1.54561">
        <ele>1133</ele>
        <time>2024-07-08T16:28:08Z</time>
      </trkpt>
      <trkpt lat="42.76962" lon="1.54561">
        <ele>1132</ele>
        <time>2024-07-08T16:28:19Z</time>
      </trkpt>
      <trkpt lat="42.7696" lon="1.54567">
        <ele>1132</ele>
        <time>2024-07-08T16:28:25Z</time>
      </trkpt>
      <trkpt lat="42.76956" lon="1.54577">
        <ele>1129.4</ele>
        <time>2024-07-08T16:28:32Z</time>
      </trkpt>
      <trkpt lat="42.76954" lon="1.54592">
        <ele>1124.2</ele>
        <time>2024-07-08T16:28:41Z</time>
      </trkpt>
      <trkpt lat="42.76956" lon="1.546">
        <ele>1121</ele>
        <time>2024-07-08T16:28:48Z</time>
      </trkpt>
      <trkpt lat="42.76957" lon="1.54602">
        <ele>1119.8</ele>
        <time>2024-07-08T16:28:50Z</time>
      </trkpt>
      <trkpt lat="42.7696" lon="1.54606">
        <ele>1117</ele>
        <time>2024-07-08T16:28:54Z</time>
      </trkpt>
      <trkpt lat="42.76965" lon="1.54613">
        <ele>1114.8</ele>
        <time>2024-07-08T16:29:00Z</time>
      </trkpt>
      <trkpt lat="42.76969" lon="1.54616">
        <ele>1114</ele>
        <time>2024-07-08T16:29:03Z</time>
      </trkpt>
      <trkpt lat="42.76975" lon="1.54625">
        <ele>1112.6</ele>
        <time>2024-07-08T16:29:11Z</time>
      </trkpt>
      <trkpt lat="42.76975" lon="1.54628">
        <ele>1112.6</ele>
        <time>2024-07-08T16:29:13Z</time>
      </trkpt>
      <trkpt lat="42.76974" lon="1.5463">
        <ele>1112.2</ele>
        <time>2024-07-08T16:29:15Z</time>
      </trkpt>
      <trkpt lat="42.76971" lon="1.54633">
        <ele>1111.2</ele>
        <time>2024-07-08T16:29:19Z</time>
      </trkpt>
      <trkpt lat="42.7697" lon="1.54633">
        <ele>1110.6</ele>
        <time>2024-07-08T16:29:20Z</time>
      </trkpt>
      <trkpt lat="42.76968" lon="1.54635">
        <ele>1109.4</ele>
        <time>2024-07-08T16:29:22Z</time>
      </trkpt>
      <trkpt lat="42.7696" lon="1.54644">
        <ele>1107.8</ele>
        <time>2024-07-08T16:29:26Z</time>
      </trkpt>
      <trkpt lat="42.76956" lon="1.54648">
        <ele>1108</ele>
        <time>2024-07-08T16:29:30Z</time>
      </trkpt>
      <trkpt lat="42.76956" lon="1.54648">
        <ele>1108.4</ele>
        <time>2024-07-08T16:29:32Z</time>
      </trkpt>
      <trkpt lat="42.76955" lon="1.5465">
        <ele>1108</ele>
        <time>2024-07-08T16:29:38Z</time>
      </trkpt>
      <trkpt lat="42.76954" lon="1.54661">
        <ele>1106.8</ele>
        <time>2024-07-08T16:29:45Z</time>
      </trkpt>
      <trkpt lat="42.76953" lon="1.54666">
        <ele>1104.8</ele>
        <time>2024-07-08T16:29:49Z</time>
      </trkpt>
      <trkpt lat="42.76949" lon="1.54668">
        <ele>1103.4</ele>
        <time>2024-07-08T16:29:52Z</time>
      </trkpt>
      <trkpt lat="42.76947" lon="1.54668">
        <ele>1102.6</ele>
        <time>2024-07-08T16:29:54Z</time>
      </trkpt>
      <trkpt lat="42.7694" lon="1.54668">
        <ele>1101.6</ele>
        <time>2024-07-08T16:29:59Z</time>
      </trkpt>
      <trkpt lat="42.76929" lon="1.54663">
        <ele>1102.8</ele>
        <time>2024-07-08T16:30:06Z</time>
      </trkpt>
      <trkpt lat="42.76927" lon="1.54663">
        <ele>1103</ele>
        <time>2024-07-08T16:30:07Z</time>
      </trkpt>
      <trkpt lat="42.76917" lon="1.5466">
        <ele>1101.8</ele>
        <time>2024-07-08T16:30:14Z</time>
      </trkpt>
      <trkpt lat="42.76902" lon="1.54663">
        <ele>1099.2</ele>
        <time>2024-07-08T16:30:23Z</time>
      </trkpt>
      <trkpt lat="42.7689" lon="1.54665">
        <ele>1096.6</ele>
        <time>2024-07-08T16:30:31Z</time>
      </trkpt>
      <trkpt lat="42.76875" lon="1.54672">
        <ele>1095.6</ele>
        <time>2024-07-08T16:30:40Z</time>
      </trkpt>
      <trkpt lat="42.76861" lon="1.54677">
        <ele>1094.8</ele>
        <time>2024-07-08T16:30:47Z</time>
      </trkpt>
      <trkpt lat="42.76845" lon="1.54682">
        <ele>1094</ele>
        <time>2024-07-08T16:30:55Z</time>
      </trkpt>
      <trkpt lat="42.76831" lon="1.54684">
        <ele>1091.4</ele>
        <time>2024-07-08T16:31:03Z</time>
      </trkpt>
      <trkpt lat="42.76818" lon="1.54687">
        <ele>1089</ele>
        <time>2024-07-08T16:31:11Z</time>
      </trkpt>
      <trkpt lat="42.76807" lon="1.54689">
        <ele>1083.4</ele>
        <time>2024-07-08T16:31:18Z</time>
      </trkpt>
      <trkpt lat="42.76797" lon="1.54697">
        <ele>1080.4</ele>
        <time>2024-07-08T16:31:25Z</time>
      </trkpt>
      <trkpt lat="42.76785" lon="1.54702">
        <ele>1080.2</ele>
        <time>2024-07-08T16:31:31Z</time>
      </trkpt>
      <trkpt lat="42.76771" lon="1.54708">
        <ele>1076.2</ele>
        <time>2024-07-08T16:31:39Z</time>
      </trkpt>
      <trkpt lat="42.76758" lon="1.54713">
        <ele>1074.6</ele>
        <time>2024-07-08T16:31:46Z</time>
      </trkpt>
      <trkpt lat="42.76748" lon="1.54714">
        <ele>1074.2</ele>
        <time>2024-07-08T16:31:53Z</time>
      </trkpt>
      <trkpt lat="42.76732" lon="1.54724">
        <ele>1068.8</ele>
        <time>2024-07-08T16:32:04Z</time>
      </trkpt>
      <trkpt lat="42.76716" lon="1.54731">
        <ele>1066.2</ele>
        <time>2024-07-08T16:32:14Z</time>
      </trkpt>
      <trkpt lat="42.767" lon="1.54731">
        <ele>1063.8</ele>
        <time>2024-07-08T16:32:23Z</time>
      </trkpt>
      <trkpt lat="42.76691" lon="1.54733">
        <ele>1059.8</ele>
        <time>2024-07-08T16:32:30Z</time>
      </trkpt>
      <trkpt lat="42.76683" lon="1.54735">
        <ele>1058.8</ele>
        <time>2024-07-08T16:32:36Z</time>
      </trkpt>
      <trkpt lat="42.76671" lon="1.54738">
        <ele>1057.8</ele>
        <time>2024-07-08T16:32:44Z</time>
      </trkpt>
      <trkpt lat="42.76663" lon="1.54746">
        <ele>1058</ele>
        <time>2024-07-08T16:32:50Z</time>
      </trkpt>
      <trkpt lat="42.76643" lon="1.54753">
        <ele>1058.6</ele>
        <time>2024-07-08T16:33:00Z</time>
      </trkpt>
      <trkpt lat="42.7663" lon="1.54759">
        <ele>1058.8</ele>
        <time>2024-07-08T16:33:09Z</time>
      </trkpt>
      <trkpt lat="42.76617" lon="1.54763">
        <ele>1058.8</ele>
        <time>2024-07-08T16:33:20Z</time>
      </trkpt>
      <trkpt lat="42.76606" lon="1.54767">
        <ele>1055</ele>
        <time>2024-07-08T16:33:30Z</time>
      </trkpt>
      <trkpt lat="42.76594" lon="1.54774">
        <ele>1055</ele>
        <time>2024-07-08T16:33:38Z</time>
      </trkpt>
      <trkpt lat="42.76578" lon="1.54787">
        <ele>1056.4</ele>
        <time>2024-07-08T16:33:49Z</time>
      </trkpt>
      <trkpt lat="42.76577" lon="1.54788">
        <ele>1056.4</ele>
        <time>2024-07-08T16:33:50Z</time>
      </trkpt>
      <trkpt lat="42.7657" lon="1.54795">
        <ele>1056.2</ele>
        <time>2024-07-08T16:33:57Z</time>
      </trkpt>
      <trkpt lat="42.76564" lon="1.54803">
        <ele>1055.6</ele>
        <time>2024-07-08T16:34:03Z</time>
      </trkpt>
      <trkpt lat="42.76563" lon="1.54805">
        <ele>1055.4</ele>
        <time>2024-07-08T16:34:04Z</time>
      </trkpt>
      <trkpt lat="42.76556" lon="1.54816">
        <ele>1056.4</ele>
        <time>2024-07-08T16:34:10Z</time>
      </trkpt>
      <trkpt lat="42.76556" lon="1.54817">
        <ele>1058.2</ele>
        <time>2024-07-08T16:34:11Z</time>
      </trkpt>
      <trkpt lat="42.76557" lon="1.54827">
        <ele>1062.4</ele>
        <time>2024-07-08T16:34:17Z</time>
      </trkpt>
      <trkpt lat="42.76555" lon="1.5483">
        <ele>1063.2</ele>
        <time>2024-07-08T16:34:19Z</time>
      </trkpt>
      <trkpt lat="42.76553" lon="1.54843">
        <ele>1061.6</ele>
        <time>2024-07-08T16:34:27Z</time>
      </trkpt>
      <trkpt lat="42.76552" lon="1.54851">
        <ele>1058.6</ele>
        <time>2024-07-08T16:34:32Z</time>
      </trkpt>
      <trkpt lat="42.76552" lon="1.54854">
        <ele>1058</ele>
        <time>2024-07-08T16:34:33Z</time>
      </trkpt>
      <trkpt lat="42.76555" lon="1.54876">
        <ele>1052.6</ele>
        <time>2024-07-08T16:34:42Z</time>
      </trkpt>
      <trkpt lat="42.76557" lon="1.54894">
        <ele>1049.4</ele>
        <time>2024-07-08T16:34:49Z</time>
      </trkpt>
      <trkpt lat="42.76559" lon="1.54899">
        <ele>1046.8</ele>
        <time>2024-07-08T16:34:53Z</time>
      </trkpt>
      <trkpt lat="42.76559" lon="1.54904">
        <ele>1044.8</ele>
        <time>2024-07-08T16:34:56Z</time>
      </trkpt>
      <trkpt lat="42.76561" lon="1.54912">
        <ele>1043.6</ele>
        <time>2024-07-08T16:35:00Z</time>
      </trkpt>
      <trkpt lat="42.76564" lon="1.54916">
        <ele>1043.8</ele>
        <time>2024-07-08T16:35:03Z</time>
      </trkpt>
      <trkpt lat="42.76573" lon="1.54924">
        <ele>1046.6</ele>
        <time>2024-07-08T16:35:12Z</time>
      </trkpt>
      <trkpt lat="42.76575" lon="1.54923">
        <ele>1047.4</ele>
        <time>2024-07-08T16:35:14Z</time>
      </trkpt>
      <trkpt lat="42.76582" lon="1.54924">
        <ele>1049</ele>
        <time>2024-07-08T16:35:20Z</time>
      </trkpt>
      <trkpt lat="42.76583" lon="1.54925">
        <ele>1049.2</ele>
        <time>2024-07-08T16:35:21Z</time>
      </trkpt>
      <trkpt lat="42.76583" lon="1.54934">
        <ele>1047.8</ele>
        <time>2024-07-08T16:35:25Z</time>
      </trkpt>
      <trkpt lat="42.76581" lon="1.54953">
        <ele>1034.6</ele>
        <time>2024-07-08T16:35:33Z</time>
      </trkpt>
      <trkpt lat="42.76576" lon="1.5497">
        <ele>1028.8</ele>
        <time>2024-07-08T16:35:41Z</time>
      </trkpt>
      <trkpt lat="42.76573" lon="1.54987">
        <ele>1027</ele>
        <time>2024-07-08T16:35:48Z</time>
      </trkpt>
      <trkpt lat="42.76573" lon="1.54998">
        <ele>1023.6</ele>
        <time>2024-07-08T16:35:55Z</time>
      </trkpt>
      <trkpt lat="42.76573" lon="1.54999">
        <ele>1023</ele>
        <time>2024-07-08T16:35:56Z</time>
      </trkpt>
      <trkpt lat="42.76574" lon="1.55007">
        <ele>1021</ele>
        <time>2024-07-08T16:36:00Z</time>
      </trkpt>
      <trkpt lat="42.76573" lon="1.55015">
        <ele>1019.8</ele>
        <time>2024-07-08T16:36:04Z</time>
      </trkpt>
      <trkpt lat="42.76572" lon="1.55019">
        <ele>1019.4</ele>
        <time>2024-07-08T16:36:06Z</time>
      </trkpt>
      <trkpt lat="42.76573" lon="1.55021">
        <ele>1019.2</ele>
        <time>2024-07-08T16:36:07Z</time>
      </trkpt>
      <trkpt lat="42.76573" lon="1.55031">
        <ele>1019.4</ele>
        <time>2024-07-08T16:36:12Z</time>
      </trkpt>
      <trkpt lat="42.76574" lon="1.55037">
        <ele>1019.6</ele>
        <time>2024-07-08T16:36:15Z</time>
      </trkpt>
      <trkpt lat="42.76575" lon="1.55046">
        <ele>1019</ele>
        <time>2024-07-08T16:36:19Z</time>
      </trkpt>
      <trkpt lat="42.7657" lon="1.55072">
        <ele>1016.8</ele>
        <time>2024-07-08T16:36:29Z</time>
      </trkpt>
      <trkpt lat="42.76566" lon="1.55088">
        <ele>1013.6</ele>
        <time>2024-07-08T16:36:36Z</time>
      </trkpt>
      <trkpt lat="42.7656" lon="1.55108">
        <ele>1011.8</ele>
        <time>2024-07-08T16:36:44Z</time>
      </trkpt>
      <trkpt lat="42.76557" lon="1.55125">
        <ele>1010</ele>
        <time>2024-07-08T16:36:53Z</time>
      </trkpt>
      <trkpt lat="42.76558" lon="1.55142">
        <ele>1009</ele>
        <time>2024-07-08T16:37:01Z</time>
      </trkpt>
      <trkpt lat="42.76551" lon="1.55156">
        <ele>1007</ele>
        <time>2024-07-08T16:37:08Z</time>
      </trkpt>
      <trkpt lat="42.76547" lon="1.55164">
        <ele>1006.4</ele>
        <time>2024-07-08T16:37:12Z</time>
      </trkpt>
      <trkpt lat="42.76546" lon="1.5517">
        <ele>1006</ele>
        <time>2024-07-08T16:37:15Z</time>
      </trkpt>
      <trkpt lat="42.76547" lon="1.55179">
        <ele>1005</ele>
        <time>2024-07-08T16:37:21Z</time>
      </trkpt>
      <trkpt lat="42.76549" lon="1.55182">
        <ele>1004</ele>
        <time>2024-07-08T16:37:23Z</time>
      </trkpt>
      <trkpt lat="42.7655" lon="1.55188">
        <ele>998</ele>
        <time>2024-07-08T16:37:31Z</time>
      </trkpt>
      <trkpt lat="42.76558" lon="1.55184">
        <ele>996.6</ele>
        <time>2024-07-08T16:37:39Z</time>
      </trkpt>
      <trkpt lat="42.76559" lon="1.55184">
        <ele>996.8</ele>
        <time>2024-07-08T16:37:40Z</time>
      </trkpt>
      <trkpt lat="42.7656" lon="1.55181">
        <ele>997</ele>
        <time>2024-07-08T16:37:43Z</time>
      </trkpt>
      <trkpt lat="42.76563" lon="1.55176">
        <ele>996.6</ele>
        <time>2024-07-08T16:37:48Z</time>
      </trkpt>
      <trkpt lat="42.76562" lon="1.55173">
        <ele>996.2</ele>
        <time>2024-07-08T16:37:54Z</time>
      </trkpt>
      <trkpt lat="42.76561" lon="1.55172">
        <ele>996.8</ele>
        <time>2024-07-08T16:38:02Z</time>
      </trkpt>
      <trkpt lat="42.76562" lon="1.5517">
        <ele>996.8</ele>
        <time>2024-07-08T16:38:10Z</time>
      </trkpt>
      <trkpt lat="42.76565" lon="1.55168">
        <ele>996.8</ele>
        <time>2024-07-08T16:38:12Z</time>
      </trkpt>
      <trkpt lat="42.76569" lon="1.55167">
        <ele>996.4</ele>
        <time>2024-07-08T16:38:14Z</time>
      </trkpt>
      <trkpt lat="42.76572" lon="1.55168">
        <ele>996</ele>
        <time>2024-07-08T16:38:16Z</time>
      </trkpt>
      <trkpt lat="42.76573" lon="1.5517">
        <ele>995.6</ele>
        <time>2024-07-08T16:38:17Z</time>
      </trkpt>
      <trkpt lat="42.76575" lon="1.55176">
        <ele>993.8</ele>
        <time>2024-07-08T16:38:20Z</time>
      </trkpt>
      <trkpt lat="42.76576" lon="1.55185">
        <ele>988.6</ele>
        <time>2024-07-08T16:38:24Z</time>
      </trkpt>
      <trkpt lat="42.76579" lon="1.55198">
        <ele>980.6</ele>
        <time>2024-07-08T16:38:30Z</time>
      </trkpt>
      <trkpt lat="42.76579" lon="1.55202">
        <ele>979.2</ele>
        <time>2024-07-08T16:38:32Z</time>
      </trkpt>
      <trkpt lat="42.76579" lon="1.55226">
        <ele>975.2</ele>
        <time>2024-07-08T16:38:41Z</time>
      </trkpt>
      <trkpt lat="42.76571" lon="1.55243">
        <ele>973.8</ele>
        <time>2024-07-08T16:38:49Z</time>
      </trkpt>
      <trkpt lat="42.7657" lon="1.55245">
        <ele>973.4</ele>
        <time>2024-07-08T16:38:50Z</time>
      </trkpt>
      <trkpt lat="42.76571" lon="1.5525">
        <ele>971.6</ele>
        <time>2024-07-08T16:38:53Z</time>
      </trkpt>
      <trkpt lat="42.7657" lon="1.55255">
        <ele>970</ele>
        <time>2024-07-08T16:38:55Z</time>
      </trkpt>
      <trkpt lat="42.76568" lon="1.55258">
        <ele>968.4</ele>
        <time>2024-07-08T16:38:58Z</time>
      </trkpt>
      <trkpt lat="42.76566" lon="1.55263">
        <ele>967</ele>
        <time>2024-07-08T16:39:01Z</time>
      </trkpt>
      <trkpt lat="42.76565" lon="1.55272">
        <ele>966</ele>
        <time>2024-07-08T16:39:06Z</time>
      </trkpt>
      <trkpt lat="42.76566" lon="1.55274">
        <ele>965.8</ele>
        <time>2024-07-08T16:39:08Z</time>
      </trkpt>
      <trkpt lat="42.76567" lon="1.55274">
        <ele>966</ele>
        <time>2024-07-08T16:39:10Z</time>
      </trkpt>
      <trkpt lat="42.76568" lon="1.55273">
        <ele>966</ele>
        <time>2024-07-08T16:39:11Z</time>
      </trkpt>
      <trkpt lat="42.76581" lon="1.55265">
        <ele>969.2</ele>
        <time>2024-07-08T16:39:18Z</time>
      </trkpt>
      <trkpt lat="42.76594" lon="1.55262">
        <ele>970</ele>
        <time>2024-07-08T16:39:26Z</time>
      </trkpt>
      <trkpt lat="42.76595" lon="1.5526">
        <ele>969.4</ele>
        <time>2024-07-08T16:39:28Z</time>
      </trkpt>
      <trkpt lat="42.76607" lon="1.55248">
        <ele>963.8</ele>
        <time>2024-07-08T16:39:36Z</time>
      </trkpt>
      <trkpt lat="42.76615" lon="1.55235">
        <ele>957.2</ele>
        <time>2024-07-08T16:39:45Z</time>
      </trkpt>
      <trkpt lat="42.76618" lon="1.55232">
        <ele>956.2</ele>
        <time>2024-07-08T16:39:47Z</time>
      </trkpt>
      <trkpt lat="42.76624" lon="1.55227">
        <ele>954.8</ele>
        <time>2024-07-08T16:39:52Z</time>
      </trkpt>
      <trkpt lat="42.76628" lon="1.55229">
        <ele>954.2</ele>
        <time>2024-07-08T16:39:55Z</time>
      </trkpt>
      <trkpt lat="42.76629" lon="1.55232">
        <ele>953.6</ele>
        <time>2024-07-08T16:39:57Z</time>
      </trkpt>
      <trkpt lat="42.76634" lon="1.55249">
        <ele>950</ele>
        <time>2024-07-08T16:40:06Z</time>
      </trkpt>
      <trkpt lat="42.76637" lon="1.55263">
        <ele>946</ele>
        <time>2024-07-08T16:40:13Z</time>
      </trkpt>
      <trkpt lat="42.7664" lon="1.55274">
        <ele>942.8</ele>
        <time>2024-07-08T16:40:19Z</time>
      </trkpt>
      <trkpt lat="42.76631" lon="1.55297">
        <ele>935.4</ele>
        <time>2024-07-08T16:40:28Z</time>
      </trkpt>
      <trkpt lat="42.76628" lon="1.55301">
        <ele>932.6</ele>
        <time>2024-07-08T16:40:31Z</time>
      </trkpt>
      <trkpt lat="42.76627" lon="1.55298">
        <ele>930.8</ele>
        <time>2024-07-08T16:40:33Z</time>
      </trkpt>
      <trkpt lat="42.76636" lon="1.55297">
        <ele>925.4</ele>
        <time>2024-07-08T16:40:40Z</time>
      </trkpt>
      <trkpt lat="42.76638" lon="1.55298">
        <ele>925</ele>
        <time>2024-07-08T16:40:41Z</time>
      </trkpt>
      <trkpt lat="42.7664" lon="1.55298">
        <ele>924.4</ele>
        <time>2024-07-08T16:40:44Z</time>
      </trkpt>
      <trkpt lat="42.76642" lon="1.55301">
        <ele>924</ele>
        <time>2024-07-08T16:40:46Z</time>
      </trkpt>
      <trkpt lat="42.76644" lon="1.55315">
        <ele>922</ele>
        <time>2024-07-08T16:40:54Z</time>
      </trkpt>
      <trkpt lat="42.76643" lon="1.55317">
        <ele>921.8</ele>
        <time>2024-07-08T16:40:55Z</time>
      </trkpt>
      <trkpt lat="42.76643" lon="1.55325">
        <ele>920</ele>
        <time>2024-07-08T16:41:00Z</time>
      </trkpt>
      <trkpt lat="42.76646" lon="1.5533">
        <ele>917.2</ele>
        <time>2024-07-08T16:41:03Z</time>
      </trkpt>
      <trkpt lat="42.76646" lon="1.55334">
        <ele>916</ele>
        <time>2024-07-08T16:41:05Z</time>
      </trkpt>
      <trkpt lat="42.76644" lon="1.5534">
        <ele>915</ele>
        <time>2024-07-08T16:41:08Z</time>
      </trkpt>
      <trkpt lat="42.76644" lon="1.55347">
        <ele>914.4</ele>
        <time>2024-07-08T16:41:12Z</time>
      </trkpt>
      <trkpt lat="42.76644" lon="1.55359">
        <ele>912</ele>
        <time>2024-07-08T16:41:19Z</time>
      </trkpt>
      <trkpt lat="42.76636" lon="1.55375">
        <ele>907.4</ele>
        <time>2024-07-08T16:41:28Z</time>
      </trkpt>
      <trkpt lat="42.76636" lon="1.55376">
        <ele>907.2</ele>
        <time>2024-07-08T16:41:29Z</time>
      </trkpt>
      <trkpt lat="42.76637" lon="1.55377">
        <ele>907.4</ele>
        <time>2024-07-08T16:41:32Z</time>
      </trkpt>
      <trkpt lat="42.76648" lon="1.55376">
        <ele>907</ele>
        <time>2024-07-08T16:41:41Z</time>
      </trkpt>
      <trkpt lat="42.76664" lon="1.55376">
        <ele>904.2</ele>
        <time>2024-07-08T16:41:52Z</time>
      </trkpt>
      <trkpt lat="42.76676" lon="1.55373">
        <ele>901.2</ele>
        <time>2024-07-08T16:41:59Z</time>
      </trkpt>
      <trkpt lat="42.76683" lon="1.55368">
        <ele>898.2</ele>
        <time>2024-07-08T16:42:07Z</time>
      </trkpt>
      <trkpt lat="42.76686" lon="1.55363">
        <ele>894.2</ele>
        <time>2024-07-08T16:42:12Z</time>
      </trkpt>
      <trkpt lat="42.76688" lon="1.55365">
        <ele>892.4</ele>
        <time>2024-07-08T16:42:14Z</time>
      </trkpt>
      <trkpt lat="42.76691" lon="1.55367">
        <ele>891.4</ele>
        <time>2024-07-08T16:42:16Z</time>
      </trkpt>
      <trkpt lat="42.76691" lon="1.55372">
        <ele>890.4</ele>
        <time>2024-07-08T16:42:19Z</time>
      </trkpt>
      <trkpt lat="42.76684" lon="1.55386">
        <ele>887.4</ele>
        <time>2024-07-08T16:42:27Z</time>
      </trkpt>
      <trkpt lat="42.76687" lon="1.55386">
        <ele>886</ele>
        <time>2024-07-08T16:42:32Z</time>
      </trkpt>
      <trkpt lat="42.76692" lon="1.55394">
        <ele>884.6</ele>
        <time>2024-07-08T16:42:39Z</time>
      </trkpt>
      <trkpt lat="42.76691" lon="1.55397">
        <ele>883.4</ele>
        <time>2024-07-08T16:42:41Z</time>
      </trkpt>
      <trkpt lat="42.76687" lon="1.554">
        <ele>880.2</ele>
        <time>2024-07-08T16:42:44Z</time>
      </trkpt>
      <trkpt lat="42.76687" lon="1.55403">
        <ele>878.6</ele>
        <time>2024-07-08T16:42:46Z</time>
      </trkpt>
      <trkpt lat="42.76686" lon="1.55411">
        <ele>875.4</ele>
        <time>2024-07-08T16:42:50Z</time>
      </trkpt>
      <trkpt lat="42.76686" lon="1.55412">
        <ele>874.8</ele>
        <time>2024-07-08T16:42:51Z</time>
      </trkpt>
      <trkpt lat="42.76688" lon="1.55411">
        <ele>874</ele>
        <time>2024-07-08T16:42:54Z</time>
      </trkpt>
      <trkpt lat="42.76688" lon="1.5541">
        <ele>873.8</ele>
        <time>2024-07-08T16:42:55Z</time>
      </trkpt>
      <trkpt lat="42.76691" lon="1.55411">
        <ele>874.4</ele>
        <time>2024-07-08T16:43:00Z</time>
      </trkpt>
      <trkpt lat="42.7669" lon="1.55412">
        <ele>874.6</ele>
        <time>2024-07-08T16:43:02Z</time>
      </trkpt>
      <trkpt lat="42.76691" lon="1.55419">
        <ele>873.4</ele>
        <time>2024-07-08T16:43:05Z</time>
      </trkpt>
      <trkpt lat="42.76687" lon="1.55424">
        <ele>870.4</ele>
        <time>2024-07-08T16:43:09Z</time>
      </trkpt>
      <trkpt lat="42.76687" lon="1.55432">
        <ele>866.8</ele>
        <time>2024-07-08T16:43:13Z</time>
      </trkpt>
      <trkpt lat="42.76687" lon="1.55441">
        <ele>865.6</ele>
        <time>2024-07-08T16:43:16Z</time>
      </trkpt>
      <trkpt lat="42.76688" lon="1.55441">
        <ele>865.6</ele>
        <time>2024-07-08T16:43:22Z</time>
      </trkpt>
      <trkpt lat="42.76689" lon="1.55437">
        <ele>866</ele>
        <time>2024-07-08T16:43:25Z</time>
      </trkpt>
      <trkpt lat="42.76693" lon="1.55435">
        <ele>867.4</ele>
        <time>2024-07-08T16:43:29Z</time>
      </trkpt>
      <trkpt lat="42.76699" lon="1.55437">
        <ele>870.4</ele>
        <time>2024-07-08T16:43:36Z</time>
      </trkpt>
      <trkpt lat="42.76706" lon="1.55438">
        <ele>868.8</ele>
        <time>2024-07-08T16:43:44Z</time>
      </trkpt>
      <trkpt lat="42.76711" lon="1.55438">
        <ele>865.8</ele>
        <time>2024-07-08T16:43:50Z</time>
      </trkpt>
      <trkpt lat="42.76712" lon="1.55437">
        <ele>865</ele>
        <time>2024-07-08T16:43:51Z</time>
      </trkpt>
      <trkpt lat="42.76714" lon="1.55436">
        <ele>863.6</ele>
        <time>2024-07-08T16:43:53Z</time>
      </trkpt>
      <trkpt lat="42.76717" lon="1.55438">
        <ele>862.4</ele>
        <time>2024-07-08T16:43:55Z</time>
      </trkpt>
      <trkpt lat="42.76718" lon="1.55445">
        <ele>859.6</ele>
        <time>2024-07-08T16:44:00Z</time>
      </trkpt>
      <trkpt lat="42.76725" lon="1.55446">
        <ele>856.2</ele>
        <time>2024-07-08T16:44:06Z</time>
      </trkpt>
      <trkpt lat="42.76732" lon="1.5545">
        <ele>854.6</ele>
        <time>2024-07-08T16:44:11Z</time>
      </trkpt>
      <trkpt lat="42.76735" lon="1.55454">
        <ele>853.8</ele>
        <time>2024-07-08T16:44:13Z</time>
      </trkpt>
      <trkpt lat="42.76737" lon="1.55467">
        <ele>851.4</ele>
        <time>2024-07-08T16:44:20Z</time>
      </trkpt>
      <trkpt lat="42.76734" lon="1.5548">
        <ele>849.4</ele>
        <time>2024-07-08T16:44:26Z</time>
      </trkpt>
      <trkpt lat="42.76727" lon="1.55495">
        <ele>845</ele>
        <time>2024-07-08T16:44:35Z</time>
      </trkpt>
      <trkpt lat="42.76728" lon="1.55491">
        <ele>843.4</ele>
        <time>2024-07-08T16:44:39Z</time>
      </trkpt>
      <trkpt lat="42.76729" lon="1.55491">
        <ele>843.2</ele>
        <time>2024-07-08T16:44:40Z</time>
      </trkpt>
      <trkpt lat="42.76732" lon="1.55488">
        <ele>842.4</ele>
        <time>2024-07-08T16:44:43Z</time>
      </trkpt>
      <trkpt lat="42.76733" lon="1.55487">
        <ele>841.8</ele>
        <time>2024-07-08T16:44:45Z</time>
      </trkpt>
      <trkpt lat="42.76738" lon="1.55489">
        <ele>840.2</ele>
        <time>2024-07-08T16:44:49Z</time>
      </trkpt>
      <trkpt lat="42.76737" lon="1.55492">
        <ele>839.4</ele>
        <time>2024-07-08T16:44:51Z</time>
      </trkpt>
      <trkpt lat="42.76737" lon="1.55494">
        <ele>839</ele>
        <time>2024-07-08T16:44:52Z</time>
      </trkpt>
      <trkpt lat="42.76737" lon="1.55501">
        <ele>837</ele>
        <time>2024-07-08T16:44:58Z</time>
      </trkpt>
      <trkpt lat="42.76737" lon="1.55503">
        <ele>836.6</ele>
        <time>2024-07-08T16:44:59Z</time>
      </trkpt>
      <trkpt lat="42.76737" lon="1.55513">
        <ele>835</ele>
        <time>2024-07-08T16:45:04Z</time>
      </trkpt>
      <trkpt lat="42.76729" lon="1.55524">
        <ele>832.8</ele>
        <time>2024-07-08T16:45:10Z</time>
      </trkpt>
      <trkpt lat="42.76727" lon="1.55527">
        <ele>831.6</ele>
        <time>2024-07-08T16:45:12Z</time>
      </trkpt>
      <trkpt lat="42.76724" lon="1.55532">
        <ele>828.6</ele>
        <time>2024-07-08T16:45:16Z</time>
      </trkpt>
      <trkpt lat="42.76727" lon="1.55531">
        <ele>826.8</ele>
        <time>2024-07-08T16:45:21Z</time>
      </trkpt>
      <trkpt lat="42.76729" lon="1.55534">
        <ele>827</ele>
        <time>2024-07-08T16:45:23Z</time>
      </trkpt>
      <trkpt lat="42.76734" lon="1.55542">
        <ele>827.2</ele>
        <time>2024-07-08T16:45:27Z</time>
      </trkpt>
      <trkpt lat="42.76735" lon="1.55564">
        <ele>817.8</ele>
        <time>2024-07-08T16:45:37Z</time>
      </trkpt>
      <trkpt lat="42.76731" lon="1.55582">
        <ele>806.8</ele>
        <time>2024-07-08T16:45:46Z</time>
      </trkpt>
      <trkpt lat="42.76729" lon="1.55583">
        <ele>806</ele>
        <time>2024-07-08T16:45:49Z</time>
      </trkpt>
      <trkpt lat="42.76731" lon="1.55587">
        <ele>805.8</ele>
        <time>2024-07-08T16:45:52Z</time>
      </trkpt>
      <trkpt lat="42.76731" lon="1.55592">
        <ele>806.2</ele>
        <time>2024-07-08T16:45:55Z</time>
      </trkpt>
      <trkpt lat="42.7673" lon="1.55595">
        <ele>806.4</ele>
        <time>2024-07-08T16:45:57Z</time>
      </trkpt>
      <trkpt lat="42.76729" lon="1.55601">
        <ele>804.8</ele>
        <time>2024-07-08T16:46:01Z</time>
      </trkpt>
      <trkpt lat="42.76731" lon="1.55609">
        <ele>803</ele>
        <time>2024-07-08T16:46:05Z</time>
      </trkpt>
      <trkpt lat="42.7673" lon="1.55622">
        <ele>800.4</ele>
        <time>2024-07-08T16:46:12Z</time>
      </trkpt>
      <trkpt lat="42.76726" lon="1.5564">
        <ele>795.6</ele>
        <time>2024-07-08T16:46:19Z</time>
      </trkpt>
      <trkpt lat="42.76725" lon="1.5565">
        <ele>791.2</ele>
        <time>2024-07-08T16:46:25Z</time>
      </trkpt>
      <trkpt lat="42.76722" lon="1.55669">
        <ele>790.4</ele>
        <time>2024-07-08T16:46:34Z</time>
      </trkpt>
      <trkpt lat="42.76718" lon="1.55686">
        <ele>787.8</ele>
        <time>2024-07-08T16:46:42Z</time>
      </trkpt>
      <trkpt lat="42.76719" lon="1.55689">
        <ele>786.8</ele>
        <time>2024-07-08T16:46:44Z</time>
      </trkpt>
      <trkpt lat="42.76718" lon="1.55691">
        <ele>786.4</ele>
        <time>2024-07-08T16:46:45Z</time>
      </trkpt>
      <trkpt lat="42.76715" lon="1.557">
        <ele>785</ele>
        <time>2024-07-08T16:46:50Z</time>
      </trkpt>
      <trkpt lat="42.76713" lon="1.55719">
        <ele>783.6</ele>
        <time>2024-07-08T16:46:59Z</time>
      </trkpt>
      <trkpt lat="42.76704" lon="1.5574">
        <ele>782.4</ele>
        <time>2024-07-08T16:47:10Z</time>
      </trkpt>
      <trkpt lat="42.767" lon="1.55753">
        <ele>781.6</ele>
        <time>2024-07-08T16:47:17Z</time>
      </trkpt>
      <trkpt lat="42.76702" lon="1.55763">
        <ele>780.2</ele>
        <time>2024-07-08T16:47:23Z</time>
      </trkpt>
      <trkpt lat="42.76704" lon="1.55777">
        <ele>775.2</ele>
        <time>2024-07-08T16:47:32Z</time>
      </trkpt>
      <trkpt lat="42.76702" lon="1.55796">
        <ele>770.2</ele>
        <time>2024-07-08T16:47:40Z</time>
      </trkpt>
      <trkpt lat="42.767" lon="1.5581">
        <ele>766.4</ele>
        <time>2024-07-08T16:47:49Z</time>
      </trkpt>
      <trkpt lat="42.76696" lon="1.55836">
        <ele>764.8</ele>
        <time>2024-07-08T16:48:01Z</time>
      </trkpt>
      <trkpt lat="42.76695" lon="1.5584">
        <ele>764.6</ele>
        <time>2024-07-08T16:48:03Z</time>
      </trkpt>
      <trkpt lat="42.76689" lon="1.55864">
        <ele>762.2</ele>
        <time>2024-07-08T16:48:15Z</time>
      </trkpt>
      <trkpt lat="42.76686" lon="1.55871">
        <ele>761.8</ele>
        <time>2024-07-08T16:48:18Z</time>
      </trkpt>
      <trkpt lat="42.76678" lon="1.55894">
        <ele>758.4</ele>
        <time>2024-07-08T16:48:30Z</time>
      </trkpt>
      <trkpt lat="42.76674" lon="1.55901">
        <ele>758.2</ele>
        <time>2024-07-08T16:48:34Z</time>
      </trkpt>
      <trkpt lat="42.76658" lon="1.55913">
        <ele>757.6</ele>
        <time>2024-07-08T16:48:45Z</time>
      </trkpt>
      <trkpt lat="42.76644" lon="1.55918">
        <ele>757</ele>
        <time>2024-07-08T16:48:55Z</time>
      </trkpt>
      <trkpt lat="42.7663" lon="1.55925">
        <ele>755.8</ele>
        <time>2024-07-08T16:49:05Z</time>
      </trkpt>
      <trkpt lat="42.76617" lon="1.55938">
        <ele>756</ele>
        <time>2024-07-08T16:49:16Z</time>
      </trkpt>
      <trkpt lat="42.76609" lon="1.55958">
        <ele>754</ele>
        <time>2024-07-08T16:49:28Z</time>
      </trkpt>
      <trkpt lat="42.76601" lon="1.55981">
        <ele>750.6</ele>
        <time>2024-07-08T16:49:41Z</time>
      </trkpt>
      <trkpt lat="42.766" lon="1.55983">
        <ele>750.4</ele>
        <time>2024-07-08T16:49:42Z</time>
      </trkpt>
      <trkpt lat="42.76592" lon="1.56004">
        <ele>748.2</ele>
        <time>2024-07-08T16:49:54Z</time>
      </trkpt>
      <trkpt lat="42.7659" lon="1.56009">
        <ele>747.8</ele>
        <time>2024-07-08T16:49:57Z</time>
      </trkpt>
      <trkpt lat="42.76582" lon="1.56025">
        <ele>746.2</ele>
        <time>2024-07-08T16:50:07Z</time>
      </trkpt>
      <trkpt lat="42.76574" lon="1.56039">
        <ele>745.2</ele>
        <time>2024-07-08T16:50:17Z</time>
      </trkpt>
      <trkpt lat="42.76566" lon="1.5606">
        <ele>744.4</ele>
        <time>2024-07-08T16:50:30Z</time>
      </trkpt>
      <trkpt lat="42.76559" lon="1.56083">
        <ele>743.8</ele>
        <time>2024-07-08T16:50:42Z</time>
      </trkpt>
      <trkpt lat="42.76558" lon="1.56085">
        <ele>744</ele>
        <time>2024-07-08T16:50:43Z</time>
      </trkpt>
      <trkpt lat="42.76552" lon="1.56103">
        <ele>743.8</ele>
        <time>2024-07-08T16:50:54Z</time>
      </trkpt>
      <trkpt lat="42.76545" lon="1.56123">
        <ele>742.8</ele>
        <time>2024-07-08T16:51:05Z</time>
      </trkpt>
      <trkpt lat="42.76538" lon="1.56134">
        <ele>742.6</ele>
        <time>2024-07-08T16:51:13Z</time>
      </trkpt>
      <trkpt lat="42.76526" lon="1.56148">
        <ele>741.2</ele>
        <time>2024-07-08T16:51:25Z</time>
      </trkpt>
      <trkpt lat="42.76525" lon="1.5615">
        <ele>741.4</ele>
        <time>2024-07-08T16:51:31Z</time>
      </trkpt>
      <trkpt lat="42.76525" lon="1.56151">
        <ele>741.6</ele>
        <time>2024-07-08T16:51:36Z</time>
      </trkpt>
      <trkpt lat="42.76525" lon="1.56151">
        <ele>741.8</ele>
        <time>2024-07-08T16:51:42Z</time>
      </trkpt>
      <trkpt lat="42.76523" lon="1.56152">
        <ele>741.6</ele>
        <time>2024-07-08T16:51:50Z</time>
      </trkpt>
      <trkpt lat="42.76513" lon="1.56163">
        <ele>742.2</ele>
        <time>2024-07-08T16:51:57Z</time>
      </trkpt>
      <trkpt lat="42.76499" lon="1.56177">
        <ele>745</ele>
        <time>2024-07-08T16:52:06Z</time>
      </trkpt>
      <trkpt lat="42.76489" lon="1.56188">
        <ele>744.2</ele>
        <time>2024-07-08T16:52:16Z</time>
      </trkpt>
      <trkpt lat="42.76479" lon="1.56194">
        <ele>743.4</ele>
        <time>2024-07-08T16:52:25Z</time>
      </trkpt>
      <trkpt lat="42.7647" lon="1.56203">
        <ele>743</ele>
        <time>2024-07-08T16:52:33Z</time>
      </trkpt>
      <trkpt lat="42.7646" lon="1.56209">
        <ele>745.8</ele>
        <time>2024-07-08T16:52:42Z</time>
      </trkpt>
      <trkpt lat="42.76447" lon="1.56223">
        <ele>747</ele>
        <time>2024-07-08T16:52:53Z</time>
      </trkpt>
      <trkpt lat="42.76434" lon="1.56237">
        <ele>748</ele>
        <time>2024-07-08T16:53:05Z</time>
      </trkpt>
      <trkpt lat="42.76429" lon="1.56245">
        <ele>748.8</ele>
        <time>2024-07-08T16:53:13Z</time>
      </trkpt>
      <trkpt lat="42.76438" lon="1.56255">
        <ele>747.8</ele>
        <time>2024-07-08T16:53:24Z</time>
      </trkpt>
      <trkpt lat="42.76447" lon="1.56265">
        <ele>747.4</ele>
        <time>2024-07-08T16:53:33Z</time>
      </trkpt>
      <trkpt lat="42.76452" lon="1.56279">
        <ele>747</ele>
        <time>2024-07-08T16:53:42Z</time>
      </trkpt>
      <trkpt lat="42.76457" lon="1.56295">
        <ele>745.6</ele>
        <time>2024-07-08T16:53:51Z</time>
      </trkpt>
      <trkpt lat="42.76464" lon="1.56317">
        <ele>746.8</ele>
        <time>2024-07-08T16:54:03Z</time>
      </trkpt>
      <trkpt lat="42.76467" lon="1.56331">
        <ele>748</ele>
        <time>2024-07-08T16:54:12Z</time>
      </trkpt>
      <trkpt lat="42.76469" lon="1.56347">
        <ele>748.6</ele>
        <time>2024-07-08T16:54:22Z</time>
      </trkpt>
      <trkpt lat="42.76472" lon="1.5636">
        <ele>748.2</ele>
        <time>2024-07-08T16:54:30Z</time>
      </trkpt>
      <trkpt lat="42.76474" lon="1.56373">
        <ele>747</ele>
        <time>2024-07-08T16:54:37Z</time>
      </trkpt>
      <trkpt lat="42.76478" lon="1.56386">
        <ele>746.6</ele>
        <time>2024-07-08T16:54:45Z</time>
      </trkpt>
      <trkpt lat="42.76482" lon="1.56403">
        <ele>746.2</ele>
        <time>2024-07-08T16:54:55Z</time>
      </trkpt>
      <trkpt lat="42.76486" lon="1.56421">
        <ele>748.8</ele>
        <time>2024-07-08T16:55:05Z</time>
      </trkpt>
      <trkpt lat="42.76489" lon="1.56433">
        <ele>748.4</ele>
        <time>2024-07-08T16:55:12Z</time>
      </trkpt>
      <trkpt lat="42.76493" lon="1.56446">
        <ele>745.6</ele>
        <time>2024-07-08T16:55:21Z</time>
      </trkpt>
      <trkpt lat="42.76505" lon="1.56461">
        <ele>744.8</ele>
        <time>2024-07-08T16:55:33Z</time>
      </trkpt>
      <trkpt lat="42.76514" lon="1.56476">
        <ele>745.8</ele>
        <time>2024-07-08T16:55:44Z</time>
      </trkpt>
      <trkpt lat="42.76518" lon="1.56492">
        <ele>747.8</ele>
        <time>2024-07-08T16:55:54Z</time>
      </trkpt>
      <trkpt lat="42.76519" lon="1.56509">
        <ele>749.8</ele>
        <time>2024-07-08T16:56:03Z</time>
      </trkpt>
      <trkpt lat="42.76521" lon="1.56522">
        <ele>750.2</ele>
        <time>2024-07-08T16:56:11Z</time>
      </trkpt>
      <trkpt lat="42.76522" lon="1.56532">
        <ele>751</ele>
        <time>2024-07-08T16:56:17Z</time>
      </trkpt>
      <trkpt lat="42.76522" lon="1.56534">
        <ele>751.4</ele>
        <time>2024-07-08T16:56:18Z</time>
      </trkpt>
      <trkpt lat="42.76522" lon="1.5654">
        <ele>752.6</ele>
        <time>2024-07-08T16:56:23Z</time>
      </trkpt>
      <trkpt lat="42.76523" lon="1.56543">
        <ele>752.2</ele>
        <time>2024-07-08T16:56:28Z</time>
      </trkpt>
      <trkpt lat="42.76526" lon="1.56553">
        <ele>751.6</ele>
        <time>2024-07-08T16:56:35Z</time>
      </trkpt>
      <trkpt lat="42.76529" lon="1.56559">
        <ele>751.4</ele>
        <time>2024-07-08T16:56:41Z</time>
      </trkpt>
      <trkpt lat="42.76529" lon="1.5656">
        <ele>751.4</ele>
        <time>2024-07-08T16:56:48Z</time>
      </trkpt>
      <trkpt lat="42.76528" lon="1.56556">
        <ele>751.4</ele>
        <time>2024-07-08T16:56:56Z</time>
      </trkpt>
      <trkpt lat="42.76527" lon="1.5656">
        <ele>751.4</ele>
        <time>2024-07-08T16:57:03Z</time>
      </trkpt>
      <trkpt lat="42.76527" lon="1.56562">
        <ele>752.6</ele>
        <time>2024-07-08T16:57:15Z</time>
      </trkpt>
      <trkpt lat="42.76526" lon="1.5656">
        <ele>753.4</ele>
        <time>2024-07-08T16:59:12Z</time>
      </trkpt>
      <trkpt lat="42.76523" lon="1.56559">
        <ele>752.4</ele>
        <time>2024-07-08T16:59:18Z</time>
      </trkpt>
      <trkpt lat="42.76531" lon="1.56565">
        <ele>753.6</ele>
        <time>2024-07-08T16:59:27Z</time>
      </trkpt>
      <trkpt lat="42.76534" lon="1.56566">
        <ele>755.2</ele>
        <time>2024-07-08T16:59:31Z</time>
      </trkpt>
      <trkpt lat="42.76536" lon="1.56568">
        <ele>756</ele>
        <time>2024-07-08T16:59:34Z</time>
      </trkpt>
      <trkpt lat="42.76536" lon="1.56568">
        <ele>756.2</ele>
        <time>2024-07-08T16:59:35Z</time>
      </trkpt>
      <trkpt lat="42.76539" lon="1.56561">
        <ele>756.2</ele>
        <time>2024-07-08T16:59:40Z</time>
      </trkpt>
      <trkpt lat="42.76544" lon="1.56557">
        <ele>756.6</ele>
        <time>2024-07-08T16:59:46Z</time>
      </trkpt>
      <trkpt lat="42.76545" lon="1.56562">
        <ele>757.2</ele>
        <time>2024-07-08T16:59:55Z</time>
      </trkpt>
      <trkpt lat="42.76541" lon="1.56571">
        <ele>757</ele>
        <time>2024-07-08T17:00:05Z</time>
      </trkpt>
      <trkpt lat="42.76543" lon="1.56575">
        <ele>756.4</ele>
        <time>2024-07-08T17:00:10Z</time>
      </trkpt>
      <trkpt lat="42.76541" lon="1.56583">
        <ele>756.2</ele>
        <time>2024-07-08T17:00:15Z</time>
      </trkpt>
      <trkpt lat="42.7654" lon="1.56586">
        <ele>756</ele>
        <time>2024-07-08T17:00:19Z</time>
      </trkpt>
      <trkpt lat="42.76539" lon="1.5659">
        <ele>755.8</ele>
        <time>2024-07-08T17:00:22Z</time>
      </trkpt>
      <trkpt lat="42.76539" lon="1.56594">
        <ele>755.6</ele>
        <time>2024-07-08T17:00:26Z</time>
      </trkpt>
      <trkpt lat="42.76536" lon="1.56593">
        <ele>755.4</ele>
        <time>2024-07-08T17:00:33Z</time>
      </trkpt>
      <trkpt lat="42.76533" lon="1.56588">
        <ele>755</ele>
        <time>2024-07-08T17:00:36Z</time>
      </trkpt>
      <trkpt lat="42.76532" lon="1.56581">
        <ele>754.2</ele>
        <time>2024-07-08T17:00:38Z</time>
      </trkpt>
      <trkpt lat="42.76528" lon="1.56569">
        <ele>752</ele>
        <time>2024-07-08T17:00:42Z</time>
      </trkpt>
      <trkpt lat="42.76524" lon="1.56544">
        <ele>748.4</ele>
        <time>2024-07-08T17:00:52Z</time>
      </trkpt>
      <trkpt lat="42.76525" lon="1.56543">
        <ele>748</ele>
        <time>2024-07-08T17:00:53Z</time>
      </trkpt>
      <trkpt lat="42.7653" lon="1.56541">
        <ele>747.4</ele>
        <time>2024-07-08T17:00:57Z</time>
      </trkpt>
      <trkpt lat="42.76538" lon="1.56537">
        <ele>748.8</ele>
        <time>2024-07-08T17:01:03Z</time>
      </trkpt>
      <trkpt lat="42.76539" lon="1.56535">
        <ele>749</ele>
        <time>2024-07-08T17:01:04Z</time>
      </trkpt>
      <trkpt lat="42.76546" lon="1.56529">
        <ele>749.4</ele>
        <time>2024-07-08T17:01:10Z</time>
      </trkpt>
      <trkpt lat="42.76553" lon="1.56526">
        <ele>748.6</ele>
        <time>2024-07-08T17:01:16Z</time>
      </trkpt>
      <trkpt lat="42.76557" lon="1.56527">
        <ele>748.8</ele>
        <time>2024-07-08T17:01:18Z</time>
      </trkpt>
      <trkpt lat="42.76568" lon="1.56529">
        <ele>751</ele>
        <time>2024-07-08T17:01:25Z</time>
      </trkpt>
      <trkpt lat="42.76582" lon="1.56528">
        <ele>752.4</ele>
        <time>2024-07-08T17:01:35Z</time>
      </trkpt>
      <trkpt lat="42.76586" lon="1.56526">
        <ele>751.8</ele>
        <time>2024-07-08T17:01:41Z</time>
      </trkpt>
      <trkpt lat="42.76594" lon="1.56524">
        <ele>751.2</ele>
        <time>2024-07-08T17:01:47Z</time>
      </trkpt>
      <trkpt lat="42.76609" lon="1.56523">
        <ele>752</ele>
        <time>2024-07-08T17:01:58Z</time>
      </trkpt>
      <trkpt lat="42.76624" lon="1.56521">
        <ele>752.2</ele>
        <time>2024-07-08T17:02:09Z</time>
      </trkpt>
      <trkpt lat="42.76634" lon="1.5652">
        <ele>752.2</ele>
        <time>2024-07-08T17:02:16Z</time>
      </trkpt>
      <trkpt lat="42.76645" lon="1.56518">
        <ele>754</ele>
        <time>2024-07-08T17:02:25Z</time>
      </trkpt>
      <trkpt lat="42.76648" lon="1.56518">
        <ele>754.6</ele>
        <time>2024-07-08T17:02:28Z</time>
      </trkpt>
      <trkpt lat="42.76649" lon="1.56518">
        <ele>755.4</ele>
        <time>2024-07-08T17:02:31Z</time>
      </trkpt>
      <trkpt lat="42.76648" lon="1.56517">
        <ele>759</ele>
        <time>2024-07-08T17:02:45Z</time>
      </trkpt>
      <trkpt lat="42.76642" lon="1.56519">
        <ele>759.4</ele>
        <time>2024-07-08T17:02:50Z</time>
      </trkpt>
      <trkpt lat="42.76628" lon="1.56521">
        <ele>761.6</ele>
        <time>2024-07-08T17:02:59Z</time>
      </trkpt>
      <trkpt lat="42.76617" lon="1.56523">
        <ele>761.2</ele>
        <time>2024-07-08T17:03:06Z</time>
      </trkpt>
      <trkpt lat="42.76606" lon="1.56524">
        <ele>758.2</ele>
        <time>2024-07-08T17:03:14Z</time>
      </trkpt>
      <trkpt lat="42.76596" lon="1.56528">
        <ele>756.6</ele>
        <time>2024-07-08T17:03:22Z</time>
      </trkpt>
      <trkpt lat="42.76582" lon="1.56529">
        <ele>753.8</ele>
        <time>2024-07-08T17:03:31Z</time>
      </trkpt>
      <trkpt lat="42.76573" lon="1.56532">
        <ele>754</ele>
        <time>2024-07-08T17:03:39Z</time>
      </trkpt>
      <trkpt lat="42.76561" lon="1.56537">
        <ele>749.2</ele>
        <time>2024-07-08T17:03:48Z</time>
      </trkpt>
      <trkpt lat="42.76548" lon="1.56535">
        <ele>749</ele>
        <time>2024-07-08T17:03:57Z</time>
      </trkpt>
      <trkpt lat="42.76546" lon="1.56534">
        <ele>749.2</ele>
        <time>2024-07-08T17:03:58Z</time>
      </trkpt>
      <trkpt lat="42.76539" lon="1.56532">
        <ele>750.4</ele>
        <time>2024-07-08T17:04:02Z</time>
      </trkpt>
      <trkpt lat="42.76538" lon="1.56532">
        <ele>750.8</ele>
        <time>2024-07-08T17:04:03Z</time>
      </trkpt>
      <trkpt lat="42.76531" lon="1.56539">
        <ele>753.6</ele>
        <time>2024-07-08T17:04:09Z</time>
      </trkpt>
      <trkpt lat="42.76522" lon="1.5654">
        <ele>754</ele>
        <time>2024-07-08T17:04:15Z</time>
      </trkpt>
      <trkpt lat="42.7651" lon="1.56545">
        <ele>754.6</ele>
        <time>2024-07-08T17:04:24Z</time>
      </trkpt>
      <trkpt lat="42.76501" lon="1.56546">
        <ele>752</ele>
        <time>2024-07-08T17:04:32Z</time>
      </trkpt>
      <trkpt lat="42.7649" lon="1.56547">
        <ele>750.8</ele>
        <time>2024-07-08T17:04:40Z</time>
      </trkpt>
      <trkpt lat="42.7648" lon="1.5655">
        <ele>751.4</ele>
        <time>2024-07-08T17:04:50Z</time>
      </trkpt>
      <trkpt lat="42.76479" lon="1.56552">
        <ele>751.4</ele>
        <time>2024-07-08T17:04:52Z</time>
      </trkpt>
      <trkpt lat="42.76476" lon="1.56553">
        <ele>751.2</ele>
        <time>2024-07-08T17:04:54Z</time>
      </trkpt>
      <trkpt lat="42.76475" lon="1.56553">
        <ele>751.2</ele>
        <time>2024-07-08T17:04:55Z</time>
      </trkpt>
      <trkpt lat="42.76471" lon="1.56552">
        <ele>751</ele>
        <time>2024-07-08T17:04:58Z</time>
      </trkpt>
      <trkpt lat="42.7647" lon="1.56552">
        <ele>750.8</ele>
        <time>2024-07-08T17:04:59Z</time>
      </trkpt>
      <trkpt lat="42.76465" lon="1.56555">
        <ele>751.8</ele>
        <time>2024-07-08T17:05:02Z</time>
      </trkpt>
      <trkpt lat="42.76457" lon="1.56554">
        <ele>753.4</ele>
        <time>2024-07-08T17:05:06Z</time>
      </trkpt>
      <trkpt lat="42.76454" lon="1.56555">
        <ele>753.8</ele>
        <time>2024-07-08T17:05:08Z</time>
      </trkpt>
      <trkpt lat="42.76443" lon="1.56555">
        <ele>753</ele>
        <time>2024-07-08T17:05:16Z</time>
      </trkpt>
      <trkpt lat="42.76441" lon="1.56556">
        <ele>752.8</ele>
        <time>2024-07-08T17:05:18Z</time>
      </trkpt>
      <trkpt lat="42.76434" lon="1.5656">
        <ele>752.8</ele>
        <time>2024-07-08T17:05:22Z</time>
      </trkpt>
      <trkpt lat="42.76424" lon="1.56573">
        <ele>753.4</ele>
        <time>2024-07-08T17:05:28Z</time>
      </trkpt>
      <trkpt lat="42.76419" lon="1.56574">
        <ele>754</ele>
        <time>2024-07-08T17:05:31Z</time>
      </trkpt>
      <trkpt lat="42.76415" lon="1.56575">
        <ele>754.8</ele>
        <time>2024-07-08T17:05:34Z</time>
      </trkpt>
      <trkpt lat="42.76412" lon="1.56571">
        <ele>755.2</ele>
        <time>2024-07-08T17:05:37Z</time>
      </trkpt>
      <trkpt lat="42.7641" lon="1.5657">
        <ele>755.4</ele>
        <time>2024-07-08T17:05:40Z</time>
      </trkpt>
      <trkpt lat="42.76407" lon="1.56569">
        <ele>755.2</ele>
        <time>2024-07-08T17:05:42Z</time>
      </trkpt>
      <trkpt lat="42.76404" lon="1.56568">
        <ele>755.2</ele>
        <time>2024-07-08T17:05:44Z</time>
      </trkpt>
      <trkpt lat="42.76401" lon="1.56569">
        <ele>755.2</ele>
        <time>2024-07-08T17:05:46Z</time>
      </trkpt>
      <trkpt lat="42.76401" lon="1.5657">
        <ele>755.6</ele>
        <time>2024-07-08T17:05:47Z</time>
      </trkpt>
      <trkpt lat="42.764" lon="1.5657">
        <ele>756.2</ele>
        <time>2024-07-08T17:05:48Z</time>
      </trkpt>
      <trkpt lat="42.76397" lon="1.5657">
        <ele>758</ele>
        <time>2024-07-08T17:05:51Z</time>
      </trkpt>
      <trkpt lat="42.76395" lon="1.56567">
        <ele>758.4</ele>
        <time>2024-07-08T17:05:52Z</time>
      </trkpt>
      <trkpt lat="42.7639" lon="1.56565">
        <ele>759</ele>
        <time>2024-07-08T17:05:54Z</time>
      </trkpt>
      <trkpt lat="42.76388" lon="1.56565">
        <ele>759.2</ele>
        <time>2024-07-08T17:05:55Z</time>
      </trkpt>
      <trkpt lat="42.7638" lon="1.56568">
        <ele>759.8</ele>
        <time>2024-07-08T17:06:03Z</time>
      </trkpt>
      <trkpt lat="42.76377" lon="1.56569">
        <ele>759.2</ele>
        <time>2024-07-08T17:06:05Z</time>
      </trkpt>
      <trkpt lat="42.76375" lon="1.56571">
        <ele>758</ele>
        <time>2024-07-08T17:06:08Z</time>
      </trkpt>
      <trkpt lat="42.7636" lon="1.56578">
        <ele>756.2</ele>
        <time>2024-07-08T17:06:17Z</time>
      </trkpt>
      <trkpt lat="42.76349" lon="1.56581">
        <ele>755.4</ele>
        <time>2024-07-08T17:06:24Z</time>
      </trkpt>
      <trkpt lat="42.76337" lon="1.5658">
        <ele>757.8</ele>
        <time>2024-07-08T17:06:34Z</time>
      </trkpt>
      <trkpt lat="42.76328" lon="1.56574">
        <ele>761</ele>
        <time>2024-07-08T17:06:43Z</time>
      </trkpt>
      <trkpt lat="42.76324" lon="1.56574">
        <ele>759.6</ele>
        <time>2024-07-08T17:06:48Z</time>
      </trkpt>
      <trkpt lat="42.76324" lon="1.56575">
        <ele>759.2</ele>
        <time>2024-07-08T17:06:49Z</time>
      </trkpt>
      <trkpt lat="42.76324" lon="1.56576">
        <ele>758.2</ele>
        <time>2024-07-08T17:06:57Z</time>
      </trkpt>
      <trkpt lat="42.76325" lon="1.56576">
        <ele>758</ele>
        <time>2024-07-08T17:07:03Z</time>
      </trkpt>
      <trkpt lat="42.76325" lon="1.56575">
        <ele>761.2</ele>
        <time>2024-07-08T17:07:23Z</time>
      </trkpt>
      <trkpt lat="42.76323" lon="1.56578">
        <ele>765.4</ele>
        <time>2024-07-08T17:17:04Z</time>
      </trkpt>
      <trkpt lat="42.76324" lon="1.56579">
        <ele>756.6</ele>
        <time>2024-07-08T17:21:13Z</time>
      </trkpt>
      <trkpt lat="42.76337" lon="1.56576">
        <ele>759.8</ele>
        <time>2024-07-08T17:21:21Z</time>
      </trkpt>
      <trkpt lat="42.7635" lon="1.56575">
        <ele>761.4</ele>
        <time>2024-07-08T17:21:31Z</time>
      </trkpt>
      <trkpt lat="42.76352" lon="1.56575">
        <ele>762</ele>
        <time>2024-07-08T17:21:33Z</time>
      </trkpt>
      <trkpt lat="42.76354" lon="1.56578">
        <ele>762.4</ele>
        <time>2024-07-08T17:21:36Z</time>
      </trkpt>
      <trkpt lat="42.76356" lon="1.56578">
        <ele>762.4</ele>
        <time>2024-07-08T17:21:37Z</time>
      </trkpt>
      <trkpt lat="42.76362" lon="1.56574">
        <ele>762.6</ele>
        <time>2024-07-08T17:21:41Z</time>
      </trkpt>
      <trkpt lat="42.76368" lon="1.56572">
        <ele>763</ele>
        <time>2024-07-08T17:21:44Z</time>
      </trkpt>
      <trkpt lat="42.76368" lon="1.56573">
        <ele>763.8</ele>
        <time>2024-07-08T17:21:47Z</time>
      </trkpt>
      <trkpt lat="42.76365" lon="1.56574">
        <ele>765.8</ele>
        <time>2024-07-08T17:21:53Z</time>
      </trkpt>
      <trkpt lat="42.76362" lon="1.56574">
        <ele>766.2</ele>
        <time>2024-07-08T17:21:58Z</time>
      </trkpt>
      <trkpt lat="42.76355" lon="1.56575">
        <ele>765.4</ele>
        <time>2024-07-08T17:22:03Z</time>
      </trkpt>
      <trkpt lat="42.76344" lon="1.56578">
        <ele>763.6</ele>
        <time>2024-07-08T17:22:09Z</time>
      </trkpt>
      <trkpt lat="42.76333" lon="1.56578">
        <ele>762.8</ele>
        <time>2024-07-08T17:22:18Z</time>
      </trkpt>
      <trkpt lat="42.76321" lon="1.56577">
        <ele>759.6</ele>
        <time>2024-07-08T17:22:29Z</time>
      </trkpt>
      <trkpt lat="42.76323" lon="1.56575">
        <ele>757.6</ele>
        <time>2024-07-08T17:22:35Z</time>
      </trkpt>
      <trkpt lat="42.76334" lon="1.56573">
        <ele>756.6</ele>
        <time>2024-07-08T17:22:42Z</time>
      </trkpt>
      <trkpt lat="42.76346" lon="1.56574">
        <ele>755.4</ele>
        <time>2024-07-08T17:22:51Z</time>
      </trkpt>
      <trkpt lat="42.76352" lon="1.56573">
        <ele>758.4</ele>
        <time>2024-07-08T17:22:56Z</time>
      </trkpt>
      <trkpt lat="42.76353" lon="1.56573">
        <ele>760.8</ele>
        <time>2024-07-08T17:22:58Z</time>
      </trkpt>
      <trkpt lat="42.76353" lon="1.56573">
        <ele>761.8</ele>
        <time>2024-07-08T17:22:59Z</time>
      </trkpt>
      <trkpt lat="42.76354" lon="1.56574">
        <ele>762.6</ele>
        <time>2024-07-08T17:23:00Z</time>
      </trkpt>
      <trkpt lat="42.76358" lon="1.56577">
        <ele>764.6</ele>
        <time>2024-07-08T17:23:03Z</time>
      </trkpt>
      <trkpt lat="42.76365" lon="1.56577">
        <ele>765.4</ele>
        <time>2024-07-08T17:23:10Z</time>
      </trkpt>
      <trkpt lat="42.76368" lon="1.56576">
        <ele>764.8</ele>
        <time>2024-07-08T17:23:13Z</time>
      </trkpt>
      <trkpt lat="42.76374" lon="1.56574">
        <ele>764.4</ele>
        <time>2024-07-08T17:23:17Z</time>
      </trkpt>
      <trkpt lat="42.76379" lon="1.56573">
        <ele>765</ele>
        <time>2024-07-08T17:23:23Z</time>
      </trkpt>
      <trkpt lat="42.76382" lon="1.56571">
        <ele>765.4</ele>
        <time>2024-07-08T17:23:28Z</time>
      </trkpt>
      <trkpt lat="42.76384" lon="1.56571">
        <ele>766.2</ele>
        <time>2024-07-08T17:23:33Z</time>
      </trkpt>
      <trkpt lat="42.76385" lon="1.5657">
        <ele>767.2</ele>
        <time>2024-07-08T17:23:42Z</time>
      </trkpt>
      <trkpt lat="42.76384" lon="1.5657">
        <ele>767.4</ele>
        <time>2024-07-08T17:23:56Z</time>
      </trkpt>
      <trkpt lat="42.76382" lon="1.56569">
        <ele>768.4</ele>
        <time>2024-07-08T17:24:04Z</time>
      </trkpt>
      <trkpt lat="42.7638" lon="1.56567">
        <ele>769.2</ele>
        <time>2024-07-08T17:24:11Z</time>
      </trkpt>
      <trkpt lat="42.76373" lon="1.56568">
        <ele>769.2</ele>
        <time>2024-07-08T17:24:17Z</time>
      </trkpt>
      <trkpt lat="42.76367" lon="1.56566">
        <ele>768</ele>
        <time>2024-07-08T17:24:21Z</time>
      </trkpt>
      <trkpt lat="42.76365" lon="1.56568">
        <ele>767.2</ele>
        <time>2024-07-08T17:24:24Z</time>
      </trkpt>
      <trkpt lat="42.7636" lon="1.56569">
        <ele>767</ele>
        <time>2024-07-08T17:24:31Z</time>
      </trkpt>
      <trkpt lat="42.76359" lon="1.56569">
        <ele>767.2</ele>
        <time>2024-07-08T17:24:32Z</time>
      </trkpt>
      <trkpt lat="42.76355" lon="1.56569">
        <ele>767.8</ele>
        <time>2024-07-08T17:24:36Z</time>
      </trkpt>
      <trkpt lat="42.76353" lon="1.5657">
        <ele>767.8</ele>
        <time>2024-07-08T17:24:38Z</time>
      </trkpt>
      <trkpt lat="42.76347" lon="1.56572">
        <ele>767</ele>
        <time>2024-07-08T17:24:45Z</time>
      </trkpt>
      <trkpt lat="42.76345" lon="1.56573">
        <ele>766.8</ele>
        <time>2024-07-08T17:24:47Z</time>
      </trkpt>
      <trkpt lat="42.7634" lon="1.56572">
        <ele>767.2</ele>
        <time>2024-07-08T17:24:52Z</time>
      </trkpt>
      <trkpt lat="42.76333" lon="1.56575">
        <ele>767.8</ele>
        <time>2024-07-08T17:24:58Z</time>
      </trkpt>
      <trkpt lat="42.76323" lon="1.56575">
        <ele>762.6</ele>
        <time>2024-07-08T17:25:09Z</time>
      </trkpt>
      <trkpt lat="42.76322" lon="1.56575">
        <ele>761.8</ele>
        <time>2024-07-08T17:25:16Z</time>
      </trkpt>
      <trkpt lat="42.76323" lon="1.56575">
        <ele>760.8</ele>
        <time>2024-07-08T17:25:25Z</time>
      </trkpt>
      <trkpt lat="42.76322" lon="1.56574">
        <ele>761.4</ele>
        <time>2024-07-08T17:25:37Z</time>
      </trkpt>
      <trkpt lat="42.76322" lon="1.56576">
        <ele>762</ele>
        <time>2024-07-08T17:25:44Z</time>
      </trkpt>
      <trkpt lat="42.76321" lon="1.56576">
        <ele>760.6</ele>
        <time>2024-07-08T17:26:14Z</time>
      </trkpt>
      <trkpt lat="42.76326" lon="1.56575">
        <ele>757</ele>
        <time>2024-07-08T17:38:33Z</time>
      </trkpt>
      <trkpt lat="42.7633" lon="1.56574">
        <ele>757.4</ele>
        <time>2024-07-08T17:38:36Z</time>
      </trkpt>
    </trkseg>
  </trk>
</gpx>